<?xml version='1.0' encoding='UTF-8'?><gpx version="1.1" creator="JPX - https://github.com/jenetics/jpx" xmlns="http://www.topografix.com/GPX/1/1"><trk><trkseg><trkpt lat="44.037890184399004" lon="10.880304199381452"><ele>679.0</ele><time>2026-04-19T11:35:30.921Z</time></trkpt><trkpt lat="44.037828527597206" lon="10.880333536276222"><ele>679.0</ele><time>2026-04-19T11:35:37.921Z</time></trkpt><trkpt lat="44.0378942781565" lon="10.880424407528643"><ele>679.0</ele><time>2026-04-19T11:35:54.921Z</time></trkpt><trkpt lat="44.03790109671509" lon="10.88052427954935"><ele>679.0</ele><time>2026-04-19T11:35:56.921Z</time></trkpt><trkpt lat="44.03790316274348" lon="10.880645171147464"><ele>679.0</ele><time>2026-04-19T11:35:59.921Z</time></trkpt><trkpt lat="44.03792280033323" lon="10.88075015322167"><ele>679.0</ele><time>2026-04-19T11:36:02.921Z</time></trkpt><trkpt lat="44.03794851265104" lon="10.880885237429919"><ele>678.6666666666667</ele><time>2026-04-19T11:36:05.921Z</time></trkpt><trkpt lat="44.03794750923771" lon="10.88099020451758"><ele>678.3333333333334</ele><time>2026-04-19T11:36:06.921Z</time></trkpt><trkpt lat="44.0379589104015" lon="10.88111165552672"><ele>678.0</ele><time>2026-04-19T11:36:07.921Z</time></trkpt><trkpt lat="44.037963985932734" lon="10.881211751162388"><ele>677.6666666666666</ele><time>2026-04-19T11:36:08.921Z</time></trkpt><trkpt lat="44.03797185666" lon="10.881344280214373"><ele>677.3333333333333</ele><time>2026-04-19T11:36:10.921Z</time></trkpt><trkpt lat="44.03797565371632" lon="10.881477482503648"><ele>677.0</ele><time>2026-04-19T11:36:12.921Z</time></trkpt><trkpt lat="44.03797947702112" lon="10.881583391367917"><ele>677.0</ele><time>2026-04-19T11:36:13.921Z</time></trkpt><trkpt lat="44.03798648244097" lon="10.881691878482684"><ele>677.0</ele><time>2026-04-19T11:36:14.921Z</time></trkpt><trkpt lat="44.03800035858383" lon="10.881803695565585"><ele>677.0</ele><time>2026-04-19T11:36:15.921Z</time></trkpt><trkpt lat="44.03800392727267" lon="10.881895265921012"><ele>677.0</ele><time>2026-04-19T11:36:16.921Z</time></trkpt><trkpt lat="44.038005248722" lon="10.88198289746042"><ele>677.0</ele><time>2026-04-19T11:36:17.921Z</time></trkpt><trkpt lat="44.0380166796381" lon="10.882138387706819"><ele>677.0</ele><time>2026-04-19T11:36:19.921Z</time></trkpt><trkpt lat="44.03802825409726" lon="10.882234851409297"><ele>674.8</ele><time>2026-04-19T11:36:20.921Z</time></trkpt><trkpt lat="44.03805610423823" lon="10.882385789435292"><ele>672.6</ele><time>2026-04-19T11:36:22.921Z</time></trkpt><trkpt lat="44.03807818106673" lon="10.882519670963735"><ele>670.4</ele><time>2026-04-19T11:36:24.921Z</time></trkpt><trkpt lat="44.038099134702186" lon="10.882603460926987"><ele>668.1999999999999</ele><time>2026-04-19T11:36:26.921Z</time></trkpt><trkpt lat="44.03814796962635" lon="10.882722325216784"><ele>666.0</ele><time>2026-04-19T11:36:28.921Z</time></trkpt><trkpt lat="44.03820825276335" lon="10.88281190119218"><ele>665.0</ele><time>2026-04-19T11:36:29.921Z</time></trkpt><trkpt lat="44.03828332035478" lon="10.882913625156162"><ele>664.0</ele><time>2026-04-19T11:36:30.921Z</time></trkpt><trkpt lat="44.03836896116938" lon="10.883023170687672"><ele>663.0</ele><time>2026-04-19T11:36:31.921Z</time></trkpt><trkpt lat="44.038458109479386" lon="10.88315187036731"><ele>662.0</ele><time>2026-04-19T11:36:32.921Z</time></trkpt><trkpt lat="44.03855956110971" lon="10.883304969838246"><ele>661.5</ele><time>2026-04-19T11:36:33.921Z</time></trkpt><trkpt lat="44.038651747719534" lon="10.883442835769959"><ele>661.0</ele><time>2026-04-19T11:36:34.921Z</time></trkpt><trkpt lat="44.03874518920342" lon="10.883603803005172"><ele>660.5</ele><time>2026-04-19T11:36:35.921Z</time></trkpt><trkpt lat="44.03884406696177" lon="10.883769626268624"><ele>660.0</ele><time>2026-04-19T11:36:36.921Z</time></trkpt><trkpt lat="44.038948149530775" lon="10.883929574266192"><ele>660.0</ele><time>2026-04-19T11:36:37.921Z</time></trkpt><trkpt lat="44.039040637723346" lon="10.88407913795524"><ele>660.0</ele><time>2026-04-19T11:36:38.921Z</time></trkpt><trkpt lat="44.03912350364747" lon="10.884222025179895"><ele>660.0</ele><time>2026-04-19T11:36:39.921Z</time></trkpt><trkpt lat="44.03920756952541" lon="10.884336245322478"><ele>660.0</ele><time>2026-04-19T11:36:40.921Z</time></trkpt><trkpt lat="44.03928316379869" lon="10.88444370237056"><ele>659.8</ele><time>2026-04-19T11:36:41.921Z</time></trkpt><trkpt lat="44.039360670148966" lon="10.884545264412491"><ele>659.6</ele><time>2026-04-19T11:36:42.921Z</time></trkpt><trkpt lat="44.03944381377408" lon="10.884613146931988"><ele>659.4000000000001</ele><time>2026-04-19T11:36:43.921Z</time></trkpt><trkpt lat="44.03953079651202" lon="10.884662493586406"><ele>659.2</ele><time>2026-04-19T11:36:44.921Z</time></trkpt><trkpt lat="44.03961449995288" lon="10.884680881462794"><ele>659.0</ele><time>2026-04-19T11:36:45.921Z</time></trkpt><trkpt lat="44.03970820956012" lon="10.884691351490101"><ele>659.0</ele><time>2026-04-19T11:36:46.921Z</time></trkpt><trkpt lat="44.03980155015217" lon="10.884691736223557"><ele>659.0</ele><time>2026-04-19T11:36:47.921Z</time></trkpt><trkpt lat="44.0399129038208" lon="10.884658284297952"><ele>659.0</ele><time>2026-04-19T11:36:48.921Z</time></trkpt><trkpt lat="44.0400291422742" lon="10.884592699944903"><ele>659.0</ele><time>2026-04-19T11:36:49.921Z</time></trkpt><trkpt lat="44.04012362381965" lon="10.884568418865761"><ele>659.0</ele><time>2026-04-19T11:36:50.921Z</time></trkpt><trkpt lat="44.04019915162643" lon="10.884581802164247"><ele>658.8000000000001</ele><time>2026-04-19T11:36:51.921Z</time></trkpt><trkpt lat="44.04026571015379" lon="10.88463952000491"><ele>658.6</ele><time>2026-04-19T11:36:52.921Z</time></trkpt><trkpt lat="44.04030833438088" lon="10.884783120931896"><ele>658.4</ele><time>2026-04-19T11:36:53.921Z</time></trkpt><trkpt lat="44.04030784695562" lon="10.884953385550766"><ele>658.2</ele><time>2026-04-19T11:36:54.921Z</time></trkpt><trkpt lat="44.04030107811396" lon="10.885129951502496"><ele>658.0</ele><time>2026-04-19T11:36:55.921Z</time></trkpt><trkpt lat="44.04031318355349" lon="10.885323855223142"><ele>658.0</ele><time>2026-04-19T11:36:56.921Z</time></trkpt><trkpt lat="44.040339998210634" lon="10.885511789149467"><ele>658.0</ele><time>2026-04-19T11:36:57.921Z</time></trkpt><trkpt lat="44.040388362295985" lon="10.885679565313374"><ele>658.0</ele><time>2026-04-19T11:36:58.921Z</time></trkpt><trkpt lat="44.04045027306071" lon="10.885820333708752"><ele>658.0</ele><time>2026-04-19T11:36:59.921Z</time></trkpt><trkpt lat="44.04054211685081" lon="10.885911727550099"><ele>659.25</ele><time>2026-04-19T11:37:00.921Z</time></trkpt><trkpt lat="44.04065432145295" lon="10.885979188609344"><ele>660.5</ele><time>2026-04-19T11:37:01.921Z</time></trkpt><trkpt lat="44.04080431659303" lon="10.886013738095393"><ele>661.75</ele><time>2026-04-19T11:37:02.921Z</time></trkpt><trkpt lat="44.040945471111804" lon="10.886061294712745"><ele>663.0</ele><time>2026-04-19T11:37:03.921Z</time></trkpt><trkpt lat="44.04111893735373" lon="10.886122038234602"><ele>663.0</ele><time>2026-04-19T11:37:04.922Z</time></trkpt><trkpt lat="44.04128086602943" lon="10.886215789486553"><ele>663.0</ele><time>2026-04-19T11:37:05.922Z</time></trkpt><trkpt lat="44.04143140791166" lon="10.886330450914892"><ele>663.0</ele><time>2026-04-19T11:37:06.922Z</time></trkpt><trkpt lat="44.04156939646677" lon="10.88647507050478"><ele>662.3333333333334</ele><time>2026-04-19T11:37:07.922Z</time></trkpt><trkpt lat="44.04171031393537" lon="10.886640215342265"><ele>661.6666666666667</ele><time>2026-04-19T11:37:08.922Z</time></trkpt><trkpt lat="44.04183410632234" lon="10.886828644293832"><ele>661.0</ele><time>2026-04-19T11:37:09.922Z</time></trkpt><trkpt lat="44.0419523505537" lon="10.887019257817387"><ele>661.0</ele><time>2026-04-19T11:37:10.922Z</time></trkpt><trkpt lat="44.04204404011752" lon="10.8872288698385"><ele>661.0</ele><time>2026-04-19T11:37:11.921Z</time></trkpt><trkpt lat="44.0421444737544" lon="10.887425664121814"><ele>661.0</ele><time>2026-04-19T11:37:12.921Z</time></trkpt><trkpt lat="44.042247823079016" lon="10.887622827250523"><ele>661.0</ele><time>2026-04-19T11:37:13.921Z</time></trkpt><trkpt lat="44.04236940460658" lon="10.887817951832082"><ele>661.0</ele><time>2026-04-19T11:37:14.921Z</time></trkpt><trkpt lat="44.04245793461991" lon="10.888021077106337"><ele>661.0</ele><time>2026-04-19T11:37:15.921Z</time></trkpt><trkpt lat="44.04255190990976" lon="10.888202731730193"><ele>659.25</ele><time>2026-04-19T11:37:16.921Z</time></trkpt><trkpt lat="44.04263415858493" lon="10.888374397090521"><ele>657.5</ele><time>2026-04-19T11:37:17.921Z</time></trkpt><trkpt lat="44.042707816907054" lon="10.888547097575225"><ele>655.75</ele><time>2026-04-19T11:37:18.921Z</time></trkpt><trkpt lat="44.04275338429214" lon="10.888709586770116"><ele>654.0</ele><time>2026-04-19T11:37:19.921Z</time></trkpt><trkpt lat="44.042788572378626" lon="10.888883165768725"><ele>653.5</ele><time>2026-04-19T11:37:20.92Z</time></trkpt><trkpt lat="44.04282399048178" lon="10.889055155697015"><ele>653.0</ele><time>2026-04-19T11:37:21.921Z</time></trkpt><trkpt lat="44.04285323160597" lon="10.889224840045834"><ele>652.5</ele><time>2026-04-19T11:37:22.921Z</time></trkpt><trkpt lat="44.042874166575416" lon="10.889424276864801"><ele>652.0</ele><time>2026-04-19T11:37:23.921Z</time></trkpt><trkpt lat="44.0428719095914" lon="10.889618843288561"><ele>652.0</ele><time>2026-04-19T11:37:24.921Z</time></trkpt><trkpt lat="44.042843987308636" lon="10.889795003897405"><ele>652.0</ele><time>2026-04-19T11:37:25.921Z</time></trkpt><trkpt lat="44.04279838548517" lon="10.889984301161864"><ele>652.0</ele><time>2026-04-19T11:37:26.921Z</time></trkpt><trkpt lat="44.042748348805596" lon="10.890191910765084"><ele>652.0</ele><time>2026-04-19T11:37:27.921Z</time></trkpt><trkpt lat="44.042675626985705" lon="10.890375907747986"><ele>650.3333333333334</ele><time>2026-04-19T11:37:28.921Z</time></trkpt><trkpt lat="44.04258959496119" lon="10.890576954217808"><ele>648.6666666666666</ele><time>2026-04-19T11:37:29.921Z</time></trkpt><trkpt lat="44.04250616129828" lon="10.890767784386979"><ele>647.0</ele><time>2026-04-19T11:37:30.921Z</time></trkpt><trkpt lat="44.042427475173206" lon="10.890930798927744"><ele>647.0</ele><time>2026-04-19T11:37:31.921Z</time></trkpt><trkpt lat="44.04237296642714" lon="10.891071280711346"><ele>647.0</ele><time>2026-04-19T11:37:32.921Z</time></trkpt><trkpt lat="44.04234826649055" lon="10.891207585580307"><ele>647.0</ele><time>2026-04-19T11:37:33.921Z</time></trkpt><trkpt lat="44.04235797876659" lon="10.891371161678375"><ele>647.0</ele><time>2026-04-19T11:37:34.921Z</time></trkpt><trkpt lat="44.04237702745663" lon="10.891548854722398"><ele>647.0</ele><time>2026-04-19T11:37:35.921Z</time></trkpt><trkpt lat="44.042419873748166" lon="10.891744163351746"><ele>647.0</ele><time>2026-04-19T11:37:36.921Z</time></trkpt><trkpt lat="44.04249202499553" lon="10.891939184851617"><ele>647.0</ele><time>2026-04-19T11:37:37.921Z</time></trkpt><trkpt lat="44.04262638456146" lon="10.892055048069524"><ele>648.0</ele><time>2026-04-19T11:37:38.921Z</time></trkpt><trkpt lat="44.04276006608726" lon="10.892220965952067"><ele>649.0</ele><time>2026-04-19T11:37:39.921Z</time></trkpt><trkpt lat="44.04289857595655" lon="10.892393545385277"><ele>650.0</ele><time>2026-04-19T11:37:40.921Z</time></trkpt><trkpt lat="44.04303934039303" lon="10.892562259844057"><ele>650.6666666666666</ele><time>2026-04-19T11:37:41.921Z</time></trkpt><trkpt lat="44.043168486827874" lon="10.892753869298895"><ele>651.3333333333334</ele><time>2026-04-19T11:37:42.921Z</time></trkpt><trkpt lat="44.04329687333451" lon="10.89294953146061"><ele>652.0</ele><time>2026-04-19T11:37:43.921Z</time></trkpt><trkpt lat="44.04340397027568" lon="10.893159058341967"><ele>652.0</ele><time>2026-04-19T11:37:44.921Z</time></trkpt><trkpt lat="44.04352805957273" lon="10.893335757372217"><ele>652.0</ele><time>2026-04-19T11:37:45.921Z</time></trkpt><trkpt lat="44.043662816267656" lon="10.893498085727915"><ele>652.0</ele><time>2026-04-19T11:37:46.921Z</time></trkpt><trkpt lat="44.04380836390065" lon="10.893638480519442"><ele>651.0</ele><time>2026-04-19T11:37:47.921Z</time></trkpt><trkpt lat="44.043970645864185" lon="10.89377646851194"><ele>650.0</ele><time>2026-04-19T11:37:48.921Z</time></trkpt><trkpt lat="44.04411900307398" lon="10.893941885803189"><ele>649.0</ele><time>2026-04-19T11:37:49.921Z</time></trkpt><trkpt lat="44.04426284750551" lon="10.894134330308074"><ele>648.3333333333334</ele><time>2026-04-19T11:37:50.921Z</time></trkpt><trkpt lat="44.04439497375146" lon="10.894312956776018"><ele>647.6666666666666</ele><time>2026-04-19T11:37:51.921Z</time></trkpt><trkpt lat="44.04452011270556" lon="10.894481754869469"><ele>647.0</ele><time>2026-04-19T11:37:52.921Z</time></trkpt><trkpt lat="44.04463848681559" lon="10.89464898372891"><ele>647.0</ele><time>2026-04-19T11:37:53.921Z</time></trkpt><trkpt lat="44.044735335744065" lon="10.894802175069348"><ele>647.0</ele><time>2026-04-19T11:37:54.921Z</time></trkpt><trkpt lat="44.0448038995448" lon="10.89498058572207"><ele>647.0</ele><time>2026-04-19T11:37:55.921Z</time></trkpt><trkpt lat="44.0448564158284" lon="10.895183164417475"><ele>647.0</ele><time>2026-04-19T11:37:56.921Z</time></trkpt><trkpt lat="44.0449279014869" lon="10.895417429150267"><ele>648.3333333333333</ele><time>2026-04-19T11:37:57.921Z</time></trkpt><trkpt lat="44.0450284277281" lon="10.895629605650427"><ele>649.6666666666666</ele><time>2026-04-19T11:37:58.921Z</time></trkpt><trkpt lat="44.04512285855895" lon="10.895805269160723"><ele>651.0</ele><time>2026-04-19T11:37:59.921Z</time></trkpt><trkpt lat="44.04525197294768" lon="10.895959636798292"><ele>655.0</ele><time>2026-04-19T11:38:00.921Z</time></trkpt><trkpt lat="44.04541920191116" lon="10.896078645028965"><ele>659.0</ele><time>2026-04-19T11:38:01.921Z</time></trkpt><trkpt lat="44.04556921182163" lon="10.89620541138791"><ele>663.0</ele><time>2026-04-19T11:38:02.921Z</time></trkpt><trkpt lat="44.045713554226396" lon="10.89634902230488"><ele>658.3333333333334</ele><time>2026-04-19T11:38:03.921Z</time></trkpt><trkpt lat="44.04584417722462" lon="10.896508155464545"><ele>653.6666666666667</ele><time>2026-04-19T11:38:04.921Z</time></trkpt><trkpt lat="44.045961255611424" lon="10.896694900983006"><ele>649.0</ele><time>2026-04-19T11:38:05.921Z</time></trkpt><trkpt lat="44.04608278999173" lon="10.896896460871377"><ele>646.3333333333334</ele><time>2026-04-19T11:38:06.921Z</time></trkpt><trkpt lat="44.046180977936956" lon="10.897086504805952"><ele>643.6666666666666</ele><time>2026-04-19T11:38:07.921Z</time></trkpt><trkpt lat="44.04625363794465" lon="10.897282052719639"><ele>641.0</ele><time>2026-04-19T11:38:08.921Z</time></trkpt><trkpt lat="44.04638821301357" lon="10.897444206600058"><ele>641.3333333333333</ele><time>2026-04-19T11:38:09.921Z</time></trkpt><trkpt lat="44.04641108943214" lon="10.897683817050822"><ele>641.6666666666666</ele><time>2026-04-19T11:38:10.921Z</time></trkpt><trkpt lat="44.04643494474099" lon="10.89790947003445"><ele>642.0</ele><time>2026-04-19T11:38:11.921Z</time></trkpt><trkpt lat="44.04643400256619" lon="10.898133117133927"><ele>642.0</ele><time>2026-04-19T11:38:12.921Z</time></trkpt><trkpt lat="44.046411204264764" lon="10.898368542092127"><ele>642.0</ele><time>2026-04-19T11:38:13.921Z</time></trkpt><trkpt lat="44.04633087667871" lon="10.898613419315424"><ele>642.0</ele><time>2026-04-19T11:38:14.921Z</time></trkpt><trkpt lat="44.04637296665774" lon="10.898857926861846"><ele>643.5</ele><time>2026-04-19T11:38:15.921Z</time></trkpt><trkpt lat="44.04636087256348" lon="10.899097988088105"><ele>645.0</ele><time>2026-04-19T11:38:16.921Z</time></trkpt><trkpt lat="44.04637396851673" lon="10.899293523801392"><ele>646.5</ele><time>2026-04-19T11:38:17.921Z</time></trkpt><trkpt lat="44.046385557102106" lon="10.899474266721539"><ele>648.0</ele><time>2026-04-19T11:38:18.921Z</time></trkpt><trkpt lat="44.04641288940949" lon="10.899643058432876"><ele>646.5</ele><time>2026-04-19T11:38:19.921Z</time></trkpt><trkpt lat="44.04649197572284" lon="10.899791249714958"><ele>645.0</ele><time>2026-04-19T11:38:20.921Z</time></trkpt><trkpt lat="44.04659072420849" lon="10.899920177370326"><ele>643.5</ele><time>2026-04-19T11:38:21.921Z</time></trkpt><trkpt lat="44.046706861162356" lon="10.900012495647308"><ele>642.0</ele><time>2026-04-19T11:38:22.921Z</time></trkpt><trkpt lat="44.04685875589801" lon="10.900036708368404"><ele>644.6666666666666</ele><time>2026-04-19T11:38:23.921Z</time></trkpt><trkpt lat="44.0470503666212" lon="10.900127071447509"><ele>647.3333333333333</ele><time>2026-04-19T11:38:24.921Z</time></trkpt><trkpt lat="44.04723295607214" lon="10.900185483106133"><ele>650.0</ele><time>2026-04-19T11:38:25.921Z</time></trkpt><trkpt lat="44.047418190529584" lon="10.900249793246775"><ele>645.3333333333333</ele><time>2026-04-19T11:38:26.921Z</time></trkpt><trkpt lat="44.04759359562419" lon="10.90031400429533"><ele>640.6666666666666</ele><time>2026-04-19T11:38:27.921Z</time></trkpt><trkpt lat="44.04776762459299" lon="10.900371411769088"><ele>636.0</ele><time>2026-04-19T11:38:28.921Z</time></trkpt><trkpt lat="44.047947050378355" lon="10.900416772714278"><ele>636.0</ele><time>2026-04-19T11:38:29.921Z</time></trkpt><trkpt lat="44.04811453044215" lon="10.900473256757483"><ele>636.0</ele><time>2026-04-19T11:38:30.921Z</time></trkpt><trkpt lat="44.048271432932374" lon="10.90052536225035"><ele>636.0</ele><time>2026-04-19T11:38:31.921Z</time></trkpt><trkpt lat="44.04842322359615" lon="10.90058488744546"><ele>634.6666666666666</ele><time>2026-04-19T11:38:32.921Z</time></trkpt><trkpt lat="44.048558864452104" lon="10.900686221911117"><ele>633.3333333333333</ele><time>2026-04-19T11:38:33.921Z</time></trkpt><trkpt lat="44.048693661601206" lon="10.900788930572244"><ele>632.0</ele><time>2026-04-19T11:38:34.921Z</time></trkpt><trkpt lat="44.048842841445584" lon="10.900910466548936"><ele>631.0</ele><time>2026-04-19T11:38:35.921Z</time></trkpt><trkpt lat="44.04899401041876" lon="10.901046378877965"><ele>630.0</ele><time>2026-04-19T11:38:36.921Z</time></trkpt><trkpt lat="44.04913748695293" lon="10.901175985913305"><ele>629.0</ele><time>2026-04-19T11:38:37.921Z</time></trkpt><trkpt lat="44.04925367077929" lon="10.901327637311885"><ele>629.0</ele><time>2026-04-19T11:38:38.921Z</time></trkpt><trkpt lat="44.049378630921076" lon="10.901483523427562"><ele>629.0</ele><time>2026-04-19T11:38:39.921Z</time></trkpt><trkpt lat="44.049494617605355" lon="10.901664191129749"><ele>629.0</ele><time>2026-04-19T11:38:40.921Z</time></trkpt><trkpt lat="44.04960318931039" lon="10.901825959493479"><ele>629.25</ele><time>2026-04-19T11:38:41.921Z</time></trkpt><trkpt lat="44.04970321806678" lon="10.901969692630875"><ele>629.5</ele><time>2026-04-19T11:38:42.921Z</time></trkpt><trkpt lat="44.04979211555565" lon="10.902099917685035"><ele>629.75</ele><time>2026-04-19T11:38:43.921Z</time></trkpt><trkpt lat="44.04988139937726" lon="10.902219776518839"><ele>630.0</ele><time>2026-04-19T11:38:44.921Z</time></trkpt><trkpt lat="44.04996122312938" lon="10.902338518550284"><ele>630.0</ele><time>2026-04-19T11:38:45.921Z</time></trkpt><trkpt lat="44.0500306388925" lon="10.902455351905513"><ele>630.0</ele><time>2026-04-19T11:38:46.921Z</time></trkpt><trkpt lat="44.05008980856136" lon="10.902577326738903"><ele>630.0</ele><time>2026-04-19T11:38:47.921Z</time></trkpt><trkpt lat="44.05016208726371" lon="10.902679262585625"><ele>630.0</ele><time>2026-04-19T11:38:48.921Z</time></trkpt><trkpt lat="44.05022504804231" lon="10.902773222572318"><ele>630.0</ele><time>2026-04-19T11:38:49.921Z</time></trkpt><trkpt lat="44.05026833431961" lon="10.902870257512626"><ele>630.8</ele><time>2026-04-19T11:38:50.921Z</time></trkpt><trkpt lat="44.05030443319626" lon="10.902958065376351"><ele>631.6</ele><time>2026-04-19T11:38:51.921Z</time></trkpt><trkpt lat="44.0503502164895" lon="10.903045806326329"><ele>632.4</ele><time>2026-04-19T11:38:52.921Z</time></trkpt><trkpt lat="44.05041329302431" lon="10.903138217780219"><ele>633.2</ele><time>2026-04-19T11:38:53.921Z</time></trkpt><trkpt lat="44.05050246909138" lon="10.903253858768334"><ele>634.0</ele><time>2026-04-19T11:38:54.921Z</time></trkpt><trkpt lat="44.05062722528959" lon="10.903336716042302"><ele>634.0</ele><time>2026-04-19T11:38:55.921Z</time></trkpt><trkpt lat="44.05075548547154" lon="10.903398597838446"><ele>634.0</ele><time>2026-04-19T11:38:56.921Z</time></trkpt><trkpt lat="44.050894018689235" lon="10.903446425388307"><ele>634.0</ele><time>2026-04-19T11:38:57.921Z</time></trkpt><trkpt lat="44.0510230022637" lon="10.903537625130262"><ele>634.0</ele><time>2026-04-19T11:38:58.921Z</time></trkpt><trkpt lat="44.05119388774396" lon="10.903611623858378"><ele>634.6666666666667</ele><time>2026-04-19T11:38:59.921Z</time></trkpt><trkpt lat="44.051366164305286" lon="10.903691550940515"><ele>635.3333333333334</ele><time>2026-04-19T11:39:00.922Z</time></trkpt><trkpt lat="44.05154509803177" lon="10.90377064100488"><ele>636.0</ele><time>2026-04-19T11:39:01.922Z</time></trkpt><trkpt lat="44.05171385452418" lon="10.903835129791709"><ele>632.6666666666666</ele><time>2026-04-19T11:39:02.922Z</time></trkpt><trkpt lat="44.05189692488557" lon="10.903892225472433"><ele>629.3333333333333</ele><time>2026-04-19T11:39:03.922Z</time></trkpt><trkpt lat="44.052083008659785" lon="10.903943439509941"><ele>626.0</ele><time>2026-04-19T11:39:04.922Z</time></trkpt><trkpt lat="44.05227729515448" lon="10.903988429606335"><ele>624.3333333333333</ele><time>2026-04-19T11:39:05.922Z</time></trkpt><trkpt lat="44.05247306890512" lon="10.904028780462648"><ele>622.6666666666666</ele><time>2026-04-19T11:39:06.922Z</time></trkpt><trkpt lat="44.05265682219998" lon="10.90406541737456"><ele>621.0</ele><time>2026-04-19T11:39:07.922Z</time></trkpt><trkpt lat="44.05286945028177" lon="10.904133128690395"><ele>621.0</ele><time>2026-04-19T11:39:08.922Z</time></trkpt><trkpt lat="44.053039201701594" lon="10.904210906385249"><ele>621.0</ele><time>2026-04-19T11:39:09.922Z</time></trkpt><trkpt lat="44.053198012297536" lon="10.904315778582365"><ele>621.0</ele><time>2026-04-19T11:39:10.922Z</time></trkpt><trkpt lat="44.05335324480144" lon="10.904394886602136"><ele>619.0</ele><time>2026-04-19T11:39:11.922Z</time></trkpt><trkpt lat="44.05350867236933" lon="10.904496443162348"><ele>617.0</ele><time>2026-04-19T11:39:12.922Z</time></trkpt><trkpt lat="44.053656452337506" lon="10.90461603958718"><ele>615.0</ele><time>2026-04-19T11:39:13.922Z</time></trkpt><trkpt lat="44.0538102959719" lon="10.904751041267147"><ele>615.0</ele><time>2026-04-19T11:39:14.922Z</time></trkpt><trkpt lat="44.05395648673753" lon="10.90489156120276"><ele>615.0</ele><time>2026-04-19T11:39:15.922Z</time></trkpt><trkpt lat="44.054095740809075" lon="10.90504165326153"><ele>615.0</ele><time>2026-04-19T11:39:16.922Z</time></trkpt><trkpt lat="44.054230469406114" lon="10.905214833075318"><ele>614.6666666666666</ele><time>2026-04-19T11:39:17.921Z</time></trkpt><trkpt lat="44.0543551028819" lon="10.905390815637904"><ele>614.3333333333333</ele><time>2026-04-19T11:39:18.922Z</time></trkpt><trkpt lat="44.05448053594536" lon="10.905556687395459"><ele>614.0</ele><time>2026-04-19T11:39:19.922Z</time></trkpt><trkpt lat="44.05457986813202" lon="10.90570760585968"><ele>614.0</ele><time>2026-04-19T11:39:20.921Z</time></trkpt><trkpt lat="44.05469928577218" lon="10.905831165121201"><ele>614.0</ele><time>2026-04-19T11:39:21.921Z</time></trkpt><trkpt lat="44.05484366356447" lon="10.905950651537982"><ele>614.0</ele><time>2026-04-19T11:39:22.921Z</time></trkpt><trkpt lat="44.05498932783229" lon="10.906055300592682"><ele>614.2</ele><time>2026-04-19T11:39:23.921Z</time></trkpt><trkpt lat="44.05512225873275" lon="10.906153414920514"><ele>614.4</ele><time>2026-04-19T11:39:24.921Z</time></trkpt><trkpt lat="44.05523794992825" lon="10.906219894398797"><ele>614.6</ele><time>2026-04-19T11:39:25.921Z</time></trkpt><trkpt lat="44.05531471867615" lon="10.906278901927129"><ele>614.8</ele><time>2026-04-19T11:39:26.921Z</time></trkpt><trkpt lat="44.05538206454944" lon="10.90633258086159"><ele>615.0</ele><time>2026-04-19T11:39:27.922Z</time></trkpt><trkpt lat="44.0554321803469" lon="10.906394696590409"><ele>615.0</ele><time>2026-04-19T11:39:28.922Z</time></trkpt><trkpt lat="44.05538280903516" lon="10.906548316110257"><ele>615.0</ele><time>2026-04-19T11:39:30.921Z</time></trkpt><trkpt lat="44.05534315339894" lon="10.906617010953438"><ele>615.0</ele><time>2026-04-19T11:39:31.921Z</time></trkpt><trkpt lat="44.055341470838506" lon="10.906719153847886"><ele>615.0</ele><time>2026-04-19T11:39:32.921Z</time></trkpt><trkpt lat="44.05538108124792" lon="10.906799836248117"><ele>615.0</ele><time>2026-04-19T11:39:33.921Z</time></trkpt><trkpt lat="44.055466512789515" lon="10.90686557712182"><ele>615.0</ele><time>2026-04-19T11:39:34.921Z</time></trkpt><trkpt lat="44.055576306146506" lon="10.906936195612742"><ele>615.3333333333334</ele><time>2026-04-19T11:39:35.921Z</time></trkpt><trkpt lat="44.05571753174782" lon="10.907015767708803"><ele>615.6666666666667</ele><time>2026-04-19T11:39:36.921Z</time></trkpt><trkpt lat="44.05585973130373" lon="10.907120889440074"><ele>616.0</ele><time>2026-04-19T11:39:37.921Z</time></trkpt><trkpt lat="44.055984388606774" lon="10.907219268830323"><ele>615.0</ele><time>2026-04-19T11:39:38.921Z</time></trkpt><trkpt lat="44.05612409828291" lon="10.907331871061027"><ele>614.0</ele><time>2026-04-19T11:39:39.921Z</time></trkpt><trkpt lat="44.056267294636264" lon="10.907450476686872"><ele>613.0</ele><time>2026-04-19T11:39:40.921Z</time></trkpt><trkpt lat="44.05641394590818" lon="10.90757200244638"><ele>613.0</ele><time>2026-04-19T11:39:41.921Z</time></trkpt><trkpt lat="44.05656094477232" lon="10.907709298655467"><ele>613.0</ele><time>2026-04-19T11:39:42.921Z</time></trkpt><trkpt lat="44.05671038471242" lon="10.90785422448064"><ele>613.0</ele><time>2026-04-19T11:39:43.921Z</time></trkpt><trkpt lat="44.05683919734414" lon="10.90801625119879"><ele>613.0</ele><time>2026-04-19T11:39:44.921Z</time></trkpt><trkpt lat="44.056970424252064" lon="10.908178001734845"><ele>613.0</ele><time>2026-04-19T11:39:45.921Z</time></trkpt><trkpt lat="44.0570910073287" lon="10.90831359474149"><ele>613.0</ele><time>2026-04-19T11:39:46.921Z</time></trkpt><trkpt lat="44.05720399850063" lon="10.908434960437123"><ele>613.25</ele><time>2026-04-19T11:39:47.921Z</time></trkpt><trkpt lat="44.0573159465195" lon="10.908570728238294"><ele>613.5</ele><time>2026-04-19T11:39:48.921Z</time></trkpt><trkpt lat="44.05742823104558" lon="10.908703832674389"><ele>613.75</ele><time>2026-04-19T11:39:49.921Z</time></trkpt><trkpt lat="44.05753760108509" lon="10.908839572394061"><ele>614.0</ele><time>2026-04-19T11:39:50.921Z</time></trkpt><trkpt lat="44.05764736757519" lon="10.908987324021135"><ele>614.0</ele><time>2026-04-19T11:39:51.921Z</time></trkpt><trkpt lat="44.05775799497113" lon="10.909131478765874"><ele>614.0</ele><time>2026-04-19T11:39:52.921Z</time></trkpt><trkpt lat="44.05786543035746" lon="10.909262558680046"><ele>614.0</ele><time>2026-04-19T11:39:53.921Z</time></trkpt><trkpt lat="44.05796648269574" lon="10.909407382125083"><ele>614.0</ele><time>2026-04-19T11:39:54.921Z</time></trkpt><trkpt lat="44.0580679474436" lon="10.909574373666342"><ele>613.3333333333333</ele><time>2026-04-19T11:39:55.921Z</time></trkpt><trkpt lat="44.05814991164103" lon="10.909767746752477"><ele>612.6666666666666</ele><time>2026-04-19T11:39:56.921Z</time></trkpt><trkpt lat="44.0582293388851" lon="10.90996213201696"><ele>612.0</ele><time>2026-04-19T11:39:57.921Z</time></trkpt><trkpt lat="44.05830584587442" lon="10.910146163298984"><ele>612.0</ele><time>2026-04-19T11:39:58.921Z</time></trkpt><trkpt lat="44.05836889389501" lon="10.910336200779675"><ele>612.0</ele><time>2026-04-19T11:39:59.921Z</time></trkpt><trkpt lat="44.05843241342536" lon="10.910537732120645"><ele>612.0</ele><time>2026-04-19T11:40:00.921Z</time></trkpt><trkpt lat="44.05847486662416" lon="10.910719194688426"><ele>612.0</ele><time>2026-04-19T11:40:01.921Z</time></trkpt><trkpt lat="44.05851827339974" lon="10.910863326119399"><ele>612.1666666666666</ele><time>2026-04-19T11:40:02.921Z</time></trkpt><trkpt lat="44.05855690989341" lon="10.91098477018951"><ele>612.3333333333334</ele><time>2026-04-19T11:40:03.921Z</time></trkpt><trkpt lat="44.05860378891718" lon="10.91108749724613"><ele>612.5</ele><time>2026-04-19T11:40:04.921Z</time></trkpt><trkpt lat="44.058665382428764" lon="10.911163968642947"><ele>612.6666666666667</ele><time>2026-04-19T11:40:05.921Z</time></trkpt><trkpt lat="44.05872691042232" lon="10.911247566591634"><ele>612.8333333333334</ele><time>2026-04-19T11:40:06.921Z</time></trkpt><trkpt lat="44.05879715575059" lon="10.91128433431471"><ele>613.0</ele><time>2026-04-19T11:40:07.921Z</time></trkpt><trkpt lat="44.05886544930879" lon="10.911325092843336"><ele>613.0</ele><time>2026-04-19T11:40:08.921Z</time></trkpt><trkpt lat="44.058936571400544" lon="10.911334325331634"><ele>613.0</ele><time>2026-04-19T11:40:09.921Z</time></trkpt><trkpt lat="44.05902371944895" lon="10.911362274009766"><ele>613.0</ele><time>2026-04-19T11:40:11.921Z</time></trkpt><trkpt lat="44.05909289913572" lon="10.911414973427425"><ele>613.0</ele><time>2026-04-19T11:40:13.921Z</time></trkpt><trkpt lat="44.059141156579976" lon="10.911501015731336"><ele>613.0</ele><time>2026-04-19T11:40:15.921Z</time></trkpt><trkpt lat="44.05918791768589" lon="10.911593615719509"><ele>613.0</ele><time>2026-04-19T11:40:16.921Z</time></trkpt><trkpt lat="44.05921685664488" lon="10.911722935419675"><ele>611.8</ele><time>2026-04-19T11:40:17.921Z</time></trkpt><trkpt lat="44.059239679022006" lon="10.911848354746535"><ele>610.5999999999999</ele><time>2026-04-19T11:40:18.921Z</time></trkpt><trkpt lat="44.05922969865748" lon="10.912000140106853"><ele>609.4000000000001</ele><time>2026-04-19T11:40:19.921Z</time></trkpt><trkpt lat="44.05923076598956" lon="10.912152494443632"><ele>608.2</ele><time>2026-04-19T11:40:20.921Z</time></trkpt><trkpt lat="44.05926446578972" lon="10.91231596511988"><ele>607.0</ele><time>2026-04-19T11:40:21.921Z</time></trkpt><trkpt lat="44.059304068502186" lon="10.912466129405814"><ele>607.75</ele><time>2026-04-19T11:40:22.921Z</time></trkpt><trkpt lat="44.05935462714564" lon="10.91262382250305"><ele>608.5</ele><time>2026-04-19T11:40:23.921Z</time></trkpt><trkpt lat="44.059424613176056" lon="10.912802363583811"><ele>609.25</ele><time>2026-04-19T11:40:24.921Z</time></trkpt><trkpt lat="44.05950147952375" lon="10.912971263711757"><ele>610.0</ele><time>2026-04-19T11:40:25.921Z</time></trkpt><trkpt lat="44.05957349923139" lon="10.913131890941102"><ele>610.0</ele><time>2026-04-19T11:40:26.921Z</time></trkpt><trkpt lat="44.059669268659654" lon="10.91329542025881"><ele>610.0</ele><time>2026-04-19T11:40:27.921Z</time></trkpt><trkpt lat="44.059772164089964" lon="10.913467135873"><ele>610.0</ele><time>2026-04-19T11:40:28.921Z</time></trkpt><trkpt lat="44.05987507940907" lon="10.913647172533523"><ele>611.6666666666667</ele><time>2026-04-19T11:40:29.921Z</time></trkpt><trkpt lat="44.059969286780536" lon="10.913835244082012"><ele>613.3333333333334</ele><time>2026-04-19T11:40:30.921Z</time></trkpt><trkpt lat="44.06007647024708" lon="10.914032914923778"><ele>615.0</ele><time>2026-04-19T11:40:31.921Z</time></trkpt><trkpt lat="44.06018682348217" lon="10.914227466086501"><ele>614.3333333333334</ele><time>2026-04-19T11:40:32.921Z</time></trkpt><trkpt lat="44.0602874146099" lon="10.914406183471758"><ele>613.6666666666667</ele><time>2026-04-19T11:40:33.921Z</time></trkpt><trkpt lat="44.06038279002908" lon="10.914568050956808"><ele>613.0</ele><time>2026-04-19T11:40:34.921Z</time></trkpt><trkpt lat="44.06046458393412" lon="10.914722504719501"><ele>613.0</ele><time>2026-04-19T11:40:35.921Z</time></trkpt><trkpt lat="44.06054510842277" lon="10.914852722889734"><ele>613.0</ele><time>2026-04-19T11:40:36.921Z</time></trkpt><trkpt lat="44.060656440513604" lon="10.914970128817194"><ele>613.0</ele><time>2026-04-19T11:40:37.921Z</time></trkpt><trkpt lat="44.06074917283394" lon="10.915101061697355"><ele>613.0</ele><time>2026-04-19T11:40:38.921Z</time></trkpt><trkpt lat="44.060835184065986" lon="10.915253258633589"><ele>615.25</ele><time>2026-04-19T11:40:39.921Z</time></trkpt><trkpt lat="44.06088783090032" lon="10.91538138158149"><ele>617.5</ele><time>2026-04-19T11:40:40.921Z</time></trkpt><trkpt lat="44.06093229732172" lon="10.915512382541275"><ele>619.75</ele><time>2026-04-19T11:40:41.921Z</time></trkpt><trkpt lat="44.06096048090565" lon="10.915683383078855"><ele>622.0</ele><time>2026-04-19T11:40:42.921Z</time></trkpt><trkpt lat="44.060922518869454" lon="10.91588647533418"><ele>619.25</ele><time>2026-04-19T11:40:43.921Z</time></trkpt><trkpt lat="44.06086312378207" lon="10.916074705124837"><ele>616.5</ele><time>2026-04-19T11:40:44.921Z</time></trkpt><trkpt lat="44.060822524291765" lon="10.916246374629138"><ele>613.75</ele><time>2026-04-19T11:40:45.921Z</time></trkpt><trkpt lat="44.06081043280208" lon="10.916377421441252"><ele>611.0</ele><time>2026-04-19T11:40:46.921Z</time></trkpt><trkpt lat="44.060824240160684" lon="10.91649494515141"><ele>611.0</ele><time>2026-04-19T11:40:47.921Z</time></trkpt><trkpt lat="44.06087714775402" lon="10.916607843923423"><ele>611.0</ele><time>2026-04-19T11:40:48.921Z</time></trkpt><trkpt lat="44.06098893461596" lon="10.916718315884648"><ele>611.0</ele><time>2026-04-19T11:40:49.921Z</time></trkpt><trkpt lat="44.06108126201697" lon="10.916805844152824"><ele>611.0</ele><time>2026-04-19T11:40:50.921Z</time></trkpt><trkpt lat="44.06118478218309" lon="10.916845409493336"><ele>610.0</ele><time>2026-04-19T11:40:51.921Z</time></trkpt><trkpt lat="44.061305410762806" lon="10.916867492119167"><ele>609.0</ele><time>2026-04-19T11:40:52.921Z</time></trkpt><trkpt lat="44.06142613069486" lon="10.916873454412583"><ele>608.0</ele><time>2026-04-19T11:40:53.921Z</time></trkpt><trkpt lat="44.06154528541537" lon="10.916903983812889"><ele>607.0</ele><time>2026-04-19T11:40:54.921Z</time></trkpt><trkpt lat="44.0617016723718" lon="10.916915815204252"><ele>607.0</ele><time>2026-04-19T11:40:55.921Z</time></trkpt><trkpt lat="44.061856479453134" lon="10.91693282274631"><ele>607.0</ele><time>2026-04-19T11:40:56.921Z</time></trkpt><trkpt lat="44.0620203034056" lon="10.916928762957475"><ele>607.0</ele><time>2026-04-19T11:40:57.921Z</time></trkpt><trkpt lat="44.06219349413121" lon="10.916912618311773"><ele>607.0</ele><time>2026-04-19T11:40:58.921Z</time></trkpt><trkpt lat="44.062373789168966" lon="10.916957740040452"><ele>607.0</ele><time>2026-04-19T11:40:59.921Z</time></trkpt><trkpt lat="44.06254544359559" lon="10.916968694893075"><ele>607.0</ele><time>2026-04-19T11:41:00.921Z</time></trkpt><trkpt lat="44.06269876587134" lon="10.916962928613119"><ele>606.25</ele><time>2026-04-19T11:41:01.921Z</time></trkpt><trkpt lat="44.062848196392714" lon="10.91690763900406"><ele>605.5</ele><time>2026-04-19T11:41:02.921Z</time></trkpt><trkpt lat="44.06297202919954" lon="10.916847786714898"><ele>604.75</ele><time>2026-04-19T11:41:03.921Z</time></trkpt><trkpt lat="44.06306405028828" lon="10.91681126115017"><ele>604.0</ele><time>2026-04-19T11:41:04.921Z</time></trkpt><trkpt lat="44.06315265442553" lon="10.916811478030573"><ele>604.0</ele><time>2026-04-19T11:41:05.921Z</time></trkpt><trkpt lat="44.063226027631025" lon="10.916900878340137"><ele>604.0</ele><time>2026-04-19T11:41:06.921Z</time></trkpt><trkpt lat="44.06330621973655" lon="10.917035467572731"><ele>604.0</ele><time>2026-04-19T11:41:07.921Z</time></trkpt><trkpt lat="44.06339908180434" lon="10.917158232189937"><ele>604.0</ele><time>2026-04-19T11:41:08.921Z</time></trkpt><trkpt lat="44.06352042616223" lon="10.917277675653835"><ele>603.0</ele><time>2026-04-19T11:41:09.921Z</time></trkpt><trkpt lat="44.063633777883716" lon="10.917420891553812"><ele>602.0</ele><time>2026-04-19T11:41:10.921Z</time></trkpt><trkpt lat="44.06372511625837" lon="10.917586783664662"><ele>601.0</ele><time>2026-04-19T11:41:11.921Z</time></trkpt><trkpt lat="44.063860111483216" lon="10.917702605650073"><ele>603.3333333333334</ele><time>2026-04-19T11:41:12.921Z</time></trkpt><trkpt lat="44.063995192018474" lon="10.917786014889039"><ele>605.6666666666666</ele><time>2026-04-19T11:41:13.921Z</time></trkpt><trkpt lat="44.06414318920809" lon="10.917872160773104"><ele>608.0</ele><time>2026-04-19T11:41:14.922Z</time></trkpt><trkpt lat="44.06429435563937" lon="10.91798652253984"><ele>603.3333333333333</ele><time>2026-04-19T11:41:15.922Z</time></trkpt><trkpt lat="44.06444816109518" lon="10.918104138443974"><ele>598.6666666666666</ele><time>2026-04-19T11:41:16.922Z</time></trkpt><trkpt lat="44.06459622476064" lon="10.918209534846545"><ele>594.0</ele><time>2026-04-19T11:41:17.922Z</time></trkpt><trkpt lat="44.064738919312845" lon="10.918274019446716"><ele>594.0</ele><time>2026-04-19T11:41:18.922Z</time></trkpt><trkpt lat="44.06487081558866" lon="10.918293265189472"><ele>594.0</ele><time>2026-04-19T11:41:19.922Z</time></trkpt><trkpt lat="44.06500092467006" lon="10.9183449761874"><ele>594.0</ele><time>2026-04-19T11:41:20.922Z</time></trkpt><trkpt lat="44.06509305492603" lon="10.918433808743975"><ele>594.0</ele><time>2026-04-19T11:41:21.922Z</time></trkpt><trkpt lat="44.06519203007331" lon="10.918547454438656"><ele>594.5</ele><time>2026-04-19T11:41:22.922Z</time></trkpt><trkpt lat="44.06529299719477" lon="10.918659784767067"><ele>595.0</ele><time>2026-04-19T11:41:23.922Z</time></trkpt><trkpt lat="44.06541574501452" lon="10.91874494629403"><ele>595.5</ele><time>2026-04-19T11:41:24.921Z</time></trkpt><trkpt lat="44.06555270505247" lon="10.91883140994929"><ele>596.0</ele><time>2026-04-19T11:41:25.921Z</time></trkpt><trkpt lat="44.065688521996485" lon="10.918894423291185"><ele>598.5</ele><time>2026-04-19T11:41:26.922Z</time></trkpt><trkpt lat="44.06580120216524" lon="10.918981326665117"><ele>601.0</ele><time>2026-04-19T11:41:27.922Z</time></trkpt><trkpt lat="44.06588299253323" lon="10.919120237579557"><ele>603.5</ele><time>2026-04-19T11:41:28.922Z</time></trkpt><trkpt lat="44.06599080951374" lon="10.919269049768218"><ele>606.0</ele><time>2026-04-19T11:41:29.922Z</time></trkpt><trkpt lat="44.0660908275156" lon="10.919443517177276"><ele>606.0</ele><time>2026-04-19T11:41:30.922Z</time></trkpt><trkpt lat="44.066215433115026" lon="10.919600800456426"><ele>606.0</ele><time>2026-04-19T11:41:31.922Z</time></trkpt><trkpt lat="44.06634154211418" lon="10.919729474871271"><ele>606.0</ele><time>2026-04-19T11:41:32.922Z</time></trkpt><trkpt lat="44.06649600522141" lon="10.919834119209733"><ele>601.6666666666666</ele><time>2026-04-19T11:41:33.922Z</time></trkpt><trkpt lat="44.06664520449544" lon="10.919909816795093"><ele>597.3333333333333</ele><time>2026-04-19T11:41:34.922Z</time></trkpt><trkpt lat="44.066812858855094" lon="10.919974894994223"><ele>593.0</ele><time>2026-04-19T11:41:35.922Z</time></trkpt><trkpt lat="44.066994740751724" lon="10.920008022380273"><ele>593.0</ele><time>2026-04-19T11:41:36.922Z</time></trkpt><trkpt lat="44.06718641327017" lon="10.92005395639426"><ele>593.0</ele><time>2026-04-19T11:41:37.922Z</time></trkpt><trkpt lat="44.06738057734163" lon="10.920075863246158"><ele>593.0</ele><time>2026-04-19T11:41:38.922Z</time></trkpt><trkpt lat="44.06756325609471" lon="10.920117933763493"><ele>593.0</ele><time>2026-04-19T11:41:39.922Z</time></trkpt><trkpt lat="44.067725181661686" lon="10.920153065378688"><ele>593.0</ele><time>2026-04-19T11:41:40.922Z</time></trkpt><trkpt lat="44.067874938303525" lon="10.920164314947133"><ele>593.0</ele><time>2026-04-19T11:41:41.922Z</time></trkpt><trkpt lat="44.068007431636936" lon="10.92021150780262"><ele>593.0</ele><time>2026-04-19T11:41:42.922Z</time></trkpt><trkpt lat="44.068111021894296" lon="10.920310410533409"><ele>593.0</ele><time>2026-04-19T11:41:43.922Z</time></trkpt><trkpt lat="44.06821708221194" lon="10.920397888706178"><ele>593.0</ele><time>2026-04-19T11:41:44.922Z</time></trkpt><trkpt lat="44.06832200357053" lon="10.92051613714619"><ele>593.0</ele><time>2026-04-19T11:41:45.922Z</time></trkpt><trkpt lat="44.06843693580407" lon="10.920662074888112"><ele>592.3333333333333</ele><time>2026-04-19T11:41:46.922Z</time></trkpt><trkpt lat="44.06856023919775" lon="10.920830287650098"><ele>591.6666666666666</ele><time>2026-04-19T11:41:47.922Z</time></trkpt><trkpt lat="44.0686888493607" lon="10.92099477644514"><ele>591.0</ele><time>2026-04-19T11:41:48.922Z</time></trkpt><trkpt lat="44.068818374858004" lon="10.921147669425316"><ele>593.3333333333334</ele><time>2026-04-19T11:41:49.922Z</time></trkpt><trkpt lat="44.06893824366778" lon="10.921312243031501"><ele>595.6666666666667</ele><time>2026-04-19T11:41:50.922Z</time></trkpt><trkpt lat="44.06904878517471" lon="10.921492086558661"><ele>598.0</ele><time>2026-04-19T11:41:51.922Z</time></trkpt><trkpt lat="44.06916211055584" lon="10.92167712740542"><ele>595.6666666666667</ele><time>2026-04-19T11:41:52.922Z</time></trkpt><trkpt lat="44.06927168799474" lon="10.921874939395517"><ele>593.3333333333334</ele><time>2026-04-19T11:41:53.922Z</time></trkpt><trkpt lat="44.06938230692462" lon="10.922061922722914"><ele>591.0</ele><time>2026-04-19T11:41:54.922Z</time></trkpt><trkpt lat="44.069484830283145" lon="10.922254162716685"><ele>591.0</ele><time>2026-04-19T11:41:55.922Z</time></trkpt><trkpt lat="44.06961392179962" lon="10.922385304800025"><ele>591.0</ele><time>2026-04-19T11:41:56.922Z</time></trkpt><trkpt lat="44.069753633918076" lon="10.922538096620025"><ele>591.0</ele><time>2026-04-19T11:41:57.922Z</time></trkpt><trkpt lat="44.06990853797146" lon="10.922678412458895"><ele>591.0</ele><time>2026-04-19T11:41:58.922Z</time></trkpt><trkpt lat="44.07007598446748" lon="10.922790977533792"><ele>591.0</ele><time>2026-04-19T11:41:59.922Z</time></trkpt><trkpt lat="44.07025629751215" lon="10.922888052283636"><ele>591.0</ele><time>2026-04-19T11:42:00.922Z</time></trkpt><trkpt lat="44.07044241443352" lon="10.923003930093964"><ele>591.0</ele><time>2026-04-19T11:42:01.922Z</time></trkpt><trkpt lat="44.07062375384415" lon="10.923115933995387"><ele>591.0</ele><time>2026-04-19T11:42:02.922Z</time></trkpt><trkpt lat="44.07081335563481" lon="10.923227266618555"><ele>591.0</ele><time>2026-04-19T11:42:03.922Z</time></trkpt><trkpt lat="44.07100320859312" lon="10.92333436151474"><ele>594.3333333333334</ele><time>2026-04-19T11:42:04.922Z</time></trkpt><trkpt lat="44.071180820287076" lon="10.923465762324206"><ele>597.6666666666667</ele><time>2026-04-19T11:42:05.922Z</time></trkpt><trkpt lat="44.07136910762656" lon="10.923576189314414"><ele>601.0</ele><time>2026-04-19T11:42:06.922Z</time></trkpt><trkpt lat="44.07155940757269" lon="10.9236627432302"><ele>594.3333333333334</ele><time>2026-04-19T11:42:07.922Z</time></trkpt><trkpt lat="44.07173456743614" lon="10.923770107697598"><ele>587.6666666666666</ele><time>2026-04-19T11:42:08.922Z</time></trkpt><trkpt lat="44.071906782193864" lon="10.923890361704405"><ele>581.0</ele><time>2026-04-19T11:42:09.922Z</time></trkpt><trkpt lat="44.07207873918783" lon="10.92403126936341"><ele>581.0</ele><time>2026-04-19T11:42:10.922Z</time></trkpt><trkpt lat="44.072242658407625" lon="10.924188027873964"><ele>581.0</ele><time>2026-04-19T11:42:11.922Z</time></trkpt><trkpt lat="44.072402355828785" lon="10.924351340833786"><ele>581.0</ele><time>2026-04-19T11:42:12.922Z</time></trkpt><trkpt lat="44.072553305940225" lon="10.924503932297089"><ele>580.0</ele><time>2026-04-19T11:42:13.922Z</time></trkpt><trkpt lat="44.072691145495206" lon="10.92464074012526"><ele>579.0</ele><time>2026-04-19T11:42:14.922Z</time></trkpt><trkpt lat="44.07280889760349" lon="10.924773033736315"><ele>578.0</ele><time>2026-04-19T11:42:15.922Z</time></trkpt><trkpt lat="44.07292407361921" lon="10.924914910914236"><ele>578.0</ele><time>2026-04-19T11:42:16.922Z</time></trkpt><trkpt lat="44.07303015920951" lon="10.925042601511162"><ele>578.0</ele><time>2026-04-19T11:42:17.922Z</time></trkpt><trkpt lat="44.07313067819522" lon="10.925148463581866"><ele>578.0</ele><time>2026-04-19T11:42:18.922Z</time></trkpt><trkpt lat="44.07323200111601" lon="10.925231802098725"><ele>578.0</ele><time>2026-04-19T11:42:19.922Z</time></trkpt><trkpt lat="44.07331280211166" lon="10.925307304522"><ele>577.6</ele><time>2026-04-19T11:42:20.922Z</time></trkpt><trkpt lat="44.0733693868915" lon="10.925413645517942"><ele>577.1999999999999</ele><time>2026-04-19T11:42:21.922Z</time></trkpt><trkpt lat="44.07343404195854" lon="10.925493068976499"><ele>576.8</ele><time>2026-04-19T11:42:22.922Z</time></trkpt><trkpt lat="44.07352669635991" lon="10.925514613126763"><ele>576.4</ele><time>2026-04-19T11:42:23.922Z</time></trkpt><trkpt lat="44.07362615886002" lon="10.925515756515917"><ele>576.0</ele><time>2026-04-19T11:42:24.922Z</time></trkpt><trkpt lat="44.07374545133345" lon="10.925471430926867"><ele>576.0</ele><time>2026-04-19T11:42:25.922Z</time></trkpt><trkpt lat="44.07387093728204" lon="10.9254341167274"><ele>576.0</ele><time>2026-04-19T11:42:26.922Z</time></trkpt><trkpt lat="44.07402124105417" lon="10.92545798232132"><ele>576.0</ele><time>2026-04-19T11:42:27.922Z</time></trkpt><trkpt lat="44.07415754408308" lon="10.925513936322275"><ele>576.0</ele><time>2026-04-19T11:42:28.922Z</time></trkpt><trkpt lat="44.07432215065745" lon="10.925539976692507"><ele>576.25</ele><time>2026-04-19T11:42:29.922Z</time></trkpt><trkpt lat="44.07447571236236" lon="10.925520478006145"><ele>576.5</ele><time>2026-04-19T11:42:30.922Z</time></trkpt><trkpt lat="44.074599148936855" lon="10.925516794889482"><ele>576.75</ele><time>2026-04-19T11:42:31.922Z</time></trkpt><trkpt lat="44.07470730441077" lon="10.925520378069551"><ele>577.0</ele><time>2026-04-19T11:42:32.922Z</time></trkpt><trkpt lat="44.07480408537972" lon="10.925594974391213"><ele>577.0</ele><time>2026-04-19T11:42:33.922Z</time></trkpt><trkpt lat="44.07490234647477" lon="10.92566800380331"><ele>577.0</ele><time>2026-04-19T11:42:34.922Z</time></trkpt><trkpt lat="44.075019233990936" lon="10.925717540137896"><ele>577.0</ele><time>2026-04-19T11:42:35.922Z</time></trkpt><trkpt lat="44.07517174279761" lon="10.925715885039866"><ele>577.0</ele><time>2026-04-19T11:42:36.922Z</time></trkpt><trkpt lat="44.075308202280674" lon="10.925692526082388"><ele>577.0</ele><time>2026-04-19T11:42:37.922Z</time></trkpt><trkpt lat="44.075402709687395" lon="10.92565686955637"><ele>577.0</ele><time>2026-04-19T11:42:38.922Z</time></trkpt><trkpt lat="44.07549871780479" lon="10.925720269441701"><ele>577.0</ele><time>2026-04-19T11:42:39.922Z</time></trkpt><trkpt lat="44.075581760843036" lon="10.925860067999881"><ele>577.0</ele><time>2026-04-19T11:42:40.922Z</time></trkpt><trkpt lat="44.07568129489548" lon="10.92591792673195"><ele>577.0</ele><time>2026-04-19T11:42:41.922Z</time></trkpt><trkpt lat="44.075805346314894" lon="10.925981791865087"><ele>577.0</ele><time>2026-04-19T11:42:42.922Z</time></trkpt><trkpt lat="44.075923497764755" lon="10.926036334451181"><ele>577.0</ele><time>2026-04-19T11:42:43.922Z</time></trkpt><trkpt lat="44.07603502504266" lon="10.926080491339736"><ele>577.0</ele><time>2026-04-19T11:42:44.922Z</time></trkpt><trkpt lat="44.07609994839265" lon="10.926167193519722"><ele>577.0</ele><time>2026-04-19T11:42:45.922Z</time></trkpt><trkpt lat="44.076145836882034" lon="10.926323964027048"><ele>577.0</ele><time>2026-04-19T11:42:46.922Z</time></trkpt><trkpt lat="44.07619324908984" lon="10.92648379912634"><ele>577.0</ele><time>2026-04-19T11:42:47.922Z</time></trkpt><trkpt lat="44.0762872356722" lon="10.926616178454859"><ele>577.0</ele><time>2026-04-19T11:42:48.922Z</time></trkpt><trkpt lat="44.07637796021489" lon="10.926707268423979"><ele>577.0</ele><time>2026-04-19T11:42:49.922Z</time></trkpt><trkpt lat="44.076450608488" lon="10.926758926396763"><ele>578.0</ele><time>2026-04-19T11:42:50.922Z</time></trkpt><trkpt lat="44.07654350503047" lon="10.926775895351058"><ele>579.0</ele><time>2026-04-19T11:42:51.922Z</time></trkpt><trkpt lat="44.07663862041799" lon="10.926792327313953"><ele>580.0</ele><time>2026-04-19T11:42:52.922Z</time></trkpt><trkpt lat="44.07675711622739" lon="10.926798435276119"><ele>581.0</ele><time>2026-04-19T11:42:53.922Z</time></trkpt><trkpt lat="44.07687735849144" lon="10.926815914735247"><ele>582.0</ele><time>2026-04-19T11:42:54.922Z</time></trkpt><trkpt lat="44.07699343874143" lon="10.926788203017727"><ele>582.0</ele><time>2026-04-19T11:42:55.922Z</time></trkpt><trkpt lat="44.07709079010455" lon="10.926748354296464"><ele>582.0</ele><time>2026-04-19T11:42:56.922Z</time></trkpt><trkpt lat="44.077186617769854" lon="10.926706926118559"><ele>582.0</ele><time>2026-04-19T11:42:57.922Z</time></trkpt><trkpt lat="44.07727804265736" lon="10.926666763653998"><ele>582.0</ele><time>2026-04-19T11:42:58.922Z</time></trkpt><trkpt lat="44.077361121084095" lon="10.926677347846557"><ele>582.0</ele><time>2026-04-19T11:42:59.922Z</time></trkpt><trkpt lat="44.07741793313478" lon="10.926771894346286"><ele>582.0</ele><time>2026-04-19T11:43:00.922Z</time></trkpt><trkpt lat="44.07744350356729" lon="10.926875309169695"><ele>582.0</ele><time>2026-04-19T11:43:01.922Z</time></trkpt><trkpt lat="44.077450363179416" lon="10.926965002720808"><ele>582.0</ele><time>2026-04-19T11:43:02.922Z</time></trkpt><trkpt lat="44.07741314224785" lon="10.927068677303083"><ele>582.0</ele><time>2026-04-19T11:43:03.922Z</time></trkpt><trkpt lat="44.07733150503903" lon="10.92718365788439"><ele>582.0</ele><time>2026-04-19T11:43:04.922Z</time></trkpt><trkpt lat="44.077211073791986" lon="10.927279469824073"><ele>582.0</ele><time>2026-04-19T11:43:05.922Z</time></trkpt><trkpt lat="44.077089422470216" lon="10.927348329242148"><ele>582.0</ele><time>2026-04-19T11:43:06.922Z</time></trkpt><trkpt lat="44.0769390830076" lon="10.927413805535648"><ele>582.0</ele><time>2026-04-19T11:43:07.922Z</time></trkpt><trkpt lat="44.076812945160015" lon="10.927453440187898"><ele>582.0</ele><time>2026-04-19T11:43:08.922Z</time></trkpt><trkpt lat="44.076735627583126" lon="10.927539123163047"><ele>583.0</ele><time>2026-04-19T11:43:09.922Z</time></trkpt><trkpt lat="44.076684201740626" lon="10.927662466180657"><ele>584.0</ele><time>2026-04-19T11:43:10.922Z</time></trkpt><trkpt lat="44.07665322276221" lon="10.927797410607393"><ele>585.0</ele><time>2026-04-19T11:43:11.922Z</time></trkpt><trkpt lat="44.07663495034373" lon="10.927952695477677"><ele>586.0</ele><time>2026-04-19T11:43:12.922Z</time></trkpt><trkpt lat="44.07665931628945" lon="10.9281339668582"><ele>586.0</ele><time>2026-04-19T11:43:13.922Z</time></trkpt><trkpt lat="44.07669451277229" lon="10.928343158719958"><ele>586.0</ele><time>2026-04-19T11:43:14.922Z</time></trkpt><trkpt lat="44.07674044544202" lon="10.928552289848332"><ele>586.0</ele><time>2026-04-19T11:43:15.922Z</time></trkpt><trkpt lat="44.07678361635631" lon="10.92878597261736"><ele>586.0</ele><time>2026-04-19T11:43:16.922Z</time></trkpt><trkpt lat="44.076803678079884" lon="10.929029420635931"><ele>586.0</ele><time>2026-04-19T11:43:17.922Z</time></trkpt><trkpt lat="44.07678486214208" lon="10.929272351196692"><ele>586.0</ele><time>2026-04-19T11:43:18.922Z</time></trkpt><trkpt lat="44.07680122700034" lon="10.92951285574146"><ele>585.3333333333334</ele><time>2026-04-19T11:43:19.922Z</time></trkpt><trkpt lat="44.07680018001851" lon="10.92973677918688"><ele>584.6666666666666</ele><time>2026-04-19T11:43:20.922Z</time></trkpt><trkpt lat="44.07680661719866" lon="10.929944714880063"><ele>584.0</ele><time>2026-04-19T11:43:21.922Z</time></trkpt><trkpt lat="44.07681536037452" lon="10.930145672541775"><ele>583.0</ele><time>2026-04-19T11:43:22.922Z</time></trkpt><trkpt lat="44.07682255356411" lon="10.930321967307158"><ele>582.0</ele><time>2026-04-19T11:43:23.922Z</time></trkpt><trkpt lat="44.076809066682294" lon="10.930470881836479"><ele>581.0</ele><time>2026-04-19T11:43:24.922Z</time></trkpt><trkpt lat="44.07681802214639" lon="10.930614572242028"><ele>580.0</ele><time>2026-04-19T11:43:25.922Z</time></trkpt><trkpt lat="44.0768411751509" lon="10.930749194149364"><ele>579.0</ele><time>2026-04-19T11:43:26.922Z</time></trkpt><trkpt lat="44.07687826103452" lon="10.930886932775183"><ele>577.1666666666666</ele><time>2026-04-19T11:43:27.922Z</time></trkpt><trkpt lat="44.07692570166428" lon="10.931010552755493"><ele>575.3333333333334</ele><time>2026-04-19T11:43:28.922Z</time></trkpt><trkpt lat="44.076962595874605" lon="10.93113596138621"><ele>573.5</ele><time>2026-04-19T11:43:29.923Z</time></trkpt><trkpt lat="44.07697596879806" lon="10.93125699756874"><ele>571.6666666666667</ele><time>2026-04-19T11:43:30.922Z</time></trkpt><trkpt lat="44.07699268172119" lon="10.931342759727597"><ele>569.8333333333334</ele><time>2026-04-19T11:43:31.922Z</time></trkpt><trkpt lat="44.07703021915336" lon="10.931469276842865"><ele>568.0</ele><time>2026-04-19T11:43:33.922Z</time></trkpt><trkpt lat="44.07706646162242" lon="10.931611562879432"><ele>568.6666666666667</ele><time>2026-04-19T11:43:35.922Z</time></trkpt><trkpt lat="44.077122303669846" lon="10.93174655845999"><ele>569.3333333333334</ele><time>2026-04-19T11:43:37.922Z</time></trkpt><trkpt lat="44.07717263843388" lon="10.931858424964819"><ele>570.0</ele><time>2026-04-19T11:43:39.923Z</time></trkpt><trkpt lat="44.07721816102654" lon="10.931938222335264"><ele>570.6666666666666</ele><time>2026-04-19T11:43:42.922Z</time></trkpt><trkpt lat="44.07726521817743" lon="10.932001388667473"><ele>571.3333333333333</ele><time>2026-04-19T11:43:56.922Z</time></trkpt><trkpt lat="44.07732409732653" lon="10.93206562258112"><ele>572.0</ele><time>2026-04-19T11:43:59.922Z</time></trkpt><trkpt lat="44.07739717677926" lon="10.932108381223129"><ele>572.8000000000001</ele><time>2026-04-19T11:44:00.922Z</time></trkpt><trkpt lat="44.07746762044737" lon="10.932138343091534"><ele>573.6</ele><time>2026-04-19T11:44:01.922Z</time></trkpt><trkpt lat="44.077561244101865" lon="10.932161979836705"><ele>574.4000000000001</ele><time>2026-04-19T11:44:02.922Z</time></trkpt><trkpt lat="44.07764458737123" lon="10.932241881245625"><ele>575.2</ele><time>2026-04-19T11:44:03.852Z</time></trkpt><trkpt lat="44.07770561707513" lon="10.932352869324466"><ele>576.0</ele><time>2026-04-19T11:44:04.852Z</time></trkpt><trkpt lat="44.077750770109105" lon="10.932492229468991"><ele>572.25</ele><time>2026-04-19T11:44:05.852Z</time></trkpt><trkpt lat="44.07782960424189" lon="10.932631304388151"><ele>568.5</ele><time>2026-04-19T11:44:06.852Z</time></trkpt><trkpt lat="44.0779257289021" lon="10.932703273455578"><ele>564.75</ele><time>2026-04-19T11:44:07.852Z</time></trkpt><trkpt lat="44.078035430543196" lon="10.932780815748973"><ele>561.0</ele><time>2026-04-19T11:44:08.852Z</time></trkpt><trkpt lat="44.07809685769436" lon="10.932925285124067"><ele>561.0</ele><time>2026-04-19T11:44:09.852Z</time></trkpt><trkpt lat="44.078145720004606" lon="10.933088936930345"><ele>561.0</ele><time>2026-04-19T11:44:10.852Z</time></trkpt><trkpt lat="44.07818830649777" lon="10.933232426982233"><ele>561.0</ele><time>2026-04-19T11:44:11.852Z</time></trkpt><trkpt lat="44.07825601049725" lon="10.933406211861731"><ele>561.0</ele><time>2026-04-19T11:44:12.852Z</time></trkpt><trkpt lat="44.078282157401574" lon="10.933609852091406"><ele>561.0</ele><time>2026-04-19T11:44:13.852Z</time></trkpt><trkpt lat="44.078314876890076" lon="10.933818989556535"><ele>561.0</ele><time>2026-04-19T11:44:14.852Z</time></trkpt><trkpt lat="44.078333797863046" lon="10.93402301121872"><ele>561.0</ele><time>2026-04-19T11:44:15.852Z</time></trkpt><trkpt lat="44.07837207257227" lon="10.934222464387968"><ele>561.0</ele><time>2026-04-19T11:44:16.852Z</time></trkpt><trkpt lat="44.078440342807305" lon="10.934382217508862"><ele>561.0</ele><time>2026-04-19T11:44:17.852Z</time></trkpt><trkpt lat="44.078505236173925" lon="10.934559037451386"><ele>561.0</ele><time>2026-04-19T11:44:18.852Z</time></trkpt><trkpt lat="44.07855547522229" lon="10.934742182695969"><ele>561.0</ele><time>2026-04-19T11:44:19.852Z</time></trkpt><trkpt lat="44.07862008700612" lon="10.934926415793463"><ele>559.5</ele><time>2026-04-19T11:44:20.852Z</time></trkpt><trkpt lat="44.07867910051704" lon="10.935094686012249"><ele>558.0</ele><time>2026-04-19T11:44:21.852Z</time></trkpt><trkpt lat="44.078732609582104" lon="10.935245663165706"><ele>556.5</ele><time>2026-04-19T11:44:22.852Z</time></trkpt><trkpt lat="44.07878894706528" lon="10.93538798622093"><ele>555.0</ele><time>2026-04-19T11:44:23.852Z</time></trkpt><trkpt lat="44.07885726675029" lon="10.935507132371022"><ele>555.0</ele><time>2026-04-19T11:44:24.852Z</time></trkpt><trkpt lat="44.07893985894525" lon="10.935589049467886"><ele>555.0</ele><time>2026-04-19T11:44:25.852Z</time></trkpt><trkpt lat="44.07905125890747" lon="10.935597713649617"><ele>555.0</ele><time>2026-04-19T11:44:26.852Z</time></trkpt><trkpt lat="44.07916412150029" lon="10.935562501890331"><ele>555.0</ele><time>2026-04-19T11:44:27.852Z</time></trkpt><trkpt lat="44.07926918277047" lon="10.935507173952312"><ele>555.0</ele><time>2026-04-19T11:44:28.852Z</time></trkpt><trkpt lat="44.079378795273286" lon="10.935463101638465"><ele>557.0</ele><time>2026-04-19T11:44:29.852Z</time></trkpt><trkpt lat="44.079472066101374" lon="10.935458141894125"><ele>559.0</ele><time>2026-04-19T11:44:30.852Z</time></trkpt><trkpt lat="44.07953997332996" lon="10.935543047558992"><ele>561.0</ele><time>2026-04-19T11:44:31.852Z</time></trkpt><trkpt lat="44.07961514007692" lon="10.935631375274578"><ele>563.0</ele><time>2026-04-19T11:44:32.852Z</time></trkpt><trkpt lat="44.07965542035662" lon="10.935741672713858"><ele>565.0</ele><time>2026-04-19T11:44:33.852Z</time></trkpt><trkpt lat="44.07967025447296" lon="10.935860941806945"><ele>563.0</ele><time>2026-04-19T11:44:34.852Z</time></trkpt><trkpt lat="44.07961826318453" lon="10.935999815381312"><ele>561.0</ele><time>2026-04-19T11:44:35.852Z</time></trkpt><trkpt lat="44.079536252319315" lon="10.936131910317169"><ele>559.0</ele><time>2026-04-19T11:44:36.852Z</time></trkpt><trkpt lat="44.079472181674504" lon="10.936262997498002"><ele>557.0</ele><time>2026-04-19T11:44:37.852Z</time></trkpt><trkpt lat="44.07943294312454" lon="10.936393935636948"><ele>557.0</ele><time>2026-04-19T11:44:38.852Z</time></trkpt><trkpt lat="44.07942779320442" lon="10.93653293402972"><ele>557.0</ele><time>2026-04-19T11:44:39.852Z</time></trkpt><trkpt lat="44.079474824769534" lon="10.936663169037505"><ele>557.0</ele><time>2026-04-19T11:44:40.852Z</time></trkpt><trkpt lat="44.079534232067324" lon="10.936791815947688"><ele>557.0</ele><time>2026-04-19T11:44:41.852Z</time></trkpt><trkpt lat="44.07961358596111" lon="10.93694746625356"><ele>555.3333333333333</ele><time>2026-04-19T11:44:42.852Z</time></trkpt><trkpt lat="44.07969080386019" lon="10.93713362275334"><ele>553.6666666666666</ele><time>2026-04-19T11:44:43.852Z</time></trkpt><trkpt lat="44.07976985632571" lon="10.93730372024689"><ele>552.0</ele><time>2026-04-19T11:44:44.852Z</time></trkpt><trkpt lat="44.079875520483014" lon="10.937508258739006"><ele>552.75</ele><time>2026-04-19T11:44:45.852Z</time></trkpt><trkpt lat="44.079983823443364" lon="10.93768431622462"><ele>553.5</ele><time>2026-04-19T11:44:46.852Z</time></trkpt><trkpt lat="44.0800662500157" lon="10.93785759583877"><ele>554.25</ele><time>2026-04-19T11:44:47.852Z</time></trkpt><trkpt lat="44.08014009669721" lon="10.93798986354565"><ele>555.0</ele><time>2026-04-19T11:44:48.852Z</time></trkpt><trkpt lat="44.08022998280158" lon="10.938096020196188"><ele>555.0</ele><time>2026-04-19T11:44:49.852Z</time></trkpt><trkpt lat="44.0803282422061" lon="10.93818104888056"><ele>555.0</ele><time>2026-04-19T11:44:50.852Z</time></trkpt><trkpt lat="44.08041206725686" lon="10.938263440645787"><ele>555.0</ele><time>2026-04-19T11:44:51.852Z</time></trkpt><trkpt lat="44.080487135898636" lon="10.938354728176659"><ele>555.0</ele><time>2026-04-19T11:44:52.852Z</time></trkpt><trkpt lat="44.08049753195802" lon="10.93851954591895"><ele>555.0</ele><time>2026-04-19T11:44:53.852Z</time></trkpt><trkpt lat="44.08051068082768" lon="10.938698182534067"><ele>553.6</ele><time>2026-04-19T11:44:54.852Z</time></trkpt><trkpt lat="44.08052784692128" lon="10.938860164446439"><ele>552.2</ele><time>2026-04-19T11:44:55.852Z</time></trkpt><trkpt lat="44.08058473987427" lon="10.938971965336423"><ele>550.8</ele><time>2026-04-19T11:44:56.852Z</time></trkpt><trkpt lat="44.080609295370024" lon="10.93911013008419"><ele>549.4</ele><time>2026-04-19T11:44:57.852Z</time></trkpt><trkpt lat="44.08055607418885" lon="10.939234738772068"><ele>548.0</ele><time>2026-04-19T11:44:58.852Z</time></trkpt><trkpt lat="44.080519420354236" lon="10.939375583824567"><ele>548.0</ele><time>2026-04-19T11:44:59.852Z</time></trkpt><trkpt lat="44.08051092447387" lon="10.939506998201804"><ele>548.0</ele><time>2026-04-19T11:45:00.852Z</time></trkpt><trkpt lat="44.08053666338183" lon="10.939657197945236"><ele>548.0</ele><time>2026-04-19T11:45:01.852Z</time></trkpt><trkpt lat="44.08057311310956" lon="10.93986110585648"><ele>548.0</ele><time>2026-04-19T11:45:02.852Z</time></trkpt><trkpt lat="44.08061634504392" lon="10.940066818490457"><ele>548.0</ele><time>2026-04-19T11:45:03.852Z</time></trkpt><trkpt lat="44.08063566559199" lon="10.940265344528163"><ele>548.0</ele><time>2026-04-19T11:45:04.852Z</time></trkpt><trkpt lat="44.08063529004018" lon="10.940489239071999"><ele>548.0</ele><time>2026-04-19T11:45:05.852Z</time></trkpt><trkpt lat="44.08061174914724" lon="10.940714681595617"><ele>547.5</ele><time>2026-04-19T11:45:06.852Z</time></trkpt><trkpt lat="44.08060205158342" lon="10.940930136407067"><ele>547.0</ele><time>2026-04-19T11:45:07.852Z</time></trkpt><trkpt lat="44.080589725091706" lon="10.941121631299431"><ele>546.5</ele><time>2026-04-19T11:45:08.852Z</time></trkpt><trkpt lat="44.080570250908366" lon="10.941290234252865"><ele>546.0</ele><time>2026-04-19T11:45:09.852Z</time></trkpt><trkpt lat="44.08056872969793" lon="10.941434769654677"><ele>546.0</ele><time>2026-04-19T11:45:10.852Z</time></trkpt><trkpt lat="44.0806020363605" lon="10.941571411821867"><ele>546.0</ele><time>2026-04-19T11:45:11.852Z</time></trkpt><trkpt lat="44.08066486486387" lon="10.941722300066383"><ele>546.0</ele><time>2026-04-19T11:45:12.852Z</time></trkpt><trkpt lat="44.080715732973395" lon="10.941909077631621"><ele>546.0</ele><time>2026-04-19T11:45:13.852Z</time></trkpt><trkpt lat="44.080792868039765" lon="10.942087772069012"><ele>548.3333333333334</ele><time>2026-04-19T11:45:14.852Z</time></trkpt><trkpt lat="44.08087932281604" lon="10.94223816776274"><ele>550.6666666666667</ele><time>2026-04-19T11:45:15.852Z</time></trkpt><trkpt lat="44.08099742218668" lon="10.942390987016227"><ele>553.0</ele><time>2026-04-19T11:45:16.852Z</time></trkpt><trkpt lat="44.081121726070165" lon="10.942538919166063"><ele>551.0</ele><time>2026-04-19T11:45:17.852Z</time></trkpt><trkpt lat="44.08125936655154" lon="10.94268615571822"><ele>549.0</ele><time>2026-04-19T11:45:18.852Z</time></trkpt><trkpt lat="44.08138436781236" lon="10.942846415339051"><ele>547.0</ele><time>2026-04-19T11:45:19.852Z</time></trkpt><trkpt lat="44.081504880725795" lon="10.94295603992676"><ele>547.4</ele><time>2026-04-19T11:45:20.852Z</time></trkpt><trkpt lat="44.08161107670441" lon="10.94301939732269"><ele>547.8000000000001</ele><time>2026-04-19T11:45:21.852Z</time></trkpt><trkpt lat="44.081713236681146" lon="10.943083542256746"><ele>548.2</ele><time>2026-04-19T11:45:22.852Z</time></trkpt><trkpt lat="44.08179868466353" lon="10.943144356047227"><ele>548.6</ele><time>2026-04-19T11:45:23.852Z</time></trkpt><trkpt lat="44.0818926188549" lon="10.943120876340446"><ele>549.0</ele><time>2026-04-19T11:45:24.852Z</time></trkpt><trkpt lat="44.0819948093617" lon="10.943069436749514"><ele>549.0</ele><time>2026-04-19T11:45:25.852Z</time></trkpt><trkpt lat="44.0820989538239" lon="10.943019218953781"><ele>549.0</ele><time>2026-04-19T11:45:26.852Z</time></trkpt><trkpt lat="44.082179411499524" lon="10.943083475019002"><ele>549.0</ele><time>2026-04-19T11:45:27.852Z</time></trkpt><trkpt lat="44.08224170476987" lon="10.943221924571652"><ele>549.0</ele><time>2026-04-19T11:45:28.852Z</time></trkpt><trkpt lat="44.08228853164128" lon="10.943361807208937"><ele>549.0</ele><time>2026-04-19T11:45:29.852Z</time></trkpt><trkpt lat="44.08238208340008" lon="10.94348192549517"><ele>545.0</ele><time>2026-04-19T11:45:30.852Z</time></trkpt><trkpt lat="44.08252441470931" lon="10.943586410726253"><ele>541.0</ele><time>2026-04-19T11:45:31.852Z</time></trkpt><trkpt lat="44.08267654874769" lon="10.943669166410638"><ele>537.0</ele><time>2026-04-19T11:45:32.852Z</time></trkpt><trkpt lat="44.08284618055242" lon="10.943742273062272"><ele>537.0</ele><time>2026-04-19T11:45:33.852Z</time></trkpt><trkpt lat="44.083012858663324" lon="10.943825150229092"><ele>537.0</ele><time>2026-04-19T11:45:34.852Z</time></trkpt><trkpt lat="44.08318782480879" lon="10.943890803770065"><ele>537.0</ele><time>2026-04-19T11:45:35.852Z</time></trkpt><trkpt lat="44.083329212210515" lon="10.943943941337507"><ele>536.5</ele><time>2026-04-19T11:45:36.852Z</time></trkpt><trkpt lat="44.0834539138912" lon="10.943993376486004"><ele>536.0</ele><time>2026-04-19T11:45:37.852Z</time></trkpt><trkpt lat="44.0835818959788" lon="10.944085049407143"><ele>535.5</ele><time>2026-04-19T11:45:38.852Z</time></trkpt><trkpt lat="44.0836980817794" lon="10.944217363481718"><ele>535.0</ele><time>2026-04-19T11:45:39.852Z</time></trkpt><trkpt lat="44.08380539254463" lon="10.944386913783783"><ele>535.0</ele><time>2026-04-19T11:45:40.852Z</time></trkpt><trkpt lat="44.08391018571499" lon="10.944574970297792"><ele>535.0</ele><time>2026-04-19T11:45:41.852Z</time></trkpt><trkpt lat="44.084011653162136" lon="10.944769845747741"><ele>535.0</ele><time>2026-04-19T11:45:42.852Z</time></trkpt><trkpt lat="44.08413758181516" lon="10.94493754465915"><ele>535.25</ele><time>2026-04-19T11:45:43.852Z</time></trkpt><trkpt lat="44.084246558378" lon="10.945092515637219"><ele>535.5</ele><time>2026-04-19T11:45:44.852Z</time></trkpt><trkpt lat="44.084337991690134" lon="10.945241435888303"><ele>535.75</ele><time>2026-04-19T11:45:45.852Z</time></trkpt><trkpt lat="44.08442219067921" lon="10.945366956325588"><ele>536.0</ele><time>2026-04-19T11:45:46.852Z</time></trkpt><trkpt lat="44.08449099839557" lon="10.945530147373514"><ele>536.0</ele><time>2026-04-19T11:45:47.851Z</time></trkpt><trkpt lat="44.08452970761934" lon="10.94572803792934"><ele>536.0</ele><time>2026-04-19T11:45:48.852Z</time></trkpt><trkpt lat="44.08455556144644" lon="10.945914026886971"><ele>536.0</ele><time>2026-04-19T11:45:49.852Z</time></trkpt><trkpt lat="44.08457770980453" lon="10.946051949798381"><ele>536.0</ele><time>2026-04-19T11:45:50.852Z</time></trkpt><trkpt lat="44.084599713608405" lon="10.946149225022218"><ele>536.0</ele><time>2026-04-19T11:45:51.852Z</time></trkpt><trkpt lat="44.08467437925339" lon="10.946260142369509"><ele>536.0</ele><time>2026-04-19T11:45:52.852Z</time></trkpt><trkpt lat="44.084748916209335" lon="10.946376261854851"><ele>536.0</ele><time>2026-04-19T11:45:53.852Z</time></trkpt><trkpt lat="44.084814848446115" lon="10.94645324042519"><ele>536.0</ele><time>2026-04-19T11:45:54.852Z</time></trkpt><trkpt lat="44.08481486708621" lon="10.94660487802311"><ele>536.0</ele><time>2026-04-19T11:45:55.852Z</time></trkpt><trkpt lat="44.08484570288402" lon="10.946761339048324"><ele>535.75</ele><time>2026-04-19T11:45:56.852Z</time></trkpt><trkpt lat="44.08487756566594" lon="10.94692967999559"><ele>535.5</ele><time>2026-04-19T11:45:57.852Z</time></trkpt><trkpt lat="44.084954721867625" lon="10.947085742690192"><ele>535.25</ele><time>2026-04-19T11:45:58.852Z</time></trkpt><trkpt lat="44.08505673243527" lon="10.947233256782754"><ele>535.0</ele><time>2026-04-19T11:45:59.852Z</time></trkpt><trkpt lat="44.08517650242905" lon="10.947386819809452"><ele>535.0</ele><time>2026-04-19T11:46:00.852Z</time></trkpt><trkpt lat="44.08528948034024" lon="10.947516190159249"><ele>535.0</ele><time>2026-04-19T11:46:01.852Z</time></trkpt><trkpt lat="44.08539325163956" lon="10.947636383820498"><ele>535.0</ele><time>2026-04-19T11:46:02.852Z</time></trkpt><trkpt lat="44.085526563350264" lon="10.947698507655202"><ele>535.0</ele><time>2026-04-19T11:46:03.852Z</time></trkpt><trkpt lat="44.085680532723494" lon="10.94769612674986"><ele>533.0</ele><time>2026-04-19T11:46:04.852Z</time></trkpt><trkpt lat="44.085840943994484" lon="10.947730313026797"><ele>531.0</ele><time>2026-04-19T11:46:05.852Z</time></trkpt><trkpt lat="44.08600877084119" lon="10.947711448678543"><ele>529.0</ele><time>2026-04-19T11:46:06.852Z</time></trkpt><trkpt lat="44.08616147765602" lon="10.947667705590453"><ele>529.0</ele><time>2026-04-19T11:46:07.852Z</time></trkpt><trkpt lat="44.08627832032685" lon="10.947626657842651"><ele>529.0</ele><time>2026-04-19T11:46:08.852Z</time></trkpt><trkpt lat="44.0863968547173" lon="10.94760653102766"><ele>529.0</ele><time>2026-04-19T11:46:09.852Z</time></trkpt><trkpt lat="44.086502888559984" lon="10.947707774854688"><ele>529.0</ele><time>2026-04-19T11:46:10.852Z</time></trkpt><trkpt lat="44.08662054293804" lon="10.947852832108572"><ele>529.5</ele><time>2026-04-19T11:46:11.852Z</time></trkpt><trkpt lat="44.08674873180647" lon="10.947967061926246"><ele>530.0</ele><time>2026-04-19T11:46:12.852Z</time></trkpt><trkpt lat="44.08686281490013" lon="10.94801618152337"><ele>530.5</ele><time>2026-04-19T11:46:13.852Z</time></trkpt><trkpt lat="44.086957484482014" lon="10.948087012377101"><ele>531.0</ele><time>2026-04-19T11:46:14.852Z</time></trkpt><trkpt lat="44.08703496109968" lon="10.948147145241078"><ele>531.0</ele><time>2026-04-19T11:46:15.852Z</time></trkpt><trkpt lat="44.08708990400228" lon="10.948248842043395"><ele>531.0</ele><time>2026-04-19T11:46:16.852Z</time></trkpt><trkpt lat="44.087127627554544" lon="10.948406696196303"><ele>531.0</ele><time>2026-04-19T11:46:17.852Z</time></trkpt><trkpt lat="44.087172968294894" lon="10.948561617169046"><ele>531.0</ele><time>2026-04-19T11:46:18.852Z</time></trkpt><trkpt lat="44.087237889590476" lon="10.948736524668758"><ele>529.75</ele><time>2026-04-19T11:46:19.852Z</time></trkpt><trkpt lat="44.08730469563358" lon="10.948891772043899"><ele>528.5</ele><time>2026-04-19T11:46:20.852Z</time></trkpt><trkpt lat="44.087340423653366" lon="10.949065240031876"><ele>527.25</ele><time>2026-04-19T11:46:21.852Z</time></trkpt><trkpt lat="44.08733070434479" lon="10.949217343532357"><ele>526.0</ele><time>2026-04-19T11:46:22.852Z</time></trkpt><trkpt lat="44.08730743422544" lon="10.949369179000168"><ele>525.2</ele><time>2026-04-19T11:46:23.852Z</time></trkpt><trkpt lat="44.0872959620427" lon="10.94950727151415"><ele>524.4000000000001</ele><time>2026-04-19T11:46:24.852Z</time></trkpt><trkpt lat="44.08731923148959" lon="10.949634444631112"><ele>523.6</ele><time>2026-04-19T11:46:25.852Z</time></trkpt><trkpt lat="44.08737913102494" lon="10.949735011236488"><ele>522.8000000000001</ele><time>2026-04-19T11:46:26.852Z</time></trkpt><trkpt lat="44.08745923151585" lon="10.94980613932313"><ele>522.0</ele><time>2026-04-19T11:46:27.852Z</time></trkpt><trkpt lat="44.087576897599064" lon="10.949858425498762"><ele>522.0</ele><time>2026-04-19T11:46:28.852Z</time></trkpt><trkpt lat="44.08772487341926" lon="10.94989800754534"><ele>522.0</ele><time>2026-04-19T11:46:29.852Z</time></trkpt><trkpt lat="44.08788389345861" lon="10.949938260218055"><ele>522.0</ele><time>2026-04-19T11:46:30.852Z</time></trkpt><trkpt lat="44.08805224599598" lon="10.949957812414802"><ele>522.0</ele><time>2026-04-19T11:46:31.852Z</time></trkpt><trkpt lat="44.08820592955691" lon="10.950002590803368"><ele>522.0</ele><time>2026-04-19T11:46:32.852Z</time></trkpt><trkpt lat="44.088349929521854" lon="10.950071454015733"><ele>522.0</ele><time>2026-04-19T11:46:33.852Z</time></trkpt><trkpt lat="44.08845779559653" lon="10.950163265123635"><ele>522.0</ele><time>2026-04-19T11:46:34.852Z</time></trkpt><trkpt lat="44.08855602536953" lon="10.950249994523919"><ele>521.4</ele><time>2026-04-19T11:46:35.852Z</time></trkpt><trkpt lat="44.0886566848888" lon="10.95030210563581"><ele>520.8000000000001</ele><time>2026-04-19T11:46:36.852Z</time></trkpt><trkpt lat="44.0887551890841" lon="10.95035092240427"><ele>520.2</ele><time>2026-04-19T11:46:37.852Z</time></trkpt><trkpt lat="44.08883059425235" lon="10.950433916133258"><ele>519.6</ele><time>2026-04-19T11:46:38.852Z</time></trkpt><trkpt lat="44.08887474240542" lon="10.950547236639693"><ele>519.0</ele><time>2026-04-19T11:46:39.852Z</time></trkpt><trkpt lat="44.088945403649845" lon="10.95056885875542"><ele>518.5</ele><time>2026-04-19T11:46:40.852Z</time></trkpt><trkpt lat="44.089112431387264" lon="10.950562758666821"><ele>518.0</ele><time>2026-04-19T11:46:42.852Z</time></trkpt><trkpt lat="44.08924927952953" lon="10.950568398432704"><ele>517.5</ele><time>2026-04-19T11:46:43.852Z</time></trkpt><trkpt lat="44.08936345838091" lon="10.950686243957426"><ele>517.0</ele><time>2026-04-19T11:46:44.852Z</time></trkpt><trkpt lat="44.089445321850796" lon="10.950817775105108"><ele>517.0</ele><time>2026-04-19T11:46:45.852Z</time></trkpt><trkpt lat="44.08949683613106" lon="10.9509346494745"><ele>517.0</ele><time>2026-04-19T11:46:46.852Z</time></trkpt><trkpt lat="44.08951886865609" lon="10.951054707926128"><ele>517.0</ele><time>2026-04-19T11:46:47.852Z</time></trkpt><trkpt lat="44.08951843004498" lon="10.951147684886875"><ele>517.0</ele><time>2026-04-19T11:46:48.852Z</time></trkpt><trkpt lat="44.089470981415744" lon="10.951222842406846"><ele>517.0</ele><time>2026-04-19T11:46:49.852Z</time></trkpt><trkpt lat="44.089411871573475" lon="10.951259383247873"><ele>517.0</ele><time>2026-04-19T11:46:50.852Z</time></trkpt><trkpt lat="44.08933308955811" lon="10.951294098869417"><ele>517.0</ele><time>2026-04-19T11:46:51.852Z</time></trkpt><trkpt lat="44.089261546408125" lon="10.951362551439532"><ele>517.0</ele><time>2026-04-19T11:46:52.852Z</time></trkpt><trkpt lat="44.08922125175923" lon="10.951496907976034"><ele>517.0</ele><time>2026-04-19T11:46:53.852Z</time></trkpt><trkpt lat="44.089193171177484" lon="10.951684040443102"><ele>517.0</ele><time>2026-04-19T11:46:54.852Z</time></trkpt><trkpt lat="44.08918563843712" lon="10.951867734535838"><ele>518.0</ele><time>2026-04-19T11:46:55.852Z</time></trkpt><trkpt lat="44.08917570260404" lon="10.952074993855762"><ele>519.0</ele><time>2026-04-19T11:46:56.852Z</time></trkpt><trkpt lat="44.08917078993609" lon="10.952304631144923"><ele>520.0</ele><time>2026-04-19T11:46:57.852Z</time></trkpt><trkpt lat="44.089178058673596" lon="10.952531730591367"><ele>519.6666666666667</ele><time>2026-04-19T11:46:58.852Z</time></trkpt><trkpt lat="44.089193782571606" lon="10.952765433900387"><ele>519.3333333333334</ele><time>2026-04-19T11:46:59.852Z</time></trkpt><trkpt lat="44.08923208411896" lon="10.952996083023603"><ele>519.0</ele><time>2026-04-19T11:47:00.852Z</time></trkpt><trkpt lat="44.08927754262177" lon="10.953226313317986"><ele>518.3333333333334</ele><time>2026-04-19T11:47:01.852Z</time></trkpt><trkpt lat="44.08933979719265" lon="10.953454603740267"><ele>517.6666666666667</ele><time>2026-04-19T11:47:02.852Z</time></trkpt><trkpt lat="44.08942288173755" lon="10.953677957095605"><ele>517.0</ele><time>2026-04-19T11:47:03.852Z</time></trkpt><trkpt lat="44.08950115007728" lon="10.953873239472108"><ele>517.0</ele><time>2026-04-19T11:47:04.852Z</time></trkpt><trkpt lat="44.08957926740706" lon="10.95403397694798"><ele>517.0</ele><time>2026-04-19T11:47:05.852Z</time></trkpt><trkpt lat="44.08968478355584" lon="10.95416413505395"><ele>517.0</ele><time>2026-04-19T11:47:06.852Z</time></trkpt><trkpt lat="44.0898045761637" lon="10.954293818326413"><ele>517.0</ele><time>2026-04-19T11:47:07.852Z</time></trkpt><trkpt lat="44.08994270594969" lon="10.954416528079232"><ele>516.3333333333334</ele><time>2026-04-19T11:47:08.852Z</time></trkpt><trkpt lat="44.0900978852875" lon="10.954552413951738"><ele>515.6666666666666</ele><time>2026-04-19T11:47:09.852Z</time></trkpt><trkpt lat="44.09023476114749" lon="10.954671701249808"><ele>515.0</ele><time>2026-04-19T11:47:10.852Z</time></trkpt><trkpt lat="44.090358674222635" lon="10.954783923569154"><ele>515.0</ele><time>2026-04-19T11:47:11.852Z</time></trkpt><trkpt lat="44.09049827701076" lon="10.954889265760764"><ele>515.0</ele><time>2026-04-19T11:47:12.852Z</time></trkpt><trkpt lat="44.090655925005755" lon="10.954974672110238"><ele>515.0</ele><time>2026-04-19T11:47:13.852Z</time></trkpt><trkpt lat="44.09081969571839" lon="10.955045282468118"><ele>518.6666666666666</ele><time>2026-04-19T11:47:14.852Z</time></trkpt><trkpt lat="44.09100086792486" lon="10.955107138520123"><ele>522.3333333333334</ele><time>2026-04-19T11:47:15.852Z</time></trkpt><trkpt lat="44.09117727141354" lon="10.955158577689836"><ele>526.0</ele><time>2026-04-19T11:47:16.852Z</time></trkpt><trkpt lat="44.091334679529886" lon="10.95517261718604"><ele>526.0</ele><time>2026-04-19T11:47:17.852Z</time></trkpt><trkpt lat="44.091476848492185" lon="10.955216494002805"><ele>526.0</ele><time>2026-04-19T11:47:18.852Z</time></trkpt><trkpt lat="44.091635885372945" lon="10.955226307372458"><ele>526.0</ele><time>2026-04-19T11:47:19.852Z</time></trkpt><trkpt lat="44.091788111469484" lon="10.955221299358458"><ele>522.3333333333334</ele><time>2026-04-19T11:47:20.852Z</time></trkpt><trkpt lat="44.09194339256152" lon="10.955202887226468"><ele>518.6666666666666</ele><time>2026-04-19T11:47:21.852Z</time></trkpt><trkpt lat="44.09210505707414" lon="10.955185387605432"><ele>515.0</ele><time>2026-04-19T11:47:22.852Z</time></trkpt><trkpt lat="44.092265822042876" lon="10.955153479191575"><ele>514.6666666666666</ele><time>2026-04-19T11:47:23.852Z</time></trkpt><trkpt lat="44.092437560394174" lon="10.955120005251919"><ele>514.3333333333334</ele><time>2026-04-19T11:47:24.852Z</time></trkpt><trkpt lat="44.09262346209025" lon="10.955093221533582"><ele>514.0</ele><time>2026-04-19T11:47:25.852Z</time></trkpt><trkpt lat="44.09278508062811" lon="10.955076055387977"><ele>514.0</ele><time>2026-04-19T11:47:26.852Z</time></trkpt><trkpt lat="44.092941802248994" lon="10.955053387755855"><ele>514.0</ele><time>2026-04-19T11:47:27.852Z</time></trkpt><trkpt lat="44.093081583548056" lon="10.95504200107013"><ele>514.0</ele><time>2026-04-19T11:47:28.852Z</time></trkpt><trkpt lat="44.093231490551425" lon="10.955055070895206"><ele>514.0</ele><time>2026-04-19T11:47:29.852Z</time></trkpt><trkpt lat="44.09338957089517" lon="10.955071729728658"><ele>511.6666666666667</ele><time>2026-04-19T11:47:30.852Z</time></trkpt><trkpt lat="44.09354280560938" lon="10.955098892809854"><ele>509.33333333333337</ele><time>2026-04-19T11:47:31.852Z</time></trkpt><trkpt lat="44.093702129448694" lon="10.955135840548376"><ele>507.0</ele><time>2026-04-19T11:47:32.852Z</time></trkpt><trkpt lat="44.093864790226895" lon="10.95522326835142"><ele>507.0</ele><time>2026-04-19T11:47:33.852Z</time></trkpt><trkpt lat="44.094021699504374" lon="10.955324039575055"><ele>507.0</ele><time>2026-04-19T11:47:34.852Z</time></trkpt><trkpt lat="44.09416402155575" lon="10.955399149928757"><ele>507.0</ele><time>2026-04-19T11:47:35.852Z</time></trkpt><trkpt lat="44.09429620358545" lon="10.955477658163446"><ele>508.66666666666663</ele><time>2026-04-19T11:47:36.852Z</time></trkpt><trkpt lat="44.09442408846911" lon="10.955599419932387"><ele>510.3333333333333</ele><time>2026-04-19T11:47:37.852Z</time></trkpt><trkpt lat="44.09454314426708" lon="10.955745210545741"><ele>512.0</ele><time>2026-04-19T11:47:38.852Z</time></trkpt><trkpt lat="44.09466226788095" lon="10.955851872248232"><ele>513.5</ele><time>2026-04-19T11:47:39.852Z</time></trkpt><trkpt lat="44.0947699525777" lon="10.955952837782107"><ele>515.0</ele><time>2026-04-19T11:47:40.852Z</time></trkpt><trkpt lat="44.094850907094816" lon="10.95606448623096"><ele>516.5</ele><time>2026-04-19T11:47:41.851Z</time></trkpt><trkpt lat="44.09491460718548" lon="10.956214390634885"><ele>518.0</ele><time>2026-04-19T11:47:42.85Z</time></trkpt><trkpt lat="44.09494815475725" lon="10.956404971865865"><ele>518.0</ele><time>2026-04-19T11:47:43.85Z</time></trkpt><trkpt lat="44.0949722938937" lon="10.956617111366327"><ele>518.0</ele><time>2026-04-19T11:47:44.851Z</time></trkpt><trkpt lat="44.09497925136724" lon="10.956801715128437"><ele>518.0</ele><time>2026-04-19T11:47:45.85Z</time></trkpt><trkpt lat="44.09498420172684" lon="10.956974507041377"><ele>518.0</ele><time>2026-04-19T11:47:46.85Z</time></trkpt><trkpt lat="44.09502010275583" lon="10.957131349245069"><ele>516.0</ele><time>2026-04-19T11:47:47.852Z</time></trkpt><trkpt lat="44.09508651071872" lon="10.957277203827804"><ele>514.0</ele><time>2026-04-19T11:47:48.851Z</time></trkpt><trkpt lat="44.095145200192455" lon="10.957423123511827"><ele>511.99999999999994</ele><time>2026-04-19T11:47:49.851Z</time></trkpt><trkpt lat="44.09517177931601" lon="10.957555355886788"><ele>510.0</ele><time>2026-04-19T11:47:50.851Z</time></trkpt><trkpt lat="44.09517637969178" lon="10.957687107956568"><ele>508.0</ele><time>2026-04-19T11:47:51.851Z</time></trkpt><trkpt lat="44.09519107211878" lon="10.957837389568763"><ele>507.0</ele><time>2026-04-19T11:47:52.851Z</time></trkpt><trkpt lat="44.09524127385229" lon="10.957984610893686"><ele>506.0</ele><time>2026-04-19T11:47:53.851Z</time></trkpt><trkpt lat="44.09531437369333" lon="10.958109924294973"><ele>505.0</ele><time>2026-04-19T11:47:54.851Z</time></trkpt><trkpt lat="44.09542035193389" lon="10.958243094790863"><ele>504.0</ele><time>2026-04-19T11:47:55.851Z</time></trkpt><trkpt lat="44.095536769748506" lon="10.958383943045355"><ele>503.66666666666663</ele><time>2026-04-19T11:47:56.851Z</time></trkpt><trkpt lat="44.095668601672564" lon="10.958507451876297"><ele>503.3333333333333</ele><time>2026-04-19T11:47:57.851Z</time></trkpt><trkpt lat="44.09580645531216" lon="10.958615751491763"><ele>503.0</ele><time>2026-04-19T11:47:58.851Z</time></trkpt><trkpt lat="44.095943706554365" lon="10.95870000538028"><ele>503.0</ele><time>2026-04-19T11:47:59.851Z</time></trkpt><trkpt lat="44.09606435132294" lon="10.958848850403736"><ele>503.0</ele><time>2026-04-19T11:48:00.851Z</time></trkpt><trkpt lat="44.096218397478395" lon="10.958984369139273"><ele>503.0</ele><time>2026-04-19T11:48:01.851Z</time></trkpt><trkpt lat="44.09637644957999" lon="10.959096009134274"><ele>501.0</ele><time>2026-04-19T11:48:02.851Z</time></trkpt><trkpt lat="44.09654251358743" lon="10.959206568311066"><ele>499.0</ele><time>2026-04-19T11:48:03.851Z</time></trkpt><trkpt lat="44.09671804088924" lon="10.959319288337413"><ele>497.0</ele><time>2026-04-19T11:48:04.851Z</time></trkpt><trkpt lat="44.09689870951368" lon="10.959433010094822"><ele>497.0</ele><time>2026-04-19T11:48:05.851Z</time></trkpt><trkpt lat="44.09708423828223" lon="10.959546780986033"><ele>497.0</ele><time>2026-04-19T11:48:06.851Z</time></trkpt><trkpt lat="44.09726576422236" lon="10.959655863408019"><ele>497.0</ele><time>2026-04-19T11:48:07.851Z</time></trkpt><trkpt lat="44.09743809939249" lon="10.95975121086776"><ele>497.66666666666663</ele><time>2026-04-19T11:48:08.851Z</time></trkpt><trkpt lat="44.097596361611394" lon="10.959843880949093"><ele>498.33333333333337</ele><time>2026-04-19T11:48:09.851Z</time></trkpt><trkpt lat="44.09774648151281" lon="10.959945954468811"><ele>499.0</ele><time>2026-04-19T11:48:10.851Z</time></trkpt><trkpt lat="44.09788256563701" lon="10.960039344019155"><ele>499.6666666666667</ele><time>2026-04-19T11:48:11.851Z</time></trkpt><trkpt lat="44.09802402027593" lon="10.960113717374526"><ele>500.33333333333337</ele><time>2026-04-19T11:48:12.851Z</time></trkpt><trkpt lat="44.09817944638767" lon="10.960165758829664"><ele>501.0</ele><time>2026-04-19T11:48:13.851Z</time></trkpt><trkpt lat="44.098343431410285" lon="10.960189005462075"><ele>498.66666666666663</ele><time>2026-04-19T11:48:14.851Z</time></trkpt><trkpt lat="44.0985218936721" lon="10.960198445199243"><ele>496.3333333333333</ele><time>2026-04-19T11:48:15.851Z</time></trkpt><trkpt lat="44.09871149529786" lon="10.9602181112689"><ele>494.0</ele><time>2026-04-19T11:48:16.851Z</time></trkpt><trkpt lat="44.098882035600475" lon="10.960255238142148"><ele>494.0</ele><time>2026-04-19T11:48:17.851Z</time></trkpt><trkpt lat="44.099040281898304" lon="10.960302347335423"><ele>494.0</ele><time>2026-04-19T11:48:18.851Z</time></trkpt><trkpt lat="44.09920230903461" lon="10.96036327765292"><ele>494.0</ele><time>2026-04-19T11:48:19.851Z</time></trkpt><trkpt lat="44.09936652283221" lon="10.960433737043557"><ele>493.66666666666663</ele><time>2026-04-19T11:48:20.851Z</time></trkpt><trkpt lat="44.09951200304908" lon="10.96050474160083"><ele>493.33333333333337</ele><time>2026-04-19T11:48:21.851Z</time></trkpt><trkpt lat="44.09966543012666" lon="10.960582946194055"><ele>493.0</ele><time>2026-04-19T11:48:22.851Z</time></trkpt><trkpt lat="44.099794001089904" lon="10.960678819510727"><ele>491.75</ele><time>2026-04-19T11:48:23.851Z</time></trkpt><trkpt lat="44.099924601514445" lon="10.960766964171112"><ele>490.5</ele><time>2026-04-19T11:48:24.851Z</time></trkpt><trkpt lat="44.10005450016069" lon="10.960852469016611"><ele>489.25</ele><time>2026-04-19T11:48:25.851Z</time></trkpt><trkpt lat="44.10017842455892" lon="10.960930022462714"><ele>488.0</ele><time>2026-04-19T11:48:26.851Z</time></trkpt><trkpt lat="44.100304669424325" lon="10.960995287004899"><ele>488.0</ele><time>2026-04-19T11:48:27.851Z</time></trkpt><trkpt lat="44.100397000497445" lon="10.961090788473356"><ele>488.0</ele><time>2026-04-19T11:48:28.851Z</time></trkpt><trkpt lat="44.10047924361417" lon="10.961192686502011"><ele>488.0</ele><time>2026-04-19T11:48:29.851Z</time></trkpt><trkpt lat="44.10058249728229" lon="10.961285824808833"><ele>488.0</ele><time>2026-04-19T11:48:30.851Z</time></trkpt><trkpt lat="44.10070542654223" lon="10.961339870869589"><ele>490.0</ele><time>2026-04-19T11:48:31.851Z</time></trkpt><trkpt lat="44.10083349296508" lon="10.961438873125914"><ele>492.0</ele><time>2026-04-19T11:48:32.851Z</time></trkpt><trkpt lat="44.10097935277141" lon="10.96152666476723"><ele>494.0</ele><time>2026-04-19T11:48:33.851Z</time></trkpt><trkpt lat="44.1011271146738" lon="10.961604936457748"><ele>494.0</ele><time>2026-04-19T11:48:34.851Z</time></trkpt><trkpt lat="44.101285112606234" lon="10.961653308333103"><ele>494.0</ele><time>2026-04-19T11:48:35.851Z</time></trkpt><trkpt lat="44.101435123321544" lon="10.961762724644663"><ele>494.0</ele><time>2026-04-19T11:48:36.851Z</time></trkpt><trkpt lat="44.10157547950331" lon="10.961898048438076"><ele>494.3333333333333</ele><time>2026-04-19T11:48:37.851Z</time></trkpt><trkpt lat="44.10171454669219" lon="10.96204369629499"><ele>494.66666666666663</ele><time>2026-04-19T11:48:38.851Z</time></trkpt><trkpt lat="44.10181995403453" lon="10.962232216180498"><ele>495.0</ele><time>2026-04-19T11:48:39.851Z</time></trkpt><trkpt lat="44.10192399179237" lon="10.962425997083043"><ele>492.33333333333337</ele><time>2026-04-19T11:48:40.851Z</time></trkpt><trkpt lat="44.10203656494665" lon="10.962627086799397"><ele>489.6666666666667</ele><time>2026-04-19T11:48:41.851Z</time></trkpt><trkpt lat="44.102155757174216" lon="10.962838810164124"><ele>487.0</ele><time>2026-04-19T11:48:42.851Z</time></trkpt><trkpt lat="44.10226930715908" lon="10.963049697471607"><ele>487.0</ele><time>2026-04-19T11:48:43.851Z</time></trkpt><trkpt lat="44.102356780042086" lon="10.963250952185724"><ele>487.0</ele><time>2026-04-19T11:48:44.851Z</time></trkpt><trkpt lat="44.102423160856404" lon="10.963437161171202"><ele>487.0</ele><time>2026-04-19T11:48:45.851Z</time></trkpt><trkpt lat="44.10249981750601" lon="10.963645892745314"><ele>488.33333333333337</ele><time>2026-04-19T11:48:46.851Z</time></trkpt><trkpt lat="44.10253874496966" lon="10.963862537023072"><ele>489.66666666666663</ele><time>2026-04-19T11:48:47.851Z</time></trkpt><trkpt lat="44.10258252699581" lon="10.964075520429066"><ele>491.0</ele><time>2026-04-19T11:48:48.851Z</time></trkpt><trkpt lat="44.10264015710359" lon="10.964276369686772"><ele>491.0</ele><time>2026-04-19T11:48:49.851Z</time></trkpt><trkpt lat="44.1027134752526" lon="10.964478261810747"><ele>491.0</ele><time>2026-04-19T11:48:50.851Z</time></trkpt><trkpt lat="44.10278928887568" lon="10.96469266432255"><ele>491.0</ele><time>2026-04-19T11:48:51.851Z</time></trkpt><trkpt lat="44.102862728932934" lon="10.964886090563102"><ele>491.6</ele><time>2026-04-19T11:48:52.851Z</time></trkpt><trkpt lat="44.10293160107479" lon="10.965053589432037"><ele>492.20000000000005</ele><time>2026-04-19T11:48:53.851Z</time></trkpt><trkpt lat="44.10298992792015" lon="10.965175909336482"><ele>492.79999999999995</ele><time>2026-04-19T11:48:54.851Z</time></trkpt><trkpt lat="44.10306853442696" lon="10.96526104501113"><ele>493.4</ele><time>2026-04-19T11:48:55.851Z</time></trkpt><trkpt lat="44.10313922087862" lon="10.965355318664294"><ele>494.0</ele><time>2026-04-19T11:48:56.851Z</time></trkpt><trkpt lat="44.10325144456269" lon="10.965353954538049"><ele>494.0</ele><time>2026-04-19T11:48:57.851Z</time></trkpt><trkpt lat="44.10337553174998" lon="10.965365278842407"><ele>494.0</ele><time>2026-04-19T11:48:58.851Z</time></trkpt><trkpt lat="44.10349278734181" lon="10.965456492039047"><ele>494.0</ele><time>2026-04-19T11:48:59.851Z</time></trkpt><trkpt lat="44.10358842960093" lon="10.965545329264444"><ele>494.0</ele><time>2026-04-19T11:49:00.851Z</time></trkpt><trkpt lat="44.10365579883499" lon="10.965636112665393"><ele>493.99999999999994</ele><time>2026-04-19T11:49:01.851Z</time></trkpt><trkpt lat="44.10368386783658" lon="10.965740537442791"><ele>494.0</ele><time>2026-04-19T11:49:02.851Z</time></trkpt><trkpt lat="44.103691308496934" lon="10.965868233770479"><ele>494.0</ele><time>2026-04-19T11:49:03.851Z</time></trkpt><trkpt lat="44.10371024051849" lon="10.965978812546213"><ele>494.0</ele><time>2026-04-19T11:49:04.851Z</time></trkpt><trkpt lat="44.103757137540114" lon="10.966059738745095"><ele>493.99999999999994</ele><time>2026-04-19T11:49:05.851Z</time></trkpt><trkpt lat="44.10386167841487" lon="10.966093150526037"><ele>494.0</ele><time>2026-04-19T11:49:06.851Z</time></trkpt><trkpt lat="44.103984413883595" lon="10.966077879289397"><ele>492.0</ele><time>2026-04-19T11:49:07.851Z</time></trkpt><trkpt lat="44.10411156636048" lon="10.96607327007656"><ele>490.0</ele><time>2026-04-19T11:49:08.851Z</time></trkpt><trkpt lat="44.10426342917932" lon="10.966073055464788"><ele>488.0</ele><time>2026-04-19T11:49:09.851Z</time></trkpt><trkpt lat="44.10442737053684" lon="10.966071746411691"><ele>486.0</ele><time>2026-04-19T11:49:10.851Z</time></trkpt><trkpt lat="44.10460481917835" lon="10.966072194801926"><ele>486.0</ele><time>2026-04-19T11:49:11.851Z</time></trkpt><trkpt lat="44.10476463253168" lon="10.966080223572064"><ele>486.0</ele><time>2026-04-19T11:49:12.851Z</time></trkpt><trkpt lat="44.1049192914418" lon="10.966074051098738"><ele>486.0</ele><time>2026-04-19T11:49:13.851Z</time></trkpt><trkpt lat="44.105072358637386" lon="10.966058380378065"><ele>488.66666666666663</ele><time>2026-04-19T11:49:14.851Z</time></trkpt><trkpt lat="44.10521056990611" lon="10.966056770671182"><ele>491.3333333333333</ele><time>2026-04-19T11:49:15.851Z</time></trkpt><trkpt lat="44.10537664237664" lon="10.966058883116803"><ele>494.0</ele><time>2026-04-19T11:49:16.851Z</time></trkpt><trkpt lat="44.105527240522626" lon="10.966077308238162"><ele>494.0</ele><time>2026-04-19T11:49:17.851Z</time></trkpt><trkpt lat="44.10567059449432" lon="10.966090172535287"><ele>494.0</ele><time>2026-04-19T11:49:18.851Z</time></trkpt><trkpt lat="44.10581343346904" lon="10.96607464958969"><ele>494.0</ele><time>2026-04-19T11:49:19.851Z</time></trkpt><trkpt lat="44.105929084158646" lon="10.966100160914639"><ele>494.0</ele><time>2026-04-19T11:49:20.851Z</time></trkpt><trkpt lat="44.10605058978175" lon="10.966177630890996"><ele>495.5</ele><time>2026-04-19T11:49:21.851Z</time></trkpt><trkpt lat="44.10617080992947" lon="10.966281586650513"><ele>497.0</ele><time>2026-04-19T11:49:22.851Z</time></trkpt><trkpt lat="44.10630792079544" lon="10.966391036634635"><ele>498.5</ele><time>2026-04-19T11:49:23.851Z</time></trkpt><trkpt lat="44.106429416767384" lon="10.966496364060786"><ele>500.0</ele><time>2026-04-19T11:49:24.851Z</time></trkpt><trkpt lat="44.10654988609533" lon="10.966639458008228"><ele>500.3333333333333</ele><time>2026-04-19T11:49:25.851Z</time></trkpt><trkpt lat="44.106651510911846" lon="10.966791918527782"><ele>500.66666666666663</ele><time>2026-04-19T11:49:26.851Z</time></trkpt><trkpt lat="44.10675151122502" lon="10.96695439086632"><ele>501.0</ele><time>2026-04-19T11:49:27.851Z</time></trkpt><trkpt lat="44.10684549007044" lon="10.967142547909623"><ele>501.0</ele><time>2026-04-19T11:49:28.851Z</time></trkpt><trkpt lat="44.106925808211315" lon="10.967346043912073"><ele>501.0</ele><time>2026-04-19T11:49:29.851Z</time></trkpt><trkpt lat="44.10701603876488" lon="10.96756693702668"><ele>501.0</ele><time>2026-04-19T11:49:30.851Z</time></trkpt><trkpt lat="44.10708057023649" lon="10.967799518146045"><ele>497.25</ele><time>2026-04-19T11:49:31.851Z</time></trkpt><trkpt lat="44.10711961392411" lon="10.968012180828213"><ele>493.5</ele><time>2026-04-19T11:49:32.851Z</time></trkpt><trkpt lat="44.107165217491776" lon="10.96819249678245"><ele>489.75</ele><time>2026-04-19T11:49:33.851Z</time></trkpt><trkpt lat="44.10720507970486" lon="10.96833355647841"><ele>486.0</ele><time>2026-04-19T11:49:34.851Z</time></trkpt><trkpt lat="44.107260546916386" lon="10.968452825591132"><ele>485.8</ele><time>2026-04-19T11:49:35.851Z</time></trkpt><trkpt lat="44.107323254868234" lon="10.968542378824852"><ele>485.6</ele><time>2026-04-19T11:49:36.851Z</time></trkpt><trkpt lat="44.10741607603984" lon="10.968544272374531"><ele>485.4</ele><time>2026-04-19T11:49:37.851Z</time></trkpt><trkpt lat="44.107507368885564" lon="10.968512685712092"><ele>485.2</ele><time>2026-04-19T11:49:38.851Z</time></trkpt><trkpt lat="44.10759345839197" lon="10.968421707194441"><ele>485.0</ele><time>2026-04-19T11:49:39.851Z</time></trkpt><trkpt lat="44.10766582682799" lon="10.96828014464727"><ele>493.0</ele><time>2026-04-19T11:49:40.851Z</time></trkpt><trkpt lat="44.10774137056026" lon="10.968099476665007"><ele>501.0</ele><time>2026-04-19T11:49:41.851Z</time></trkpt><trkpt lat="44.10780647695964" lon="10.967913648940158"><ele>509.0</ele><time>2026-04-19T11:49:42.851Z</time></trkpt><trkpt lat="44.10786189826733" lon="10.967704327700684"><ele>516.6666666666666</ele><time>2026-04-19T11:49:43.851Z</time></trkpt><trkpt lat="44.10790024397688" lon="10.967464817098115"><ele>524.3333333333334</ele><time>2026-04-19T11:49:44.851Z</time></trkpt><trkpt lat="44.10794443946601" lon="10.967246954713723"><ele>532.0</ele><time>2026-04-19T11:49:45.851Z</time></trkpt><trkpt lat="44.10798375829951" lon="10.967034925043608"><ele>532.0</ele><time>2026-04-19T11:49:46.851Z</time></trkpt><trkpt lat="44.10803205257554" lon="10.966832588243479"><ele>532.0</ele><time>2026-04-19T11:49:47.85Z</time></trkpt><trkpt lat="44.10809588839398" lon="10.966652647082475"><ele>532.0</ele><time>2026-04-19T11:49:48.85Z</time></trkpt><trkpt lat="44.108176255846175" lon="10.96647179549778"><ele>528.75</ele><time>2026-04-19T11:49:49.85Z</time></trkpt><trkpt lat="44.10826958014416" lon="10.966288314073571"><ele>525.5</ele><time>2026-04-19T11:49:50.851Z</time></trkpt><trkpt lat="44.108350792027395" lon="10.966143354368235"><ele>522.25</ele><time>2026-04-19T11:49:51.85Z</time></trkpt><trkpt lat="44.10840814272776" lon="10.966010929531203"><ele>519.0</ele><time>2026-04-19T11:49:52.85Z</time></trkpt><trkpt lat="44.1084406711501" lon="10.965848716125405"><ele>523.6666666666666</ele><time>2026-04-19T11:49:53.85Z</time></trkpt><trkpt lat="44.10845980532991" lon="10.965696000368643"><ele>528.3333333333334</ele><time>2026-04-19T11:49:54.85Z</time></trkpt><trkpt lat="44.10846906045227" lon="10.965579579404322"><ele>533.0</ele><time>2026-04-19T11:49:55.85Z</time></trkpt><trkpt lat="44.108485670601176" lon="10.965484736552726"><ele>537.6666666666667</ele><time>2026-04-19T11:49:56.85Z</time></trkpt><trkpt lat="44.10852006422883" lon="10.965404935062454"><ele>542.3333333333334</ele><time>2026-04-19T11:49:57.85Z</time></trkpt><trkpt lat="44.10858772837069" lon="10.9653466270415"><ele>547.0</ele><time>2026-04-19T11:49:58.85Z</time></trkpt><trkpt lat="44.108675900807356" lon="10.965340753494806"><ele>547.0</ele><time>2026-04-19T11:49:59.849Z</time></trkpt><trkpt lat="44.10874925210484" lon="10.965373088845446"><ele>547.0</ele><time>2026-04-19T11:50:00.85Z</time></trkpt><trkpt lat="44.1087805858053" lon="10.965494879904746"><ele>547.0</ele><time>2026-04-19T11:50:01.85Z</time></trkpt><trkpt lat="44.10881348877914" lon="10.96562471942117"><ele>547.0</ele><time>2026-04-19T11:50:02.85Z</time></trkpt><trkpt lat="44.10885211937456" lon="10.9658069780971"><ele>547.0</ele><time>2026-04-19T11:50:03.85Z</time></trkpt><trkpt lat="44.1088687013645" lon="10.965983433689761"><ele>541.4</ele><time>2026-04-19T11:50:04.85Z</time></trkpt><trkpt lat="44.10889242861822" lon="10.96617564808367"><ele>535.8000000000001</ele><time>2026-04-19T11:50:05.85Z</time></trkpt><trkpt lat="44.10890009516943" lon="10.966330442298966"><ele>530.2</ele><time>2026-04-19T11:50:06.85Z</time></trkpt><trkpt lat="44.10890687558378" lon="10.96643645349959"><ele>524.6</ele><time>2026-04-19T11:50:07.85Z</time></trkpt><trkpt lat="44.108936329539134" lon="10.966516940632502"><ele>519.0</ele><time>2026-04-19T11:50:08.85Z</time></trkpt><trkpt lat="44.108990449230305" lon="10.966575247017294"><ele>519.0</ele><time>2026-04-19T11:50:09.85Z</time></trkpt><trkpt lat="44.10906999416144" lon="10.96660413401845"><ele>519.0</ele><time>2026-04-19T11:50:10.85Z</time></trkpt><trkpt lat="44.10915806017408" lon="10.96660594367068"><ele>519.0</ele><time>2026-04-19T11:50:11.85Z</time></trkpt><trkpt lat="44.109255785288056" lon="10.966583476867502"><ele>519.0</ele><time>2026-04-19T11:50:12.85Z</time></trkpt><trkpt lat="44.10934898421818" lon="10.966539024702897"><ele>519.0</ele><time>2026-04-19T11:50:13.85Z</time></trkpt><trkpt lat="44.109425228786016" lon="10.966473064334686"><ele>520.5</ele><time>2026-04-19T11:50:14.85Z</time></trkpt><trkpt lat="44.109484667026386" lon="10.966407313716426"><ele>522.0</ele><time>2026-04-19T11:50:15.85Z</time></trkpt><trkpt lat="44.109554217073956" lon="10.966343103548228"><ele>523.5</ele><time>2026-04-19T11:50:16.85Z</time></trkpt><trkpt lat="44.109623521954816" lon="10.966336392346744"><ele>525.0</ele><time>2026-04-19T11:50:17.85Z</time></trkpt><trkpt lat="44.10971539848906" lon="10.966378271031333"><ele>526.5</ele><time>2026-04-19T11:50:18.85Z</time></trkpt><trkpt lat="44.10982027443003" lon="10.96644209250182"><ele>528.0</ele><time>2026-04-19T11:50:19.85Z</time></trkpt><trkpt lat="44.10992670007049" lon="10.966487320956576"><ele>528.0</ele><time>2026-04-19T11:50:20.85Z</time></trkpt><trkpt lat="44.11003736858782" lon="10.966575399924375"><ele>528.0</ele><time>2026-04-19T11:50:21.85Z</time></trkpt><trkpt lat="44.110140117966246" lon="10.966688033383187"><ele>528.0</ele><time>2026-04-19T11:50:22.85Z</time></trkpt><trkpt lat="44.11023916269035" lon="10.966784677150121"><ele>528.0</ele><time>2026-04-19T11:50:23.85Z</time></trkpt><trkpt lat="44.11033985718367" lon="10.966839234422272"><ele>519.6</ele><time>2026-04-19T11:50:24.85Z</time></trkpt><trkpt lat="44.11042976644314" lon="10.96688362213177"><ele>511.19999999999993</ele><time>2026-04-19T11:50:25.85Z</time></trkpt><trkpt lat="44.11048641239873" lon="10.96697883399413"><ele>502.8</ele><time>2026-04-19T11:50:26.85Z</time></trkpt><trkpt lat="44.11049897934247" lon="10.967156482048713"><ele>494.4</ele><time>2026-04-19T11:50:27.85Z</time></trkpt><trkpt lat="44.11054518659993" lon="10.967284692174252"><ele>486.0</ele><time>2026-04-19T11:50:28.85Z</time></trkpt><trkpt lat="44.11060712281943" lon="10.96746104205209"><ele>482.75</ele><time>2026-04-19T11:50:29.85Z</time></trkpt><trkpt lat="44.11067457596422" lon="10.967646538111394"><ele>479.5</ele><time>2026-04-19T11:50:30.85Z</time></trkpt><trkpt lat="44.11072666244336" lon="10.967808217862268"><ele>476.25</ele><time>2026-04-19T11:50:31.85Z</time></trkpt><trkpt lat="44.11078220214035" lon="10.967921466929955"><ele>473.0</ele><time>2026-04-19T11:50:32.85Z</time></trkpt><trkpt lat="44.110826933878045" lon="10.968031844182278"><ele>479.66666666666663</ele><time>2026-04-19T11:50:33.85Z</time></trkpt><trkpt lat="44.1108620834304" lon="10.968111299697448"><ele>486.3333333333333</ele><time>2026-04-19T11:50:34.85Z</time></trkpt><trkpt lat="44.110914583191835" lon="10.968164005978407"><ele>493.0</ele><time>2026-04-19T11:50:35.85Z</time></trkpt><trkpt lat="44.11101250269073" lon="10.968227540929966"><ele>499.66666666666663</ele><time>2026-04-19T11:50:37.85Z</time></trkpt><trkpt lat="44.11107607833065" lon="10.96827580068584"><ele>506.3333333333333</ele><time>2026-04-19T11:50:40.85Z</time></trkpt><trkpt lat="44.111038017348505" lon="10.968145708942025"><ele>513.0</ele><time>2026-04-19T11:50:44.85Z</time></trkpt><trkpt lat="44.11095901886789" lon="10.968083885548143"><ele>513.0</ele><time>2026-04-19T11:50:45.85Z</time></trkpt><trkpt lat="44.110880322083496" lon="10.967981906745656"><ele>513.0</ele><time>2026-04-19T11:50:46.85Z</time></trkpt><trkpt lat="44.110808889439745" lon="10.967861912687741"><ele>513.0</ele><time>2026-04-19T11:50:47.85Z</time></trkpt><trkpt lat="44.11073666481549" lon="10.967712538818162"><ele>513.0</ele><time>2026-04-19T11:50:48.85Z</time></trkpt><trkpt lat="44.110669027886686" lon="10.967551326282658"><ele>506.25</ele><time>2026-04-19T11:50:49.85Z</time></trkpt><trkpt lat="44.11059951578982" lon="10.967372170400138"><ele>499.5</ele><time>2026-04-19T11:50:50.85Z</time></trkpt><trkpt lat="44.11054142538651" lon="10.96718112284108"><ele>492.75</ele><time>2026-04-19T11:50:51.85Z</time></trkpt><trkpt lat="44.11047937836938" lon="10.967014995167743"><ele>486.0</ele><time>2026-04-19T11:50:52.85Z</time></trkpt><trkpt lat="44.110426427314316" lon="10.966882775732802"><ele>486.0</ele><time>2026-04-19T11:50:53.85Z</time></trkpt><trkpt lat="44.1103670262146" lon="10.966749101616356"><ele>486.0</ele><time>2026-04-19T11:50:54.85Z</time></trkpt><trkpt lat="44.110270047665566" lon="10.966645118945424"><ele>486.0</ele><time>2026-04-19T11:50:55.85Z</time></trkpt><trkpt lat="44.110117314735064" lon="10.966564140320546"><ele>486.0</ele><time>2026-04-19T11:50:56.85Z</time></trkpt><trkpt lat="44.10999148424239" lon="10.966476412620546"><ele>490.0</ele><time>2026-04-19T11:50:57.85Z</time></trkpt><trkpt lat="44.109894143520286" lon="10.966383580920382"><ele>494.0</ele><time>2026-04-19T11:50:58.85Z</time></trkpt><trkpt lat="44.10977593173793" lon="10.966356865233163"><ele>498.0</ele><time>2026-04-19T11:50:59.85Z</time></trkpt><trkpt lat="44.10967053134286" lon="10.966352884415965"><ele>502.0</ele><time>2026-04-19T11:51:00.85Z</time></trkpt><trkpt lat="44.10958552482182" lon="10.966339281176078"><ele>506.0</ele><time>2026-04-19T11:51:01.85Z</time></trkpt><trkpt lat="44.10950225137724" lon="10.966358959078713"><ele>506.0</ele><time>2026-04-19T11:51:02.85Z</time></trkpt><trkpt lat="44.10941982588674" lon="10.966434347062194"><ele>506.0</ele><time>2026-04-19T11:51:03.85Z</time></trkpt><trkpt lat="44.10929990114556" lon="10.966529785162585"><ele>506.0</ele><time>2026-04-19T11:51:04.85Z</time></trkpt><trkpt lat="44.109180163408304" lon="10.96661229189184"><ele>506.0</ele><time>2026-04-19T11:51:05.85Z</time></trkpt><trkpt lat="44.109101742684295" lon="10.966618840797361"><ele>506.0</ele><time>2026-04-19T11:51:06.85Z</time></trkpt><trkpt lat="44.109025344480635" lon="10.966569968785699"><ele>509.25</ele><time>2026-04-19T11:51:07.85Z</time></trkpt><trkpt lat="44.108974900431406" lon="10.966468780071775"><ele>512.5</ele><time>2026-04-19T11:51:08.85Z</time></trkpt><trkpt lat="44.1089361243149" lon="10.966333730900416"><ele>515.75</ele><time>2026-04-19T11:51:09.85Z</time></trkpt><trkpt lat="44.10892255468943" lon="10.96615308117602"><ele>519.0</ele><time>2026-04-19T11:51:10.85Z</time></trkpt><trkpt lat="44.10891741723192" lon="10.965951993178052"><ele>524.6</ele><time>2026-04-19T11:51:11.85Z</time></trkpt><trkpt lat="44.108881326848994" lon="10.96576700156507"><ele>530.2</ele><time>2026-04-19T11:51:12.85Z</time></trkpt><trkpt lat="44.108842742373" lon="10.965604095872838"><ele>535.8000000000001</ele><time>2026-04-19T11:51:13.85Z</time></trkpt><trkpt lat="44.10881462350225" lon="10.965485715701478"><ele>541.4</ele><time>2026-04-19T11:51:14.85Z</time></trkpt><trkpt lat="44.1087938151418" lon="10.965385498819202"><ele>547.0</ele><time>2026-04-19T11:51:15.849Z</time></trkpt><trkpt lat="44.108751056837946" lon="10.965299885503505"><ele>547.0</ele><time>2026-04-19T11:51:16.849Z</time></trkpt><trkpt lat="44.108682102431246" lon="10.965258660185219"><ele>547.0</ele><time>2026-04-19T11:51:17.849Z</time></trkpt><trkpt lat="44.108604146894194" lon="10.965257036945744"><ele>547.0</ele><time>2026-04-19T11:51:18.849Z</time></trkpt><trkpt lat="44.1085131126561" lon="10.965316977711858"><ele>547.0</ele><time>2026-04-19T11:51:19.849Z</time></trkpt><trkpt lat="44.10843875151255" lon="10.965424081367653"><ele>547.0</ele><time>2026-04-19T11:51:20.849Z</time></trkpt><trkpt lat="44.1084104270057" lon="10.965576807533832"><ele>547.0</ele><time>2026-04-19T11:51:21.849Z</time></trkpt><trkpt lat="44.1084190880286" lon="10.965786597799227"><ele>547.0</ele><time>2026-04-19T11:51:22.849Z</time></trkpt><trkpt lat="44.10839811152034" lon="10.96595259006075"><ele>547.0</ele><time>2026-04-19T11:51:23.849Z</time></trkpt><trkpt lat="44.10835688789984" lon="10.966110333482174"><ele>547.0</ele><time>2026-04-19T11:51:24.849Z</time></trkpt><trkpt lat="44.10827924938227" lon="10.966274201378779"><ele>551.6666666666667</ele><time>2026-04-19T11:51:25.849Z</time></trkpt><trkpt lat="44.108184302774255" lon="10.96644845899351"><ele>556.3333333333334</ele><time>2026-04-19T11:51:26.849Z</time></trkpt><trkpt lat="44.10808118260493" lon="10.966613805812482"><ele>561.0</ele><time>2026-04-19T11:51:27.849Z</time></trkpt><trkpt lat="44.10800418694643" lon="10.966798897965093"><ele>553.75</ele><time>2026-04-19T11:51:28.849Z</time></trkpt><trkpt lat="44.107944309167806" lon="10.96696728980536"><ele>546.5</ele><time>2026-04-19T11:51:29.849Z</time></trkpt><trkpt lat="44.107900260080925" lon="10.967139930513301"><ele>539.25</ele><time>2026-04-19T11:51:30.849Z</time></trkpt><trkpt lat="44.10786389836161" lon="10.967335532489265"><ele>532.0</ele><time>2026-04-19T11:51:31.849Z</time></trkpt><trkpt lat="44.107841347037485" lon="10.967553726142327"><ele>526.25</ele><time>2026-04-19T11:51:32.849Z</time></trkpt><trkpt lat="44.107828516818635" lon="10.967741922627498"><ele>520.5</ele><time>2026-04-19T11:51:33.849Z</time></trkpt><trkpt lat="44.10778493966017" lon="10.967928724486377"><ele>514.75</ele><time>2026-04-19T11:51:34.849Z</time></trkpt><trkpt lat="44.10769770031253" lon="10.968117457117087"><ele>509.0</ele><time>2026-04-19T11:51:35.849Z</time></trkpt><trkpt lat="44.10761673431573" lon="10.968283766207614"><ele>504.2</ele><time>2026-04-19T11:51:36.849Z</time></trkpt><trkpt lat="44.10756269151882" lon="10.96840795444937"><ele>499.4</ele><time>2026-04-19T11:51:37.849Z</time></trkpt><trkpt lat="44.1074948134284" lon="10.968483170448618"><ele>494.6</ele><time>2026-04-19T11:51:38.849Z</time></trkpt><trkpt lat="44.107415323289615" lon="10.968514004689595"><ele>489.8</ele><time>2026-04-19T11:51:39.849Z</time></trkpt><trkpt lat="44.10731318547983" lon="10.968489007501043"><ele>485.0</ele><time>2026-04-19T11:51:40.849Z</time></trkpt><trkpt lat="44.10722538696694" lon="10.96840663435104"><ele>485.25</ele><time>2026-04-19T11:51:41.849Z</time></trkpt><trkpt lat="44.107171887978936" lon="10.96823494538438"><ele>485.5</ele><time>2026-04-19T11:51:42.849Z</time></trkpt><trkpt lat="44.10714270487347" lon="10.968046427619733"><ele>485.75</ele><time>2026-04-19T11:51:43.849Z</time></trkpt><trkpt lat="44.10711466944813" lon="10.96785243549012"><ele>486.0</ele><time>2026-04-19T11:51:44.849Z</time></trkpt><trkpt lat="44.10706521998678" lon="10.967642468272683"><ele>491.0</ele><time>2026-04-19T11:51:45.849Z</time></trkpt><trkpt lat="44.10701123337734" lon="10.967424735580085"><ele>496.0</ele><time>2026-04-19T11:51:46.849Z</time></trkpt><trkpt lat="44.10693751796581" lon="10.967215436154856"><ele>501.0</ele><time>2026-04-19T11:51:47.849Z</time></trkpt><trkpt lat="44.10684582559996" lon="10.967013655915105"><ele>501.0</ele><time>2026-04-19T11:51:48.849Z</time></trkpt><trkpt lat="44.10674197548391" lon="10.966828032494423"><ele>501.0</ele><time>2026-04-19T11:51:49.849Z</time></trkpt><trkpt lat="44.10661685593358" lon="10.966652939596292"><ele>501.0</ele><time>2026-04-19T11:51:50.849Z</time></trkpt><trkpt lat="44.10648933530855" lon="10.966490812069692"><ele>500.66666666666663</ele><time>2026-04-19T11:51:51.849Z</time></trkpt><trkpt lat="44.10636062141082" lon="10.966347764724652"><ele>500.3333333333333</ele><time>2026-04-19T11:51:52.849Z</time></trkpt><trkpt lat="44.106208466094685" lon="10.96623624740013"><ele>500.0</ele><time>2026-04-19T11:51:53.849Z</time></trkpt><trkpt lat="44.10607697665647" lon="10.966128653805187"><ele>500.0</ele><time>2026-04-19T11:51:54.85Z</time></trkpt><trkpt lat="44.10596223463156" lon="10.966036087624156"><ele>500.0</ele><time>2026-04-19T11:51:55.85Z</time></trkpt><trkpt lat="44.105861674130225" lon="10.96598099836209"><ele>500.0</ele><time>2026-04-19T11:51:56.849Z</time></trkpt><trkpt lat="44.10573008882622" lon="10.965959725257145"><ele>500.0</ele><time>2026-04-19T11:51:57.849Z</time></trkpt><trkpt lat="44.10555578043677" lon="10.966013501854045"><ele>498.0</ele><time>2026-04-19T11:51:58.849Z</time></trkpt><trkpt lat="44.10537332116959" lon="10.966001634914099"><ele>496.0</ele><time>2026-04-19T11:51:59.849Z</time></trkpt><trkpt lat="44.10518665845392" lon="10.965956595089965"><ele>494.0</ele><time>2026-04-19T11:52:00.849Z</time></trkpt><trkpt lat="44.104999550881146" lon="10.966000813295974"><ele>491.3333333333333</ele><time>2026-04-19T11:52:01.849Z</time></trkpt><trkpt lat="44.10483481414866" lon="10.96604823130086"><ele>488.66666666666663</ele><time>2026-04-19T11:52:02.849Z</time></trkpt><trkpt lat="44.10466388665789" lon="10.96604266069904"><ele>486.0</ele><time>2026-04-19T11:52:03.849Z</time></trkpt><trkpt lat="44.10450614520431" lon="10.96602956633452"><ele>486.0</ele><time>2026-04-19T11:52:04.849Z</time></trkpt><trkpt lat="44.10434618527589" lon="10.966022300050152"><ele>486.0</ele><time>2026-04-19T11:52:05.849Z</time></trkpt><trkpt lat="44.10419369709587" lon="10.966031671206128"><ele>486.0</ele><time>2026-04-19T11:52:06.849Z</time></trkpt><trkpt lat="44.10406240284014" lon="10.966060305507575"><ele>486.0</ele><time>2026-04-19T11:52:07.849Z</time></trkpt><trkpt lat="44.10394723145153" lon="10.96606822179019"><ele>486.6666666666667</ele><time>2026-04-19T11:52:08.849Z</time></trkpt><trkpt lat="44.103857226012295" lon="10.966057330674433"><ele>487.33333333333337</ele><time>2026-04-19T11:52:09.849Z</time></trkpt><trkpt lat="44.10378202153383" lon="10.966026710255294"><ele>488.0</ele><time>2026-04-19T11:52:10.849Z</time></trkpt><trkpt lat="44.10373765066114" lon="10.965937613306291"><ele>488.6666666666667</ele><time>2026-04-19T11:52:11.849Z</time></trkpt><trkpt lat="44.10371492986175" lon="10.965816318516517"><ele>489.33333333333337</ele><time>2026-04-19T11:52:12.849Z</time></trkpt><trkpt lat="44.10369597454406" lon="10.965668446095464"><ele>490.0</ele><time>2026-04-19T11:52:13.849Z</time></trkpt><trkpt lat="44.103635167997254" lon="10.965536481603284"><ele>489.25</ele><time>2026-04-19T11:52:14.849Z</time></trkpt><trkpt lat="44.103534173819796" lon="10.965428966241854"><ele>488.5</ele><time>2026-04-19T11:52:15.849Z</time></trkpt><trkpt lat="44.10340293548888" lon="10.965344353146154"><ele>487.75</ele><time>2026-04-19T11:52:16.849Z</time></trkpt><trkpt lat="44.103258707331754" lon="10.9653153822667"><ele>487.0</ele><time>2026-04-19T11:52:17.849Z</time></trkpt><trkpt lat="44.103128135246635" lon="10.965281625515926"><ele>487.0</ele><time>2026-04-19T11:52:18.849Z</time></trkpt><trkpt lat="44.10302430621421" lon="10.965207057010673"><ele>487.0</ele><time>2026-04-19T11:52:19.849Z</time></trkpt><trkpt lat="44.10295230637562" lon="10.965076271359445"><ele>487.0</ele><time>2026-04-19T11:52:20.849Z</time></trkpt><trkpt lat="44.10288909692434" lon="10.964912032438017"><ele>487.0</ele><time>2026-04-19T11:52:21.849Z</time></trkpt><trkpt lat="44.10282400860841" lon="10.964727264898077"><ele>488.33333333333337</ele><time>2026-04-19T11:52:22.849Z</time></trkpt><trkpt lat="44.102752135818946" lon="10.96452333528759"><ele>489.66666666666663</ele><time>2026-04-19T11:52:23.849Z</time></trkpt><trkpt lat="44.10268385226353" lon="10.964326428276586"><ele>491.0</ele><time>2026-04-19T11:52:24.849Z</time></trkpt><trkpt lat="44.1026102929036" lon="10.964120887926034"><ele>494.0</ele><time>2026-04-19T11:52:25.849Z</time></trkpt><trkpt lat="44.10254247506225" lon="10.963905747368303"><ele>497.0</ele><time>2026-04-19T11:52:26.849Z</time></trkpt><trkpt lat="44.10248985414069" lon="10.963701910428185"><ele>500.0</ele><time>2026-04-19T11:52:27.849Z</time></trkpt><trkpt lat="44.10243573291064" lon="10.963505838557582"><ele>495.66666666666663</ele><time>2026-04-19T11:52:28.849Z</time></trkpt><trkpt lat="44.10238053660833" lon="10.963312862223882"><ele>491.33333333333337</ele><time>2026-04-19T11:52:29.849Z</time></trkpt><trkpt lat="44.102303817115946" lon="10.963131739344023"><ele>487.0</ele><time>2026-04-19T11:52:30.849Z</time></trkpt><trkpt lat="44.10222864551638" lon="10.96293487384803"><ele>487.0</ele><time>2026-04-19T11:52:31.849Z</time></trkpt><trkpt lat="44.10212582641317" lon="10.96274671053331"><ele>487.0</ele><time>2026-04-19T11:52:32.849Z</time></trkpt><trkpt lat="44.10200552097796" lon="10.96257156882023"><ele>487.0</ele><time>2026-04-19T11:52:33.849Z</time></trkpt><trkpt lat="44.101889128051084" lon="10.962389252322179"><ele>488.33333333333337</ele><time>2026-04-19T11:52:34.849Z</time></trkpt><trkpt lat="44.10176805854251" lon="10.962212384231131"><ele>489.66666666666663</ele><time>2026-04-19T11:52:35.849Z</time></trkpt><trkpt lat="44.101649610050465" lon="10.962059047010309"><ele>491.0</ele><time>2026-04-19T11:52:36.849Z</time></trkpt><trkpt lat="44.10154412341415" lon="10.96191697417708"><ele>491.0</ele><time>2026-04-19T11:52:37.849Z</time></trkpt><trkpt lat="44.10144154921653" lon="10.96177049979901"><ele>491.0</ele><time>2026-04-19T11:52:38.849Z</time></trkpt><trkpt lat="44.10132780521325" lon="10.961662305905111"><ele>491.0</ele><time>2026-04-19T11:52:39.849Z</time></trkpt><trkpt lat="44.10119177278312" lon="10.961602841611557"><ele>491.0</ele><time>2026-04-19T11:52:40.849Z</time></trkpt><trkpt lat="44.101046521670206" lon="10.961529988735975"><ele>492.0</ele><time>2026-04-19T11:52:41.849Z</time></trkpt><trkpt lat="44.10089967004692" lon="10.961429319129739"><ele>493.0</ele><time>2026-04-19T11:52:42.849Z</time></trkpt><trkpt lat="44.10075003288479" lon="10.961336479904617"><ele>494.0</ele><time>2026-04-19T11:52:43.849Z</time></trkpt><trkpt lat="44.10061764740185" lon="10.9612546689566"><ele>492.5</ele><time>2026-04-19T11:52:44.849Z</time></trkpt><trkpt lat="44.10050359714103" lon="10.961167461227893"><ele>491.0</ele><time>2026-04-19T11:52:45.849Z</time></trkpt><trkpt lat="44.10040736189014" lon="10.961059181525192"><ele>489.5</ele><time>2026-04-19T11:52:46.849Z</time></trkpt><trkpt lat="44.10031788699292" lon="10.960948574448091"><ele>488.0</ele><time>2026-04-19T11:52:47.849Z</time></trkpt><trkpt lat="44.10021139422309" lon="10.960868877752818"><ele>489.25</ele><time>2026-04-19T11:52:48.849Z</time></trkpt><trkpt lat="44.10008851579003" lon="10.960803598245146"><ele>490.5</ele><time>2026-04-19T11:52:49.849Z</time></trkpt><trkpt lat="44.09995847084209" lon="10.960729655608606"><ele>491.75</ele><time>2026-04-19T11:52:50.849Z</time></trkpt><trkpt lat="44.09983653656118" lon="10.960642158433856"><ele>493.0</ele><time>2026-04-19T11:52:51.849Z</time></trkpt><trkpt lat="44.09972054974541" lon="10.960562640220939"><ele>493.0</ele><time>2026-04-19T11:52:52.849Z</time></trkpt><trkpt lat="44.09961093884911" lon="10.960506130145465"><ele>493.0</ele><time>2026-04-19T11:52:53.849Z</time></trkpt><trkpt lat="44.09950161966915" lon="10.960459809474013"><ele>493.0</ele><time>2026-04-19T11:52:54.849Z</time></trkpt><trkpt lat="44.09939605141245" lon="10.960409456433933"><ele>493.0</ele><time>2026-04-19T11:52:55.849Z</time></trkpt><trkpt lat="44.09928800696088" lon="10.960358675631596"><ele>493.0</ele><time>2026-04-19T11:52:56.849Z</time></trkpt><trkpt lat="44.09918464186254" lon="10.960310956743193"><ele>493.0</ele><time>2026-04-19T11:52:57.849Z</time></trkpt><trkpt lat="44.09907310848946" lon="10.960265968432873"><ele>493.0</ele><time>2026-04-19T11:52:58.849Z</time></trkpt><trkpt lat="44.09895842760799" lon="10.960220836231994"><ele>493.0</ele><time>2026-04-19T11:52:59.849Z</time></trkpt><trkpt lat="44.09882919923498" lon="10.960182532001431"><ele>493.25</ele><time>2026-04-19T11:53:00.849Z</time></trkpt><trkpt lat="44.09869471386423" lon="10.960164664639688"><ele>493.5</ele><time>2026-04-19T11:53:01.849Z</time></trkpt><trkpt lat="44.09855621053191" lon="10.960152429853938"><ele>493.75</ele><time>2026-04-19T11:53:02.849Z</time></trkpt><trkpt lat="44.098419148961156" lon="10.960135594091785"><ele>494.0</ele><time>2026-04-19T11:53:03.849Z</time></trkpt><trkpt lat="44.09826492975141" lon="10.960144694310706"><ele>495.66666666666663</ele><time>2026-04-19T11:53:04.849Z</time></trkpt><trkpt lat="44.09810959351047" lon="10.960138598279208"><ele>497.33333333333337</ele><time>2026-04-19T11:53:05.849Z</time></trkpt><trkpt lat="44.09795906554083" lon="10.960071493865307"><ele>499.0</ele><time>2026-04-19T11:53:06.849Z</time></trkpt><trkpt lat="44.0978026574718" lon="10.959992979955164"><ele>499.0</ele><time>2026-04-19T11:53:07.849Z</time></trkpt><trkpt lat="44.09765496866876" lon="10.959870464667189"><ele>499.0</ele><time>2026-04-19T11:53:08.849Z</time></trkpt><trkpt lat="44.09749526001406" lon="10.959767616878699"><ele>499.0</ele><time>2026-04-19T11:53:09.849Z</time></trkpt><trkpt lat="44.09733775688439" lon="10.959667895997354"><ele>498.33333333333337</ele><time>2026-04-19T11:53:10.849Z</time></trkpt><trkpt lat="44.09717510671804" lon="10.959551035109747"><ele>497.66666666666663</ele><time>2026-04-19T11:53:11.849Z</time></trkpt><trkpt lat="44.09700705990526" lon="10.959449747288316"><ele>497.0</ele><time>2026-04-19T11:53:12.849Z</time></trkpt><trkpt lat="44.096842450679254" lon="10.959347054922635"><ele>497.0</ele><time>2026-04-19T11:53:13.849Z</time></trkpt><trkpt lat="44.09667964106567" lon="10.959244293928746"><ele>497.0</ele><time>2026-04-19T11:53:14.849Z</time></trkpt><trkpt lat="44.09651655101588" lon="10.959138211265847"><ele>497.0</ele><time>2026-04-19T11:53:15.849Z</time></trkpt><trkpt lat="44.09635783660734" lon="10.959031876525838"><ele>499.0</ele><time>2026-04-19T11:53:16.849Z</time></trkpt><trkpt lat="44.09620046155554" lon="10.958918137781856"><ele>501.0</ele><time>2026-04-19T11:53:17.849Z</time></trkpt><trkpt lat="44.09605153722156" lon="10.958777490131675"><ele>503.0</ele><time>2026-04-19T11:53:18.849Z</time></trkpt><trkpt lat="44.09589271523358" lon="10.958627306432845"><ele>503.3333333333333</ele><time>2026-04-19T11:53:19.849Z</time></trkpt><trkpt lat="44.09573263139963" lon="10.95850803523282"><ele>503.66666666666663</ele><time>2026-04-19T11:53:20.849Z</time></trkpt><trkpt lat="44.09558918761148" lon="10.95837797385673"><ele>504.0</ele><time>2026-04-19T11:53:21.849Z</time></trkpt><trkpt lat="44.09546883685275" lon="10.958254663698018"><ele>504.0</ele><time>2026-04-19T11:53:22.849Z</time></trkpt><trkpt lat="44.095370008707775" lon="10.958138585072545"><ele>504.0</ele><time>2026-04-19T11:53:23.849Z</time></trkpt><trkpt lat="44.09528967136214" lon="10.958023152015508"><ele>504.0</ele><time>2026-04-19T11:53:24.849Z</time></trkpt><trkpt lat="44.09523383808877" lon="10.957904009996836"><ele>504.0</ele><time>2026-04-19T11:53:25.849Z</time></trkpt><trkpt lat="44.095209323842" lon="10.95775457291988"><ele>504.0</ele><time>2026-04-19T11:53:26.849Z</time></trkpt><trkpt lat="44.09520226304957" lon="10.95757864992081"><ele>504.0</ele><time>2026-04-19T11:53:27.849Z</time></trkpt><trkpt lat="44.09518434543744" lon="10.957377975592408"><ele>504.0</ele><time>2026-04-19T11:53:28.849Z</time></trkpt><trkpt lat="44.095091985311235" lon="10.957211697171013"><ele>504.0</ele><time>2026-04-19T11:53:29.849Z</time></trkpt><trkpt lat="44.09503082276979" lon="10.957046144625894"><ele>505.0</ele><time>2026-04-19T11:53:30.849Z</time></trkpt><trkpt lat="44.095021042676194" lon="10.956851275929596"><ele>506.0</ele><time>2026-04-19T11:53:31.849Z</time></trkpt><trkpt lat="44.09501764484762" lon="10.956640359771212"><ele>507.0</ele><time>2026-04-19T11:53:32.849Z</time></trkpt><trkpt lat="44.09497564998921" lon="10.956436164063822"><ele>508.0</ele><time>2026-04-19T11:53:33.849Z</time></trkpt><trkpt lat="44.09494738637928" lon="10.956251941484366"><ele>507.0</ele><time>2026-04-19T11:53:34.849Z</time></trkpt><trkpt lat="44.094898671742996" lon="10.956088495565343"><ele>506.0</ele><time>2026-04-19T11:53:35.849Z</time></trkpt><trkpt lat="44.09483615523763" lon="10.95592460664542"><ele>505.0</ele><time>2026-04-19T11:53:36.849Z</time></trkpt><trkpt lat="44.09469566182033" lon="10.955821989704873"><ele>504.0</ele><time>2026-04-19T11:53:37.849Z</time></trkpt><trkpt lat="44.094556869986036" lon="10.955693035780902"><ele>506.66666666666663</ele><time>2026-04-19T11:53:38.849Z</time></trkpt><trkpt lat="44.0944244990717" lon="10.955566656334678"><ele>509.3333333333333</ele><time>2026-04-19T11:53:39.849Z</time></trkpt><trkpt lat="44.09428235025969" lon="10.955421704741484"><ele>512.0</ele><time>2026-04-19T11:53:40.849Z</time></trkpt><trkpt lat="44.094110120287844" lon="10.955337585225827"><ele>510.3333333333333</ele><time>2026-04-19T11:53:41.849Z</time></trkpt><trkpt lat="44.09394777332579" lon="10.955236050734152"><ele>508.66666666666663</ele><time>2026-04-19T11:53:42.849Z</time></trkpt><trkpt lat="44.09379985847592" lon="10.955114716218427"><ele>507.0</ele><time>2026-04-19T11:53:43.849Z</time></trkpt><trkpt lat="44.09362857733187" lon="10.95508597745256"><ele>507.0</ele><time>2026-04-19T11:53:44.849Z</time></trkpt><trkpt lat="44.09346032873576" lon="10.955045431099677"><ele>507.0</ele><time>2026-04-19T11:53:45.849Z</time></trkpt><trkpt lat="44.093295907072495" lon="10.955014991639972"><ele>507.0</ele><time>2026-04-19T11:53:46.849Z</time></trkpt><trkpt lat="44.09313668469484" lon="10.954999174011565"><ele>514.6666666666666</ele><time>2026-04-19T11:53:47.849Z</time></trkpt><trkpt lat="44.092964639640506" lon="10.954997098845737"><ele>522.3333333333333</ele><time>2026-04-19T11:53:48.849Z</time></trkpt><trkpt lat="44.09277909169176" lon="10.955002349441807"><ele>530.0</ele><time>2026-04-19T11:53:49.849Z</time></trkpt><trkpt lat="44.0925959197755" lon="10.955022348810816"><ele>525.0</ele><time>2026-04-19T11:53:50.849Z</time></trkpt><trkpt lat="44.09240413194428" lon="10.955051294543521"><ele>520.0</ele><time>2026-04-19T11:53:51.849Z</time></trkpt><trkpt lat="44.09222856020722" lon="10.955080078125762"><ele>515.0</ele><time>2026-04-19T11:53:52.849Z</time></trkpt><trkpt lat="44.09207244715819" lon="10.955133780453556"><ele>515.0</ele><time>2026-04-19T11:53:53.849Z</time></trkpt><trkpt lat="44.091913336676996" lon="10.95515962837652"><ele>515.0</ele><time>2026-04-19T11:53:54.849Z</time></trkpt><trkpt lat="44.09177310985132" lon="10.95516971199834"><ele>515.0</ele><time>2026-04-19T11:53:55.849Z</time></trkpt><trkpt lat="44.091640962145796" lon="10.955181846787216"><ele>515.0</ele><time>2026-04-19T11:53:56.849Z</time></trkpt><trkpt lat="44.09151920307689" lon="10.955178025444399"><ele>518.6666666666666</ele><time>2026-04-19T11:53:57.849Z</time></trkpt><trkpt lat="44.09137379233902" lon="10.955156299313233"><ele>522.3333333333334</ele><time>2026-04-19T11:53:58.849Z</time></trkpt><trkpt lat="44.09121434789882" lon="10.955127643090343"><ele>526.0</ele><time>2026-04-19T11:53:59.848Z</time></trkpt><trkpt lat="44.09105131316929" lon="10.95508687562963"><ele>526.6666666666667</ele><time>2026-04-19T11:54:00.848Z</time></trkpt><trkpt lat="44.09087767297418" lon="10.955035608283218"><ele>527.3333333333334</ele><time>2026-04-19T11:54:01.848Z</time></trkpt><trkpt lat="44.090701166494746" lon="10.95496495678065"><ele>528.0</ele><time>2026-04-19T11:54:02.849Z</time></trkpt><trkpt lat="44.090533547087276" lon="10.954882504656533"><ele>523.6666666666666</ele><time>2026-04-19T11:54:03.848Z</time></trkpt><trkpt lat="44.09038709635789" lon="10.954779435454668"><ele>519.3333333333333</ele><time>2026-04-19T11:54:04.848Z</time></trkpt><trkpt lat="44.09023656941047" lon="10.954668185811352"><ele>515.0</ele><time>2026-04-19T11:54:05.849Z</time></trkpt><trkpt lat="44.09009347047589" lon="10.954535026779858"><ele>515.0</ele><time>2026-04-19T11:54:06.848Z</time></trkpt><trkpt lat="44.089974032296396" lon="10.954395672596815"><ele>515.0</ele><time>2026-04-19T11:54:07.848Z</time></trkpt><trkpt lat="44.089852614297214" lon="10.954286513831327"><ele>515.0</ele><time>2026-04-19T11:54:08.848Z</time></trkpt><trkpt lat="44.08974689134623" lon="10.954167369226191"><ele>515.0</ele><time>2026-04-19T11:54:09.848Z</time></trkpt><trkpt lat="44.0896474981707" lon="10.954050770301155"><ele>515.6666666666666</ele><time>2026-04-19T11:54:10.848Z</time></trkpt><trkpt lat="44.08956465749815" lon="10.95389918011859"><ele>516.3333333333334</ele><time>2026-04-19T11:54:11.848Z</time></trkpt><trkpt lat="44.089471681318166" lon="10.953729178628574"><ele>517.0</ele><time>2026-04-19T11:54:12.848Z</time></trkpt><trkpt lat="44.0893954004204" lon="10.953527475912056"><ele>517.6666666666667</ele><time>2026-04-19T11:54:13.848Z</time></trkpt><trkpt lat="44.08932830080437" lon="10.953308528359516"><ele>518.3333333333334</ele><time>2026-04-19T11:54:14.848Z</time></trkpt><trkpt lat="44.08927692681306" lon="10.95308897696179"><ele>519.0</ele><time>2026-04-19T11:54:15.848Z</time></trkpt><trkpt lat="44.089230003404005" lon="10.9528759073627"><ele>519.0</ele><time>2026-04-19T11:54:16.848Z</time></trkpt><trkpt lat="44.089204580364154" lon="10.952653890838583"><ele>519.0</ele><time>2026-04-19T11:54:17.848Z</time></trkpt><trkpt lat="44.08919398006409" lon="10.95242478265288"><ele>519.0</ele><time>2026-04-19T11:54:18.847Z</time></trkpt><trkpt lat="44.089189755205865" lon="10.952185614381847"><ele>519.25</ele><time>2026-04-19T11:54:19.847Z</time></trkpt><trkpt lat="44.08920624857723" lon="10.951955253708684"><ele>519.5</ele><time>2026-04-19T11:54:20.847Z</time></trkpt><trkpt lat="44.0892302089649" lon="10.951756676555144"><ele>519.75</ele><time>2026-04-19T11:54:21.847Z</time></trkpt><trkpt lat="44.089251652642275" lon="10.95160371840845"><ele>520.0</ele><time>2026-04-19T11:54:22.847Z</time></trkpt><trkpt lat="44.08927016436503" lon="10.951460507684171"><ele>519.4</ele><time>2026-04-19T11:54:23.847Z</time></trkpt><trkpt lat="44.089323347625125" lon="10.95134138805802"><ele>518.8</ele><time>2026-04-19T11:54:24.847Z</time></trkpt><trkpt lat="44.08939960176628" lon="10.9512719456067"><ele>518.2</ele><time>2026-04-19T11:54:25.847Z</time></trkpt><trkpt lat="44.08948037923761" lon="10.951246712304615"><ele>517.6</ele><time>2026-04-19T11:54:26.847Z</time></trkpt><trkpt lat="44.089543521161616" lon="10.951218488187788"><ele>517.0</ele><time>2026-04-19T11:54:27.847Z</time></trkpt><trkpt lat="44.08957712467198" lon="10.951063930588173"><ele>517.0</ele><time>2026-04-19T11:54:29.847Z</time></trkpt><trkpt lat="44.0895310480122" lon="10.950929921280185"><ele>517.0</ele><time>2026-04-19T11:54:30.847Z</time></trkpt><trkpt lat="44.08948590169245" lon="10.950805049861078"><ele>517.0</ele><time>2026-04-19T11:54:31.847Z</time></trkpt><trkpt lat="44.0894088955391" lon="10.950675642955044"><ele>517.0</ele><time>2026-04-19T11:54:32.847Z</time></trkpt><trkpt lat="44.08931681013862" lon="10.950576078621841"><ele>517.0</ele><time>2026-04-19T11:54:33.847Z</time></trkpt><trkpt lat="44.089208724221216" lon="10.9505297303106"><ele>517.0</ele><time>2026-04-19T11:54:34.847Z</time></trkpt><trkpt lat="44.08910451795754" lon="10.950533991647163"><ele>517.0</ele><time>2026-04-19T11:54:35.847Z</time></trkpt><trkpt lat="44.089019756454725" lon="10.950541473967913"><ele>517.0</ele><time>2026-04-19T11:54:36.847Z</time></trkpt><trkpt lat="44.08894768321477" lon="10.950526250212006"><ele>517.0</ele><time>2026-04-19T11:54:37.847Z</time></trkpt><trkpt lat="44.08888371063355" lon="10.950457793850518"><ele>517.0</ele><time>2026-04-19T11:54:38.847Z</time></trkpt><trkpt lat="44.08881995924757" lon="10.950354881270231"><ele>517.0</ele><time>2026-04-19T11:54:39.847Z</time></trkpt><trkpt lat="44.08873639856806" lon="10.950261516354264"><ele>517.5</ele><time>2026-04-19T11:54:40.847Z</time></trkpt><trkpt lat="44.08861118120048" lon="10.950184818952016"><ele>518.0</ele><time>2026-04-19T11:54:41.847Z</time></trkpt><trkpt lat="44.08847811175513" lon="10.950124436233512"><ele>518.5</ele><time>2026-04-19T11:54:42.847Z</time></trkpt><trkpt lat="44.08834825893574" lon="10.95004388573508"><ele>519.0</ele><time>2026-04-19T11:54:43.847Z</time></trkpt><trkpt lat="44.088223367957056" lon="10.949949267814924"><ele>520.0</ele><time>2026-04-19T11:54:44.847Z</time></trkpt><trkpt lat="44.088084094897305" lon="10.949891373826109"><ele>521.0</ele><time>2026-04-19T11:54:45.847Z</time></trkpt><trkpt lat="44.08793327660349" lon="10.949865717915058"><ele>522.0</ele><time>2026-04-19T11:54:46.847Z</time></trkpt><trkpt lat="44.08778043853776" lon="10.949838063425302"><ele>522.0</ele><time>2026-04-19T11:54:47.847Z</time></trkpt><trkpt lat="44.08764034738781" lon="10.949803084222182"><ele>522.0</ele><time>2026-04-19T11:54:48.847Z</time></trkpt><trkpt lat="44.08753751318473" lon="10.949747582488252"><ele>522.0</ele><time>2026-04-19T11:54:49.847Z</time></trkpt><trkpt lat="44.087449853993206" lon="10.949702210679682"><ele>522.0</ele><time>2026-04-19T11:54:50.847Z</time></trkpt><trkpt lat="44.08738382236515" lon="10.949634371613485"><ele>522.0</ele><time>2026-04-19T11:54:51.847Z</time></trkpt><trkpt lat="44.08734486786014" lon="10.949529007925687"><ele>523.0</ele><time>2026-04-19T11:54:52.847Z</time></trkpt><trkpt lat="44.08734761572793" lon="10.949385839287386"><ele>524.0</ele><time>2026-04-19T11:54:53.847Z</time></trkpt><trkpt lat="44.08737540437735" lon="10.949226508432563"><ele>525.0</ele><time>2026-04-19T11:54:54.847Z</time></trkpt><trkpt lat="44.08738722957283" lon="10.949059183536859"><ele>526.0</ele><time>2026-04-19T11:54:55.847Z</time></trkpt><trkpt lat="44.087363079271256" lon="10.94889019699116"><ele>526.0</ele><time>2026-04-19T11:54:56.847Z</time></trkpt><trkpt lat="44.08730567749836" lon="10.948710513136431"><ele>526.0</ele><time>2026-04-19T11:54:57.847Z</time></trkpt><trkpt lat="44.087229077386574" lon="10.94852523835504"><ele>526.0</ele><time>2026-04-19T11:54:58.847Z</time></trkpt><trkpt lat="44.08716504957999" lon="10.948340136984724"><ele>526.0</ele><time>2026-04-19T11:54:59.847Z</time></trkpt><trkpt lat="44.087117276577146" lon="10.948186966627985"><ele>527.25</ele><time>2026-04-19T11:55:00.847Z</time></trkpt><trkpt lat="44.0870668866692" lon="10.948076889403223"><ele>528.5</ele><time>2026-04-19T11:55:01.847Z</time></trkpt><trkpt lat="44.086971768284734" lon="10.948002185632019"><ele>529.75</ele><time>2026-04-19T11:55:02.847Z</time></trkpt><trkpt lat="44.086842709892856" lon="10.947948714397642"><ele>531.0</ele><time>2026-04-19T11:55:03.847Z</time></trkpt><trkpt lat="44.08671655304266" lon="10.94788092339667"><ele>531.0</ele><time>2026-04-19T11:55:04.847Z</time></trkpt><trkpt lat="44.0865946422174" lon="10.947788372176213"><ele>531.0</ele><time>2026-04-19T11:55:05.847Z</time></trkpt><trkpt lat="44.08649756566955" lon="10.947680200327907"><ele>531.0</ele><time>2026-04-19T11:55:06.847Z</time></trkpt><trkpt lat="44.08642736470182" lon="10.947602689795307"><ele>531.0</ele><time>2026-04-19T11:55:07.847Z</time></trkpt><trkpt lat="44.086321094369566" lon="10.947576419519335"><ele>530.3333333333334</ele><time>2026-04-19T11:55:08.847Z</time></trkpt><trkpt lat="44.08618192528518" lon="10.947609274283597"><ele>529.6666666666667</ele><time>2026-04-19T11:55:09.847Z</time></trkpt><trkpt lat="44.086035121374564" lon="10.947676733428366"><ele>529.0</ele><time>2026-04-19T11:55:10.847Z</time></trkpt><trkpt lat="44.08587787910382" lon="10.947720680283544"><ele>530.0</ele><time>2026-04-19T11:55:11.847Z</time></trkpt><trkpt lat="44.0857382375136" lon="10.94772533413556"><ele>531.0</ele><time>2026-04-19T11:55:12.847Z</time></trkpt><trkpt lat="44.08562019207742" lon="10.947708176747527"><ele>532.0</ele><time>2026-04-19T11:55:13.847Z</time></trkpt><trkpt lat="44.085509986377566" lon="10.947682675521715"><ele>533.0</ele><time>2026-04-19T11:55:14.847Z</time></trkpt><trkpt lat="44.08541181528744" lon="10.947641656524048"><ele>533.0</ele><time>2026-04-19T11:55:15.847Z</time></trkpt><trkpt lat="44.085312847089796" lon="10.94754960736186"><ele>533.0</ele><time>2026-04-19T11:55:16.847Z</time></trkpt><trkpt lat="44.085210542648475" lon="10.947409580096759"><ele>533.0</ele><time>2026-04-19T11:55:17.847Z</time></trkpt><trkpt lat="44.085127111037316" lon="10.947250013148077"><ele>533.0</ele><time>2026-04-19T11:55:18.847Z</time></trkpt><trkpt lat="44.085025885169266" lon="10.947127397314002"><ele>533.5</ele><time>2026-04-19T11:55:19.847Z</time></trkpt><trkpt lat="44.08494359908678" lon="10.947018879144201"><ele>534.0</ele><time>2026-04-19T11:55:20.847Z</time></trkpt><trkpt lat="44.084876060654096" lon="10.946892640120968"><ele>534.5</ele><time>2026-04-19T11:55:21.847Z</time></trkpt><trkpt lat="44.084834216611945" lon="10.946719397815151"><ele>535.0</ele><time>2026-04-19T11:55:22.847Z</time></trkpt><trkpt lat="44.08482617352267" lon="10.946538472993183"><ele>535.2</ele><time>2026-04-19T11:55:23.847Z</time></trkpt><trkpt lat="44.084815312319044" lon="10.94639988331592"><ele>535.4</ele><time>2026-04-19T11:55:24.847Z</time></trkpt><trkpt lat="44.08476010961157" lon="10.946294066202038"><ele>535.6</ele><time>2026-04-19T11:55:25.847Z</time></trkpt><trkpt lat="44.0846787827637" lon="10.946211706018468"><ele>535.8</ele><time>2026-04-19T11:55:26.847Z</time></trkpt><trkpt lat="44.084624173649495" lon="10.946106451029387"><ele>536.0</ele><time>2026-04-19T11:55:27.847Z</time></trkpt><trkpt lat="44.084589694449726" lon="10.945973585759534"><ele>536.0</ele><time>2026-04-19T11:55:28.847Z</time></trkpt><trkpt lat="44.08455621636042" lon="10.945806520594298"><ele>536.0</ele><time>2026-04-19T11:55:29.847Z</time></trkpt><trkpt lat="44.08452825193112" lon="10.945625505804312"><ele>536.0</ele><time>2026-04-19T11:55:30.847Z</time></trkpt><trkpt lat="44.08449066214196" lon="10.945443898557997"><ele>536.0</ele><time>2026-04-19T11:55:31.847Z</time></trkpt><trkpt lat="44.084427221696984" lon="10.94527083610865"><ele>536.0</ele><time>2026-04-19T11:55:32.847Z</time></trkpt><trkpt lat="44.084326614568035" lon="10.945123819608654"><ele>536.0</ele><time>2026-04-19T11:55:33.847Z</time></trkpt><trkpt lat="44.084214481920306" lon="10.944972873550455"><ele>536.0</ele><time>2026-04-19T11:55:34.847Z</time></trkpt><trkpt lat="44.08409330941429" lon="10.94480337325074"><ele>535.6666666666666</ele><time>2026-04-19T11:55:35.847Z</time></trkpt><trkpt lat="44.083969425516855" lon="10.944638102424651"><ele>535.3333333333334</ele><time>2026-04-19T11:55:36.847Z</time></trkpt><trkpt lat="44.08385855998375" lon="10.944446299154022"><ele>535.0</ele><time>2026-04-19T11:55:37.847Z</time></trkpt><trkpt lat="44.0837505095441" lon="10.94427080491876"><ele>538.0</ele><time>2026-04-19T11:55:38.847Z</time></trkpt><trkpt lat="44.08364436219194" lon="10.944119901775482"><ele>541.0</ele><time>2026-04-19T11:55:39.847Z</time></trkpt><trkpt lat="44.08353582076469" lon="10.943982019356957"><ele>544.0</ele><time>2026-04-19T11:55:40.847Z</time></trkpt><trkpt lat="44.0834101810855" lon="10.943885224720608"><ele>547.0</ele><time>2026-04-19T11:55:41.847Z</time></trkpt><trkpt lat="44.08326458091359" lon="10.943834762532271"><ele>543.6666666666667</ele><time>2026-04-19T11:55:42.847Z</time></trkpt><trkpt lat="44.08310762277164" lon="10.94378621764647"><ele>540.3333333333334</ele><time>2026-04-19T11:55:43.847Z</time></trkpt><trkpt lat="44.082959421922425" lon="10.943723864166865"><ele>537.0</ele><time>2026-04-19T11:55:44.847Z</time></trkpt><trkpt lat="44.08280754443125" lon="10.94364582200969"><ele>537.0</ele><time>2026-04-19T11:55:45.847Z</time></trkpt><trkpt lat="44.08265306309919" lon="10.943548139214771"><ele>537.0</ele><time>2026-04-19T11:55:46.847Z</time></trkpt><trkpt lat="44.08251550499596" lon="10.943458129756024"><ele>537.0</ele><time>2026-04-19T11:55:47.847Z</time></trkpt><trkpt lat="44.08238303518502" lon="10.943394684689283"><ele>539.4</ele><time>2026-04-19T11:55:48.847Z</time></trkpt><trkpt lat="44.08228254753967" lon="10.94331787034449"><ele>541.8000000000001</ele><time>2026-04-19T11:55:49.847Z</time></trkpt><trkpt lat="44.08221947578432" lon="10.943197233757854"><ele>544.2</ele><time>2026-04-19T11:55:50.847Z</time></trkpt><trkpt lat="44.08216565011872" lon="10.943083818763963"><ele>546.6</ele><time>2026-04-19T11:55:51.847Z</time></trkpt><trkpt lat="44.08208490460753" lon="10.943009972065907"><ele>549.0</ele><time>2026-04-19T11:55:52.847Z</time></trkpt><trkpt lat="44.0819785600527" lon="10.943011442653978"><ele>549.0</ele><time>2026-04-19T11:55:53.847Z</time></trkpt><trkpt lat="44.08186897479803" lon="10.943082184841863"><ele>549.0</ele><time>2026-04-19T11:55:54.847Z</time></trkpt><trkpt lat="44.081761861504276" lon="10.943097404622817"><ele>549.0</ele><time>2026-04-19T11:55:55.847Z</time></trkpt><trkpt lat="44.08165977750364" lon="10.943026041840291"><ele>549.0</ele><time>2026-04-19T11:55:56.847Z</time></trkpt><trkpt lat="44.08153737423765" lon="10.942927901203767"><ele>548.3333333333334</ele><time>2026-04-19T11:55:57.847Z</time></trkpt><trkpt lat="44.08141682162269" lon="10.942821875073298"><ele>547.6666666666667</ele><time>2026-04-19T11:55:58.847Z</time></trkpt><trkpt lat="44.081293904643516" lon="10.942689957281756"><ele>547.0</ele><time>2026-04-19T11:55:59.847Z</time></trkpt><trkpt lat="44.08116672499935" lon="10.942547235917099"><ele>548.5</ele><time>2026-04-19T11:56:00.847Z</time></trkpt><trkpt lat="44.08104957288899" lon="10.9424155441769"><ele>550.0</ele><time>2026-04-19T11:56:01.847Z</time></trkpt><trkpt lat="44.08094794196632" lon="10.942293684170275"><ele>551.5</ele><time>2026-04-19T11:56:02.847Z</time></trkpt><trkpt lat="44.080868192411344" lon="10.942158722351174"><ele>553.0</ele><time>2026-04-19T11:56:03.847Z</time></trkpt><trkpt lat="44.0808030063967" lon="10.942002992166254"><ele>552.25</ele><time>2026-04-19T11:56:04.847Z</time></trkpt><trkpt lat="44.08073688579647" lon="10.941827393325589"><ele>551.5</ele><time>2026-04-19T11:56:05.847Z</time></trkpt><trkpt lat="44.08067183516359" lon="10.941683150499133"><ele>550.75</ele><time>2026-04-19T11:56:06.847Z</time></trkpt><trkpt lat="44.08062904907817" lon="10.941552364478632"><ele>550.0</ele><time>2026-04-19T11:56:07.847Z</time></trkpt><trkpt lat="44.08061624652016" lon="10.94141454013357"><ele>549.5</ele><time>2026-04-19T11:56:08.847Z</time></trkpt><trkpt lat="44.08062687364111" lon="10.941256603027014"><ele>549.0</ele><time>2026-04-19T11:56:09.847Z</time></trkpt><trkpt lat="44.0806487817756" lon="10.941077953557498"><ele>548.5</ele><time>2026-04-19T11:56:10.847Z</time></trkpt><trkpt lat="44.08066723521842" lon="10.940890322500639"><ele>548.0</ele><time>2026-04-19T11:56:11.848Z</time></trkpt><trkpt lat="44.08068521956508" lon="10.94068318347696"><ele>548.0</ele><time>2026-04-19T11:56:12.848Z</time></trkpt><trkpt lat="44.08069192835731" lon="10.940480636279352"><ele>548.0</ele><time>2026-04-19T11:56:13.848Z</time></trkpt><trkpt lat="44.08070189623538" lon="10.940275749788507"><ele>548.0</ele><time>2026-04-19T11:56:14.847Z</time></trkpt><trkpt lat="44.08068171211472" lon="10.94006250502737"><ele>548.0</ele><time>2026-04-19T11:56:15.847Z</time></trkpt><trkpt lat="44.080645293652175" lon="10.939870028584753"><ele>548.0</ele><time>2026-04-19T11:56:16.847Z</time></trkpt><trkpt lat="44.08061299027256" lon="10.9397010203694"><ele>548.0</ele><time>2026-04-19T11:56:17.847Z</time></trkpt><trkpt lat="44.080587398970195" lon="10.939547704287959"><ele>548.0</ele><time>2026-04-19T11:56:18.847Z</time></trkpt><trkpt lat="44.080595153319" lon="10.939405147966982"><ele>548.0</ele><time>2026-04-19T11:56:19.847Z</time></trkpt><trkpt lat="44.080633210607914" lon="10.939269805955325"><ele>548.0</ele><time>2026-04-19T11:56:20.847Z</time></trkpt><trkpt lat="44.08067990175472" lon="10.939152918010542"><ele>548.0</ele><time>2026-04-19T11:56:21.847Z</time></trkpt><trkpt lat="44.080680994780934" lon="10.939027117473287"><ele>548.0</ele><time>2026-04-19T11:56:22.847Z</time></trkpt><trkpt lat="44.08063466773413" lon="10.93888671109149"><ele>548.0</ele><time>2026-04-19T11:56:23.847Z</time></trkpt><trkpt lat="44.08060473573194" lon="10.938732150437497"><ele>548.0</ele><time>2026-04-19T11:56:24.847Z</time></trkpt><trkpt lat="44.080603440247465" lon="10.938564659567103"><ele>548.0</ele><time>2026-04-19T11:56:25.847Z</time></trkpt><trkpt lat="44.08058692740873" lon="10.938413016252131"><ele>549.75</ele><time>2026-04-19T11:56:26.847Z</time></trkpt><trkpt lat="44.0805316905533" lon="10.938284654800341"><ele>551.5</ele><time>2026-04-19T11:56:27.847Z</time></trkpt><trkpt lat="44.080446935079216" lon="10.938176817841892"><ele>553.25</ele><time>2026-04-19T11:56:28.847Z</time></trkpt><trkpt lat="44.08034326870295" lon="10.938090546702215"><ele>555.0</ele><time>2026-04-19T11:56:29.847Z</time></trkpt><trkpt lat="44.08023521345448" lon="10.937979433402276"><ele>555.0</ele><time>2026-04-19T11:56:30.847Z</time></trkpt><trkpt lat="44.080138682857694" lon="10.937837512848603"><ele>555.0</ele><time>2026-04-19T11:56:31.847Z</time></trkpt><trkpt lat="44.080045674266" lon="10.937655803349625"><ele>555.0</ele><time>2026-04-19T11:56:32.847Z</time></trkpt><trkpt lat="44.07994467745877" lon="10.937484210043731"><ele>554.0</ele><time>2026-04-19T11:56:33.847Z</time></trkpt><trkpt lat="44.07984043897516" lon="10.93732676886056"><ele>553.0</ele><time>2026-04-19T11:56:34.847Z</time></trkpt><trkpt lat="44.07974621973954" lon="10.937152258144659"><ele>552.0</ele><time>2026-04-19T11:56:35.847Z</time></trkpt><trkpt lat="44.0796661986665" lon="10.936967237206012"><ele>552.0</ele><time>2026-04-19T11:56:36.847Z</time></trkpt><trkpt lat="44.07959582670826" lon="10.936815713934608"><ele>552.0</ele><time>2026-04-19T11:56:37.847Z</time></trkpt><trkpt lat="44.079517642562266" lon="10.936688629085232"><ele>552.0</ele><time>2026-04-19T11:56:38.847Z</time></trkpt><trkpt lat="44.07946782842828" lon="10.936574089615782"><ele>552.0</ele><time>2026-04-19T11:56:39.847Z</time></trkpt><trkpt lat="44.07943646399045" lon="10.936457815953176"><ele>552.0</ele><time>2026-04-19T11:56:40.847Z</time></trkpt><trkpt lat="44.07947564801301" lon="10.936325883216051"><ele>553.0</ele><time>2026-04-19T11:56:41.847Z</time></trkpt><trkpt lat="44.07953582306354" lon="10.936198696305606"><ele>554.0</ele><time>2026-04-19T11:56:42.847Z</time></trkpt><trkpt lat="44.07961243050201" lon="10.936055016997193"><ele>555.0</ele><time>2026-04-19T11:56:43.847Z</time></trkpt><trkpt lat="44.07967921998136" lon="10.9359270360223"><ele>556.0</ele><time>2026-04-19T11:56:44.847Z</time></trkpt><trkpt lat="44.07971310052138" lon="10.935825521888878"><ele>557.0</ele><time>2026-04-19T11:56:45.847Z</time></trkpt><trkpt lat="44.0796989353682" lon="10.935692060432503"><ele>558.6</ele><time>2026-04-19T11:56:46.847Z</time></trkpt><trkpt lat="44.07962868464693" lon="10.93557810605011"><ele>560.2</ele><time>2026-04-19T11:56:47.847Z</time></trkpt><trkpt lat="44.07954809619407" lon="10.93547203101298"><ele>561.8</ele><time>2026-04-19T11:56:48.847Z</time></trkpt><trkpt lat="44.07945935182562" lon="10.935417025137223"><ele>563.4</ele><time>2026-04-19T11:56:49.847Z</time></trkpt><trkpt lat="44.079350791308165" lon="10.935415041889312"><ele>565.0</ele><time>2026-04-19T11:56:50.847Z</time></trkpt><trkpt lat="44.07922668315616" lon="10.935503802887494"><ele>563.0</ele><time>2026-04-19T11:56:51.847Z</time></trkpt><trkpt lat="44.07909562045666" lon="10.935572762936696"><ele>561.0</ele><time>2026-04-19T11:56:52.847Z</time></trkpt><trkpt lat="44.07900824140563" lon="10.935558104663277"><ele>559.0</ele><time>2026-04-19T11:56:53.847Z</time></trkpt><trkpt lat="44.07890108903703" lon="10.935526837577871"><ele>557.0</ele><time>2026-04-19T11:56:54.847Z</time></trkpt><trkpt lat="44.07883555061645" lon="10.93541139213761"><ele>555.0</ele><time>2026-04-19T11:56:55.847Z</time></trkpt><trkpt lat="44.0787736503353" lon="10.93525457635723"><ele>555.0</ele><time>2026-04-19T11:56:56.847Z</time></trkpt><trkpt lat="44.07871118317682" lon="10.935080586585473"><ele>555.0</ele><time>2026-04-19T11:56:57.847Z</time></trkpt><trkpt lat="44.07864205613023" lon="10.934883478803549"><ele>555.0</ele><time>2026-04-19T11:56:58.847Z</time></trkpt><trkpt lat="44.078573568467" lon="10.934688193876827"><ele>557.0</ele><time>2026-04-19T11:56:59.847Z</time></trkpt><trkpt lat="44.07850262947804" lon="10.934489525980704"><ele>559.0</ele><time>2026-04-19T11:57:00.847Z</time></trkpt><trkpt lat="44.078421421772255" lon="10.934298881829633"><ele>561.0</ele><time>2026-04-19T11:57:01.847Z</time></trkpt><trkpt lat="44.07836252005019" lon="10.934095483261837"><ele>565.0</ele><time>2026-04-19T11:57:02.847Z</time></trkpt><trkpt lat="44.07835159840257" lon="10.933863256631867"><ele>569.0</ele><time>2026-04-19T11:57:03.847Z</time></trkpt><trkpt lat="44.07832048449337" lon="10.933632135679849"><ele>573.0</ele><time>2026-04-19T11:57:04.847Z</time></trkpt><trkpt lat="44.07825899627627" lon="10.933408600966834"><ele>570.0</ele><time>2026-04-19T11:57:05.847Z</time></trkpt><trkpt lat="44.07819945471115" lon="10.933185500582356"><ele>567.0</ele><time>2026-04-19T11:57:06.847Z</time></trkpt><trkpt lat="44.078141183857724" lon="10.9330069332573"><ele>564.0</ele><time>2026-04-19T11:57:07.847Z</time></trkpt><trkpt lat="44.078097948444594" lon="10.93283500894232"><ele>561.0</ele><time>2026-04-19T11:57:08.847Z</time></trkpt><trkpt lat="44.078020230217845" lon="10.932697576532174"><ele>561.0</ele><time>2026-04-19T11:57:09.847Z</time></trkpt><trkpt lat="44.077889189500446" lon="10.932639284613757"><ele>561.0</ele><time>2026-04-19T11:57:10.847Z</time></trkpt><trkpt lat="44.07780040647797" lon="10.932520628263086"><ele>561.0</ele><time>2026-04-19T11:57:11.847Z</time></trkpt><trkpt lat="44.07773930274297" lon="10.932422077159421"><ele>561.0</ele><time>2026-04-19T11:57:12.847Z</time></trkpt><trkpt lat="44.07770904882104" lon="10.932288376035062"><ele>563.2</ele><time>2026-04-19T11:57:13.847Z</time></trkpt><trkpt lat="44.07763858613313" lon="10.932189322766856"><ele>565.4000000000001</ele><time>2026-04-19T11:57:14.847Z</time></trkpt><trkpt lat="44.07754232094238" lon="10.932124495838337"><ele>567.6</ele><time>2026-04-19T11:57:15.847Z</time></trkpt><trkpt lat="44.0774349748757" lon="10.93209289115136"><ele>569.8000000000001</ele><time>2026-04-19T11:57:16.847Z</time></trkpt><trkpt lat="44.07736381720327" lon="10.93203584086411"><ele>572.0</ele><time>2026-04-19T11:57:17.847Z</time></trkpt><trkpt lat="44.07729671906252" lon="10.93197960824359"><ele>572.0</ele><time>2026-04-19T11:57:18.847Z</time></trkpt><trkpt lat="44.07723590580383" lon="10.9319084855178"><ele>572.0</ele><time>2026-04-19T11:57:19.847Z</time></trkpt><trkpt lat="44.07717570542467" lon="10.931806544747086"><ele>572.0</ele><time>2026-04-19T11:57:20.847Z</time></trkpt><trkpt lat="44.07712680526795" lon="10.931681047377422"><ele>572.0</ele><time>2026-04-19T11:57:21.847Z</time></trkpt><trkpt lat="44.07708143621928" lon="10.931537511648132"><ele>572.0</ele><time>2026-04-19T11:57:22.847Z</time></trkpt><trkpt lat="44.077035886763284" lon="10.931363003227663"><ele>571.0</ele><time>2026-04-19T11:57:23.847Z</time></trkpt><trkpt lat="44.0769878909041" lon="10.93117050577687"><ele>570.0</ele><time>2026-04-19T11:57:24.847Z</time></trkpt><trkpt lat="44.07694827925688" lon="10.930969229135323"><ele>569.0</ele><time>2026-04-19T11:57:25.847Z</time></trkpt><trkpt lat="44.076895993607565" lon="10.930803020257908"><ele>568.0</ele><time>2026-04-19T11:57:26.847Z</time></trkpt><trkpt lat="44.07685694943834" lon="10.93062782773528"><ele>571.6666666666667</ele><time>2026-04-19T11:57:27.847Z</time></trkpt><trkpt lat="44.07684868140619" lon="10.930435606250741"><ele>575.3333333333334</ele><time>2026-04-19T11:57:28.847Z</time></trkpt><trkpt lat="44.07684678141806" lon="10.930218436092703"><ele>579.0</ele><time>2026-04-19T11:57:29.847Z</time></trkpt><trkpt lat="44.076856677630204" lon="10.929993061837905"><ele>580.6666666666666</ele><time>2026-04-19T11:57:30.847Z</time></trkpt><trkpt lat="44.076851970595015" lon="10.929762353387204"><ele>582.3333333333333</ele><time>2026-04-19T11:57:31.847Z</time></trkpt><trkpt lat="44.07684311250465" lon="10.929528122692178"><ele>584.0</ele><time>2026-04-19T11:57:32.847Z</time></trkpt><trkpt lat="44.07683621204124" lon="10.929291376714765"><ele>584.6666666666666</ele><time>2026-04-19T11:57:33.847Z</time></trkpt><trkpt lat="44.07683165618362" lon="10.929069880468287"><ele>585.3333333333334</ele><time>2026-04-19T11:57:34.847Z</time></trkpt><trkpt lat="44.07681949046063" lon="10.92884844148404"><ele>586.0</ele><time>2026-04-19T11:57:35.847Z</time></trkpt><trkpt lat="44.076786968142294" lon="10.928623198550339"><ele>586.0</ele><time>2026-04-19T11:57:36.847Z</time></trkpt><trkpt lat="44.07674293120403" lon="10.92839390378571"><ele>586.0</ele><time>2026-04-19T11:57:37.847Z</time></trkpt><trkpt lat="44.0767163991907" lon="10.928193694453094"><ele>586.0</ele><time>2026-04-19T11:57:38.847Z</time></trkpt><trkpt lat="44.07670803338815" lon="10.928020793387208"><ele>586.0</ele><time>2026-04-19T11:57:39.847Z</time></trkpt><trkpt lat="44.07671396563512" lon="10.927860705547955"><ele>586.0</ele><time>2026-04-19T11:57:40.847Z</time></trkpt><trkpt lat="44.076738658054175" lon="10.927713892192434"><ele>586.0</ele><time>2026-04-19T11:57:41.847Z</time></trkpt><trkpt lat="44.07679860815074" lon="10.927595057468137"><ele>586.0</ele><time>2026-04-19T11:57:42.847Z</time></trkpt><trkpt lat="44.0769060034834" lon="10.927513117914215"><ele>586.0</ele><time>2026-04-19T11:57:43.847Z</time></trkpt><trkpt lat="44.07703036011586" lon="10.927444388815083"><ele>585.0</ele><time>2026-04-19T11:57:44.847Z</time></trkpt><trkpt lat="44.077170137248956" lon="10.92737397669375"><ele>584.0</ele><time>2026-04-19T11:57:45.847Z</time></trkpt><trkpt lat="44.077294747845045" lon="10.927292461002157"><ele>583.0</ele><time>2026-04-19T11:57:46.847Z</time></trkpt><trkpt lat="44.07739301890215" lon="10.92720388330765"><ele>582.0</ele><time>2026-04-19T11:57:47.847Z</time></trkpt><trkpt lat="44.07747292049326" lon="10.927092312345355"><ele>583.8333333333334</ele><time>2026-04-19T11:57:48.847Z</time></trkpt><trkpt lat="44.07752499387681" lon="10.92699139005969"><ele>585.6666666666666</ele><time>2026-04-19T11:57:49.847Z</time></trkpt><trkpt lat="44.0775445503302" lon="10.926901189747403"><ele>587.5</ele><time>2026-04-19T11:57:50.847Z</time></trkpt><trkpt lat="44.07751105888263" lon="10.926810149139694"><ele>589.3333333333333</ele><time>2026-04-19T11:57:51.847Z</time></trkpt><trkpt lat="44.07745773412806" lon="10.926721902657235"><ele>591.1666666666666</ele><time>2026-04-19T11:57:52.847Z</time></trkpt><trkpt lat="44.0773987785658" lon="10.926636788618817"><ele>593.0</ele><time>2026-04-19T11:57:53.847Z</time></trkpt><trkpt lat="44.07731274619377" lon="10.926602117296714"><ele>593.0</ele><time>2026-04-19T11:57:54.847Z</time></trkpt><trkpt lat="44.07719910687468" lon="10.926653040351171"><ele>593.0</ele><time>2026-04-19T11:57:55.847Z</time></trkpt><trkpt lat="44.07708638154257" lon="10.926701882471637"><ele>593.0</ele><time>2026-04-19T11:57:56.847Z</time></trkpt><trkpt lat="44.07696662057871" lon="10.926749654198733"><ele>593.0</ele><time>2026-04-19T11:57:57.847Z</time></trkpt><trkpt lat="44.076856869082704" lon="10.926770925846442"><ele>591.1999999999999</ele><time>2026-04-19T11:57:58.847Z</time></trkpt><trkpt lat="44.07673820283445" lon="10.926738381550642"><ele>589.4</ele><time>2026-04-19T11:57:59.847Z</time></trkpt><trkpt lat="44.076615684607106" lon="10.926740348769915"><ele>587.5999999999999</ele><time>2026-04-19T11:58:00.847Z</time></trkpt><trkpt lat="44.07651710488102" lon="10.926736271697521"><ele>585.8</ele><time>2026-04-19T11:58:01.847Z</time></trkpt><trkpt lat="44.07642857904523" lon="10.92670370351529"><ele>584.0</ele><time>2026-04-19T11:58:02.847Z</time></trkpt><trkpt lat="44.076352751674996" lon="10.926603268846138"><ele>582.25</ele><time>2026-04-19T11:58:03.847Z</time></trkpt><trkpt lat="44.07625549593108" lon="10.92649157639969"><ele>580.5</ele><time>2026-04-19T11:58:04.847Z</time></trkpt><trkpt lat="44.07618027251" lon="10.926358715252519"><ele>578.75</ele><time>2026-04-19T11:58:05.847Z</time></trkpt><trkpt lat="44.076155332348804" lon="10.926208759417012"><ele>577.0</ele><time>2026-04-19T11:58:06.847Z</time></trkpt><trkpt lat="44.076098996571446" lon="10.92610245636599"><ele>577.0</ele><time>2026-04-19T11:58:07.847Z</time></trkpt><trkpt lat="44.076027454163324" lon="10.92602542155235"><ele>577.0</ele><time>2026-04-19T11:58:08.847Z</time></trkpt><trkpt lat="44.07591632475823" lon="10.925978852911149"><ele>577.0</ele><time>2026-04-19T11:58:09.847Z</time></trkpt><trkpt lat="44.07578959097704" lon="10.925938246611613"><ele>577.0</ele><time>2026-04-19T11:58:10.847Z</time></trkpt><trkpt lat="44.075656429248845" lon="10.925873843264183"><ele>579.2</ele><time>2026-04-19T11:58:11.846Z</time></trkpt><trkpt lat="44.07555167746713" lon="10.925777846594055"><ele>581.4000000000001</ele><time>2026-04-19T11:58:12.846Z</time></trkpt><trkpt lat="44.07546924791113" lon="10.925677685686741"><ele>583.5999999999999</ele><time>2026-04-19T11:58:13.846Z</time></trkpt><trkpt lat="44.07538035035072" lon="10.925621796909308"><ele>585.8</ele><time>2026-04-19T11:58:14.847Z</time></trkpt><trkpt lat="44.07527585350446" lon="10.925627359630584"><ele>588.0</ele><time>2026-04-19T11:58:15.846Z</time></trkpt><trkpt lat="44.075155772003605" lon="10.92565753560007"><ele>588.0</ele><time>2026-04-19T11:58:16.846Z</time></trkpt><trkpt lat="44.07502900910513" lon="10.925669657671795"><ele>588.0</ele><time>2026-04-19T11:58:17.846Z</time></trkpt><trkpt lat="44.074898639049536" lon="10.92564316548177"><ele>588.0</ele><time>2026-04-19T11:58:18.846Z</time></trkpt><trkpt lat="44.07478385530557" lon="10.925589790054447"><ele>588.0</ele><time>2026-04-19T11:58:19.846Z</time></trkpt><trkpt lat="44.07467882937461" lon="10.925505194375322"><ele>585.25</ele><time>2026-04-19T11:58:20.847Z</time></trkpt><trkpt lat="44.074551258952404" lon="10.925512145545826"><ele>582.5</ele><time>2026-04-19T11:58:21.846Z</time></trkpt><trkpt lat="44.07440806557825" lon="10.925525781656052"><ele>579.75</ele><time>2026-04-19T11:58:22.846Z</time></trkpt><trkpt lat="44.074257002769734" lon="10.925517494918822"><ele>577.0</ele><time>2026-04-19T11:58:23.846Z</time></trkpt><trkpt lat="44.07411684196823" lon="10.92550012136272"><ele>576.75</ele><time>2026-04-19T11:58:24.846Z</time></trkpt><trkpt lat="44.07397320996445" lon="10.925485449182542"><ele>576.5</ele><time>2026-04-19T11:58:25.846Z</time></trkpt><trkpt lat="44.0738513043124" lon="10.925457755249951"><ele>576.25</ele><time>2026-04-19T11:58:26.846Z</time></trkpt><trkpt lat="44.073746895157825" lon="10.925433967043869"><ele>576.0</ele><time>2026-04-19T11:58:27.846Z</time></trkpt><trkpt lat="44.07365699817218" lon="10.925449589132349"><ele>576.0</ele><time>2026-04-19T11:58:28.846Z</time></trkpt><trkpt lat="44.073566428682675" lon="10.925468447397133"><ele>576.0</ele><time>2026-04-19T11:58:29.846Z</time></trkpt><trkpt lat="44.07347855988378" lon="10.92546446169245"><ele>576.0</ele><time>2026-04-19T11:58:30.846Z</time></trkpt><trkpt lat="44.07338985471858" lon="10.925408324929952"><ele>576.0</ele><time>2026-04-19T11:58:31.846Z</time></trkpt><trkpt lat="44.07332593881668" lon="10.925285905269705"><ele>576.0</ele><time>2026-04-19T11:58:32.846Z</time></trkpt><trkpt lat="44.07322611611111" lon="10.925160981773208"><ele>576.6666666666666</ele><time>2026-04-19T11:58:33.846Z</time></trkpt><trkpt lat="44.07309372509189" lon="10.925055535363711"><ele>577.3333333333333</ele><time>2026-04-19T11:58:34.846Z</time></trkpt><trkpt lat="44.07296439654862" lon="10.924910962257162"><ele>578.0</ele><time>2026-04-19T11:58:35.846Z</time></trkpt><trkpt lat="44.07282729689883" lon="10.924747822616972"><ele>578.0</ele><time>2026-04-19T11:58:36.846Z</time></trkpt><trkpt lat="44.072678612968105" lon="10.924582938191651"><ele>578.0</ele><time>2026-04-19T11:58:37.846Z</time></trkpt><trkpt lat="44.07251858473494" lon="10.92441595984911"><ele>578.0</ele><time>2026-04-19T11:58:38.846Z</time></trkpt><trkpt lat="44.07235844715412" lon="10.924256703447595"><ele>579.0</ele><time>2026-04-19T11:58:39.846Z</time></trkpt><trkpt lat="44.072197520744105" lon="10.92409954116916"><ele>580.0</ele><time>2026-04-19T11:58:40.846Z</time></trkpt><trkpt lat="44.07202814375141" lon="10.92394698087456"><ele>581.0</ele><time>2026-04-19T11:58:41.846Z</time></trkpt><trkpt lat="44.071851624738144" lon="10.923819267503681"><ele>581.0</ele><time>2026-04-19T11:58:42.846Z</time></trkpt><trkpt lat="44.071659550846114" lon="10.92371760590118"><ele>581.0</ele><time>2026-04-19T11:58:43.846Z</time></trkpt><trkpt lat="44.07148147941958" lon="10.923583846279788"><ele>581.0</ele><time>2026-04-19T11:58:44.846Z</time></trkpt><trkpt lat="44.07129038945651" lon="10.923470626285463"><ele>583.6666666666666</ele><time>2026-04-19T11:58:45.846Z</time></trkpt><trkpt lat="44.0710933030045" lon="10.923353249447226"><ele>586.3333333333334</ele><time>2026-04-19T11:58:46.846Z</time></trkpt><trkpt lat="44.07089722949343" lon="10.92323293004484"><ele>589.0</ele><time>2026-04-19T11:58:47.846Z</time></trkpt><trkpt lat="44.07071162199954" lon="10.923114210644998"><ele>589.6666666666667</ele><time>2026-04-19T11:58:48.846Z</time></trkpt><trkpt lat="44.07053928699314" lon="10.923010598643408"><ele>590.3333333333334</ele><time>2026-04-19T11:58:49.846Z</time></trkpt><trkpt lat="44.070378964681495" lon="10.922921124201164"><ele>591.0</ele><time>2026-04-19T11:58:50.846Z</time></trkpt><trkpt lat="44.07022198857784" lon="10.922826247747121"><ele>591.0</ele><time>2026-04-19T11:58:51.846Z</time></trkpt><trkpt lat="44.070061302403936" lon="10.922742038770567"><ele>591.0</ele><time>2026-04-19T11:58:52.846Z</time></trkpt><trkpt lat="44.06990524069005" lon="10.922619217829286"><ele>591.0</ele><time>2026-04-19T11:58:53.846Z</time></trkpt><trkpt lat="44.069749311111" lon="10.922479978977202"><ele>591.0</ele><time>2026-04-19T11:58:54.846Z</time></trkpt><trkpt lat="44.06960394471787" lon="10.9223274366388"><ele>591.0</ele><time>2026-04-19T11:58:55.846Z</time></trkpt><trkpt lat="44.06946533983041" lon="10.922152236993881"><ele>591.0</ele><time>2026-04-19T11:58:56.846Z</time></trkpt><trkpt lat="44.06932940023178" lon="10.921965992155839"><ele>591.0</ele><time>2026-04-19T11:58:57.846Z</time></trkpt><trkpt lat="44.069218514063635" lon="10.92175119088432"><ele>591.0</ele><time>2026-04-19T11:58:58.846Z</time></trkpt><trkpt lat="44.06910841068103" lon="10.921547168232788"><ele>591.0</ele><time>2026-04-19T11:58:59.846Z</time></trkpt><trkpt lat="44.068992990775676" lon="10.92136871937501"><ele>591.0</ele><time>2026-04-19T11:59:00.846Z</time></trkpt><trkpt lat="44.06889791447077" lon="10.921172074997834"><ele>591.0</ele><time>2026-04-19T11:59:01.846Z</time></trkpt><trkpt lat="44.068756946516025" lon="10.921039019892996"><ele>591.0</ele><time>2026-04-19T11:59:02.846Z</time></trkpt><trkpt lat="44.06862949640951" lon="10.920858434699928"><ele>591.0</ele><time>2026-04-19T11:59:03.846Z</time></trkpt><trkpt lat="44.06849711920214" lon="10.92067938068181"><ele>591.0</ele><time>2026-04-19T11:59:04.846Z</time></trkpt><trkpt lat="44.06837325477027" lon="10.920516961659366"><ele>591.0</ele><time>2026-04-19T11:59:05.846Z</time></trkpt><trkpt lat="44.06824975007723" lon="10.920376625000904"><ele>591.6666666666666</ele><time>2026-04-19T11:59:06.846Z</time></trkpt><trkpt lat="44.06810387149192" lon="10.920252068029786"><ele>592.3333333333333</ele><time>2026-04-19T11:59:07.846Z</time></trkpt><trkpt lat="44.067946630073614" lon="10.920162685385906"><ele>593.0</ele><time>2026-04-19T11:59:08.846Z</time></trkpt><trkpt lat="44.067761041038814" lon="10.920114014966671"><ele>593.0</ele><time>2026-04-19T11:59:09.846Z</time></trkpt><trkpt lat="44.067574449352335" lon="10.92007367352797"><ele>593.0</ele><time>2026-04-19T11:59:10.846Z</time></trkpt><trkpt lat="44.06738345216501" lon="10.920038821833014"><ele>593.0</ele><time>2026-04-19T11:59:11.846Z</time></trkpt><trkpt lat="44.067203962475205" lon="10.920011966976817"><ele>593.0</ele><time>2026-04-19T11:59:12.846Z</time></trkpt><trkpt lat="44.067034417737965" lon="10.91999541910422"><ele>593.0</ele><time>2026-04-19T11:59:13.846Z</time></trkpt><trkpt lat="44.06688151660951" lon="10.919945702730425"><ele>593.0</ele><time>2026-04-19T11:59:14.846Z</time></trkpt><trkpt lat="44.06673280500508" lon="10.919884830921504"><ele>597.3333333333333</ele><time>2026-04-19T11:59:15.845Z</time></trkpt><trkpt lat="44.06657718511567" lon="10.919794981446909"><ele>601.6666666666666</ele><time>2026-04-19T11:59:16.845Z</time></trkpt><trkpt lat="44.06642786647979" lon="10.919687487235539"><ele>606.0</ele><time>2026-04-19T11:59:17.845Z</time></trkpt><trkpt lat="44.06629582277376" lon="10.919571883074166"><ele>606.0</ele><time>2026-04-19T11:59:18.845Z</time></trkpt><trkpt lat="44.06617796925912" lon="10.919450084891961"><ele>606.0</ele><time>2026-04-19T11:59:19.845Z</time></trkpt><trkpt lat="44.06606364211159" lon="10.919321360340996"><ele>606.0</ele><time>2026-04-19T11:59:20.845Z</time></trkpt><trkpt lat="44.065959409151596" lon="10.919161912239431"><ele>606.0</ele><time>2026-04-19T11:59:21.845Z</time></trkpt><trkpt lat="44.06585023661964" lon="10.919027794531623"><ele>602.6666666666666</ele><time>2026-04-19T11:59:22.845Z</time></trkpt><trkpt lat="44.06574684382675" lon="10.918877032084229"><ele>599.3333333333333</ele><time>2026-04-19T11:59:23.845Z</time></trkpt><trkpt lat="44.06558584939754" lon="10.918825876478856"><ele>596.0</ele><time>2026-04-19T11:59:24.845Z</time></trkpt><trkpt lat="44.06543447777884" lon="10.91869176852499"><ele>596.0</ele><time>2026-04-19T11:59:25.845Z</time></trkpt><trkpt lat="44.0653002710128" lon="10.918610263553601"><ele>596.0</ele><time>2026-04-19T11:59:26.845Z</time></trkpt><trkpt lat="44.0651880119466" lon="10.918496153684462"><ele>596.0</ele><time>2026-04-19T11:59:27.845Z</time></trkpt><trkpt lat="44.065088945192116" lon="10.918377007715911"><ele>596.0</ele><time>2026-04-19T11:59:28.845Z</time></trkpt><trkpt lat="44.064955391067095" lon="10.918309709911963"><ele>595.3333333333333</ele><time>2026-04-19T11:59:29.845Z</time></trkpt><trkpt lat="44.06480770040925" lon="10.918256566904704"><ele>594.6666666666666</ele><time>2026-04-19T11:59:30.845Z</time></trkpt><trkpt lat="44.064649891241615" lon="10.918208974262384"><ele>594.0</ele><time>2026-04-19T11:59:31.845Z</time></trkpt><trkpt lat="44.0645024931732" lon="10.918092212233597"><ele>594.0</ele><time>2026-04-19T11:59:32.845Z</time></trkpt><trkpt lat="44.06435138707622" lon="10.917983774884933"><ele>594.0</ele><time>2026-04-19T11:59:33.845Z</time></trkpt><trkpt lat="44.06420582969707" lon="10.917879554966607"><ele>594.0</ele><time>2026-04-19T11:59:34.845Z</time></trkpt><trkpt lat="44.06407428437262" lon="10.917786932639531"><ele>595.75</ele><time>2026-04-19T11:59:35.845Z</time></trkpt><trkpt lat="44.06395604815879" lon="10.917709158584968"><ele>597.5</ele><time>2026-04-19T11:59:36.845Z</time></trkpt><trkpt lat="44.06383725281395" lon="10.917659445512085"><ele>599.25</ele><time>2026-04-19T11:59:37.845Z</time></trkpt><trkpt lat="44.0637331675793" lon="10.917552992517074"><ele>601.0</ele><time>2026-04-19T11:59:38.845Z</time></trkpt><trkpt lat="44.06365004467157" lon="10.917400951002609"><ele>601.0</ele><time>2026-04-19T11:59:39.845Z</time></trkpt><trkpt lat="44.063530490372855" lon="10.91726161963045"><ele>601.0</ele><time>2026-04-19T11:59:40.845Z</time></trkpt><trkpt lat="44.06342535953391" lon="10.917138403662324"><ele>601.0</ele><time>2026-04-19T11:59:41.845Z</time></trkpt><trkpt lat="44.06334230164731" lon="10.91701784723006"><ele>601.0</ele><time>2026-04-19T11:59:42.845Z</time></trkpt><trkpt lat="44.063272985118374" lon="10.916910432188592"><ele>601.6</ele><time>2026-04-19T11:59:43.845Z</time></trkpt><trkpt lat="44.06321295053634" lon="10.916809155031343"><ele>602.2</ele><time>2026-04-19T11:59:44.845Z</time></trkpt><trkpt lat="44.06314400360933" lon="10.916760354627508"><ele>602.8</ele><time>2026-04-19T11:59:45.845Z</time></trkpt><trkpt lat="44.06305478247359" lon="10.916764092960763"><ele>603.4</ele><time>2026-04-19T11:59:46.845Z</time></trkpt><trkpt lat="44.06294018349275" lon="10.916825704985337"><ele>604.0</ele><time>2026-04-19T11:59:47.845Z</time></trkpt><trkpt lat="44.06280808858861" lon="10.916877195589283"><ele>604.0</ele><time>2026-04-19T11:59:48.845Z</time></trkpt><trkpt lat="44.062671760846506" lon="10.916919855363588"><ele>604.0</ele><time>2026-04-19T11:59:49.845Z</time></trkpt><trkpt lat="44.062541185437006" lon="10.916922397580214"><ele>604.0</ele><time>2026-04-19T11:59:50.845Z</time></trkpt><trkpt lat="44.06240796520205" lon="10.91691405053673"><ele>604.0</ele><time>2026-04-19T11:59:51.845Z</time></trkpt><trkpt lat="44.06228056957996" lon="10.916907560901791"><ele>604.6</ele><time>2026-04-19T11:59:52.845Z</time></trkpt><trkpt lat="44.06217131025345" lon="10.916933290644142"><ele>605.2</ele><time>2026-04-19T11:59:53.845Z</time></trkpt><trkpt lat="44.06207681091011" lon="10.916924308506806"><ele>605.8000000000001</ele><time>2026-04-19T11:59:54.845Z</time></trkpt><trkpt lat="44.06199139980323" lon="10.916951147563227"><ele>606.4</ele><time>2026-04-19T11:59:55.845Z</time></trkpt><trkpt lat="44.06190858661806" lon="10.916958484152591"><ele>607.0</ele><time>2026-04-19T11:59:56.845Z</time></trkpt><trkpt lat="44.06182363467675" lon="10.916944723701882"><ele>607.0</ele><time>2026-04-19T11:59:57.845Z</time></trkpt><trkpt lat="44.061727816226984" lon="10.916900599098636"><ele>607.0</ele><time>2026-04-19T11:59:58.845Z</time></trkpt><trkpt lat="44.06162319068255" lon="10.916900318941604"><ele>607.0</ele><time>2026-04-19T11:59:59.845Z</time></trkpt><trkpt lat="44.06151913671666" lon="10.916860041217175"><ele>607.0</ele><time>2026-04-19T12:00:00.845Z</time></trkpt><trkpt lat="44.06141520633415" lon="10.916845881400919"><ele>607.0</ele><time>2026-04-19T12:00:01.845Z</time></trkpt><trkpt lat="44.061325321829" lon="10.916833229996593"><ele>607.6666666666667</ele><time>2026-04-19T12:00:02.845Z</time></trkpt><trkpt lat="44.06124840993304" lon="10.916819171963104"><ele>608.3333333333334</ele><time>2026-04-19T12:00:03.845Z</time></trkpt><trkpt lat="44.061128925551216" lon="10.916785270324448"><ele>609.0</ele><time>2026-04-19T12:00:05.845Z</time></trkpt><trkpt lat="44.06106509315502" lon="10.91672695243168"><ele>609.6666666666666</ele><time>2026-04-19T12:00:06.845Z</time></trkpt><trkpt lat="44.06100795047285" lon="10.916652141877853"><ele>610.3333333333333</ele><time>2026-04-19T12:00:07.845Z</time></trkpt><trkpt lat="44.06093296058458" lon="10.916581866192848"><ele>611.0</ele><time>2026-04-19T12:00:08.846Z</time></trkpt><trkpt lat="44.060891703520575" lon="10.91650410538782"><ele>611.0</ele><time>2026-04-19T12:00:09.846Z</time></trkpt><trkpt lat="44.06085012476622" lon="10.916390185944906"><ele>611.0</ele><time>2026-04-19T12:00:11.846Z</time></trkpt><trkpt lat="44.06084343378887" lon="10.916278313682213"><ele>611.0</ele><time>2026-04-19T12:00:13.846Z</time></trkpt><trkpt lat="44.06084405866093" lon="10.91618872767219"><ele>611.0</ele><time>2026-04-19T12:00:15.846Z</time></trkpt><trkpt lat="44.060841064094916" lon="10.91609213674982"><ele>611.0</ele><time>2026-04-19T12:00:18.846Z</time></trkpt><trkpt lat="44.06088677946727" lon="10.916183282220777"><ele>611.0</ele><time>2026-04-19T12:00:21.846Z</time></trkpt><trkpt lat="44.06086349276006" lon="10.916270074969205"><ele>611.0</ele><time>2026-04-19T12:00:22.846Z</time></trkpt><trkpt lat="44.06091630171482" lon="10.91644339050106"><ele>611.0</ele><time>2026-04-19T12:00:24.846Z</time></trkpt><trkpt lat="44.06097412535572" lon="10.916536856217474"><ele>611.0</ele><time>2026-04-19T12:00:25.846Z</time></trkpt><trkpt lat="44.06104169515552" lon="10.916620305205306"><ele>611.0</ele><time>2026-04-19T12:00:26.846Z</time></trkpt><trkpt lat="44.0611171394872" lon="10.916680946316632"><ele>611.0</ele><time>2026-04-19T12:00:27.846Z</time></trkpt><trkpt lat="44.06119195954605" lon="10.916741262449802"><ele>610.0</ele><time>2026-04-19T12:00:28.846Z</time></trkpt><trkpt lat="44.061299687935914" lon="10.91676058564207"><ele>609.0</ele><time>2026-04-19T12:00:29.846Z</time></trkpt><trkpt lat="44.061418912821246" lon="10.916764214804562"><ele>608.0</ele><time>2026-04-19T12:00:30.846Z</time></trkpt><trkpt lat="44.06153186318232" lon="10.916767719592812"><ele>607.0</ele><time>2026-04-19T12:00:31.846Z</time></trkpt><trkpt lat="44.061650880861976" lon="10.916762039019059"><ele>607.0</ele><time>2026-04-19T12:00:32.846Z</time></trkpt><trkpt lat="44.061754829064405" lon="10.916791231367117"><ele>607.0</ele><time>2026-04-19T12:00:33.846Z</time></trkpt><trkpt lat="44.06186071801392" lon="10.916798252590082"><ele>607.0</ele><time>2026-04-19T12:00:34.846Z</time></trkpt><trkpt lat="44.06195266872099" lon="10.916800957661847"><ele>607.0</ele><time>2026-04-19T12:00:35.846Z</time></trkpt><trkpt lat="44.062016064657534" lon="10.916797406193902"><ele>607.0</ele><time>2026-04-19T12:00:36.846Z</time></trkpt><trkpt lat="44.06212942361856" lon="10.916744283835175"><ele>610.8000000000001</ele><time>2026-04-19T12:00:38.846Z</time></trkpt><trkpt lat="44.06217983437837" lon="10.916669726743047"><ele>614.6</ele><time>2026-04-19T12:00:39.846Z</time></trkpt><trkpt lat="44.06223993897902" lon="10.916586791058625"><ele>618.4000000000001</ele><time>2026-04-19T12:00:40.846Z</time></trkpt><trkpt lat="44.06225805467056" lon="10.916463883294242"><ele>622.2</ele><time>2026-04-19T12:00:41.846Z</time></trkpt><trkpt lat="44.062224375555" lon="10.91632375898678"><ele>626.0</ele><time>2026-04-19T12:00:42.846Z</time></trkpt><trkpt lat="44.06218452004504" lon="10.916192166755406"><ele>626.0</ele><time>2026-04-19T12:00:43.846Z</time></trkpt><trkpt lat="44.06213869586044" lon="10.91604895243031"><ele>626.0</ele><time>2026-04-19T12:00:44.846Z</time></trkpt><trkpt lat="44.06208807266586" lon="10.9158907398269"><ele>626.0</ele><time>2026-04-19T12:00:45.846Z</time></trkpt><trkpt lat="44.06201692814416" lon="10.915722544231595"><ele>626.0</ele><time>2026-04-19T12:00:46.846Z</time></trkpt><trkpt lat="44.061968358421574" lon="10.91554067331081"><ele>630.5</ele><time>2026-04-19T12:00:47.846Z</time></trkpt><trkpt lat="44.061914819936035" lon="10.915362868261575"><ele>635.0</ele><time>2026-04-19T12:00:48.846Z</time></trkpt><trkpt lat="44.0618668028236" lon="10.915215058387227"><ele>639.5</ele><time>2026-04-19T12:00:49.846Z</time></trkpt><trkpt lat="44.06181428351091" lon="10.915092072471095"><ele>644.0</ele><time>2026-04-19T12:00:50.846Z</time></trkpt><trkpt lat="44.06179128160346" lon="10.91495885593412"><ele>646.0</ele><time>2026-04-19T12:00:51.846Z</time></trkpt><trkpt lat="44.06179470941757" lon="10.914822892889694"><ele>648.0</ele><time>2026-04-19T12:00:52.846Z</time></trkpt><trkpt lat="44.061814831506915" lon="10.914672904371178"><ele>650.0</ele><time>2026-04-19T12:00:53.846Z</time></trkpt><trkpt lat="44.06185482407549" lon="10.914511375304377"><ele>652.0</ele><time>2026-04-19T12:00:54.846Z</time></trkpt><trkpt lat="44.06190592171684" lon="10.914370354142067"><ele>654.0</ele><time>2026-04-19T12:00:55.846Z</time></trkpt><trkpt lat="44.061955963982165" lon="10.914231015113485"><ele>658.5</ele><time>2026-04-19T12:00:56.846Z</time></trkpt><trkpt lat="44.06202321930752" lon="10.914074182928049"><ele>663.0</ele><time>2026-04-19T12:00:57.846Z</time></trkpt><trkpt lat="44.06208994008625" lon="10.913952490315113"><ele>667.5</ele><time>2026-04-19T12:00:58.846Z</time></trkpt><trkpt lat="44.06216779684658" lon="10.913819408402368"><ele>672.0</ele><time>2026-04-19T12:00:59.846Z</time></trkpt><trkpt lat="44.062239454662446" lon="10.913699032455405"><ele>672.0</ele><time>2026-04-19T12:01:00.846Z</time></trkpt><trkpt lat="44.06230579153608" lon="10.913604908261487"><ele>672.0</ele><time>2026-04-19T12:01:01.846Z</time></trkpt><trkpt lat="44.062346139018075" lon="10.91348418179148"><ele>672.0</ele><time>2026-04-19T12:01:02.846Z</time></trkpt><trkpt lat="44.06241713362306" lon="10.913356406464862"><ele>672.0</ele><time>2026-04-19T12:01:03.846Z</time></trkpt><trkpt lat="44.06244059167109" lon="10.913192498778457"><ele>672.0</ele><time>2026-04-19T12:01:04.846Z</time></trkpt><trkpt lat="44.06244807606295" lon="10.913024229170142"><ele>676.75</ele><time>2026-04-19T12:01:05.846Z</time></trkpt><trkpt lat="44.062449744593216" lon="10.912847455226817"><ele>681.5</ele><time>2026-04-19T12:01:06.846Z</time></trkpt><trkpt lat="44.0624402859142" lon="10.912681194104998"><ele>686.25</ele><time>2026-04-19T12:01:07.846Z</time></trkpt><trkpt lat="44.06239635427605" lon="10.912515251446631"><ele>691.0</ele><time>2026-04-19T12:01:08.846Z</time></trkpt><trkpt lat="44.0623060427744" lon="10.91238148674825"><ele>691.75</ele><time>2026-04-19T12:01:09.846Z</time></trkpt><trkpt lat="44.06225572825521" lon="10.912233519362388"><ele>692.5</ele><time>2026-04-19T12:01:10.846Z</time></trkpt><trkpt lat="44.06221693555843" lon="10.91205858835277"><ele>693.25</ele><time>2026-04-19T12:01:11.846Z</time></trkpt><trkpt lat="44.06218039372993" lon="10.911874441265702"><ele>694.0</ele><time>2026-04-19T12:01:12.846Z</time></trkpt><trkpt lat="44.06215539946146" lon="10.911686760542873"><ele>694.0</ele><time>2026-04-19T12:01:13.846Z</time></trkpt><trkpt lat="44.0621402444908" lon="10.911527887121993"><ele>694.0</ele><time>2026-04-19T12:01:14.846Z</time></trkpt><trkpt lat="44.06213135374501" lon="10.911371325770936"><ele>694.0</ele><time>2026-04-19T12:01:15.846Z</time></trkpt><trkpt lat="44.06212229101874" lon="10.911196870275974"><ele>694.0</ele><time>2026-04-19T12:01:16.846Z</time></trkpt><trkpt lat="44.06211501194543" lon="10.911011712402482"><ele>691.6</ele><time>2026-04-19T12:01:17.846Z</time></trkpt><trkpt lat="44.0621018076336" lon="10.910869050305356"><ele>689.2</ele><time>2026-04-19T12:01:18.846Z</time></trkpt><trkpt lat="44.06208073872589" lon="10.910741866105441"><ele>686.8000000000001</ele><time>2026-04-19T12:01:19.846Z</time></trkpt><trkpt lat="44.06208779114164" lon="10.910627188062254"><ele>684.4000000000001</ele><time>2026-04-19T12:01:20.846Z</time></trkpt><trkpt lat="44.06208729364376" lon="10.910505537522306"><ele>682.0</ele><time>2026-04-19T12:01:21.846Z</time></trkpt><trkpt lat="44.06211463071645" lon="10.910330473349795"><ele>682.0</ele><time>2026-04-19T12:01:23.846Z</time></trkpt><trkpt lat="44.06213472266343" lon="10.910228372485932"><ele>682.0</ele><time>2026-04-19T12:01:25.846Z</time></trkpt><trkpt lat="44.062150881731036" lon="10.910142770305194"><ele>682.0</ele><time>2026-04-19T12:01:27.846Z</time></trkpt><trkpt lat="44.06217415874284" lon="10.910007281272849"><ele>682.0</ele><time>2026-04-19T12:01:29.846Z</time></trkpt><trkpt lat="44.06218984780332" lon="10.909906448138958"><ele>682.0</ele><time>2026-04-19T12:01:30.846Z</time></trkpt><trkpt lat="44.06220623188134" lon="10.909804092906718"><ele>682.0</ele><time>2026-04-19T12:01:31.846Z</time></trkpt><trkpt lat="44.062226608211915" lon="10.909682596132647"><ele>686.5</ele><time>2026-04-19T12:01:32.846Z</time></trkpt><trkpt lat="44.062249545154984" lon="10.909546354257154"><ele>691.0</ele><time>2026-04-19T12:01:33.846Z</time></trkpt><trkpt lat="44.062281581481464" lon="10.909395072726205"><ele>695.5</ele><time>2026-04-19T12:01:34.846Z</time></trkpt><trkpt lat="44.062337743950316" lon="10.909226346671637"><ele>700.0</ele><time>2026-04-19T12:01:35.846Z</time></trkpt><trkpt lat="44.062417860088196" lon="10.909090958972998"><ele>689.4</ele><time>2026-04-19T12:01:36.846Z</time></trkpt><trkpt lat="44.0624731284496" lon="10.908972507782755"><ele>678.8</ele><time>2026-04-19T12:01:37.846Z</time></trkpt><trkpt lat="44.06252001292343" lon="10.908846985730682"><ele>668.2</ele><time>2026-04-19T12:01:38.846Z</time></trkpt><trkpt lat="44.06256029552352" lon="10.90872037601166"><ele>657.6</ele><time>2026-04-19T12:01:39.846Z</time></trkpt><trkpt lat="44.06259984997849" lon="10.908566342120583"><ele>647.0</ele><time>2026-04-19T12:01:40.846Z</time></trkpt><trkpt lat="44.06262890971284" lon="10.908416157077967"><ele>651.75</ele><time>2026-04-19T12:01:41.846Z</time></trkpt><trkpt lat="44.06264520262952" lon="10.90827187382344"><ele>656.5</ele><time>2026-04-19T12:01:42.846Z</time></trkpt><trkpt lat="44.0626531902882" lon="10.908098223340062"><ele>661.25</ele><time>2026-04-19T12:01:43.846Z</time></trkpt><trkpt lat="44.06266513008153" lon="10.907929295340862"><ele>666.0</ele><time>2026-04-19T12:01:44.846Z</time></trkpt><trkpt lat="44.0626685056147" lon="10.907757724169386"><ele>666.0</ele><time>2026-04-19T12:01:45.846Z</time></trkpt><trkpt lat="44.062654194293415" lon="10.907601584429903"><ele>666.0</ele><time>2026-04-19T12:01:46.846Z</time></trkpt><trkpt lat="44.06266290711508" lon="10.907458849500422"><ele>666.0</ele><time>2026-04-19T12:01:47.846Z</time></trkpt><trkpt lat="44.06268055076487" lon="10.90731972782696"><ele>666.0</ele><time>2026-04-19T12:01:48.846Z</time></trkpt><trkpt lat="44.06271303589313" lon="10.907161862016963"><ele>666.0</ele><time>2026-04-19T12:01:49.846Z</time></trkpt><trkpt lat="44.06275215080296" lon="10.90702648186777"><ele>666.75</ele><time>2026-04-19T12:01:50.846Z</time></trkpt><trkpt lat="44.06278494514433" lon="10.906892328310684"><ele>667.5</ele><time>2026-04-19T12:01:51.846Z</time></trkpt><trkpt lat="44.06280663751772" lon="10.906748228135555"><ele>668.25</ele><time>2026-04-19T12:01:52.846Z</time></trkpt><trkpt lat="44.06282770021987" lon="10.906579754039864"><ele>669.0</ele><time>2026-04-19T12:01:53.846Z</time></trkpt><trkpt lat="44.062850583069135" lon="10.906410894431486"><ele>670.5</ele><time>2026-04-19T12:01:54.846Z</time></trkpt><trkpt lat="44.06285899322745" lon="10.906221926281003"><ele>672.0</ele><time>2026-04-19T12:01:55.846Z</time></trkpt><trkpt lat="44.062861201979274" lon="10.90604131344194"><ele>673.5</ele><time>2026-04-19T12:01:56.846Z</time></trkpt><trkpt lat="44.06284358098218" lon="10.905873054531424"><ele>675.0</ele><time>2026-04-19T12:01:57.846Z</time></trkpt><trkpt lat="44.062864848244665" lon="10.905718023018343"><ele>675.8</ele><time>2026-04-19T12:01:58.846Z</time></trkpt><trkpt lat="44.06286008429284" lon="10.905557175893202"><ele>676.6</ele><time>2026-04-19T12:01:59.846Z</time></trkpt><trkpt lat="44.06285402645762" lon="10.905408663564828"><ele>677.4000000000001</ele><time>2026-04-19T12:02:00.846Z</time></trkpt><trkpt lat="44.06286073807509" lon="10.905270452213365"><ele>678.2</ele><time>2026-04-19T12:02:01.846Z</time></trkpt><trkpt lat="44.06287399024443" lon="10.905139158772743"><ele>679.0</ele><time>2026-04-19T12:02:02.846Z</time></trkpt><trkpt lat="44.0628972305584" lon="10.90500368388945"><ele>679.5</ele><time>2026-04-19T12:02:03.846Z</time></trkpt><trkpt lat="44.06293795689506" lon="10.90485650689394"><ele>680.0</ele><time>2026-04-19T12:02:04.846Z</time></trkpt><trkpt lat="44.06300291361129" lon="10.904702589570617"><ele>680.5</ele><time>2026-04-19T12:02:05.846Z</time></trkpt><trkpt lat="44.06307290890396" lon="10.904555543416205"><ele>681.0</ele><time>2026-04-19T12:02:06.846Z</time></trkpt><trkpt lat="44.063136927410476" lon="10.904409867048265"><ele>681.0</ele><time>2026-04-19T12:02:07.846Z</time></trkpt><trkpt lat="44.063192801509196" lon="10.904258035677907"><ele>681.0</ele><time>2026-04-19T12:02:08.846Z</time></trkpt><trkpt lat="44.06322552850829" lon="10.904084620222095"><ele>681.0</ele><time>2026-04-19T12:02:09.846Z</time></trkpt><trkpt lat="44.06324103275019" lon="10.903904091034677"><ele>681.0</ele><time>2026-04-19T12:02:10.846Z</time></trkpt><trkpt lat="44.063253550028705" lon="10.903704484801102"><ele>681.25</ele><time>2026-04-19T12:02:11.846Z</time></trkpt><trkpt lat="44.063263600200514" lon="10.903500513288291"><ele>681.5</ele><time>2026-04-19T12:02:12.846Z</time></trkpt><trkpt lat="44.06327259341039" lon="10.903303626299282"><ele>681.75</ele><time>2026-04-19T12:02:13.846Z</time></trkpt><trkpt lat="44.063291817802984" lon="10.903124224999248"><ele>682.0</ele><time>2026-04-19T12:02:14.846Z</time></trkpt><trkpt lat="44.06328857507436" lon="10.902969151852787"><ele>679.3333333333334</ele><time>2026-04-19T12:02:15.846Z</time></trkpt><trkpt lat="44.063308720222935" lon="10.902851019025064"><ele>676.6666666666667</ele><time>2026-04-19T12:02:16.846Z</time></trkpt><trkpt lat="44.06334978149161" lon="10.902715600667904"><ele>674.0</ele><time>2026-04-19T12:02:18.846Z</time></trkpt><trkpt lat="44.063381063135076" lon="10.902625076836134"><ele>671.3333333333334</ele><time>2026-04-19T12:02:21.846Z</time></trkpt><trkpt lat="44.06342632159104" lon="10.902551469402978"><ele>668.6666666666666</ele><time>2026-04-19T12:02:27.846Z</time></trkpt><trkpt lat="44.06352012775706" lon="10.902580290783296"><ele>666.0</ele><time>2026-04-19T12:12:22.841Z</time></trkpt><trkpt lat="44.063451817873045" lon="10.902583119488854"><ele>666.0</ele><time>2026-04-19T12:14:17.841Z</time></trkpt><trkpt lat="44.06347644016548" lon="10.902490050541653"><ele>666.0</ele><time>2026-04-19T12:15:44.84Z</time></trkpt><trkpt lat="44.063378985612744" lon="10.902487006477996"><ele>666.0</ele><time>2026-04-19T12:15:48.84Z</time></trkpt><trkpt lat="44.06331359795613" lon="10.902646545028583"><ele>666.0</ele><time>2026-04-19T12:15:50.84Z</time></trkpt><trkpt lat="44.063298595926284" lon="10.902761133678473"><ele>666.0</ele><time>2026-04-19T12:15:51.84Z</time></trkpt><trkpt lat="44.06327918100511" lon="10.9029062371295"><ele>670.0</ele><time>2026-04-19T12:15:52.84Z</time></trkpt><trkpt lat="44.06327296234407" lon="10.903103069485745"><ele>674.0</ele><time>2026-04-19T12:15:53.84Z</time></trkpt><trkpt lat="44.063274254166565" lon="10.903304400359657"><ele>678.0</ele><time>2026-04-19T12:15:54.84Z</time></trkpt><trkpt lat="44.063281123541934" lon="10.903524455640888"><ele>682.0</ele><time>2026-04-19T12:15:55.84Z</time></trkpt><trkpt lat="44.063262876092836" lon="10.903675879332143"><ele>682.0</ele><time>2026-04-19T12:15:56.84Z</time></trkpt><trkpt lat="44.06325227064172" lon="10.903828971589318"><ele>682.0</ele><time>2026-04-19T12:15:57.84Z</time></trkpt><trkpt lat="44.063220675567955" lon="10.903964017938117"><ele>682.0</ele><time>2026-04-19T12:15:58.84Z</time></trkpt><trkpt lat="44.06320318317484" lon="10.904106873811047"><ele>682.0</ele><time>2026-04-19T12:15:59.84Z</time></trkpt><trkpt lat="44.06317105946537" lon="10.904261256376495"><ele>682.0</ele><time>2026-04-19T12:16:00.84Z</time></trkpt><trkpt lat="44.0630998881042" lon="10.904423769794382"><ele>681.75</ele><time>2026-04-19T12:16:01.84Z</time></trkpt><trkpt lat="44.06303404687298" lon="10.904595180565723"><ele>681.5</ele><time>2026-04-19T12:16:02.84Z</time></trkpt><trkpt lat="44.06297940787571" lon="10.904755628753545"><ele>681.25</ele><time>2026-04-19T12:16:03.84Z</time></trkpt><trkpt lat="44.06293270741661" lon="10.904865051505885"><ele>681.0</ele><time>2026-04-19T12:16:04.84Z</time></trkpt><trkpt lat="44.062919647348785" lon="10.905000392862702"><ele>680.5</ele><time>2026-04-19T12:16:05.841Z</time></trkpt><trkpt lat="44.062920043908996" lon="10.905159785181867"><ele>680.0</ele><time>2026-04-19T12:16:06.843Z</time></trkpt><trkpt lat="44.062921354046054" lon="10.905330185408928"><ele>679.5</ele><time>2026-04-19T12:16:07.844Z</time></trkpt><trkpt lat="44.062894214603205" lon="10.905529741232963"><ele>679.0</ele><time>2026-04-19T12:16:08.845Z</time></trkpt><trkpt lat="44.062877814170236" lon="10.90572939504495"><ele>678.0</ele><time>2026-04-19T12:16:09.847Z</time></trkpt><trkpt lat="44.06287046118597" lon="10.905929612783028"><ele>677.0</ele><time>2026-04-19T12:16:10.848Z</time></trkpt><trkpt lat="44.06287200757446" lon="10.906135174317244"><ele>676.0</ele><time>2026-04-19T12:16:11.849Z</time></trkpt><trkpt lat="44.062856557189995" lon="10.906323249768885"><ele>675.0</ele><time>2026-04-19T12:16:12.85Z</time></trkpt><trkpt lat="44.062845556083964" lon="10.906469074199894"><ele>675.0</ele><time>2026-04-19T12:16:13.851Z</time></trkpt><trkpt lat="44.062825530676704" lon="10.906597766728604"><ele>675.0</ele><time>2026-04-19T12:16:14.852Z</time></trkpt><trkpt lat="44.06280176102341" lon="10.906734321876687"><ele>675.0</ele><time>2026-04-19T12:16:15.853Z</time></trkpt><trkpt lat="44.06277173831757" lon="10.906884847647518"><ele>675.0</ele><time>2026-04-19T12:16:16.853Z</time></trkpt><trkpt lat="44.062725363905216" lon="10.907035049862445"><ele>675.0</ele><time>2026-04-19T12:16:17.854Z</time></trkpt><trkpt lat="44.06269051601506" lon="10.90718219361127"><ele>673.8</ele><time>2026-04-19T12:16:18.855Z</time></trkpt><trkpt lat="44.06266534656125" lon="10.907320156584868"><ele>672.6</ele><time>2026-04-19T12:16:19.855Z</time></trkpt><trkpt lat="44.06266533735462" lon="10.907451243639779"><ele>671.4000000000001</ele><time>2026-04-19T12:16:20.856Z</time></trkpt><trkpt lat="44.062664924222126" lon="10.907599606179774"><ele>670.2</ele><time>2026-04-19T12:16:21.857Z</time></trkpt><trkpt lat="44.062664575111775" lon="10.907757919629592"><ele>669.0</ele><time>2026-04-19T12:16:22.857Z</time></trkpt><trkpt lat="44.06266475842649" lon="10.907925265998259"><ele>668.4000000000001</ele><time>2026-04-19T12:16:23.858Z</time></trkpt><trkpt lat="44.06265684189588" lon="10.908100781572637"><ele>667.8</ele><time>2026-04-19T12:16:24.858Z</time></trkpt><trkpt lat="44.062663209930804" lon="10.908256771084076"><ele>667.2</ele><time>2026-04-19T12:16:25.859Z</time></trkpt><trkpt lat="44.062638016817814" lon="10.908367313335738"><ele>666.5999999999999</ele><time>2026-04-19T12:16:26.859Z</time></trkpt><trkpt lat="44.06259259221941" lon="10.908450235869022"><ele>666.0</ele><time>2026-04-19T12:16:27.859Z</time></trkpt><trkpt lat="44.06256276481041" lon="10.908559133216066"><ele>662.1999999999999</ele><time>2026-04-19T12:16:28.86Z</time></trkpt><trkpt lat="44.0625268138667" lon="10.90867208086916"><ele>658.4</ele><time>2026-04-19T12:16:29.86Z</time></trkpt><trkpt lat="44.062478943055616" lon="10.90879230560053"><ele>654.6</ele><time>2026-04-19T12:16:30.86Z</time></trkpt><trkpt lat="44.0624444652595" lon="10.908932353179816"><ele>650.8</ele><time>2026-04-19T12:16:31.861Z</time></trkpt><trkpt lat="44.06239848077597" lon="10.909071329018595"><ele>647.0</ele><time>2026-04-19T12:16:32.861Z</time></trkpt><trkpt lat="44.062341389618176" lon="10.909180551584628"><ele>657.6</ele><time>2026-04-19T12:16:33.861Z</time></trkpt><trkpt lat="44.06229403782446" lon="10.909271654724947"><ele>668.2</ele><time>2026-04-19T12:16:34.861Z</time></trkpt><trkpt lat="44.0622711504302" lon="10.909388118532416"><ele>678.8</ele><time>2026-04-19T12:16:35.862Z</time></trkpt><trkpt lat="44.06225157297168" lon="10.909556044580992"><ele>689.4</ele><time>2026-04-19T12:16:36.862Z</time></trkpt><trkpt lat="44.06217111768211" lon="10.909706779583102"><ele>700.0</ele><time>2026-04-19T12:16:37.862Z</time></trkpt><trkpt lat="44.062139783482095" lon="10.909899605785496"><ele>700.0</ele><time>2026-04-19T12:16:38.862Z</time></trkpt><trkpt lat="44.06211589057541" lon="10.910048870124538"><ele>700.0</ele><time>2026-04-19T12:16:39.862Z</time></trkpt><trkpt lat="44.06206728120843" lon="10.910181851500415"><ele>700.0</ele><time>2026-04-19T12:16:40.863Z</time></trkpt><trkpt lat="44.062033546587195" lon="10.910318039331257"><ele>700.0</ele><time>2026-04-19T12:16:41.863Z</time></trkpt><trkpt lat="44.06200474714229" lon="10.910430430547951"><ele>700.0</ele><time>2026-04-19T12:16:42.863Z</time></trkpt><trkpt lat="44.0620078423788" lon="10.910540791832245"><ele>698.5</ele><time>2026-04-19T12:16:43.863Z</time></trkpt><trkpt lat="44.06204095893034" lon="10.910678457152718"><ele>697.0</ele><time>2026-04-19T12:16:44.863Z</time></trkpt><trkpt lat="44.06207466492182" lon="10.910823108425458"><ele>695.5</ele><time>2026-04-19T12:16:45.863Z</time></trkpt><trkpt lat="44.062062024202035" lon="10.910986239737992"><ele>694.0</ele><time>2026-04-19T12:16:46.863Z</time></trkpt><trkpt lat="44.06204736670016" lon="10.911151539648868"><ele>694.0</ele><time>2026-04-19T12:16:47.864Z</time></trkpt><trkpt lat="44.06207519368741" lon="10.9112996262292"><ele>694.0</ele><time>2026-04-19T12:16:48.864Z</time></trkpt><trkpt lat="44.062092167377564" lon="10.911472189062922"><ele>694.0</ele><time>2026-04-19T12:16:49.864Z</time></trkpt><trkpt lat="44.06210908239349" lon="10.911643788232372"><ele>694.0</ele><time>2026-04-19T12:16:50.864Z</time></trkpt><trkpt lat="44.062122348607105" lon="10.911807051855286"><ele>695.0</ele><time>2026-04-19T12:16:51.864Z</time></trkpt><trkpt lat="44.062149502958455" lon="10.911960599132401"><ele>696.0</ele><time>2026-04-19T12:16:52.864Z</time></trkpt><trkpt lat="44.06218728237957" lon="10.912105730368346"><ele>697.0</ele><time>2026-04-19T12:16:53.864Z</time></trkpt><trkpt lat="44.0622328267846" lon="10.912247517927597"><ele>698.0</ele><time>2026-04-19T12:16:54.864Z</time></trkpt><trkpt lat="44.06226258010764" lon="10.912396574750636"><ele>699.0</ele><time>2026-04-19T12:16:55.864Z</time></trkpt><trkpt lat="44.0623472868983" lon="10.912532104708387"><ele>697.4000000000001</ele><time>2026-04-19T12:16:56.864Z</time></trkpt><trkpt lat="44.06234511511173" lon="10.912719089869888"><ele>695.8</ele><time>2026-04-19T12:16:57.864Z</time></trkpt><trkpt lat="44.06235868960541" lon="10.912878749015157"><ele>694.2</ele><time>2026-04-19T12:16:58.864Z</time></trkpt><trkpt lat="44.06233868086344" lon="10.913024228819518"><ele>692.5999999999999</ele><time>2026-04-19T12:16:59.864Z</time></trkpt><trkpt lat="44.06233079036388" lon="10.913131056056056"><ele>691.0</ele><time>2026-04-19T12:17:00.864Z</time></trkpt><trkpt lat="44.062384823875185" lon="10.913246946846119"><ele>691.0</ele><time>2026-04-19T12:17:01.865Z</time></trkpt><trkpt lat="44.06233513675063" lon="10.913394509647691"><ele>691.0</ele><time>2026-04-19T12:17:02.865Z</time></trkpt><trkpt lat="44.06228621557964" lon="10.913491693113354"><ele>691.0</ele><time>2026-04-19T12:17:03.865Z</time></trkpt><trkpt lat="44.06222843665611" lon="10.91357630705833"><ele>691.0</ele><time>2026-04-19T12:17:04.865Z</time></trkpt><trkpt lat="44.0621784593132" lon="10.913656436417805"><ele>691.0</ele><time>2026-04-19T12:17:05.865Z</time></trkpt><trkpt lat="44.062133585737584" lon="10.913731818352668"><ele>691.0</ele><time>2026-04-19T12:17:06.865Z</time></trkpt><trkpt lat="44.06208090787222" lon="10.91382031042422"><ele>687.1999999999999</ele><time>2026-04-19T12:17:07.865Z</time></trkpt><trkpt lat="44.06202747143282" lon="10.913913100688704"><ele>683.4</ele><time>2026-04-19T12:17:08.865Z</time></trkpt><trkpt lat="44.06196950231938" lon="10.913993283417062"><ele>679.6</ele><time>2026-04-19T12:17:09.865Z</time></trkpt><trkpt lat="44.061923008398765" lon="10.914108807274705"><ele>675.8</ele><time>2026-04-19T12:17:10.865Z</time></trkpt><trkpt lat="44.06188472436146" lon="10.914249728970582"><ele>672.0</ele><time>2026-04-19T12:17:11.865Z</time></trkpt><trkpt lat="44.061845713471335" lon="10.914381643766118"><ele>668.4000000000001</ele><time>2026-04-19T12:17:12.865Z</time></trkpt><trkpt lat="44.06180278847889" lon="10.91449141723195"><ele>664.8000000000001</ele><time>2026-04-19T12:17:13.865Z</time></trkpt><trkpt lat="44.06175920071707" lon="10.91460859431512"><ele>661.2</ele><time>2026-04-19T12:17:14.865Z</time></trkpt><trkpt lat="44.061751959263965" lon="10.91471548439139"><ele>657.6</ele><time>2026-04-19T12:17:15.865Z</time></trkpt><trkpt lat="44.06173866452442" lon="10.914850415367743"><ele>654.0</ele><time>2026-04-19T12:17:16.865Z</time></trkpt><trkpt lat="44.061751868529036" lon="10.915048673839218"><ele>650.6666666666666</ele><time>2026-04-19T12:17:17.865Z</time></trkpt><trkpt lat="44.06180953342011" lon="10.91524607405946"><ele>647.3333333333333</ele><time>2026-04-19T12:17:18.864Z</time></trkpt><trkpt lat="44.06188785330189" lon="10.915448332772316"><ele>644.0</ele><time>2026-04-19T12:17:19.864Z</time></trkpt><trkpt lat="44.06196630797119" lon="10.915635841659029"><ele>644.0</ele><time>2026-04-19T12:17:20.864Z</time></trkpt><trkpt lat="44.06202434556961" lon="10.915807434387009"><ele>644.0</ele><time>2026-04-19T12:17:21.864Z</time></trkpt><trkpt lat="44.062071351866884" lon="10.915952326911748"><ele>644.0</ele><time>2026-04-19T12:17:22.864Z</time></trkpt><trkpt lat="44.06211271865704" lon="10.916081610710496"><ele>644.0</ele><time>2026-04-19T12:17:23.864Z</time></trkpt><trkpt lat="44.062161355670206" lon="10.916195276210132"><ele>644.0</ele><time>2026-04-19T12:17:24.864Z</time></trkpt><trkpt lat="44.06219251477073" lon="10.91632277343423"><ele>641.0</ele><time>2026-04-19T12:17:25.864Z</time></trkpt><trkpt lat="44.06220219128727" lon="10.916449779585978"><ele>638.0</ele><time>2026-04-19T12:17:26.864Z</time></trkpt><trkpt lat="44.06218742111082" lon="10.916557413826068"><ele>635.0</ele><time>2026-04-19T12:17:27.864Z</time></trkpt><trkpt lat="44.062151180944106" lon="10.916636384486594"><ele>632.0</ele><time>2026-04-19T12:17:28.864Z</time></trkpt><trkpt lat="44.06206391299325" lon="10.916679701325481"><ele>629.0</ele><time>2026-04-19T12:17:29.864Z</time></trkpt><trkpt lat="44.0619787864587" lon="10.91671080202937"><ele>626.0</ele><time>2026-04-19T12:17:30.864Z</time></trkpt><trkpt lat="44.061882218089" lon="10.916739967913587"><ele>626.0</ele><time>2026-04-19T12:17:31.864Z</time></trkpt><trkpt lat="44.06177016896469" lon="10.91673631254559"><ele>626.0</ele><time>2026-04-19T12:17:32.864Z</time></trkpt><trkpt lat="44.06164168314122" lon="10.916723342476345"><ele>626.0</ele><time>2026-04-19T12:17:33.864Z</time></trkpt><trkpt lat="44.061500238340436" lon="10.916702381663436"><ele>626.0</ele><time>2026-04-19T12:17:34.864Z</time></trkpt><trkpt lat="44.0613789550618" lon="10.916708051603116"><ele>623.0</ele><time>2026-04-19T12:17:35.864Z</time></trkpt><trkpt lat="44.061276623130716" lon="10.91669937681437"><ele>620.0</ele><time>2026-04-19T12:17:36.864Z</time></trkpt><trkpt lat="44.061184357633046" lon="10.916684202622582"><ele>617.0</ele><time>2026-04-19T12:17:37.864Z</time></trkpt><trkpt lat="44.0611061020756" lon="10.91664218971291"><ele>614.0</ele><time>2026-04-19T12:17:38.864Z</time></trkpt><trkpt lat="44.06103237504409" lon="10.916560057942613"><ele>611.0</ele><time>2026-04-19T12:17:39.864Z</time></trkpt><trkpt lat="44.06096797331537" lon="10.916474715807801"><ele>611.0</ele><time>2026-04-19T12:17:40.864Z</time></trkpt><trkpt lat="44.06092098947836" lon="10.91636692196975"><ele>611.0</ele><time>2026-04-19T12:17:41.864Z</time></trkpt><trkpt lat="44.06089195594612" lon="10.916257791564602"><ele>611.0</ele><time>2026-04-19T12:17:42.864Z</time></trkpt><trkpt lat="44.06088771322538" lon="10.9161475725868"><ele>611.0</ele><time>2026-04-19T12:17:43.864Z</time></trkpt><trkpt lat="44.06087478766878" lon="10.915972998532899"><ele>611.0</ele><time>2026-04-19T12:17:45.864Z</time></trkpt><trkpt lat="44.060872952475464" lon="10.915881021341876"><ele>611.0</ele><time>2026-04-19T12:17:46.864Z</time></trkpt><trkpt lat="44.060880949467396" lon="10.915764334981569"><ele>611.4</ele><time>2026-04-19T12:17:47.864Z</time></trkpt><trkpt lat="44.060897921004276" lon="10.915627213477295"><ele>611.8</ele><time>2026-04-19T12:17:48.864Z</time></trkpt><trkpt lat="44.06088490300626" lon="10.915484982719134"><ele>612.1999999999999</ele><time>2026-04-19T12:17:49.864Z</time></trkpt><trkpt lat="44.06083796607567" lon="10.91535168753553"><ele>612.6</ele><time>2026-04-19T12:17:50.864Z</time></trkpt><trkpt lat="44.06077713038696" lon="10.915209033476946"><ele>613.0</ele><time>2026-04-19T12:17:51.864Z</time></trkpt><trkpt lat="44.060689331154435" lon="10.915067238474077"><ele>613.0</ele><time>2026-04-19T12:17:52.864Z</time></trkpt><trkpt lat="44.0605996794045" lon="10.914927804827508"><ele>613.0</ele><time>2026-04-19T12:17:53.864Z</time></trkpt><trkpt lat="44.06049194261332" lon="10.914790414617022"><ele>613.0</ele><time>2026-04-19T12:17:54.864Z</time></trkpt><trkpt lat="44.0603839579325" lon="10.914626822229076"><ele>613.0</ele><time>2026-04-19T12:17:55.864Z</time></trkpt><trkpt lat="44.06029770760545" lon="10.914461033181205"><ele>613.0</ele><time>2026-04-19T12:17:56.864Z</time></trkpt><trkpt lat="44.06021942756258" lon="10.914303817044008"><ele>613.0</ele><time>2026-04-19T12:17:57.864Z</time></trkpt><trkpt lat="44.06014422661427" lon="10.914146736078173"><ele>613.0</ele><time>2026-04-19T12:17:58.864Z</time></trkpt><trkpt lat="44.0600679556019" lon="10.914006464476058"><ele>613.0</ele><time>2026-04-19T12:17:59.864Z</time></trkpt><trkpt lat="44.06000266084807" lon="10.913873626225405"><ele>612.25</ele><time>2026-04-19T12:18:00.864Z</time></trkpt><trkpt lat="44.05993572140358" lon="10.913744965233784"><ele>611.5</ele><time>2026-04-19T12:18:01.864Z</time></trkpt><trkpt lat="44.05985083509876" lon="10.913596208855632"><ele>610.75</ele><time>2026-04-19T12:18:02.864Z</time></trkpt><trkpt lat="44.059761714328644" lon="10.913457746979645"><ele>610.0</ele><time>2026-04-19T12:18:03.864Z</time></trkpt><trkpt lat="44.05967187669765" lon="10.913315621800049"><ele>610.0</ele><time>2026-04-19T12:18:04.864Z</time></trkpt><trkpt lat="44.059592044139826" lon="10.913150285738801"><ele>610.0</ele><time>2026-04-19T12:18:05.864Z</time></trkpt><trkpt lat="44.05952412817922" lon="10.913022883407624"><ele>610.0</ele><time>2026-04-19T12:18:06.864Z</time></trkpt><trkpt lat="44.059478428405555" lon="10.912908949297286"><ele>610.0</ele><time>2026-04-19T12:18:07.864Z</time></trkpt><trkpt lat="44.05943185777359" lon="10.912785534529146"><ele>610.0</ele><time>2026-04-19T12:18:08.864Z</time></trkpt><trkpt lat="44.0593801593191" lon="10.912677007837322"><ele>610.0</ele><time>2026-04-19T12:18:09.864Z</time></trkpt><trkpt lat="44.05935203902169" lon="10.912569250903864"><ele>610.0</ele><time>2026-04-19T12:18:10.864Z</time></trkpt><trkpt lat="44.05931813802056" lon="10.912455247279253"><ele>610.0</ele><time>2026-04-19T12:18:11.864Z</time></trkpt><trkpt lat="44.05928887648298" lon="10.912354369768979"><ele>610.0</ele><time>2026-04-19T12:18:12.864Z</time></trkpt><trkpt lat="44.05926422870102" lon="10.912240686974725"><ele>610.0</ele><time>2026-04-19T12:18:13.864Z</time></trkpt><trkpt lat="44.05924553426414" lon="10.912143224522943"><ele>609.8333333333334</ele><time>2026-04-19T12:18:14.864Z</time></trkpt><trkpt lat="44.05923083444516" lon="10.912005361894442"><ele>609.6666666666667</ele><time>2026-04-19T12:18:16.864Z</time></trkpt><trkpt lat="44.05926351939318" lon="10.911917546756266"><ele>609.5</ele><time>2026-04-19T12:18:18.864Z</time></trkpt><trkpt lat="44.05922382757825" lon="10.911836182225477"><ele>609.3333333333334</ele><time>2026-04-19T12:18:22.864Z</time></trkpt><trkpt lat="44.05921261922877" lon="10.9117442739788"><ele>609.1666666666666</ele><time>2026-04-19T12:18:48.864Z</time></trkpt><trkpt lat="44.05917275071879" lon="10.91167043974373"><ele>609.0</ele><time>2026-04-19T12:18:50.864Z</time></trkpt><trkpt lat="44.059142315121974" lon="10.911576080530278"><ele>609.6666666666666</ele><time>2026-04-19T12:18:52.864Z</time></trkpt><trkpt lat="44.05911128756052" lon="10.911494154399142"><ele>610.3333333333334</ele><time>2026-04-19T12:18:54.864Z</time></trkpt><trkpt lat="44.05901648434493" lon="10.911383759754731"><ele>611.0</ele><time>2026-04-19T12:18:56.864Z</time></trkpt><trkpt lat="44.05893135952606" lon="10.911361635017368"><ele>611.6666666666667</ele><time>2026-04-19T12:18:57.864Z</time></trkpt><trkpt lat="44.05885822846906" lon="10.911334624114957"><ele>612.3333333333334</ele><time>2026-04-19T12:18:58.864Z</time></trkpt><trkpt lat="44.058779058922255" lon="10.911300843342895"><ele>613.0</ele><time>2026-04-19T12:18:59.864Z</time></trkpt><trkpt lat="44.05871603243134" lon="10.911252978411788"><ele>613.0</ele><time>2026-04-19T12:19:00.864Z</time></trkpt><trkpt lat="44.058664246473796" lon="10.911176560105334"><ele>613.0</ele><time>2026-04-19T12:19:01.864Z</time></trkpt><trkpt lat="44.05860172181119" lon="10.911072568438511"><ele>613.0</ele><time>2026-04-19T12:19:02.864Z</time></trkpt><trkpt lat="44.05855602629872" lon="10.91091319607152"><ele>613.0</ele><time>2026-04-19T12:19:03.864Z</time></trkpt><trkpt lat="44.058506830464715" lon="10.910731492345263"><ele>613.0</ele><time>2026-04-19T12:19:04.864Z</time></trkpt><trkpt lat="44.058455354147945" lon="10.91052474080048"><ele>612.6666666666667</ele><time>2026-04-19T12:19:05.864Z</time></trkpt><trkpt lat="44.058388875357316" lon="10.910313412042035"><ele>612.3333333333334</ele><time>2026-04-19T12:19:06.864Z</time></trkpt><trkpt lat="44.05831469579116" lon="10.910103509863156"><ele>612.0</ele><time>2026-04-19T12:19:07.864Z</time></trkpt><trkpt lat="44.058227106614076" lon="10.90990048891523"><ele>618.0</ele><time>2026-04-19T12:19:08.864Z</time></trkpt><trkpt lat="44.05813414613349" lon="10.90970200168237"><ele>624.0</ele><time>2026-04-19T12:19:09.864Z</time></trkpt><trkpt lat="44.05802718879174" lon="10.90949963153934"><ele>630.0</ele><time>2026-04-19T12:19:10.864Z</time></trkpt><trkpt lat="44.0579047495803" lon="10.909300109839762"><ele>624.6666666666666</ele><time>2026-04-19T12:19:11.864Z</time></trkpt><trkpt lat="44.057769634067654" lon="10.909117849521106"><ele>619.3333333333333</ele><time>2026-04-19T12:19:12.865Z</time></trkpt><trkpt lat="44.05763699279779" lon="10.908926707968469"><ele>614.0</ele><time>2026-04-19T12:19:13.865Z</time></trkpt><trkpt lat="44.057495895426705" lon="10.90875506708387"><ele>613.6666666666666</ele><time>2026-04-19T12:19:14.865Z</time></trkpt><trkpt lat="44.05735043684254" lon="10.90859025653246"><ele>613.3333333333334</ele><time>2026-04-19T12:19:15.865Z</time></trkpt><trkpt lat="44.05720065175081" lon="10.908402787447963"><ele>613.0</ele><time>2026-04-19T12:19:16.865Z</time></trkpt><trkpt lat="44.05707128187622" lon="10.908208975682031"><ele>613.0</ele><time>2026-04-19T12:19:17.865Z</time></trkpt><trkpt lat="44.056917545714505" lon="10.908050290150715"><ele>613.0</ele><time>2026-04-19T12:19:18.865Z</time></trkpt><trkpt lat="44.0567709845297" lon="10.907854298127168"><ele>613.0</ele><time>2026-04-19T12:19:19.865Z</time></trkpt><trkpt lat="44.05662186109363" lon="10.907680987278763"><ele>613.0</ele><time>2026-04-19T12:19:20.865Z</time></trkpt><trkpt lat="44.056458829993524" lon="10.907516150910437"><ele>613.0</ele><time>2026-04-19T12:19:21.864Z</time></trkpt><trkpt lat="44.05629052679426" lon="10.907371586088972"><ele>613.0</ele><time>2026-04-19T12:19:22.864Z</time></trkpt><trkpt lat="44.05612911990753" lon="10.90724086050826"><ele>613.0</ele><time>2026-04-19T12:19:23.864Z</time></trkpt><trkpt lat="44.05597548664486" lon="10.90713892676138"><ele>613.0</ele><time>2026-04-19T12:19:24.864Z</time></trkpt><trkpt lat="44.055842884822596" lon="10.9070459950865"><ele>613.0</ele><time>2026-04-19T12:19:25.864Z</time></trkpt><trkpt lat="44.05572132883775" lon="10.906949547243617"><ele>613.4</ele><time>2026-04-19T12:19:26.864Z</time></trkpt><trkpt lat="44.05562286421825" lon="10.90685907928297"><ele>613.8</ele><time>2026-04-19T12:19:27.864Z</time></trkpt><trkpt lat="44.0555415116922" lon="10.906785327904357"><ele>614.2</ele><time>2026-04-19T12:19:28.864Z</time></trkpt><trkpt lat="44.055471299116604" lon="10.906736793214227"><ele>614.6</ele><time>2026-04-19T12:19:29.864Z</time></trkpt><trkpt lat="44.05541047451741" lon="10.906702003752107"><ele>615.0</ele><time>2026-04-19T12:19:30.864Z</time></trkpt><trkpt lat="44.05537920045417" lon="10.906540323154992"><ele>615.0</ele><time>2026-04-19T12:19:32.864Z</time></trkpt><trkpt lat="44.05540277744195" lon="10.90644204252747"><ele>615.0</ele><time>2026-04-19T12:19:33.864Z</time></trkpt><trkpt lat="44.055429206511526" lon="10.906351273075552"><ele>615.0</ele><time>2026-04-19T12:19:34.864Z</time></trkpt><trkpt lat="44.05537939527403" lon="10.90619134245707"><ele>615.0</ele><time>2026-04-19T12:19:36.864Z</time></trkpt><trkpt lat="44.0552640602339" lon="10.906117696480937"><ele>615.0</ele><time>2026-04-19T12:19:37.864Z</time></trkpt><trkpt lat="44.055150327389164" lon="10.906019801348178"><ele>615.0</ele><time>2026-04-19T12:19:38.864Z</time></trkpt><trkpt lat="44.05501724030715" lon="10.905922470393332"><ele>615.0</ele><time>2026-04-19T12:19:39.864Z</time></trkpt><trkpt lat="44.05488844473206" lon="10.905815171950419"><ele>615.0</ele><time>2026-04-19T12:19:40.864Z</time></trkpt><trkpt lat="44.05474204038806" lon="10.905717490071726"><ele>614.6666666666666</ele><time>2026-04-19T12:19:41.864Z</time></trkpt><trkpt lat="44.054591438223284" lon="10.905564812467746"><ele>614.3333333333333</ele><time>2026-04-19T12:19:42.864Z</time></trkpt><trkpt lat="44.05443747062597" lon="10.905364784831052"><ele>614.0</ele><time>2026-04-19T12:19:43.864Z</time></trkpt><trkpt lat="44.05429838046712" lon="10.905157513732584"><ele>614.3333333333333</ele><time>2026-04-19T12:19:44.864Z</time></trkpt><trkpt lat="44.05414588779163" lon="10.904993498701886"><ele>614.6666666666666</ele><time>2026-04-19T12:19:45.864Z</time></trkpt><trkpt lat="44.05399079855063" lon="10.904814157809714"><ele>615.0</ele><time>2026-04-19T12:19:46.864Z</time></trkpt><trkpt lat="44.053854241838714" lon="10.904624055201806"><ele>615.0</ele><time>2026-04-19T12:19:47.864Z</time></trkpt><trkpt lat="44.0536966406789" lon="10.904470258031365"><ele>615.0</ele><time>2026-04-19T12:19:48.864Z</time></trkpt><trkpt lat="44.053508566180895" lon="10.904355563264781"><ele>615.0</ele><time>2026-04-19T12:19:49.864Z</time></trkpt><trkpt lat="44.05330611915085" lon="10.904258244874292"><ele>617.0</ele><time>2026-04-19T12:19:50.864Z</time></trkpt><trkpt lat="44.05310672262568" lon="10.904183831793285"><ele>619.0</ele><time>2026-04-19T12:19:51.864Z</time></trkpt><trkpt lat="44.05290674322437" lon="10.904115874770369"><ele>621.0</ele><time>2026-04-19T12:19:52.864Z</time></trkpt><trkpt lat="44.05270085468522" lon="10.904036158200324"><ele>621.0</ele><time>2026-04-19T12:19:53.864Z</time></trkpt><trkpt lat="44.05247422371734" lon="10.903972538270068"><ele>621.0</ele><time>2026-04-19T12:19:54.864Z</time></trkpt><trkpt lat="44.05224240201537" lon="10.903938946887083"><ele>622.6666666666666</ele><time>2026-04-19T12:19:55.864Z</time></trkpt><trkpt lat="44.05202806172121" lon="10.9038851747633"><ele>624.3333333333333</ele><time>2026-04-19T12:19:56.864Z</time></trkpt><trkpt lat="44.05181540837088" lon="10.90382838989077"><ele>626.0</ele><time>2026-04-19T12:19:57.864Z</time></trkpt><trkpt lat="44.051594423168375" lon="10.903761381399773"><ele>629.3333333333333</ele><time>2026-04-19T12:19:58.864Z</time></trkpt><trkpt lat="44.051376014898516" lon="10.903700721820906"><ele>632.6666666666666</ele><time>2026-04-19T12:19:59.864Z</time></trkpt><trkpt lat="44.05117019702268" lon="10.903609477341194"><ele>636.0</ele><time>2026-04-19T12:20:00.864Z</time></trkpt><trkpt lat="44.05097083637418" lon="10.903508818105374"><ele>635.3333333333334</ele><time>2026-04-19T12:20:01.864Z</time></trkpt><trkpt lat="44.050794436110316" lon="10.903413450550747"><ele>634.6666666666667</ele><time>2026-04-19T12:20:02.864Z</time></trkpt><trkpt lat="44.05064319048138" lon="10.903356802095379"><ele>634.0</ele><time>2026-04-19T12:20:03.864Z</time></trkpt><trkpt lat="44.050513556455414" lon="10.90327008883655"><ele>634.0</ele><time>2026-04-19T12:20:04.864Z</time></trkpt><trkpt lat="44.05039055811665" lon="10.903182258435967"><ele>634.0</ele><time>2026-04-19T12:20:05.864Z</time></trkpt><trkpt lat="44.05027285771594" lon="10.903030876358958"><ele>634.0</ele><time>2026-04-19T12:20:06.864Z</time></trkpt><trkpt lat="44.05017616751653" lon="10.902815342360757"><ele>634.0</ele><time>2026-04-19T12:20:07.864Z</time></trkpt><trkpt lat="44.05007730584139" lon="10.902609490997053"><ele>634.0</ele><time>2026-04-19T12:20:08.864Z</time></trkpt><trkpt lat="44.04999716751013" lon="10.902386049509659"><ele>634.0</ele><time>2026-04-19T12:20:09.864Z</time></trkpt><trkpt lat="44.04987783368298" lon="10.902173417498872"><ele>635.3333333333334</ele><time>2026-04-19T12:20:10.864Z</time></trkpt><trkpt lat="44.0497552420601" lon="10.901970067482363"><ele>636.6666666666666</ele><time>2026-04-19T12:20:11.864Z</time></trkpt><trkpt lat="44.04962919848719" lon="10.901770986349067"><ele>638.0</ele><time>2026-04-19T12:20:12.864Z</time></trkpt><trkpt lat="44.04947544826118" lon="10.901572797343599"><ele>637.6666666666666</ele><time>2026-04-19T12:20:13.864Z</time></trkpt><trkpt lat="44.04933165966933" lon="10.901364596188891"><ele>637.3333333333334</ele><time>2026-04-19T12:20:14.864Z</time></trkpt><trkpt lat="44.04919236183477" lon="10.901157328623688"><ele>637.0</ele><time>2026-04-19T12:20:15.864Z</time></trkpt><trkpt lat="44.04903963250667" lon="10.900968117036394"><ele>635.3333333333334</ele><time>2026-04-19T12:20:16.864Z</time></trkpt><trkpt lat="44.04885708582491" lon="10.900818232086523"><ele>633.6666666666666</ele><time>2026-04-19T12:20:17.864Z</time></trkpt><trkpt lat="44.0486969421442" lon="10.90069386035075"><ele>632.0</ele><time>2026-04-19T12:20:18.864Z</time></trkpt><trkpt lat="44.048539759901715" lon="10.90057892741143"><ele>632.0</ele><time>2026-04-19T12:20:19.864Z</time></trkpt><trkpt lat="44.04835540993127" lon="10.900467458767446"><ele>632.0</ele><time>2026-04-19T12:20:20.864Z</time></trkpt><trkpt lat="44.04817287687526" lon="10.900352782124912"><ele>632.0</ele><time>2026-04-19T12:20:21.864Z</time></trkpt><trkpt lat="44.04797464476487" lon="10.900260264846644"><ele>634.0</ele><time>2026-04-19T12:20:22.864Z</time></trkpt><trkpt lat="44.047730651996545" lon="10.900220584522954"><ele>636.0</ele><time>2026-04-19T12:20:23.864Z</time></trkpt><trkpt lat="44.0475131965044" lon="10.900171829058891"><ele>638.0</ele><time>2026-04-19T12:20:24.864Z</time></trkpt><trkpt lat="44.047296787743846" lon="10.900104016805686"><ele>640.0</ele><time>2026-04-19T12:20:25.864Z</time></trkpt><trkpt lat="44.0470983544019" lon="10.900034318190151"><ele>642.0</ele><time>2026-04-19T12:20:26.864Z</time></trkpt><trkpt lat="44.04693094453866" lon="10.899957846444845"><ele>642.0</ele><time>2026-04-19T12:20:27.864Z</time></trkpt><trkpt lat="44.04677546788477" lon="10.89989229784073"><ele>642.0</ele><time>2026-04-19T12:20:28.864Z</time></trkpt><trkpt lat="44.04663697785082" lon="10.899837456381889"><ele>642.0</ele><time>2026-04-19T12:20:29.864Z</time></trkpt><trkpt lat="44.046522211253254" lon="10.899739049829961"><ele>642.0</ele><time>2026-04-19T12:20:30.864Z</time></trkpt><trkpt lat="44.046412330866644" lon="10.899586055114929"><ele>644.0</ele><time>2026-04-19T12:20:31.864Z</time></trkpt><trkpt lat="44.04633067685078" lon="10.899404334676827"><ele>646.0</ele><time>2026-04-19T12:20:32.864Z</time></trkpt><trkpt lat="44.04627285922199" lon="10.899218463996336"><ele>648.0</ele><time>2026-04-19T12:20:33.864Z</time></trkpt><trkpt lat="44.04624508752859" lon="10.899007797521353"><ele>648.0</ele><time>2026-04-19T12:20:34.864Z</time></trkpt><trkpt lat="44.04623325826629" lon="10.89878057403854"><ele>648.0</ele><time>2026-04-19T12:20:35.864Z</time></trkpt><trkpt lat="44.0462646378753" lon="10.898514368177723"><ele>648.0</ele><time>2026-04-19T12:20:36.864Z</time></trkpt><trkpt lat="44.046340579057095" lon="10.898212212068868"><ele>646.0</ele><time>2026-04-19T12:20:37.864Z</time></trkpt><trkpt lat="44.04635844276811" lon="10.897960728007005"><ele>644.0</ele><time>2026-04-19T12:20:38.864Z</time></trkpt><trkpt lat="44.046360420618335" lon="10.897723994796756"><ele>642.0</ele><time>2026-04-19T12:20:39.864Z</time></trkpt><trkpt lat="44.04635329330033" lon="10.897494109218036"><ele>641.6666666666666</ele><time>2026-04-19T12:20:40.864Z</time></trkpt><trkpt lat="44.04633280433829" lon="10.897266735842601"><ele>641.3333333333333</ele><time>2026-04-19T12:20:41.864Z</time></trkpt><trkpt lat="44.046266784691156" lon="10.89703295433724"><ele>641.0</ele><time>2026-04-19T12:20:42.864Z</time></trkpt><trkpt lat="44.046186933898156" lon="10.89681301911378"><ele>643.6666666666666</ele><time>2026-04-19T12:20:43.864Z</time></trkpt><trkpt lat="44.04606479957635" lon="10.896607141384047"><ele>646.3333333333334</ele><time>2026-04-19T12:20:44.864Z</time></trkpt><trkpt lat="44.04595312097409" lon="10.896416550976955"><ele>649.0</ele><time>2026-04-19T12:20:45.864Z</time></trkpt><trkpt lat="44.04576281794644" lon="10.896316011514749"><ele>649.6666666666667</ele><time>2026-04-19T12:20:46.864Z</time></trkpt><trkpt lat="44.04558524981279" lon="10.896136570133157"><ele>650.3333333333334</ele><time>2026-04-19T12:20:47.864Z</time></trkpt><trkpt lat="44.04539667318634" lon="10.895961526458791"><ele>651.0</ele><time>2026-04-19T12:20:48.864Z</time></trkpt><trkpt lat="44.04522820683351" lon="10.89580347127295"><ele>651.0</ele><time>2026-04-19T12:20:49.864Z</time></trkpt><trkpt lat="44.045104135633615" lon="10.895649792398205"><ele>651.0</ele><time>2026-04-19T12:20:50.864Z</time></trkpt><trkpt lat="44.0450015328907" lon="10.89545235967868"><ele>651.0</ele><time>2026-04-19T12:20:51.864Z</time></trkpt><trkpt lat="44.04491781047508" lon="10.895228927148539"><ele>649.6666666666666</ele><time>2026-04-19T12:20:52.864Z</time></trkpt><trkpt lat="44.04485332976166" lon="10.89496652808968"><ele>648.3333333333333</ele><time>2026-04-19T12:20:53.864Z</time></trkpt><trkpt lat="44.044772661793786" lon="10.894753903873447"><ele>647.0</ele><time>2026-04-19T12:20:54.864Z</time></trkpt><trkpt lat="44.04464360607977" lon="10.894555591001588"><ele>647.0</ele><time>2026-04-19T12:20:55.864Z</time></trkpt><trkpt lat="44.044516432839984" lon="10.894378511135864"><ele>647.0</ele><time>2026-04-19T12:20:56.864Z</time></trkpt><trkpt lat="44.04437693488616" lon="10.894193201387063"><ele>647.0</ele><time>2026-04-19T12:20:57.864Z</time></trkpt><trkpt lat="44.04422958618807" lon="10.893991095045548"><ele>647.6666666666666</ele><time>2026-04-19T12:20:58.864Z</time></trkpt><trkpt lat="44.04407609444515" lon="10.893798345411684"><ele>648.3333333333334</ele><time>2026-04-19T12:20:59.864Z</time></trkpt><trkpt lat="44.04390886565871" lon="10.893641602766538"><ele>649.0</ele><time>2026-04-19T12:21:00.864Z</time></trkpt><trkpt lat="44.04372784307069" lon="10.893478401393397"><ele>650.5</ele><time>2026-04-19T12:21:01.864Z</time></trkpt><trkpt lat="44.043549265113" lon="10.893267692972557"><ele>652.0</ele><time>2026-04-19T12:21:02.864Z</time></trkpt><trkpt lat="44.04338563959255" lon="10.893069385067623"><ele>651.0</ele><time>2026-04-19T12:21:03.864Z</time></trkpt><trkpt lat="44.04325257017567" lon="10.892826946462492"><ele>650.0</ele><time>2026-04-19T12:21:04.864Z</time></trkpt><trkpt lat="44.04309556649683" lon="10.892577466109753"><ele>650.0</ele><time>2026-04-19T12:21:05.864Z</time></trkpt><trkpt lat="44.04293087031752" lon="10.892355739723595"><ele>650.0</ele><time>2026-04-19T12:21:06.864Z</time></trkpt><trkpt lat="44.04277776617136" lon="10.892148132029082"><ele>650.0</ele><time>2026-04-19T12:21:07.864Z</time></trkpt><trkpt lat="44.04262992149127" lon="10.891963557339553"><ele>650.0</ele><time>2026-04-19T12:21:08.864Z</time></trkpt><trkpt lat="44.04252161268935" lon="10.891794731919036"><ele>650.0</ele><time>2026-04-19T12:21:09.864Z</time></trkpt><trkpt lat="44.04243661401973" lon="10.891635650728505"><ele>650.0</ele><time>2026-04-19T12:21:10.864Z</time></trkpt><trkpt lat="44.04238972690631" lon="10.891476682552245"><ele>650.0</ele><time>2026-04-19T12:21:11.864Z</time></trkpt><trkpt lat="44.042375575812194" lon="10.891310243793447"><ele>649.25</ele><time>2026-04-19T12:21:12.864Z</time></trkpt><trkpt lat="44.04239717318602" lon="10.891146420803993"><ele>648.5</ele><time>2026-04-19T12:21:13.864Z</time></trkpt><trkpt lat="44.0424581852477" lon="10.890973366186037"><ele>647.75</ele><time>2026-04-19T12:21:14.864Z</time></trkpt><trkpt lat="44.04254964547704" lon="10.89078977863251"><ele>647.0</ele><time>2026-04-19T12:21:15.864Z</time></trkpt><trkpt lat="44.042645481205646" lon="10.890598131885874"><ele>648.6666666666666</ele><time>2026-04-19T12:21:16.864Z</time></trkpt><trkpt lat="44.04276233284019" lon="10.890400582337826"><ele>650.3333333333334</ele><time>2026-04-19T12:21:17.864Z</time></trkpt><trkpt lat="44.04285103152376" lon="10.890174038342334"><ele>652.0</ele><time>2026-04-19T12:21:18.864Z</time></trkpt><trkpt lat="44.04291037712804" lon="10.889960841731504"><ele>652.0</ele><time>2026-04-19T12:21:19.864Z</time></trkpt><trkpt lat="44.042946001367824" lon="10.889716289480921"><ele>652.0</ele><time>2026-04-19T12:21:20.864Z</time></trkpt><trkpt lat="44.04295910309538" lon="10.889474087100123"><ele>652.0</ele><time>2026-04-19T12:21:21.864Z</time></trkpt><trkpt lat="44.042924106130016" lon="10.88923709123462"><ele>651.6666666666667</ele><time>2026-04-19T12:21:22.864Z</time></trkpt><trkpt lat="44.04288813131471" lon="10.888981116209992"><ele>651.3333333333334</ele><time>2026-04-19T12:21:23.864Z</time></trkpt><trkpt lat="44.042814068647786" lon="10.888722815633123"><ele>651.0</ele><time>2026-04-19T12:21:24.864Z</time></trkpt><trkpt lat="44.04271521002876" lon="10.888454005665954"><ele>652.0</ele><time>2026-04-19T12:21:25.864Z</time></trkpt><trkpt lat="44.04259480983847" lon="10.888202849094434"><ele>653.0</ele><time>2026-04-19T12:21:26.865Z</time></trkpt><trkpt lat="44.04247751469872" lon="10.887966296118407"><ele>654.0</ele><time>2026-04-19T12:21:27.864Z</time></trkpt><trkpt lat="44.04235937644925" lon="10.88773401399912"><ele>654.6666666666666</ele><time>2026-04-19T12:21:28.864Z</time></trkpt><trkpt lat="44.042256237026194" lon="10.887514109158992"><ele>655.3333333333333</ele><time>2026-04-19T12:21:29.864Z</time></trkpt><trkpt lat="44.04214621650769" lon="10.887299907666522"><ele>656.0</ele><time>2026-04-19T12:21:30.863Z</time></trkpt><trkpt lat="44.04203272059732" lon="10.887096038013382"><ele>656.0</ele><time>2026-04-19T12:21:31.863Z</time></trkpt><trkpt lat="44.04190397891232" lon="10.886897945911736"><ele>656.0</ele><time>2026-04-19T12:21:32.863Z</time></trkpt><trkpt lat="44.04176526205576" lon="10.886700823744862"><ele>656.0</ele><time>2026-04-19T12:21:33.863Z</time></trkpt><trkpt lat="44.04161321604093" lon="10.886504269652743"><ele>658.3333333333333</ele><time>2026-04-19T12:21:34.863Z</time></trkpt><trkpt lat="44.041470422564586" lon="10.886334360024959"><ele>660.6666666666666</ele><time>2026-04-19T12:21:35.863Z</time></trkpt><trkpt lat="44.04130829146804" lon="10.886195147439233"><ele>663.0</ele><time>2026-04-19T12:21:36.863Z</time></trkpt><trkpt lat="44.041140093149394" lon="10.886095980141965"><ele>663.0</ele><time>2026-04-19T12:21:37.863Z</time></trkpt><trkpt lat="44.040958213444796" lon="10.886002778541044"><ele>663.0</ele><time>2026-04-19T12:21:38.863Z</time></trkpt><trkpt lat="44.04079346878364" lon="10.885924750187774"><ele>663.0</ele><time>2026-04-19T12:21:39.863Z</time></trkpt><trkpt lat="44.04064749245294" lon="10.885878982166025"><ele>661.75</ele><time>2026-04-19T12:21:40.863Z</time></trkpt><trkpt lat="44.04051331869515" lon="10.885779031975023"><ele>660.5</ele><time>2026-04-19T12:21:41.863Z</time></trkpt><trkpt lat="44.04041934740088" lon="10.88565842280867"><ele>659.25</ele><time>2026-04-19T12:21:42.863Z</time></trkpt><trkpt lat="44.04034998364337" lon="10.885502423485791"><ele>658.0</ele><time>2026-04-19T12:21:43.863Z</time></trkpt><trkpt lat="44.040313796107036" lon="10.88530304831471"><ele>658.0</ele><time>2026-04-19T12:21:44.863Z</time></trkpt><trkpt lat="44.040287735039115" lon="10.88509098856622"><ele>658.0</ele><time>2026-04-19T12:21:45.863Z</time></trkpt><trkpt lat="44.040283146557535" lon="10.884911795646747"><ele>658.0</ele><time>2026-04-19T12:21:46.863Z</time></trkpt><trkpt lat="44.040280198408205" lon="10.884762248433146"><ele>658.0</ele><time>2026-04-19T12:21:47.863Z</time></trkpt><trkpt lat="44.04025648542169" lon="10.884644959331188"><ele>658.0</ele><time>2026-04-19T12:21:48.863Z</time></trkpt><trkpt lat="44.04019595465467" lon="10.884573238342249"><ele>658.0</ele><time>2026-04-19T12:21:49.863Z</time></trkpt><trkpt lat="44.04012914908026" lon="10.8845469159597"><ele>658.0</ele><time>2026-04-19T12:21:50.863Z</time></trkpt><trkpt lat="44.040045922440754" lon="10.88454527237068"><ele>658.0</ele><time>2026-04-19T12:21:51.863Z</time></trkpt><trkpt lat="44.039931085903795" lon="10.8845967105819"><ele>658.0</ele><time>2026-04-19T12:21:52.863Z</time></trkpt><trkpt lat="44.039802872729126" lon="10.88463805477304"><ele>658.25</ele><time>2026-04-19T12:21:53.863Z</time></trkpt><trkpt lat="44.03966036118994" lon="10.884663995099604"><ele>658.5</ele><time>2026-04-19T12:21:54.863Z</time></trkpt><trkpt lat="44.03951958941379" lon="10.884635825263368"><ele>658.75</ele><time>2026-04-19T12:21:55.863Z</time></trkpt><trkpt lat="44.039384317582744" lon="10.88453246239405"><ele>659.0</ele><time>2026-04-19T12:21:56.863Z</time></trkpt><trkpt lat="44.039266215879" lon="10.884400694778533"><ele>659.0</ele><time>2026-04-19T12:21:57.863Z</time></trkpt><trkpt lat="44.03916233742282" lon="10.88424454939061"><ele>659.0</ele><time>2026-04-19T12:21:58.863Z</time></trkpt><trkpt lat="44.039032665012" lon="10.884081445935513"><ele>659.0</ele><time>2026-04-19T12:21:59.863Z</time></trkpt><trkpt lat="44.038922090929965" lon="10.883882443593345"><ele>659.3333333333333</ele><time>2026-04-19T12:22:00.863Z</time></trkpt><trkpt lat="44.038810397705305" lon="10.883691902782148"><ele>659.6666666666666</ele><time>2026-04-19T12:22:01.863Z</time></trkpt><trkpt lat="44.03868535197788" lon="10.883505235634667"><ele>660.0</ele><time>2026-04-19T12:22:02.863Z</time></trkpt><trkpt lat="44.03857891262414" lon="10.883318741055847"><ele>660.0</ele><time>2026-04-19T12:22:03.863Z</time></trkpt><trkpt lat="44.038481218332265" lon="10.883156561996735"><ele>660.0</ele><time>2026-04-19T12:22:04.863Z</time></trkpt><trkpt lat="44.038396039609935" lon="10.883013733373941"><ele>660.0</ele><time>2026-04-19T12:22:05.863Z</time></trkpt><trkpt lat="44.03832032183867" lon="10.88290853573845"><ele>660.0</ele><time>2026-04-19T12:22:06.863Z</time></trkpt><trkpt lat="44.03825418839331" lon="10.882812185173066"><ele>660.0</ele><time>2026-04-19T12:22:07.863Z</time></trkpt><trkpt lat="44.03819449180401" lon="10.882739346640822"><ele>660.0</ele><time>2026-04-19T12:22:08.863Z</time></trkpt><trkpt lat="44.03813739385855" lon="10.882680909040571"><ele>660.0</ele><time>2026-04-19T12:22:09.863Z</time></trkpt><trkpt lat="44.038071487302474" lon="10.882597998174809"><ele>660.0</ele><time>2026-04-19T12:22:11.863Z</time></trkpt><trkpt lat="44.038093852775894" lon="10.882466384070497"><ele>660.0</ele><time>2026-04-19T12:22:12.863Z</time></trkpt><trkpt lat="44.03809912058328" lon="10.882322424982322"><ele>660.0</ele><time>2026-04-19T12:22:13.863Z</time></trkpt><trkpt lat="44.03808917532085" lon="10.882136334743437"><ele>662.0</ele><time>2026-04-19T12:22:14.863Z</time></trkpt><trkpt lat="44.03807729194313" lon="10.881927633714508"><ele>664.0</ele><time>2026-04-19T12:22:15.863Z</time></trkpt><trkpt lat="44.038048060422824" lon="10.88170042096246"><ele>666.0</ele><time>2026-04-19T12:22:16.863Z</time></trkpt><trkpt lat="44.03802179011913" lon="10.881459906624956"><ele>669.6666666666666</ele><time>2026-04-19T12:22:17.863Z</time></trkpt><trkpt lat="44.0379971412232" lon="10.881217271346802"><ele>673.3333333333333</ele><time>2026-04-19T12:22:18.863Z</time></trkpt><trkpt lat="44.037968186909204" lon="10.880961294499967"><ele>677.0</ele><time>2026-04-19T12:22:19.863Z</time></trkpt><trkpt lat="44.037943962090736" lon="10.8807029453071"><ele>677.6666666666666</ele><time>2026-04-19T12:22:20.863Z</time></trkpt><trkpt lat="44.03791321367524" lon="10.880441871555226"><ele>678.3333333333334</ele><time>2026-04-19T12:22:21.863Z</time></trkpt><trkpt lat="44.037888201065485" lon="10.880170211156033"><ele>679.0</ele><time>2026-04-19T12:22:22.863Z</time></trkpt><trkpt lat="44.03785827345318" lon="10.87989047497343"><ele>679.3333333333334</ele><time>2026-04-19T12:22:23.863Z</time></trkpt><trkpt lat="44.03783885859832" lon="10.87961983630322"><ele>679.6666666666666</ele><time>2026-04-19T12:22:24.863Z</time></trkpt><trkpt lat="44.0378292417123" lon="10.879350068436526"><ele>680.0</ele><time>2026-04-19T12:22:25.863Z</time></trkpt><trkpt lat="44.03782417527459" lon="10.8790663451711"><ele>684.3333333333333</ele><time>2026-04-19T12:22:26.863Z</time></trkpt><trkpt lat="44.03783462149607" lon="10.878779150155424"><ele>688.6666666666666</ele><time>2026-04-19T12:22:27.863Z</time></trkpt><trkpt lat="44.03785635764427" lon="10.878484858121636"><ele>693.0</ele><time>2026-04-19T12:22:28.863Z</time></trkpt><trkpt lat="44.037881676911645" lon="10.878184172276697"><ele>694.0</ele><time>2026-04-19T12:22:29.863Z</time></trkpt><trkpt lat="44.03790018143052" lon="10.877877421895832"><ele>695.0</ele><time>2026-04-19T12:22:30.863Z</time></trkpt><trkpt lat="44.03791664827838" lon="10.8775807422409"><ele>696.0</ele><time>2026-04-19T12:22:31.863Z</time></trkpt><trkpt lat="44.0379339604311" lon="10.877310540866343"><ele>696.3333333333334</ele><time>2026-04-19T12:22:32.863Z</time></trkpt><trkpt lat="44.037947675912974" lon="10.877060156702967"><ele>696.6666666666667</ele><time>2026-04-19T12:22:33.863Z</time></trkpt><trkpt lat="44.03796070414679" lon="10.876832631696102"><ele>697.0</ele><time>2026-04-19T12:22:34.863Z</time></trkpt><trkpt lat="44.037958299603154" lon="10.876633535659535"><ele>697.25</ele><time>2026-04-19T12:22:35.863Z</time></trkpt><trkpt lat="44.037993295623735" lon="10.876454066934114"><ele>697.5</ele><time>2026-04-19T12:22:36.863Z</time></trkpt><trkpt lat="44.03803741252966" lon="10.876314942090655"><ele>697.75</ele><time>2026-04-19T12:22:37.863Z</time></trkpt><trkpt lat="44.03811318146291" lon="10.876218360137825"><ele>698.0</ele><time>2026-04-19T12:22:38.863Z</time></trkpt><trkpt lat="44.03820785139406" lon="10.87612213579761"><ele>691.25</ele><time>2026-04-19T12:22:39.863Z</time></trkpt><trkpt lat="44.03832154170336" lon="10.876013318924032"><ele>684.5</ele><time>2026-04-19T12:22:40.863Z</time></trkpt><trkpt lat="44.038437841687184" lon="10.875888629863798"><ele>677.75</ele><time>2026-04-19T12:22:41.863Z</time></trkpt><trkpt lat="44.038534183930345" lon="10.875743254426324"><ele>671.0</ele><time>2026-04-19T12:22:42.863Z</time></trkpt><trkpt lat="44.038574336197584" lon="10.87554295839636"><ele>671.0</ele><time>2026-04-19T12:22:43.863Z</time></trkpt><trkpt lat="44.03859450133604" lon="10.875361738278714"><ele>671.0</ele><time>2026-04-19T12:22:44.863Z</time></trkpt><trkpt lat="44.03857475996987" lon="10.87518323054896"><ele>671.0</ele><time>2026-04-19T12:22:45.863Z</time></trkpt><trkpt lat="44.03852631819806" lon="10.875022866399439"><ele>671.0</ele><time>2026-04-19T12:22:46.863Z</time></trkpt><trkpt lat="44.03843249737214" lon="10.874873679337734"><ele>671.75</ele><time>2026-04-19T12:22:47.863Z</time></trkpt><trkpt lat="44.03831011835447" lon="10.874759344153683"><ele>672.5</ele><time>2026-04-19T12:22:48.863Z</time></trkpt><trkpt lat="44.03818507341624" lon="10.874661423973192"><ele>673.25</ele><time>2026-04-19T12:22:49.863Z</time></trkpt><trkpt lat="44.03807346194793" lon="10.874548672311334"><ele>674.0</ele><time>2026-04-19T12:22:50.863Z</time></trkpt><trkpt lat="44.0379913165443" lon="10.874414779052325"><ele>674.25</ele><time>2026-04-19T12:22:51.863Z</time></trkpt><trkpt lat="44.037943059762426" lon="10.874266918921906"><ele>674.5</ele><time>2026-04-19T12:22:52.863Z</time></trkpt><trkpt lat="44.037928669829995" lon="10.874087006622963"><ele>674.75</ele><time>2026-04-19T12:22:53.863Z</time></trkpt><trkpt lat="44.03792364222977" lon="10.87388332967514"><ele>675.0</ele><time>2026-04-19T12:22:54.863Z</time></trkpt><trkpt lat="44.037925094364226" lon="10.873666264554723"><ele>675.3333333333334</ele><time>2026-04-19T12:22:55.863Z</time></trkpt><trkpt lat="44.03791588191717" lon="10.873430273948317"><ele>675.6666666666667</ele><time>2026-04-19T12:22:56.863Z</time></trkpt><trkpt lat="44.03791219393368" lon="10.873180183752499"><ele>676.0</ele><time>2026-04-19T12:22:57.863Z</time></trkpt><trkpt lat="44.03791163166556" lon="10.872915547583963"><ele>676.0</ele><time>2026-04-19T12:22:58.863Z</time></trkpt><trkpt lat="44.03792336884688" lon="10.872654312108574"><ele>676.0</ele><time>2026-04-19T12:22:59.863Z</time></trkpt><trkpt lat="44.03794398244953" lon="10.87239765544472"><ele>676.0</ele><time>2026-04-19T12:23:00.863Z</time></trkpt><trkpt lat="44.03796894543209" lon="10.872135548662058"><ele>676.6666666666667</ele><time>2026-04-19T12:23:01.863Z</time></trkpt><trkpt lat="44.03799356018389" lon="10.871869762177296"><ele>677.3333333333334</ele><time>2026-04-19T12:23:02.863Z</time></trkpt><trkpt lat="44.03801235091843" lon="10.871604031949602"><ele>678.0</ele><time>2026-04-19T12:23:03.863Z</time></trkpt><trkpt lat="44.03803733447754" lon="10.871337807456069"><ele>678.0</ele><time>2026-04-19T12:23:04.863Z</time></trkpt><trkpt lat="44.038064217421926" lon="10.871061328893799"><ele>678.0</ele><time>2026-04-19T12:23:05.863Z</time></trkpt><trkpt lat="44.038089125330316" lon="10.870785091906034"><ele>678.0</ele><time>2026-04-19T12:23:06.863Z</time></trkpt><trkpt lat="44.03811686722464" lon="10.87050913772061"><ele>678.3333333333334</ele><time>2026-04-19T12:23:07.863Z</time></trkpt><trkpt lat="44.03813564123933" lon="10.870236429296241"><ele>678.6666666666667</ele><time>2026-04-19T12:23:08.863Z</time></trkpt><trkpt lat="44.03815112666284" lon="10.869987430809276"><ele>679.0</ele><time>2026-04-19T12:23:09.863Z</time></trkpt><trkpt lat="44.03816042318655" lon="10.869776756079293"><ele>680.0</ele><time>2026-04-19T12:23:10.863Z</time></trkpt><trkpt lat="44.03814819595263" lon="10.869583139797031"><ele>681.0</ele><time>2026-04-19T12:23:11.863Z</time></trkpt><trkpt lat="44.03811924737886" lon="10.869388088556938"><ele>682.0</ele><time>2026-04-19T12:23:12.863Z</time></trkpt><trkpt lat="44.038095199340646" lon="10.86916773994581"><ele>683.0</ele><time>2026-04-19T12:23:13.863Z</time></trkpt><trkpt lat="44.0380937622307" lon="10.868938026243109"><ele>684.0</ele><time>2026-04-19T12:23:14.863Z</time></trkpt><trkpt lat="44.0381187879329" lon="10.868713621114816"><ele>685.0</ele><time>2026-04-19T12:23:15.863Z</time></trkpt><trkpt lat="44.03815142924653" lon="10.868464411347684"><ele>686.0</ele><time>2026-04-19T12:23:16.863Z</time></trkpt><trkpt lat="44.03817939761091" lon="10.868222461346242"><ele>687.3333333333333</ele><time>2026-04-19T12:23:17.863Z</time></trkpt><trkpt lat="44.038205752423266" lon="10.867980985636045"><ele>688.6666666666666</ele><time>2026-04-19T12:23:18.863Z</time></trkpt><trkpt lat="44.03823028978134" lon="10.867731406657288"><ele>690.0</ele><time>2026-04-19T12:23:19.863Z</time></trkpt><trkpt lat="44.03825677883538" lon="10.867482343847865"><ele>691.3333333333334</ele><time>2026-04-19T12:23:20.863Z</time></trkpt><trkpt lat="44.038282533702706" lon="10.867239033769772"><ele>692.6666666666667</ele><time>2026-04-19T12:23:21.863Z</time></trkpt><trkpt lat="44.03831350340181" lon="10.866995143313968"><ele>694.0</ele><time>2026-04-19T12:23:22.863Z</time></trkpt><trkpt lat="44.03833978910469" lon="10.866741644114777"><ele>695.6666666666667</ele><time>2026-04-19T12:23:23.864Z</time></trkpt><trkpt lat="44.0383534317104" lon="10.866480242322728"><ele>697.3333333333334</ele><time>2026-04-19T12:23:24.864Z</time></trkpt><trkpt lat="44.03836742837782" lon="10.866222972781996"><ele>699.0</ele><time>2026-04-19T12:23:25.864Z</time></trkpt><trkpt lat="44.03840994847959" lon="10.86594583727052"><ele>698.6666666666666</ele><time>2026-04-19T12:23:26.863Z</time></trkpt><trkpt lat="44.03844362476631" lon="10.86567320972721"><ele>698.3333333333333</ele><time>2026-04-19T12:23:27.864Z</time></trkpt><trkpt lat="44.03847482547659" lon="10.865393401051888"><ele>698.0</ele><time>2026-04-19T12:23:28.864Z</time></trkpt><trkpt lat="44.03851009915617" lon="10.865109676534157"><ele>698.0</ele><time>2026-04-19T12:23:29.863Z</time></trkpt><trkpt lat="44.038549539972784" lon="10.864827482606048"><ele>698.0</ele><time>2026-04-19T12:23:30.863Z</time></trkpt><trkpt lat="44.03858576063429" lon="10.864549381584311"><ele>698.0</ele><time>2026-04-19T12:23:31.863Z</time></trkpt><trkpt lat="44.03861288941253" lon="10.86430376250965"><ele>698.0</ele><time>2026-04-19T12:23:32.863Z</time></trkpt><trkpt lat="44.038642326366734" lon="10.864091986350598"><ele>698.0</ele><time>2026-04-19T12:23:33.863Z</time></trkpt><trkpt lat="44.03867115266268" lon="10.863907994740238"><ele>698.0</ele><time>2026-04-19T12:23:34.863Z</time></trkpt><trkpt lat="44.03869398545601" lon="10.863724386481662"><ele>698.0</ele><time>2026-04-19T12:23:35.863Z</time></trkpt><trkpt lat="44.03871640681853" lon="10.863532453896621"><ele>697.5</ele><time>2026-04-19T12:23:36.863Z</time></trkpt><trkpt lat="44.03873998897925" lon="10.863333510049598"><ele>697.0</ele><time>2026-04-19T12:23:37.863Z</time></trkpt><trkpt lat="44.03874155337616" lon="10.863159094797192"><ele>696.5</ele><time>2026-04-19T12:23:38.863Z</time></trkpt><trkpt lat="44.0387412532071" lon="10.862967726063442"><ele>696.0</ele><time>2026-04-19T12:23:39.863Z</time></trkpt><trkpt lat="44.03873927376858" lon="10.862768973271885"><ele>695.3333333333334</ele><time>2026-04-19T12:23:40.863Z</time></trkpt><trkpt lat="44.03872133950486" lon="10.862552419532257"><ele>694.6666666666667</ele><time>2026-04-19T12:23:41.863Z</time></trkpt><trkpt lat="44.03867290548693" lon="10.862317727319006"><ele>694.0</ele><time>2026-04-19T12:23:42.863Z</time></trkpt><trkpt lat="44.038652783342805" lon="10.862089258965623"><ele>694.0</ele><time>2026-04-19T12:23:43.863Z</time></trkpt><trkpt lat="44.03864879244561" lon="10.861877256364698"><ele>694.0</ele><time>2026-04-19T12:23:44.863Z</time></trkpt><trkpt lat="44.03867450562409" lon="10.86168992355486"><ele>694.0</ele><time>2026-04-19T12:23:45.863Z</time></trkpt><trkpt lat="44.03874186474222" lon="10.86151778962321"><ele>694.0</ele><time>2026-04-19T12:23:46.863Z</time></trkpt><trkpt lat="44.038799934530786" lon="10.861341195008217"><ele>693.8000000000001</ele><time>2026-04-19T12:23:47.863Z</time></trkpt><trkpt lat="44.03885474524693" lon="10.86118218159134"><ele>693.6</ele><time>2026-04-19T12:23:48.863Z</time></trkpt><trkpt lat="44.03891059215083" lon="10.861069178084461"><ele>693.4</ele><time>2026-04-19T12:23:49.863Z</time></trkpt><trkpt lat="44.03894796106302" lon="10.86094031031196"><ele>693.2</ele><time>2026-04-19T12:23:50.863Z</time></trkpt><trkpt lat="44.038953306736026" lon="10.860814738235117"><ele>693.0</ele><time>2026-04-19T12:23:51.863Z</time></trkpt><trkpt lat="44.038915922724065" lon="10.86063616465777"><ele>693.0</ele><time>2026-04-19T12:23:52.863Z</time></trkpt><trkpt lat="44.03886309222705" lon="10.860471477087662"><ele>693.0</ele><time>2026-04-19T12:23:53.863Z</time></trkpt><trkpt lat="44.03882057858296" lon="10.860272811382872"><ele>693.0</ele><time>2026-04-19T12:23:54.863Z</time></trkpt><trkpt lat="44.038795335533855" lon="10.860052613896753"><ele>693.0</ele><time>2026-04-19T12:23:55.863Z</time></trkpt><trkpt lat="44.038779968451756" lon="10.859835395661687"><ele>695.3333333333334</ele><time>2026-04-19T12:23:56.863Z</time></trkpt><trkpt lat="44.03879028297905" lon="10.859612230121998"><ele>697.6666666666667</ele><time>2026-04-19T12:23:57.863Z</time></trkpt><trkpt lat="44.03877572555229" lon="10.859369895095476"><ele>700.0</ele><time>2026-04-19T12:23:58.863Z</time></trkpt><trkpt lat="44.03874302717791" lon="10.859149688987655"><ele>702.6666666666667</ele><time>2026-04-19T12:23:59.863Z</time></trkpt><trkpt lat="44.0387035746528" lon="10.858920664096125"><ele>705.3333333333334</ele><time>2026-04-19T12:24:00.863Z</time></trkpt><trkpt lat="44.03866439452576" lon="10.858663802005834"><ele>708.0</ele><time>2026-04-19T12:24:01.863Z</time></trkpt><trkpt lat="44.03861845899589" lon="10.858431950399194"><ele>708.0</ele><time>2026-04-19T12:24:02.863Z</time></trkpt><trkpt lat="44.03856944211857" lon="10.858193267187294"><ele>708.0</ele><time>2026-04-19T12:24:03.863Z</time></trkpt><trkpt lat="44.038521138076334" lon="10.857957599494304"><ele>708.0</ele><time>2026-04-19T12:24:04.863Z</time></trkpt><trkpt lat="44.03847436792558" lon="10.857731029346114"><ele>706.75</ele><time>2026-04-19T12:24:05.863Z</time></trkpt><trkpt lat="44.03841941067639" lon="10.857545011905145"><ele>705.5</ele><time>2026-04-19T12:24:06.863Z</time></trkpt><trkpt lat="44.03837721454732" lon="10.857383023381928"><ele>704.25</ele><time>2026-04-19T12:24:07.863Z</time></trkpt><trkpt lat="44.03828788521245" lon="10.857244983610029"><ele>703.0</ele><time>2026-04-19T12:24:08.863Z</time></trkpt><trkpt lat="44.038176137151844" lon="10.857144271276635"><ele>706.0</ele><time>2026-04-19T12:24:09.863Z</time></trkpt><trkpt lat="44.038053364940026" lon="10.857057911294051"><ele>709.0</ele><time>2026-04-19T12:24:10.863Z</time></trkpt><trkpt lat="44.03796312440807" lon="10.856957114289962"><ele>712.0</ele><time>2026-04-19T12:24:11.863Z</time></trkpt><trkpt lat="44.03789712425936" lon="10.856815468843665"><ele>715.0</ele><time>2026-04-19T12:24:12.863Z</time></trkpt><trkpt lat="44.037882556368416" lon="10.85661844102716"><ele>715.0</ele><time>2026-04-19T12:24:13.863Z</time></trkpt><trkpt lat="44.03786395424065" lon="10.856404983641324"><ele>715.0</ele><time>2026-04-19T12:24:14.863Z</time></trkpt><trkpt lat="44.037846315652764" lon="10.856176454276484"><ele>715.0</ele><time>2026-04-19T12:24:15.863Z</time></trkpt><trkpt lat="44.0378163667292" lon="10.85593941497245"><ele>715.0</ele><time>2026-04-19T12:24:16.863Z</time></trkpt><trkpt lat="44.03780997115744" lon="10.85569820756359"><ele>715.0</ele><time>2026-04-19T12:24:17.863Z</time></trkpt><trkpt lat="44.037792655937054" lon="10.855452132070047"><ele>715.0</ele><time>2026-04-19T12:24:18.863Z</time></trkpt><trkpt lat="44.037762933626674" lon="10.855208299631705"><ele>714.5</ele><time>2026-04-19T12:24:19.863Z</time></trkpt><trkpt lat="44.03773936021078" lon="10.854985189187387"><ele>714.0</ele><time>2026-04-19T12:24:20.863Z</time></trkpt><trkpt lat="44.03770309278602" lon="10.854807012429687"><ele>713.5</ele><time>2026-04-19T12:24:21.863Z</time></trkpt><trkpt lat="44.03765515554646" lon="10.85466101272161"><ele>713.0</ele><time>2026-04-19T12:24:22.863Z</time></trkpt><trkpt lat="44.03758902771063" lon="10.85451636943404"><ele>713.0</ele><time>2026-04-19T12:24:23.863Z</time></trkpt><trkpt lat="44.037513875741055" lon="10.854358654415611"><ele>713.0</ele><time>2026-04-19T12:24:24.863Z</time></trkpt><trkpt lat="44.03743795364629" lon="10.85421359894341"><ele>713.0</ele><time>2026-04-19T12:24:25.863Z</time></trkpt><trkpt lat="44.03737904671488" lon="10.854068620318824"><ele>713.0</ele><time>2026-04-19T12:24:26.863Z</time></trkpt><trkpt lat="44.03734275192486" lon="10.8539093975882"><ele>714.25</ele><time>2026-04-19T12:24:27.863Z</time></trkpt><trkpt lat="44.03735316896935" lon="10.853727314569205"><ele>715.5</ele><time>2026-04-19T12:24:28.863Z</time></trkpt><trkpt lat="44.037398387595495" lon="10.853578495440058"><ele>716.75</ele><time>2026-04-19T12:24:29.863Z</time></trkpt><trkpt lat="44.03746808076263" lon="10.853457504578131"><ele>718.0</ele><time>2026-04-19T12:24:30.863Z</time></trkpt><trkpt lat="44.03755149867426" lon="10.853349372308925"><ele>715.5</ele><time>2026-04-19T12:24:31.863Z</time></trkpt><trkpt lat="44.037653036604" lon="10.85325705624696"><ele>713.0</ele><time>2026-04-19T12:24:32.863Z</time></trkpt><trkpt lat="44.03776465106265" lon="10.853161528316667"><ele>710.5</ele><time>2026-04-19T12:24:33.863Z</time></trkpt><trkpt lat="44.037805310018655" lon="10.852995541783475"><ele>708.0</ele><time>2026-04-19T12:24:34.863Z</time></trkpt><trkpt lat="44.03783949296389" lon="10.852828646038324"><ele>709.3333333333334</ele><time>2026-04-19T12:24:35.863Z</time></trkpt><trkpt lat="44.037824457152475" lon="10.8526025852052"><ele>710.6666666666667</ele><time>2026-04-19T12:24:36.863Z</time></trkpt><trkpt lat="44.03780955974325" lon="10.852397449006435"><ele>712.0</ele><time>2026-04-19T12:24:37.863Z</time></trkpt><trkpt lat="44.037769729177136" lon="10.852196106318955"><ele>712.0</ele><time>2026-04-19T12:24:38.863Z</time></trkpt><trkpt lat="44.03769727652082" lon="10.851971753911615"><ele>712.0</ele><time>2026-04-19T12:24:39.863Z</time></trkpt><trkpt lat="44.03764913773751" lon="10.851744775060721"><ele>712.0</ele><time>2026-04-19T12:24:40.863Z</time></trkpt><trkpt lat="44.0376126210313" lon="10.851519878694871"><ele>712.0</ele><time>2026-04-19T12:24:41.863Z</time></trkpt><trkpt lat="44.0375867105412" lon="10.851315000828281"><ele>712.0</ele><time>2026-04-19T12:24:42.863Z</time></trkpt><trkpt lat="44.037602214875015" lon="10.85113390681551"><ele>712.0</ele><time>2026-04-19T12:24:43.863Z</time></trkpt><trkpt lat="44.03764895842565" lon="10.850941087063573"><ele>712.0</ele><time>2026-04-19T12:24:44.863Z</time></trkpt><trkpt lat="44.03770132946085" lon="10.850731521387955"><ele>712.3333333333334</ele><time>2026-04-19T12:24:45.863Z</time></trkpt><trkpt lat="44.037766117477354" lon="10.85049939532319"><ele>712.6666666666666</ele><time>2026-04-19T12:24:46.863Z</time></trkpt><trkpt lat="44.037830604562544" lon="10.850245665243092"><ele>713.0</ele><time>2026-04-19T12:24:47.863Z</time></trkpt><trkpt lat="44.037916810976746" lon="10.849993069982757"><ele>713.0</ele><time>2026-04-19T12:24:48.863Z</time></trkpt><trkpt lat="44.03801089797269" lon="10.849756826727315"><ele>713.0</ele><time>2026-04-19T12:24:49.863Z</time></trkpt><trkpt lat="44.03813943369106" lon="10.849539602222164"><ele>713.0</ele><time>2026-04-19T12:24:50.863Z</time></trkpt><trkpt lat="44.038257172521696" lon="10.849305486035338"><ele>716.3333333333333</ele><time>2026-04-19T12:24:51.863Z</time></trkpt><trkpt lat="44.03836827601575" lon="10.849048547256281"><ele>719.6666666666666</ele><time>2026-04-19T12:24:52.863Z</time></trkpt><trkpt lat="44.038497849255975" lon="10.848803698280221"><ele>723.0</ele><time>2026-04-19T12:24:53.863Z</time></trkpt><trkpt lat="44.03862519391836" lon="10.84855557383205"><ele>721.6666666666666</ele><time>2026-04-19T12:24:54.863Z</time></trkpt><trkpt lat="44.03874262190447" lon="10.848312995238848"><ele>720.3333333333333</ele><time>2026-04-19T12:24:55.863Z</time></trkpt><trkpt lat="44.03887202724376" lon="10.848088118366165"><ele>719.0</ele><time>2026-04-19T12:24:56.863Z</time></trkpt><trkpt lat="44.038996065338814" lon="10.84787254466901"><ele>722.0</ele><time>2026-04-19T12:24:57.863Z</time></trkpt><trkpt lat="44.03913640164208" lon="10.84768704704879"><ele>725.0</ele><time>2026-04-19T12:24:58.863Z</time></trkpt><trkpt lat="44.03928624394919" lon="10.847523695957952"><ele>728.0</ele><time>2026-04-19T12:24:59.863Z</time></trkpt><trkpt lat="44.03943488613571" lon="10.84738161924308"><ele>728.0</ele><time>2026-04-19T12:25:00.863Z</time></trkpt><trkpt lat="44.03956871988778" lon="10.847255932868562"><ele>728.0</ele><time>2026-04-19T12:25:01.863Z</time></trkpt><trkpt lat="44.039693462617095" lon="10.847147820751173"><ele>728.0</ele><time>2026-04-19T12:25:02.863Z</time></trkpt><trkpt lat="44.03981199570074" lon="10.847087038331873"><ele>728.0</ele><time>2026-04-19T12:25:03.863Z</time></trkpt><trkpt lat="44.039938182773376" lon="10.84705987020076"><ele>731.25</ele><time>2026-04-19T12:25:04.863Z</time></trkpt><trkpt lat="44.04006950563277" lon="10.8470755568587"><ele>734.5</ele><time>2026-04-19T12:25:05.863Z</time></trkpt><trkpt lat="44.040196410806516" lon="10.847072347179454"><ele>737.75</ele><time>2026-04-19T12:25:06.863Z</time></trkpt><trkpt lat="44.040293896877536" lon="10.847019895550446"><ele>741.0</ele><time>2026-04-19T12:25:07.863Z</time></trkpt><trkpt lat="44.040356948488544" lon="10.84691474927057"><ele>739.8</ele><time>2026-04-19T12:25:08.863Z</time></trkpt><trkpt lat="44.04038907424343" lon="10.846778890038083"><ele>738.5999999999999</ele><time>2026-04-19T12:25:09.863Z</time></trkpt><trkpt lat="44.04042643376494" lon="10.846631453743706"><ele>737.4</ele><time>2026-04-19T12:25:10.863Z</time></trkpt><trkpt lat="44.04049467409459" lon="10.846506764482276"><ele>736.2</ele><time>2026-04-19T12:25:11.863Z</time></trkpt><trkpt lat="44.04059254136756" lon="10.846437525825392"><ele>735.0</ele><time>2026-04-19T12:25:12.863Z</time></trkpt><trkpt lat="44.04071876772259" lon="10.84644617887676"><ele>737.8</ele><time>2026-04-19T12:25:13.863Z</time></trkpt><trkpt lat="44.040834149878656" lon="10.846466085063916"><ele>740.6</ele><time>2026-04-19T12:25:14.863Z</time></trkpt><trkpt lat="44.040946336544835" lon="10.846450761291218"><ele>743.4000000000001</ele><time>2026-04-19T12:25:15.863Z</time></trkpt><trkpt lat="44.04102210417276" lon="10.8463451384724"><ele>746.2</ele><time>2026-04-19T12:25:16.863Z</time></trkpt><trkpt lat="44.041074835669356" lon="10.846216095941239"><ele>749.0</ele><time>2026-04-19T12:25:17.863Z</time></trkpt><trkpt lat="44.04113036530556" lon="10.846050824007536"><ele>747.0</ele><time>2026-04-19T12:25:18.863Z</time></trkpt><trkpt lat="44.041201836431256" lon="10.845875517875358"><ele>745.0</ele><time>2026-04-19T12:25:19.863Z</time></trkpt><trkpt lat="44.04130268447832" lon="10.845706910702066"><ele>743.0</ele><time>2026-04-19T12:25:20.863Z</time></trkpt><trkpt lat="44.04142915506832" lon="10.845552938452562"><ele>743.0</ele><time>2026-04-19T12:25:21.863Z</time></trkpt><trkpt lat="44.04156687684968" lon="10.845409200989454"><ele>743.0</ele><time>2026-04-19T12:25:22.863Z</time></trkpt><trkpt lat="44.0417088409288" lon="10.845267651719999"><ele>743.0</ele><time>2026-04-19T12:25:23.863Z</time></trkpt><trkpt lat="44.041829714582214" lon="10.845081510627622"><ele>747.3333333333333</ele><time>2026-04-19T12:25:24.863Z</time></trkpt><trkpt lat="44.04190257504799" lon="10.844849843375684"><ele>751.6666666666666</ele><time>2026-04-19T12:25:25.863Z</time></trkpt><trkpt lat="44.042002394326616" lon="10.844639687719258"><ele>756.0</ele><time>2026-04-19T12:25:26.863Z</time></trkpt><trkpt lat="44.04210482481335" lon="10.844445172445983"><ele>755.0</ele><time>2026-04-19T12:25:27.863Z</time></trkpt><trkpt lat="44.04222036417837" lon="10.844284013944531"><ele>754.0</ele><time>2026-04-19T12:25:28.863Z</time></trkpt><trkpt lat="44.04237138538428" lon="10.844145462132559"><ele>753.0</ele><time>2026-04-19T12:25:29.863Z</time></trkpt><trkpt lat="44.04253101269032" lon="10.844030080568194"><ele>757.3333333333334</ele><time>2026-04-19T12:25:30.862Z</time></trkpt><trkpt lat="44.042706939766184" lon="10.843939336683627"><ele>761.6666666666667</ele><time>2026-04-19T12:25:31.862Z</time></trkpt><trkpt lat="44.042879316824866" lon="10.843841580798598"><ele>766.0</ele><time>2026-04-19T12:25:32.862Z</time></trkpt><trkpt lat="44.04303037127143" lon="10.843727353033202"><ele>766.0</ele><time>2026-04-19T12:25:33.862Z</time></trkpt><trkpt lat="44.04316057292656" lon="10.843620204472124"><ele>766.0</ele><time>2026-04-19T12:25:34.862Z</time></trkpt><trkpt lat="44.04325887768236" lon="10.843520993805067"><ele>766.0</ele><time>2026-04-19T12:25:35.863Z</time></trkpt><trkpt lat="44.04335302526027" lon="10.84344095776101"><ele>766.0</ele><time>2026-04-19T12:25:36.862Z</time></trkpt><trkpt lat="44.0434545506663" lon="10.843379475890892"><ele>768.1999999999999</ele><time>2026-04-19T12:25:37.862Z</time></trkpt><trkpt lat="44.043567553968074" lon="10.843336768767866"><ele>770.4</ele><time>2026-04-19T12:25:38.863Z</time></trkpt><trkpt lat="44.04367658843931" lon="10.843297151888642"><ele>772.6</ele><time>2026-04-19T12:25:39.863Z</time></trkpt><trkpt lat="44.04375714300046" lon="10.843256374026721"><ele>774.8</ele><time>2026-04-19T12:25:40.863Z</time></trkpt><trkpt lat="44.04383195989297" lon="10.843204896551955"><ele>777.0</ele><time>2026-04-19T12:25:41.862Z</time></trkpt><trkpt lat="44.043882421445296" lon="10.843124067513079"><ele>777.0</ele><time>2026-04-19T12:25:42.862Z</time></trkpt><trkpt lat="44.04389697203637" lon="10.84301738427726"><ele>777.0</ele><time>2026-04-19T12:25:43.862Z</time></trkpt><trkpt lat="44.04388285354813" lon="10.842911594272575"><ele>777.0</ele><time>2026-04-19T12:25:44.862Z</time></trkpt><trkpt lat="44.04381766482537" lon="10.842825276704875"><ele>777.0</ele><time>2026-04-19T12:25:45.862Z</time></trkpt><trkpt lat="44.043728824747966" lon="10.842768648986283"><ele>777.0</ele><time>2026-04-19T12:25:46.862Z</time></trkpt><trkpt lat="44.04362720819395" lon="10.842743982297073"><ele>777.0</ele><time>2026-04-19T12:25:47.862Z</time></trkpt><trkpt lat="44.04351017159331" lon="10.842694152246834"><ele>777.5</ele><time>2026-04-19T12:25:48.862Z</time></trkpt><trkpt lat="44.0434083138415" lon="10.84260184929457"><ele>778.0</ele><time>2026-04-19T12:25:49.862Z</time></trkpt><trkpt lat="44.043296684471414" lon="10.842534258314044"><ele>778.5</ele><time>2026-04-19T12:25:50.862Z</time></trkpt><trkpt lat="44.043213058842746" lon="10.842424538957077"><ele>779.0</ele><time>2026-04-19T12:25:51.862Z</time></trkpt><trkpt lat="44.043141044854124" lon="10.842295131056384"><ele>779.75</ele><time>2026-04-19T12:25:52.862Z</time></trkpt><trkpt lat="44.043092604461656" lon="10.84214250059244"><ele>780.5</ele><time>2026-04-19T12:25:53.862Z</time></trkpt><trkpt lat="44.04304340732455" lon="10.842003229784867"><ele>781.25</ele><time>2026-04-19T12:25:54.862Z</time></trkpt><trkpt lat="44.04298469994895" lon="10.841847389786805"><ele>782.0</ele><time>2026-04-19T12:25:55.862Z</time></trkpt><trkpt lat="44.04292152105761" lon="10.841685757372973"><ele>782.0</ele><time>2026-04-19T12:25:56.862Z</time></trkpt><trkpt lat="44.042867302842225" lon="10.841520273839238"><ele>782.0</ele><time>2026-04-19T12:25:57.862Z</time></trkpt><trkpt lat="44.04284075711773" lon="10.841360809087858"><ele>782.0</ele><time>2026-04-19T12:25:58.862Z</time></trkpt><trkpt lat="44.04284776055537" lon="10.841208832174344"><ele>782.0</ele><time>2026-04-19T12:25:59.862Z</time></trkpt><trkpt lat="44.042875542696684" lon="10.841050298747552"><ele>782.25</ele><time>2026-04-19T12:26:00.862Z</time></trkpt><trkpt lat="44.042904706092486" lon="10.840885518348362"><ele>782.5</ele><time>2026-04-19T12:26:01.862Z</time></trkpt><trkpt lat="44.042949852638785" lon="10.840727328866986"><ele>782.75</ele><time>2026-04-19T12:26:02.862Z</time></trkpt><trkpt lat="44.04300501329566" lon="10.840573353626032"><ele>783.0</ele><time>2026-04-19T12:26:03.862Z</time></trkpt><trkpt lat="44.043065191652154" lon="10.840437279037063"><ele>783.0</ele><time>2026-04-19T12:26:04.862Z</time></trkpt><trkpt lat="44.04311102572957" lon="10.840284501957147"><ele>783.0</ele><time>2026-04-19T12:26:05.862Z</time></trkpt><trkpt lat="44.043141863641864" lon="10.840130077071452"><ele>783.0</ele><time>2026-04-19T12:26:06.862Z</time></trkpt><trkpt lat="44.04313111900381" lon="10.83995930520531"><ele>783.0</ele><time>2026-04-19T12:26:07.862Z</time></trkpt><trkpt lat="44.043116500252204" lon="10.839810343114701"><ele>784.2</ele><time>2026-04-19T12:26:08.862Z</time></trkpt><trkpt lat="44.04308102514997" lon="10.839678904444181"><ele>785.4</ele><time>2026-04-19T12:26:09.862Z</time></trkpt><trkpt lat="44.04301498588042" lon="10.839565359169146"><ele>786.6</ele><time>2026-04-19T12:26:10.862Z</time></trkpt><trkpt lat="44.042925126189125" lon="10.839462466863093"><ele>787.8000000000001</ele><time>2026-04-19T12:26:11.862Z</time></trkpt><trkpt lat="44.04282448152497" lon="10.839401412932233"><ele>789.0</ele><time>2026-04-19T12:26:12.862Z</time></trkpt><trkpt lat="44.042700795050855" lon="10.839365705603711"><ele>789.0</ele><time>2026-04-19T12:26:13.862Z</time></trkpt><trkpt lat="44.04258301744903" lon="10.839337732291042"><ele>789.0</ele><time>2026-04-19T12:26:14.862Z</time></trkpt><trkpt lat="44.04247847815629" lon="10.839327191235379"><ele>789.0</ele><time>2026-04-19T12:26:15.862Z</time></trkpt><trkpt lat="44.042375378539894" lon="10.83931344021378"><ele>789.0</ele><time>2026-04-19T12:26:16.862Z</time></trkpt><trkpt lat="44.04228614486452" lon="10.839272297113334"><ele>789.0</ele><time>2026-04-19T12:26:17.862Z</time></trkpt><trkpt lat="44.04223719339514" lon="10.839178784486368"><ele>789.6</ele><time>2026-04-19T12:26:18.862Z</time></trkpt><trkpt lat="44.04221304818301" lon="10.839051217137621"><ele>790.2</ele><time>2026-04-19T12:26:19.862Z</time></trkpt><trkpt lat="44.042233134774854" lon="10.838920823652238"><ele>790.8000000000001</ele><time>2026-04-19T12:26:20.862Z</time></trkpt><trkpt lat="44.04228947925912" lon="10.838810141062623"><ele>791.4000000000001</ele><time>2026-04-19T12:26:21.862Z</time></trkpt><trkpt lat="44.04237246404787" lon="10.838689541201498"><ele>792.0</ele><time>2026-04-19T12:26:22.862Z</time></trkpt><trkpt lat="44.042445312584434" lon="10.838574557815821"><ele>795.8</ele><time>2026-04-19T12:26:23.862Z</time></trkpt><trkpt lat="44.04251482322949" lon="10.838463863925885"><ele>799.6</ele><time>2026-04-19T12:26:24.862Z</time></trkpt><trkpt lat="44.042565049177256" lon="10.838337064090407"><ele>803.4</ele><time>2026-04-19T12:26:25.862Z</time></trkpt><trkpt lat="44.04258175582364" lon="10.838193732591039"><ele>807.1999999999999</ele><time>2026-04-19T12:26:26.862Z</time></trkpt><trkpt lat="44.04258288735955" lon="10.83803346025829"><ele>811.0</ele><time>2026-04-19T12:26:27.862Z</time></trkpt><trkpt lat="44.04257356335636" lon="10.837868249217175"><ele>811.0</ele><time>2026-04-19T12:26:28.862Z</time></trkpt><trkpt lat="44.0425665383713" lon="10.837704978209356"><ele>811.0</ele><time>2026-04-19T12:26:29.862Z</time></trkpt><trkpt lat="44.04256586423672" lon="10.83755279023007"><ele>811.0</ele><time>2026-04-19T12:26:30.862Z</time></trkpt><trkpt lat="44.04256377818544" lon="10.837395546047073"><ele>811.0</ele><time>2026-04-19T12:26:31.862Z</time></trkpt><trkpt lat="44.04256724766318" lon="10.83723555234234"><ele>812.5999999999999</ele><time>2026-04-19T12:26:32.862Z</time></trkpt><trkpt lat="44.04258730807556" lon="10.837087863699356"><ele>814.2</ele><time>2026-04-19T12:26:33.862Z</time></trkpt><trkpt lat="44.04262145878228" lon="10.836951931990027"><ele>815.8</ele><time>2026-04-19T12:26:34.862Z</time></trkpt><trkpt lat="44.042670177589955" lon="10.836814880428932"><ele>817.4000000000001</ele><time>2026-04-19T12:26:35.862Z</time></trkpt><trkpt lat="44.04273670159323" lon="10.836699404204731"><ele>819.0</ele><time>2026-04-19T12:26:36.862Z</time></trkpt><trkpt lat="44.042809709015614" lon="10.83660011051616"><ele>820.25</ele><time>2026-04-19T12:26:37.862Z</time></trkpt><trkpt lat="44.042880000151015" lon="10.83649474140258"><ele>821.5</ele><time>2026-04-19T12:26:38.862Z</time></trkpt><trkpt lat="44.04293631470718" lon="10.836358951733592"><ele>822.75</ele><time>2026-04-19T12:26:39.862Z</time></trkpt><trkpt lat="44.042964130927594" lon="10.83618383278233"><ele>824.0</ele><time>2026-04-19T12:26:40.862Z</time></trkpt><trkpt lat="44.04298463910777" lon="10.835986818762098"><ele>825.0</ele><time>2026-04-19T12:26:41.862Z</time></trkpt><trkpt lat="44.042971690097815" lon="10.83574809233086"><ele>826.0</ele><time>2026-04-19T12:26:42.862Z</time></trkpt><trkpt lat="44.04294082047623" lon="10.835502809771484"><ele>827.0</ele><time>2026-04-19T12:26:43.862Z</time></trkpt><trkpt lat="44.042896329122655" lon="10.835258113380853"><ele>824.6666666666667</ele><time>2026-04-19T12:26:44.862Z</time></trkpt><trkpt lat="44.04287591523052" lon="10.835013427778799"><ele>822.3333333333333</ele><time>2026-04-19T12:26:45.862Z</time></trkpt><trkpt lat="44.04285092947311" lon="10.83476973003808"><ele>820.0</ele><time>2026-04-19T12:26:46.862Z</time></trkpt><trkpt lat="44.042852973199956" lon="10.834542770315181"><ele>820.0</ele><time>2026-04-19T12:26:47.862Z</time></trkpt><trkpt lat="44.042891578380136" lon="10.834326755650519"><ele>820.0</ele><time>2026-04-19T12:26:48.862Z</time></trkpt><trkpt lat="44.04294865112676" lon="10.834098329177774"><ele>820.0</ele><time>2026-04-19T12:26:49.862Z</time></trkpt><trkpt lat="44.04300115340131" lon="10.833873173345"><ele>816.6666666666666</ele><time>2026-04-19T12:26:50.862Z</time></trkpt><trkpt lat="44.04306022203846" lon="10.833666426499812"><ele>813.3333333333333</ele><time>2026-04-19T12:26:51.862Z</time></trkpt><trkpt lat="44.04308502255693" lon="10.833454296960511"><ele>810.0</ele><time>2026-04-19T12:26:52.862Z</time></trkpt><trkpt lat="44.04308299440332" lon="10.833232303408929"><ele>808.6666666666667</ele><time>2026-04-19T12:26:53.862Z</time></trkpt><trkpt lat="44.04305236331195" lon="10.832997025999092"><ele>807.3333333333334</ele><time>2026-04-19T12:26:54.862Z</time></trkpt><trkpt lat="44.04301869144301" lon="10.832758842808744"><ele>806.0</ele><time>2026-04-19T12:26:55.862Z</time></trkpt><trkpt lat="44.042999449149164" lon="10.832523897691367"><ele>804.75</ele><time>2026-04-19T12:26:56.862Z</time></trkpt><trkpt lat="44.0429661454798" lon="10.83230887224082"><ele>803.5</ele><time>2026-04-19T12:26:57.862Z</time></trkpt><trkpt lat="44.04292267813523" lon="10.832105093922515"><ele>802.25</ele><time>2026-04-19T12:26:58.862Z</time></trkpt><trkpt lat="44.042899598404944" lon="10.831925148403995"><ele>801.0</ele><time>2026-04-19T12:26:59.862Z</time></trkpt><trkpt lat="44.04286326457662" lon="10.831746073524304"><ele>798.5</ele><time>2026-04-19T12:27:00.862Z</time></trkpt><trkpt lat="44.04282710491389" lon="10.831581917231038"><ele>796.0</ele><time>2026-04-19T12:27:01.862Z</time></trkpt><trkpt lat="44.04273409513701" lon="10.8314731748347"><ele>793.5</ele><time>2026-04-19T12:27:02.862Z</time></trkpt><trkpt lat="44.042626879936606" lon="10.831397114873852"><ele>791.0</ele><time>2026-04-19T12:27:03.862Z</time></trkpt><trkpt lat="44.04249651191645" lon="10.831326966144381"><ele>792.5</ele><time>2026-04-19T12:27:04.862Z</time></trkpt><trkpt lat="44.04235836465822" lon="10.831301400684271"><ele>794.0</ele><time>2026-04-19T12:27:05.862Z</time></trkpt><trkpt lat="44.042245797833495" lon="10.831274942151637"><ele>795.5</ele><time>2026-04-19T12:27:06.862Z</time></trkpt><trkpt lat="44.042139475479246" lon="10.83125695989802"><ele>797.0</ele><time>2026-04-19T12:27:07.862Z</time></trkpt><trkpt lat="44.04205939633835" lon="10.831174148172254"><ele>797.0</ele><time>2026-04-19T12:27:08.862Z</time></trkpt><trkpt lat="44.041983674024024" lon="10.831127840567063"><ele>797.0</ele><time>2026-04-19T12:27:09.862Z</time></trkpt><trkpt lat="44.04194710753461" lon="10.83099983991501"><ele>797.0</ele><time>2026-04-19T12:27:10.862Z</time></trkpt><trkpt lat="44.04192882829896" lon="10.830857003231916"><ele>797.0</ele><time>2026-04-19T12:27:11.862Z</time></trkpt><trkpt lat="44.04191898116327" lon="10.830700120420007"><ele>797.0</ele><time>2026-04-19T12:27:12.862Z</time></trkpt><trkpt lat="44.04193784667403" lon="10.830518517356609"><ele>796.3333333333334</ele><time>2026-04-19T12:27:13.862Z</time></trkpt><trkpt lat="44.04196838743924" lon="10.830330546026932"><ele>795.6666666666667</ele><time>2026-04-19T12:27:14.862Z</time></trkpt><trkpt lat="44.04201017623282" lon="10.830126268588922"><ele>795.0</ele><time>2026-04-19T12:27:15.862Z</time></trkpt><trkpt lat="44.04206832811486" lon="10.829902795902127"><ele>796.6666666666667</ele><time>2026-04-19T12:27:16.862Z</time></trkpt><trkpt lat="44.042153232656645" lon="10.829668175781078"><ele>798.3333333333334</ele><time>2026-04-19T12:27:17.862Z</time></trkpt><trkpt lat="44.042201892041994" lon="10.829418647525866"><ele>800.0</ele><time>2026-04-19T12:27:18.862Z</time></trkpt><trkpt lat="44.04220172921919" lon="10.829165223124875"><ele>796.6666666666667</ele><time>2026-04-19T12:27:19.862Z</time></trkpt><trkpt lat="44.042154574520964" lon="10.828918389837561"><ele>793.3333333333333</ele><time>2026-04-19T12:27:20.862Z</time></trkpt><trkpt lat="44.042096943873815" lon="10.828662448652906"><ele>790.0</ele><time>2026-04-19T12:27:21.862Z</time></trkpt><trkpt lat="44.042054810108944" lon="10.828414651332805"><ele>788.3333333333333</ele><time>2026-04-19T12:27:22.862Z</time></trkpt><trkpt lat="44.042022389407464" lon="10.828169914497373"><ele>786.6666666666667</ele><time>2026-04-19T12:27:23.862Z</time></trkpt><trkpt lat="44.042022919702326" lon="10.827935146697492"><ele>785.0</ele><time>2026-04-19T12:27:24.862Z</time></trkpt><trkpt lat="44.04206296648506" lon="10.827706141991971"><ele>785.0</ele><time>2026-04-19T12:27:25.862Z</time></trkpt><trkpt lat="44.0421505731303" lon="10.827504895086774"><ele>785.0</ele><time>2026-04-19T12:27:26.862Z</time></trkpt><trkpt lat="44.042234152645314" lon="10.827290215463973"><ele>785.0</ele><time>2026-04-19T12:27:27.862Z</time></trkpt><trkpt lat="44.04237051922857" lon="10.827084858562266"><ele>776.3333333333334</ele><time>2026-04-19T12:27:28.862Z</time></trkpt><trkpt lat="44.042499645071054" lon="10.826866871707509"><ele>767.6666666666667</ele><time>2026-04-19T12:27:29.862Z</time></trkpt><trkpt lat="44.04263493067846" lon="10.826642243406894"><ele>759.0</ele><time>2026-04-19T12:27:30.862Z</time></trkpt><trkpt lat="44.04277745485784" lon="10.826415211994806"><ele>759.0</ele><time>2026-04-19T12:27:31.862Z</time></trkpt><trkpt lat="44.04290538414706" lon="10.826198432852378"><ele>759.0</ele><time>2026-04-19T12:27:32.862Z</time></trkpt><trkpt lat="44.043045679696164" lon="10.826017327201306"><ele>759.0</ele><time>2026-04-19T12:27:33.862Z</time></trkpt><trkpt lat="44.043199275056224" lon="10.825831801978927"><ele>756.3333333333334</ele><time>2026-04-19T12:27:34.862Z</time></trkpt><trkpt lat="44.04334360132476" lon="10.825659802955245"><ele>753.6666666666667</ele><time>2026-04-19T12:27:35.862Z</time></trkpt><trkpt lat="44.04347979423851" lon="10.825518017865045"><ele>751.0</ele><time>2026-04-19T12:27:36.862Z</time></trkpt><trkpt lat="44.04358233727399" lon="10.82537341527389"><ele>751.0</ele><time>2026-04-19T12:27:37.862Z</time></trkpt><trkpt lat="44.04364698624332" lon="10.825224324261562"><ele>751.0</ele><time>2026-04-19T12:27:38.863Z</time></trkpt><trkpt lat="44.04367679713798" lon="10.825035005105644"><ele>751.0</ele><time>2026-04-19T12:27:39.862Z</time></trkpt><trkpt lat="44.04367465186405" lon="10.824823780550819"><ele>751.0</ele><time>2026-04-19T12:27:40.862Z</time></trkpt><trkpt lat="44.04366209643584" lon="10.824601797830422"><ele>750.6666666666667</ele><time>2026-04-19T12:27:41.862Z</time></trkpt><trkpt lat="44.043618093442554" lon="10.824369424332605"><ele>750.3333333333334</ele><time>2026-04-19T12:27:42.862Z</time></trkpt><trkpt lat="44.04355033405267" lon="10.824149172577432"><ele>750.0</ele><time>2026-04-19T12:27:43.862Z</time></trkpt><trkpt lat="44.043501080257904" lon="10.82395512808222"><ele>749.0</ele><time>2026-04-19T12:27:44.862Z</time></trkpt><trkpt lat="44.04348919950427" lon="10.823771706026296"><ele>748.0</ele><time>2026-04-19T12:27:45.861Z</time></trkpt><trkpt lat="44.04352221221713" lon="10.823573582026572"><ele>747.0</ele><time>2026-04-19T12:27:46.861Z</time></trkpt><trkpt lat="44.043558270137716" lon="10.823347830481575"><ele>746.0</ele><time>2026-04-19T12:27:47.862Z</time></trkpt><trkpt lat="44.04359654758314" lon="10.82311039558974"><ele>746.0</ele><time>2026-04-19T12:27:48.861Z</time></trkpt><trkpt lat="44.043638818360684" lon="10.822867938177527"><ele>746.0</ele><time>2026-04-19T12:27:49.861Z</time></trkpt><trkpt lat="44.04368918712459" lon="10.822637876396204"><ele>746.0</ele><time>2026-04-19T12:27:50.861Z</time></trkpt><trkpt lat="44.04375394808608" lon="10.822389346577882"><ele>744.6666666666666</ele><time>2026-04-19T12:27:51.861Z</time></trkpt><trkpt lat="44.04381746596854" lon="10.82214551181371"><ele>743.3333333333334</ele><time>2026-04-19T12:27:52.861Z</time></trkpt><trkpt lat="44.04388364778649" lon="10.821908708691476"><ele>742.0</ele><time>2026-04-19T12:27:53.861Z</time></trkpt><trkpt lat="44.043942409742364" lon="10.82169692677882"><ele>741.25</ele><time>2026-04-19T12:27:54.861Z</time></trkpt><trkpt lat="44.043986204096235" lon="10.821527956355364"><ele>740.5</ele><time>2026-04-19T12:27:55.861Z</time></trkpt><trkpt lat="44.04401327463856" lon="10.821346285494572"><ele>739.75</ele><time>2026-04-19T12:27:56.861Z</time></trkpt><trkpt lat="44.043991798694606" lon="10.821167758493957"><ele>739.0</ele><time>2026-04-19T12:27:57.861Z</time></trkpt><trkpt lat="44.043892804492046" lon="10.821002431983725"><ele>737.3333333333334</ele><time>2026-04-19T12:27:58.861Z</time></trkpt><trkpt lat="44.043815393804415" lon="10.820806901303053"><ele>735.6666666666666</ele><time>2026-04-19T12:27:59.861Z</time></trkpt><trkpt lat="44.043802312842665" lon="10.820604789867714"><ele>734.0</ele><time>2026-04-19T12:28:00.861Z</time></trkpt><trkpt lat="44.04380364781692" lon="10.820380643310578"><ele>731.3333333333333</ele><time>2026-04-19T12:28:01.861Z</time></trkpt><trkpt lat="44.04380226071637" lon="10.82013978343564"><ele>728.6666666666666</ele><time>2026-04-19T12:28:02.861Z</time></trkpt><trkpt lat="44.04379518139043" lon="10.819893236555204"><ele>726.0</ele><time>2026-04-19T12:28:03.861Z</time></trkpt><trkpt lat="44.04377347420049" lon="10.819667329864158"><ele>726.0</ele><time>2026-04-19T12:28:04.861Z</time></trkpt><trkpt lat="44.04369533334789" lon="10.819481361481426"><ele>726.0</ele><time>2026-04-19T12:28:05.861Z</time></trkpt><trkpt lat="44.043637278830005" lon="10.819301351014"><ele>726.0</ele><time>2026-04-19T12:28:06.861Z</time></trkpt><trkpt lat="44.043598406090794" lon="10.819116479012775"><ele>726.0</ele><time>2026-04-19T12:28:07.861Z</time></trkpt><trkpt lat="44.04361970323349" lon="10.81892556059945"><ele>724.3333333333334</ele><time>2026-04-19T12:28:08.861Z</time></trkpt><trkpt lat="44.043667079889" lon="10.818706956587908"><ele>722.6666666666667</ele><time>2026-04-19T12:28:09.861Z</time></trkpt><trkpt lat="44.04373267080972" lon="10.818471028938548"><ele>721.0</ele><time>2026-04-19T12:28:10.861Z</time></trkpt><trkpt lat="44.0437915160819" lon="10.818218261532802"><ele>719.6666666666667</ele><time>2026-04-19T12:28:11.861Z</time></trkpt><trkpt lat="44.043857947598326" lon="10.81795673215804"><ele>718.3333333333334</ele><time>2026-04-19T12:28:12.861Z</time></trkpt><trkpt lat="44.0439163098921" lon="10.81768473005853"><ele>717.0</ele><time>2026-04-19T12:28:13.861Z</time></trkpt><trkpt lat="44.04397355645324" lon="10.817424597260937"><ele>716.3333333333334</ele><time>2026-04-19T12:28:14.861Z</time></trkpt><trkpt lat="44.04404464005629" lon="10.817164092467728"><ele>715.6666666666667</ele><time>2026-04-19T12:28:15.861Z</time></trkpt><trkpt lat="44.04411407601183" lon="10.816899596124456"><ele>715.0</ele><time>2026-04-19T12:28:16.861Z</time></trkpt><trkpt lat="44.04416348330259" lon="10.816611024601869"><ele>711.0</ele><time>2026-04-19T12:28:17.861Z</time></trkpt><trkpt lat="44.04420882526208" lon="10.816345703780673"><ele>707.0</ele><time>2026-04-19T12:28:18.861Z</time></trkpt><trkpt lat="44.04425729159922" lon="10.816094616245234"><ele>703.0</ele><time>2026-04-19T12:28:19.861Z</time></trkpt><trkpt lat="44.044319088290905" lon="10.81586649861494"><ele>703.0</ele><time>2026-04-19T12:28:20.861Z</time></trkpt><trkpt lat="44.0443947816614" lon="10.815666888803525"><ele>703.0</ele><time>2026-04-19T12:28:21.861Z</time></trkpt><trkpt lat="44.044519743275735" lon="10.815482675435648"><ele>703.0</ele><time>2026-04-19T12:28:22.861Z</time></trkpt><trkpt lat="44.04466983900612" lon="10.815266294342331"><ele>701.3333333333334</ele><time>2026-04-19T12:28:23.861Z</time></trkpt><trkpt lat="44.04481264322341" lon="10.815033912784983"><ele>699.6666666666666</ele><time>2026-04-19T12:28:24.861Z</time></trkpt><trkpt lat="44.04494793271089" lon="10.814833861344242"><ele>698.0</ele><time>2026-04-19T12:28:25.861Z</time></trkpt><trkpt lat="44.04507658017602" lon="10.81464248426363"><ele>694.6666666666666</ele><time>2026-04-19T12:28:26.861Z</time></trkpt><trkpt lat="44.045201688299066" lon="10.814465359276642"><ele>691.3333333333334</ele><time>2026-04-19T12:28:27.861Z</time></trkpt><trkpt lat="44.045296597958114" lon="10.814302829121448"><ele>688.0</ele><time>2026-04-19T12:28:28.861Z</time></trkpt><trkpt lat="44.045392010974275" lon="10.814172192172089"><ele>687.75</ele><time>2026-04-19T12:28:29.861Z</time></trkpt><trkpt lat="44.04546504804668" lon="10.814035022994155"><ele>687.5</ele><time>2026-04-19T12:28:30.861Z</time></trkpt><trkpt lat="44.04553016058027" lon="10.813880202893351"><ele>687.25</ele><time>2026-04-19T12:28:31.861Z</time></trkpt><trkpt lat="44.04555719623945" lon="10.813716464016615"><ele>687.0</ele><time>2026-04-19T12:28:32.861Z</time></trkpt><trkpt lat="44.04550085949215" lon="10.813525422318147"><ele>684.5</ele><time>2026-04-19T12:28:33.861Z</time></trkpt><trkpt lat="44.04543184005847" lon="10.813391917318674"><ele>682.0</ele><time>2026-04-19T12:28:34.861Z</time></trkpt><trkpt lat="44.04534039272685" lon="10.813284825996519"><ele>679.5</ele><time>2026-04-19T12:28:35.861Z</time></trkpt><trkpt lat="44.04521188838092" lon="10.813211876416855"><ele>677.0</ele><time>2026-04-19T12:28:36.861Z</time></trkpt><trkpt lat="44.045072318441896" lon="10.813149970805014"><ele>677.6666666666666</ele><time>2026-04-19T12:28:37.861Z</time></trkpt><trkpt lat="44.04491221853466" lon="10.813101099145948"><ele>678.3333333333334</ele><time>2026-04-19T12:28:38.861Z</time></trkpt><trkpt lat="44.044749616748916" lon="10.813018441622708"><ele>679.0</ele><time>2026-04-19T12:28:39.861Z</time></trkpt><trkpt lat="44.04461526370806" lon="10.812947080719873"><ele>679.0</ele><time>2026-04-19T12:28:40.861Z</time></trkpt><trkpt lat="44.04450177461636" lon="10.812867497378804"><ele>679.0</ele><time>2026-04-19T12:28:41.861Z</time></trkpt><trkpt lat="44.04439893642196" lon="10.81278487350337"><ele>679.0</ele><time>2026-04-19T12:28:42.861Z</time></trkpt><trkpt lat="44.04433013050156" lon="10.81265643818878"><ele>679.0</ele><time>2026-04-19T12:28:43.861Z</time></trkpt><trkpt lat="44.0442821242912" lon="10.812511561904474"><ele>677.75</ele><time>2026-04-19T12:28:44.861Z</time></trkpt><trkpt lat="44.04427858775649" lon="10.812302894422514"><ele>676.5</ele><time>2026-04-19T12:28:45.861Z</time></trkpt><trkpt lat="44.044297485540376" lon="10.812117297681201"><ele>675.25</ele><time>2026-04-19T12:28:46.861Z</time></trkpt><trkpt lat="44.04433265728315" lon="10.811948061991352"><ele>674.0</ele><time>2026-04-19T12:28:47.861Z</time></trkpt><trkpt lat="44.04439480134002" lon="10.811763566581794"><ele>674.0</ele><time>2026-04-19T12:28:48.861Z</time></trkpt><trkpt lat="44.04447895513554" lon="10.811601220242208"><ele>674.0</ele><time>2026-04-19T12:28:49.861Z</time></trkpt><trkpt lat="44.044567726114764" lon="10.811467681374802"><ele>674.0</ele><time>2026-04-19T12:28:50.861Z</time></trkpt><trkpt lat="44.04471569224355" lon="10.811329255153023"><ele>674.0</ele><time>2026-04-19T12:28:51.861Z</time></trkpt><trkpt lat="44.04491738622486" lon="10.81122383103542"><ele>674.0</ele><time>2026-04-19T12:28:52.861Z</time></trkpt><trkpt lat="44.04514929127747" lon="10.811112055655459"><ele>671.0</ele><time>2026-04-19T12:28:53.861Z</time></trkpt><trkpt lat="44.04532487627404" lon="10.81097300296431"><ele>668.0</ele><time>2026-04-19T12:28:54.861Z</time></trkpt><trkpt lat="44.04553917419363" lon="10.810890135366636"><ele>665.0</ele><time>2026-04-19T12:28:55.861Z</time></trkpt><trkpt lat="44.04572036485567" lon="10.810753416793666"><ele>660.6666666666666</ele><time>2026-04-19T12:28:56.861Z</time></trkpt><trkpt lat="44.04590643105492" lon="10.810628100740763"><ele>656.3333333333334</ele><time>2026-04-19T12:28:57.861Z</time></trkpt><trkpt lat="44.04609066925418" lon="10.81050995223994"><ele>652.0</ele><time>2026-04-19T12:28:58.861Z</time></trkpt><trkpt lat="44.046284234096845" lon="10.810394525187432"><ele>652.0</ele><time>2026-04-19T12:28:59.861Z</time></trkpt><trkpt lat="44.0464479613336" lon="10.81029596491195"><ele>652.0</ele><time>2026-04-19T12:29:00.861Z</time></trkpt><trkpt lat="44.046594172361395" lon="10.810200596343748"><ele>652.0</ele><time>2026-04-19T12:29:01.861Z</time></trkpt><trkpt lat="44.04671423412318" lon="10.810095331297699"><ele>649.75</ele><time>2026-04-19T12:29:02.861Z</time></trkpt><trkpt lat="44.04679676501985" lon="10.809936100538751"><ele>647.5</ele><time>2026-04-19T12:29:03.861Z</time></trkpt><trkpt lat="44.04687796978637" lon="10.809805286065691"><ele>645.25</ele><time>2026-04-19T12:29:04.861Z</time></trkpt><trkpt lat="44.04693831341422" lon="10.809654047180521"><ele>643.0</ele><time>2026-04-19T12:29:05.861Z</time></trkpt><trkpt lat="44.046976702634666" lon="10.809479105980374"><ele>642.25</ele><time>2026-04-19T12:29:06.861Z</time></trkpt><trkpt lat="44.0469984455748" lon="10.809306967304614"><ele>641.5</ele><time>2026-04-19T12:29:07.861Z</time></trkpt><trkpt lat="44.04698581710772" lon="10.809116311785592"><ele>640.75</ele><time>2026-04-19T12:29:08.861Z</time></trkpt><trkpt lat="44.04692035981716" lon="10.808920557449161"><ele>640.0</ele><time>2026-04-19T12:29:09.861Z</time></trkpt><trkpt lat="44.046866375747726" lon="10.80875184209851"><ele>640.0</ele><time>2026-04-19T12:29:10.861Z</time></trkpt><trkpt lat="44.046825647972774" lon="10.808598995052606"><ele>640.0</ele><time>2026-04-19T12:29:11.861Z</time></trkpt><trkpt lat="44.046841814366346" lon="10.808470376219763"><ele>640.0</ele><time>2026-04-19T12:29:12.861Z</time></trkpt><trkpt lat="44.04686728156936" lon="10.808356649774208"><ele>640.0</ele><time>2026-04-19T12:29:13.861Z</time></trkpt><trkpt lat="44.04694128372426" lon="10.8082909891946"><ele>640.0</ele><time>2026-04-19T12:29:14.861Z</time></trkpt><trkpt lat="44.04709539600626" lon="10.808329098755344"><ele>638.3333333333334</ele><time>2026-04-19T12:29:15.861Z</time></trkpt><trkpt lat="44.0472666400903" lon="10.808347685840001"><ele>636.6666666666666</ele><time>2026-04-19T12:29:16.861Z</time></trkpt><trkpt lat="44.04742057024976" lon="10.808380661503259"><ele>635.0</ele><time>2026-04-19T12:29:17.861Z</time></trkpt><trkpt lat="44.04758685792565" lon="10.80839418393526"><ele>632.6666666666666</ele><time>2026-04-19T12:29:18.861Z</time></trkpt><trkpt lat="44.047753644701444" lon="10.808420764658164"><ele>630.3333333333334</ele><time>2026-04-19T12:29:19.861Z</time></trkpt><trkpt lat="44.04793505115949" lon="10.808455519417176"><ele>628.0</ele><time>2026-04-19T12:29:20.861Z</time></trkpt><trkpt lat="44.0480681453663" lon="10.808471531536144"><ele>628.0</ele><time>2026-04-19T12:29:21.861Z</time></trkpt><trkpt lat="44.048165837543834" lon="10.808462569480385"><ele>628.0</ele><time>2026-04-19T12:29:22.861Z</time></trkpt><trkpt lat="44.04826820378574" lon="10.80838929542585"><ele>628.0</ele><time>2026-04-19T12:29:23.861Z</time></trkpt><trkpt lat="44.048329318042974" lon="10.808226111711434"><ele>628.0</ele><time>2026-04-19T12:29:24.861Z</time></trkpt><trkpt lat="44.04839781699937" lon="10.808041969592841"><ele>630.3333333333334</ele><time>2026-04-19T12:29:25.861Z</time></trkpt><trkpt lat="44.048462222651324" lon="10.807856269787798"><ele>632.6666666666666</ele><time>2026-04-19T12:29:26.861Z</time></trkpt><trkpt lat="44.04852772299536" lon="10.80766973957477"><ele>635.0</ele><time>2026-04-19T12:29:27.861Z</time></trkpt><trkpt lat="44.04860248622234" lon="10.807459327279666"><ele>635.5</ele><time>2026-04-19T12:29:28.861Z</time></trkpt><trkpt lat="44.048684348125335" lon="10.807254088859137"><ele>636.0</ele><time>2026-04-19T12:29:29.861Z</time></trkpt><trkpt lat="44.04876542599171" lon="10.807105393897084"><ele>636.5</ele><time>2026-04-19T12:29:30.861Z</time></trkpt><trkpt lat="44.048852464331986" lon="10.80703405900047"><ele>637.0</ele><time>2026-04-19T12:29:31.861Z</time></trkpt><trkpt lat="44.048962964852926" lon="10.807036522630224"><ele>637.0</ele><time>2026-04-19T12:29:32.861Z</time></trkpt><trkpt lat="44.04910736179619" lon="10.807041081126012"><ele>637.0</ele><time>2026-04-19T12:29:33.861Z</time></trkpt><trkpt lat="44.049260049747026" lon="10.807044968171134"><ele>637.0</ele><time>2026-04-19T12:29:34.861Z</time></trkpt><trkpt lat="44.04943098280555" lon="10.807046104482431"><ele>637.3333333333334</ele><time>2026-04-19T12:29:35.861Z</time></trkpt><trkpt lat="44.04958680545592" lon="10.807007670863904"><ele>637.6666666666666</ele><time>2026-04-19T12:29:36.861Z</time></trkpt><trkpt lat="44.04972220826575" lon="10.806891142363074"><ele>638.0</ele><time>2026-04-19T12:29:37.861Z</time></trkpt><trkpt lat="44.04986730479683" lon="10.806786782746657"><ele>641.3333333333333</ele><time>2026-04-19T12:29:38.861Z</time></trkpt><trkpt lat="44.05000314361443" lon="10.806640175036291"><ele>644.6666666666666</ele><time>2026-04-19T12:29:39.861Z</time></trkpt><trkpt lat="44.05013233759267" lon="10.80645829824701"><ele>648.0</ele><time>2026-04-19T12:29:40.861Z</time></trkpt><trkpt lat="44.05022736825921" lon="10.80625421349956"><ele>648.0</ele><time>2026-04-19T12:29:41.861Z</time></trkpt><trkpt lat="44.05030191642105" lon="10.806023046293701"><ele>648.0</ele><time>2026-04-19T12:29:42.861Z</time></trkpt><trkpt lat="44.05038311936089" lon="10.805776160524486"><ele>648.0</ele><time>2026-04-19T12:29:43.861Z</time></trkpt><trkpt lat="44.050481367726206" lon="10.805545323295151"><ele>646.75</ele><time>2026-04-19T12:29:44.862Z</time></trkpt><trkpt lat="44.050585960201566" lon="10.805352684103852"><ele>645.5</ele><time>2026-04-19T12:29:45.861Z</time></trkpt><trkpt lat="44.050688347760016" lon="10.805229364912"><ele>644.25</ele><time>2026-04-19T12:29:46.861Z</time></trkpt><trkpt lat="44.05080457432251" lon="10.805154827313505"><ele>643.0</ele><time>2026-04-19T12:29:47.861Z</time></trkpt><trkpt lat="44.050943246412004" lon="10.805114957920201"><ele>643.0</ele><time>2026-04-19T12:29:48.861Z</time></trkpt><trkpt lat="44.05108592820327" lon="10.805107756510854"><ele>643.0</ele><time>2026-04-19T12:29:49.861Z</time></trkpt><trkpt lat="44.051244755763875" lon="10.805124725530492"><ele>643.0</ele><time>2026-04-19T12:29:50.861Z</time></trkpt><trkpt lat="44.05138600203747" lon="10.805123635488995"><ele>643.0</ele><time>2026-04-19T12:29:51.861Z</time></trkpt><trkpt lat="44.051539317185366" lon="10.80510810776006"><ele>645.3333333333334</ele><time>2026-04-19T12:29:52.861Z</time></trkpt><trkpt lat="44.051684922078856" lon="10.805027753288122"><ele>647.6666666666666</ele><time>2026-04-19T12:29:53.861Z</time></trkpt><trkpt lat="44.05180476702095" lon="10.804910930806766"><ele>650.0</ele><time>2026-04-19T12:29:54.861Z</time></trkpt><trkpt lat="44.05193080795339" lon="10.804759385626284"><ele>650.0</ele><time>2026-04-19T12:29:55.861Z</time></trkpt><trkpt lat="44.05205016139493" lon="10.804557730810686"><ele>650.0</ele><time>2026-04-19T12:29:56.861Z</time></trkpt><trkpt lat="44.05214161314652" lon="10.804390313864031"><ele>650.0</ele><time>2026-04-19T12:29:57.861Z</time></trkpt><trkpt lat="44.05221194697651" lon="10.80420954856308"><ele>645.0</ele><time>2026-04-19T12:29:58.861Z</time></trkpt><trkpt lat="44.052270196668516" lon="10.804002476349305"><ele>640.0</ele><time>2026-04-19T12:29:59.861Z</time></trkpt><trkpt lat="44.05232947155534" lon="10.803774387168904"><ele>635.0</ele><time>2026-04-19T12:30:00.861Z</time></trkpt><trkpt lat="44.05239767277723" lon="10.80354192660959"><ele>637.0</ele><time>2026-04-19T12:30:01.861Z</time></trkpt><trkpt lat="44.05247883858201" lon="10.803296544234474"><ele>639.0</ele><time>2026-04-19T12:30:02.861Z</time></trkpt><trkpt lat="44.05256205187741" lon="10.803068078025323"><ele>641.0</ele><time>2026-04-19T12:30:03.861Z</time></trkpt><trkpt lat="44.052689868991514" lon="10.802852428092807"><ele>639.3333333333333</ele><time>2026-04-19T12:30:04.861Z</time></trkpt><trkpt lat="44.052814677622536" lon="10.80261498325334"><ele>637.6666666666666</ele><time>2026-04-19T12:30:05.861Z</time></trkpt><trkpt lat="44.05295392935447" lon="10.802426260629629"><ele>636.0</ele><time>2026-04-19T12:30:06.861Z</time></trkpt><trkpt lat="44.05308665701065" lon="10.802231936712134"><ele>636.0</ele><time>2026-04-19T12:30:07.861Z</time></trkpt><trkpt lat="44.05320280656638" lon="10.802070868459007"><ele>636.0</ele><time>2026-04-19T12:30:08.861Z</time></trkpt><trkpt lat="44.05332140978111" lon="10.801921061243984"><ele>636.0</ele><time>2026-04-19T12:30:09.861Z</time></trkpt><trkpt lat="44.053442934539355" lon="10.801780445119709"><ele>636.0</ele><time>2026-04-19T12:30:10.861Z</time></trkpt><trkpt lat="44.05353910603624" lon="10.801669484073518"><ele>636.0</ele><time>2026-04-19T12:30:11.861Z</time></trkpt><trkpt lat="44.05362731089929" lon="10.801543720494394"><ele>636.0</ele><time>2026-04-19T12:30:12.861Z</time></trkpt><trkpt lat="44.05371731816928" lon="10.801388404251886"><ele>636.0</ele><time>2026-04-19T12:30:13.861Z</time></trkpt><trkpt lat="44.053781466679524" lon="10.801199674132143"><ele>633.0</ele><time>2026-04-19T12:30:14.861Z</time></trkpt><trkpt lat="44.053847594077645" lon="10.80099638305432"><ele>630.0</ele><time>2026-04-19T12:30:15.861Z</time></trkpt><trkpt lat="44.0539252534391" lon="10.800795235896956"><ele>627.0</ele><time>2026-04-19T12:30:16.861Z</time></trkpt><trkpt lat="44.054008524052215" lon="10.800579988948476"><ele>627.0</ele><time>2026-04-19T12:30:17.861Z</time></trkpt><trkpt lat="44.05409598680607" lon="10.800379282899852"><ele>627.0</ele><time>2026-04-19T12:30:18.861Z</time></trkpt><trkpt lat="44.054180899422605" lon="10.80018732117168"><ele>627.0</ele><time>2026-04-19T12:30:19.861Z</time></trkpt><trkpt lat="44.054259543424415" lon="10.799999767089624"><ele>630.0</ele><time>2026-04-19T12:30:20.861Z</time></trkpt><trkpt lat="44.05435111840084" lon="10.79982586539427"><ele>633.0</ele><time>2026-04-19T12:30:21.861Z</time></trkpt><trkpt lat="44.0544440634054" lon="10.799656989026191"><ele>636.0</ele><time>2026-04-19T12:30:22.861Z</time></trkpt><trkpt lat="44.05455628373744" lon="10.799515831890627"><ele>636.0</ele><time>2026-04-19T12:30:23.861Z</time></trkpt><trkpt lat="44.05468196164549" lon="10.799378372789846"><ele>636.0</ele><time>2026-04-19T12:30:24.861Z</time></trkpt><trkpt lat="44.05481304142842" lon="10.79924508869583"><ele>636.0</ele><time>2026-04-19T12:30:25.861Z</time></trkpt><trkpt lat="44.05494097350208" lon="10.799100707204087"><ele>635.6666666666666</ele><time>2026-04-19T12:30:26.861Z</time></trkpt><trkpt lat="44.055068498383626" lon="10.798934608916598"><ele>635.3333333333333</ele><time>2026-04-19T12:30:27.861Z</time></trkpt><trkpt lat="44.055177043061754" lon="10.798743889238493"><ele>635.0</ele><time>2026-04-19T12:30:28.861Z</time></trkpt><trkpt lat="44.05528699407434" lon="10.798550047803591"><ele>632.6666666666666</ele><time>2026-04-19T12:30:29.861Z</time></trkpt><trkpt lat="44.05539451266943" lon="10.79835352772358"><ele>630.3333333333334</ele><time>2026-04-19T12:30:30.861Z</time></trkpt><trkpt lat="44.05548796185086" lon="10.79816552975345"><ele>628.0</ele><time>2026-04-19T12:30:31.861Z</time></trkpt><trkpt lat="44.05556796744562" lon="10.797977057416178"><ele>628.0</ele><time>2026-04-19T12:30:32.861Z</time></trkpt><trkpt lat="44.05562365848071" lon="10.797767653703149"><ele>628.0</ele><time>2026-04-19T12:30:33.861Z</time></trkpt><trkpt lat="44.05566430118284" lon="10.797543386928833"><ele>628.0</ele><time>2026-04-19T12:30:34.861Z</time></trkpt><trkpt lat="44.05569158213925" lon="10.797309043904244"><ele>624.3333333333334</ele><time>2026-04-19T12:30:35.861Z</time></trkpt><trkpt lat="44.055715516841225" lon="10.797064170101075"><ele>620.6666666666666</ele><time>2026-04-19T12:30:36.861Z</time></trkpt><trkpt lat="44.05574297742285" lon="10.796816677076281"><ele>617.0</ele><time>2026-04-19T12:30:37.861Z</time></trkpt><trkpt lat="44.05576527866568" lon="10.796572251705648"><ele>615.6666666666666</ele><time>2026-04-19T12:30:38.861Z</time></trkpt><trkpt lat="44.05577662949599" lon="10.796325984376141"><ele>614.3333333333334</ele><time>2026-04-19T12:30:39.861Z</time></trkpt><trkpt lat="44.05579139804482" lon="10.796084268881415"><ele>613.0</ele><time>2026-04-19T12:30:40.861Z</time></trkpt><trkpt lat="44.055829264270514" lon="10.795837876336677"><ele>616.6666666666667</ele><time>2026-04-19T12:30:41.861Z</time></trkpt><trkpt lat="44.055883208865" lon="10.795599476051331"><ele>620.3333333333334</ele><time>2026-04-19T12:30:42.861Z</time></trkpt><trkpt lat="44.05594964896131" lon="10.795356069026283"><ele>624.0</ele><time>2026-04-19T12:30:43.861Z</time></trkpt><trkpt lat="44.05602270986233" lon="10.795127626101202"><ele>624.0</ele><time>2026-04-19T12:30:44.861Z</time></trkpt><trkpt lat="44.056102590810646" lon="10.79492198351954"><ele>624.0</ele><time>2026-04-19T12:30:45.861Z</time></trkpt><trkpt lat="44.05617625913102" lon="10.79472380803373"><ele>624.0</ele><time>2026-04-19T12:30:46.861Z</time></trkpt><trkpt lat="44.05622811365538" lon="10.79452385417189"><ele>622.75</ele><time>2026-04-19T12:30:47.861Z</time></trkpt><trkpt lat="44.05625222229071" lon="10.794325481977138"><ele>621.5</ele><time>2026-04-19T12:30:48.861Z</time></trkpt><trkpt lat="44.05627169438253" lon="10.794127275230865"><ele>620.25</ele><time>2026-04-19T12:30:49.861Z</time></trkpt><trkpt lat="44.05626335197241" lon="10.7939251993407"><ele>619.0</ele><time>2026-04-19T12:30:50.861Z</time></trkpt><trkpt lat="44.056235180689235" lon="10.793733392938641"><ele>619.0</ele><time>2026-04-19T12:30:51.861Z</time></trkpt><trkpt lat="44.05617874247032" lon="10.793545471223496"><ele>619.0</ele><time>2026-04-19T12:30:52.861Z</time></trkpt><trkpt lat="44.05611694037835" lon="10.7933659327752"><ele>619.0</ele><time>2026-04-19T12:30:53.861Z</time></trkpt><trkpt lat="44.05606107821616" lon="10.793196787069235"><ele>619.0</ele><time>2026-04-19T12:30:54.861Z</time></trkpt><trkpt lat="44.05604616022639" lon="10.793016933852808"><ele>618.75</ele><time>2026-04-19T12:30:55.861Z</time></trkpt><trkpt lat="44.05600586202473" lon="10.792856285615798"><ele>618.5</ele><time>2026-04-19T12:30:56.861Z</time></trkpt><trkpt lat="44.05596512474819" lon="10.792692365134505"><ele>618.25</ele><time>2026-04-19T12:30:57.861Z</time></trkpt><trkpt lat="44.055925030179345" lon="10.792533072138802"><ele>618.0</ele><time>2026-04-19T12:30:58.861Z</time></trkpt><trkpt lat="44.05588642677674" lon="10.792381054428274"><ele>618.5</ele><time>2026-04-19T12:30:59.861Z</time></trkpt><trkpt lat="44.05583757886191" lon="10.792193213564975"><ele>619.0</ele><time>2026-04-19T12:31:00.861Z</time></trkpt><trkpt lat="44.055785431730214" lon="10.79201813366619"><ele>619.5</ele><time>2026-04-19T12:31:01.861Z</time></trkpt><trkpt lat="44.05575805272026" lon="10.791823601039267"><ele>620.0</ele><time>2026-04-19T12:31:02.861Z</time></trkpt><trkpt lat="44.055731182063006" lon="10.79163864089686"><ele>620.6</ele><time>2026-04-19T12:31:03.861Z</time></trkpt><trkpt lat="44.05570935862988" lon="10.791499069066328"><ele>621.2</ele><time>2026-04-19T12:31:04.861Z</time></trkpt><trkpt lat="44.055680302468424" lon="10.791396434185698"><ele>621.8</ele><time>2026-04-19T12:31:05.861Z</time></trkpt><trkpt lat="44.05561283655112" lon="10.791294098213504"><ele>622.4</ele><time>2026-04-19T12:31:06.861Z</time></trkpt><trkpt lat="44.055559091889215" lon="10.791190733671758"><ele>623.0</ele><time>2026-04-19T12:31:07.861Z</time></trkpt><trkpt lat="44.05553105252067" lon="10.79106851555908"><ele>623.0</ele><time>2026-04-19T12:31:08.861Z</time></trkpt><trkpt lat="44.05548153530241" lon="10.790949047714085"><ele>623.0</ele><time>2026-04-19T12:31:09.861Z</time></trkpt><trkpt lat="44.05546448357659" lon="10.790796211037296"><ele>623.0</ele><time>2026-04-19T12:31:10.861Z</time></trkpt><trkpt lat="44.05546843413164" lon="10.790626331044136"><ele>623.0</ele><time>2026-04-19T12:31:11.861Z</time></trkpt><trkpt lat="44.05548947833376" lon="10.790437610839916"><ele>623.0</ele><time>2026-04-19T12:31:12.861Z</time></trkpt><trkpt lat="44.05550738303641" lon="10.790222525997478"><ele>623.0</ele><time>2026-04-19T12:31:13.861Z</time></trkpt><trkpt lat="44.05552602361359" lon="10.78999169953398"><ele>623.0</ele><time>2026-04-19T12:31:14.861Z</time></trkpt><trkpt lat="44.05552453469104" lon="10.789753041756784"><ele>621.0</ele><time>2026-04-19T12:31:15.861Z</time></trkpt><trkpt lat="44.05554566324436" lon="10.789492435865126"><ele>619.0</ele><time>2026-04-19T12:31:16.861Z</time></trkpt><trkpt lat="44.05556010508216" lon="10.78923269329628"><ele>617.0</ele><time>2026-04-19T12:31:17.861Z</time></trkpt><trkpt lat="44.05557419506255" lon="10.788970127279832"><ele>616.0</ele><time>2026-04-19T12:31:18.861Z</time></trkpt><trkpt lat="44.05558378685195" lon="10.788713488294915"><ele>615.0</ele><time>2026-04-19T12:31:19.861Z</time></trkpt><trkpt lat="44.05560119641481" lon="10.788448716312654"><ele>614.0</ele><time>2026-04-19T12:31:20.861Z</time></trkpt><trkpt lat="44.055621467538884" lon="10.788182323255118"><ele>614.0</ele><time>2026-04-19T12:31:21.861Z</time></trkpt><trkpt lat="44.05564467531016" lon="10.787932961260003"><ele>614.0</ele><time>2026-04-19T12:31:22.861Z</time></trkpt><trkpt lat="44.055631376603095" lon="10.787676287275326"><ele>614.0</ele><time>2026-04-19T12:31:23.861Z</time></trkpt><trkpt lat="44.05561870754791" lon="10.787409175360404"><ele>614.0</ele><time>2026-04-19T12:31:24.861Z</time></trkpt><trkpt lat="44.0556364868145" lon="10.787142808823674"><ele>614.0</ele><time>2026-04-19T12:31:25.861Z</time></trkpt><trkpt lat="44.05562740799002" lon="10.786862912845075"><ele>614.0</ele><time>2026-04-19T12:31:26.861Z</time></trkpt><trkpt lat="44.05562950700673" lon="10.786606887605473"><ele>614.0</ele><time>2026-04-19T12:31:27.861Z</time></trkpt><trkpt lat="44.055614872482884" lon="10.786354520283481"><ele>614.0</ele><time>2026-04-19T12:31:28.861Z</time></trkpt><trkpt lat="44.05564304748314" lon="10.786120212306576"><ele>614.0</ele><time>2026-04-19T12:31:29.861Z</time></trkpt><trkpt lat="44.055671035863476" lon="10.785907971671518"><ele>610.75</ele><time>2026-04-19T12:31:30.861Z</time></trkpt><trkpt lat="44.05572600126858" lon="10.785723076917689"><ele>607.5</ele><time>2026-04-19T12:31:31.861Z</time></trkpt><trkpt lat="44.05581488809822" lon="10.785583116389988"><ele>604.25</ele><time>2026-04-19T12:31:32.861Z</time></trkpt><trkpt lat="44.0559182049459" lon="10.785462593666558"><ele>601.0</ele><time>2026-04-19T12:31:33.861Z</time></trkpt><trkpt lat="44.056043421341826" lon="10.785345296744067"><ele>605.3333333333334</ele><time>2026-04-19T12:31:34.861Z</time></trkpt><trkpt lat="44.056183974623806" lon="10.785201923217898"><ele>609.6666666666666</ele><time>2026-04-19T12:31:35.861Z</time></trkpt><trkpt lat="44.05629681765842" lon="10.785022357054485"><ele>614.0</ele><time>2026-04-19T12:31:36.861Z</time></trkpt><trkpt lat="44.05642262540985" lon="10.784852697523002"><ele>614.0</ele><time>2026-04-19T12:31:37.861Z</time></trkpt><trkpt lat="44.05652870439648" lon="10.784673615971213"><ele>614.0</ele><time>2026-04-19T12:31:38.861Z</time></trkpt><trkpt lat="44.05662031257823" lon="10.784478679973157"><ele>614.0</ele><time>2026-04-19T12:31:39.861Z</time></trkpt><trkpt lat="44.05666169804723" lon="10.784255790091343"><ele>619.3333333333333</ele><time>2026-04-19T12:31:40.861Z</time></trkpt><trkpt lat="44.05668376207" lon="10.784045144377881"><ele>624.6666666666666</ele><time>2026-04-19T12:31:41.861Z</time></trkpt><trkpt lat="44.05667446777931" lon="10.78380461540796"><ele>630.0</ele><time>2026-04-19T12:31:42.861Z</time></trkpt><trkpt lat="44.05663908365615" lon="10.783557988792033"><ele>621.6666666666666</ele><time>2026-04-19T12:31:43.861Z</time></trkpt><trkpt lat="44.05660201537795" lon="10.783306088059646"><ele>613.3333333333333</ele><time>2026-04-19T12:31:44.861Z</time></trkpt><trkpt lat="44.0565689969108" lon="10.783050730713695"><ele>605.0</ele><time>2026-04-19T12:31:45.861Z</time></trkpt><trkpt lat="44.05653154390838" lon="10.78281689117055"><ele>605.0</ele><time>2026-04-19T12:31:46.861Z</time></trkpt><trkpt lat="44.05651368845421" lon="10.782589929579906"><ele>605.0</ele><time>2026-04-19T12:31:47.861Z</time></trkpt><trkpt lat="44.05652765138615" lon="10.782377063746985"><ele>605.0</ele><time>2026-04-19T12:31:48.86Z</time></trkpt><trkpt lat="44.05657490863764" lon="10.782180216659961"><ele>608.3333333333333</ele><time>2026-04-19T12:31:49.86Z</time></trkpt><trkpt lat="44.05666876359342" lon="10.782014816986637"><ele>611.6666666666666</ele><time>2026-04-19T12:31:50.861Z</time></trkpt><trkpt lat="44.05678348429726" lon="10.781872321998005"><ele>615.0</ele><time>2026-04-19T12:31:51.861Z</time></trkpt><trkpt lat="44.0569183074079" lon="10.781720689232824"><ele>615.0</ele><time>2026-04-19T12:31:52.861Z</time></trkpt><trkpt lat="44.05706444467511" lon="10.78155736129366"><ele>615.0</ele><time>2026-04-19T12:31:53.861Z</time></trkpt><trkpt lat="44.05720273859513" lon="10.781371841876991"><ele>615.0</ele><time>2026-04-19T12:31:54.86Z</time></trkpt><trkpt lat="44.05732824838036" lon="10.78117432107869"><ele>616.3333333333334</ele><time>2026-04-19T12:31:55.86Z</time></trkpt><trkpt lat="44.05743582746063" lon="10.780984830672748"><ele>617.6666666666667</ele><time>2026-04-19T12:31:56.861Z</time></trkpt><trkpt lat="44.057527623117565" lon="10.780816412062862"><ele>619.0</ele><time>2026-04-19T12:31:57.86Z</time></trkpt><trkpt lat="44.05759110023995" lon="10.780648458605546"><ele>619.0</ele><time>2026-04-19T12:31:58.86Z</time></trkpt><trkpt lat="44.057611949485896" lon="10.780484087789771"><ele>619.0</ele><time>2026-04-19T12:31:59.861Z</time></trkpt><trkpt lat="44.05758958237688" lon="10.780320920650594"><ele>619.0</ele><time>2026-04-19T12:32:00.861Z</time></trkpt><trkpt lat="44.05752190622463" lon="10.78019924709189"><ele>619.0</ele><time>2026-04-19T12:32:01.861Z</time></trkpt><trkpt lat="44.05742352626325" lon="10.780099162714732"><ele>613.6666666666667</ele><time>2026-04-19T12:32:02.861Z</time></trkpt><trkpt lat="44.05730579061283" lon="10.779987144524425"><ele>608.3333333333334</ele><time>2026-04-19T12:32:03.861Z</time></trkpt><trkpt lat="44.057175584695926" lon="10.779848640765666"><ele>603.0</ele><time>2026-04-19T12:32:04.86Z</time></trkpt><trkpt lat="44.05703262114295" lon="10.779681536337092"><ele>603.0</ele><time>2026-04-19T12:32:05.858Z</time></trkpt><trkpt lat="44.056894510039626" lon="10.779523519257621"><ele>603.0</ele><time>2026-04-19T12:32:06.856Z</time></trkpt><trkpt lat="44.05675188506436" lon="10.779353189583807"><ele>603.0</ele><time>2026-04-19T12:32:07.854Z</time></trkpt><trkpt lat="44.05660851806498" lon="10.779164808965216"><ele>594.6666666666666</ele><time>2026-04-19T12:32:08.852Z</time></trkpt><trkpt lat="44.056477419528015" lon="10.778974804373469"><ele>586.3333333333333</ele><time>2026-04-19T12:32:09.85Z</time></trkpt><trkpt lat="44.056372844030506" lon="10.778747032520233"><ele>578.0</ele><time>2026-04-19T12:32:10.848Z</time></trkpt><trkpt lat="44.05626101805958" lon="10.778539639820384"><ele>584.3333333333333</ele><time>2026-04-19T12:32:11.846Z</time></trkpt><trkpt lat="44.05614981322489" lon="10.77831803245236"><ele>590.6666666666666</ele><time>2026-04-19T12:32:12.845Z</time></trkpt><trkpt lat="44.0560331701977" lon="10.778092707853423"><ele>597.0</ele><time>2026-04-19T12:32:13.843Z</time></trkpt><trkpt lat="44.05590459341488" lon="10.777873579801343"><ele>589.3333333333334</ele><time>2026-04-19T12:32:14.842Z</time></trkpt><trkpt lat="44.055757586468204" lon="10.77767523140393"><ele>581.6666666666667</ele><time>2026-04-19T12:32:15.841Z</time></trkpt><trkpt lat="44.055608481182276" lon="10.777479855217118"><ele>574.0</ele><time>2026-04-19T12:32:16.84Z</time></trkpt><trkpt lat="44.05546631934885" lon="10.777293511959451"><ele>574.0</ele><time>2026-04-19T12:32:17.839Z</time></trkpt><trkpt lat="44.055341715407195" lon="10.777129705978464"><ele>574.0</ele><time>2026-04-19T12:32:18.838Z</time></trkpt><trkpt lat="44.055225708581624" lon="10.77697720150264"><ele>574.0</ele><time>2026-04-19T12:32:19.837Z</time></trkpt><trkpt lat="44.05510055414575" lon="10.776847128034092"><ele>582.0</ele><time>2026-04-19T12:32:20.836Z</time></trkpt><trkpt lat="44.05502423405555" lon="10.77666229372284"><ele>590.0</ele><time>2026-04-19T12:32:21.835Z</time></trkpt><trkpt lat="44.05493766669881" lon="10.776468965349462"><ele>598.0</ele><time>2026-04-19T12:32:22.834Z</time></trkpt><trkpt lat="44.05486120340014" lon="10.776258934451604"><ele>588.0</ele><time>2026-04-19T12:32:23.833Z</time></trkpt><trkpt lat="44.054806555423845" lon="10.776052786961221"><ele>578.0</ele><time>2026-04-19T12:32:24.832Z</time></trkpt><trkpt lat="44.05475028154629" lon="10.775887867916953"><ele>568.0</ele><time>2026-04-19T12:32:25.832Z</time></trkpt><trkpt lat="44.054690276420224" lon="10.775749331401652"><ele>558.0</ele><time>2026-04-19T12:32:26.831Z</time></trkpt><trkpt lat="44.05466773045344" lon="10.775612636061355"><ele>558.0</ele><time>2026-04-19T12:32:27.831Z</time></trkpt><trkpt lat="44.05462744989045" lon="10.775488455795848"><ele>558.0</ele><time>2026-04-19T12:32:28.83Z</time></trkpt><trkpt lat="44.05464393989304" lon="10.77536565247408"><ele>558.0</ele><time>2026-04-19T12:32:29.83Z</time></trkpt><trkpt lat="44.05470261439227" lon="10.775266994416372"><ele>558.0</ele><time>2026-04-19T12:32:30.829Z</time></trkpt><trkpt lat="44.05478716784305" lon="10.775209705935502"><ele>558.0</ele><time>2026-04-19T12:32:31.829Z</time></trkpt><trkpt lat="44.05490255160825" lon="10.775196447873297"><ele>571.3333333333334</ele><time>2026-04-19T12:32:32.828Z</time></trkpt><trkpt lat="44.05503715089357" lon="10.775239764673952"><ele>584.6666666666667</ele><time>2026-04-19T12:32:33.828Z</time></trkpt><trkpt lat="44.05519518363753" lon="10.775292775445347"><ele>598.0</ele><time>2026-04-19T12:32:34.827Z</time></trkpt><trkpt lat="44.055362501519674" lon="10.77533055063473"><ele>598.0</ele><time>2026-04-19T12:32:35.827Z</time></trkpt><trkpt lat="44.05554650615625" lon="10.77537026608504"><ele>598.0</ele><time>2026-04-19T12:32:36.827Z</time></trkpt><trkpt lat="44.05572821162221" lon="10.77538216483135"><ele>598.0</ele><time>2026-04-19T12:32:37.826Z</time></trkpt><trkpt lat="44.055911120176035" lon="10.775392448326938"><ele>600.3333333333334</ele><time>2026-04-19T12:32:38.826Z</time></trkpt><trkpt lat="44.056111916689495" lon="10.775411405461417"><ele>602.6666666666666</ele><time>2026-04-19T12:32:39.826Z</time></trkpt><trkpt lat="44.05629418261581" lon="10.77543119906956"><ele>605.0</ele><time>2026-04-19T12:32:40.826Z</time></trkpt><trkpt lat="44.05647508541496" lon="10.77544534230285"><ele>601.3333333333333</ele><time>2026-04-19T12:32:41.825Z</time></trkpt><trkpt lat="44.05665876347063" lon="10.775487692237963"><ele>597.6666666666666</ele><time>2026-04-19T12:32:42.825Z</time></trkpt><trkpt lat="44.05684124361445" lon="10.775510093227219"><ele>594.0</ele><time>2026-04-19T12:32:43.825Z</time></trkpt><trkpt lat="44.05700750898454" lon="10.775530503698988"><ele>594.0</ele><time>2026-04-19T12:32:44.825Z</time></trkpt><trkpt lat="44.057153889744974" lon="10.775548473190149"><ele>594.0</ele><time>2026-04-19T12:32:45.825Z</time></trkpt><trkpt lat="44.05730528458999" lon="10.775550221173114"><ele>594.0</ele><time>2026-04-19T12:32:46.824Z</time></trkpt><trkpt lat="44.05744610063596" lon="10.775576759447471"><ele>594.0</ele><time>2026-04-19T12:32:47.824Z</time></trkpt><trkpt lat="44.057556430669685" lon="10.775552584053623"><ele>593.0</ele><time>2026-04-19T12:32:48.824Z</time></trkpt><trkpt lat="44.0576625235745" lon="10.775468929847769"><ele>592.0</ele><time>2026-04-19T12:32:49.824Z</time></trkpt><trkpt lat="44.057753360197744" lon="10.775338051773815"><ele>591.0</ele><time>2026-04-19T12:32:50.824Z</time></trkpt><trkpt lat="44.05779861037252" lon="10.775167064304405"><ele>590.0</ele><time>2026-04-19T12:32:51.824Z</time></trkpt><trkpt lat="44.05781325510705" lon="10.774968879677095"><ele>581.3333333333333</ele><time>2026-04-19T12:32:52.824Z</time></trkpt><trkpt lat="44.057752136406194" lon="10.774757742456169"><ele>572.6666666666666</ele><time>2026-04-19T12:32:53.823Z</time></trkpt><trkpt lat="44.05771396601859" lon="10.774555934877863"><ele>564.0</ele><time>2026-04-19T12:32:54.823Z</time></trkpt><trkpt lat="44.057677011633274" lon="10.774347459767393"><ele>562.75</ele><time>2026-04-19T12:32:55.823Z</time></trkpt><trkpt lat="44.057637941621905" lon="10.774183643322694"><ele>561.5</ele><time>2026-04-19T12:32:56.823Z</time></trkpt><trkpt lat="44.057579334522714" lon="10.774059122917203"><ele>560.25</ele><time>2026-04-19T12:32:57.823Z</time></trkpt><trkpt lat="44.05749312717189" lon="10.77395174659548"><ele>559.0</ele><time>2026-04-19T12:32:58.823Z</time></trkpt><trkpt lat="44.05738607915293" lon="10.773902527788188"><ele>557.25</ele><time>2026-04-19T12:32:59.823Z</time></trkpt><trkpt lat="44.05726373503214" lon="10.77391448816147"><ele>555.5</ele><time>2026-04-19T12:33:00.823Z</time></trkpt><trkpt lat="44.057158148783856" lon="10.77401297517201"><ele>553.75</ele><time>2026-04-19T12:33:01.823Z</time></trkpt><trkpt lat="44.05704937751443" lon="10.774131508702009"><ele>552.0</ele><time>2026-04-19T12:33:02.823Z</time></trkpt><trkpt lat="44.05694285091998" lon="10.774228673711539"><ele>552.0</ele><time>2026-04-19T12:33:03.823Z</time></trkpt><trkpt lat="44.05681645877574" lon="10.77428522375324"><ele>552.0</ele><time>2026-04-19T12:33:04.823Z</time></trkpt><trkpt lat="44.056691286381216" lon="10.774234482791135"><ele>552.0</ele><time>2026-04-19T12:33:05.822Z</time></trkpt><trkpt lat="44.05658857803016" lon="10.774128511994459"><ele>552.0</ele><time>2026-04-19T12:33:06.822Z</time></trkpt><trkpt lat="44.05648404584419" lon="10.773980004541398"><ele>552.25</ele><time>2026-04-19T12:33:07.822Z</time></trkpt><trkpt lat="44.05638900581473" lon="10.773813637897318"><ele>552.5</ele><time>2026-04-19T12:33:08.822Z</time></trkpt><trkpt lat="44.05630826218638" lon="10.773659504611748"><ele>552.75</ele><time>2026-04-19T12:33:09.822Z</time></trkpt><trkpt lat="44.05626258693661" lon="10.773500862520537"><ele>553.0</ele><time>2026-04-19T12:33:10.822Z</time></trkpt><trkpt lat="44.05622915636638" lon="10.773377467398827"><ele>550.6</ele><time>2026-04-19T12:33:11.822Z</time></trkpt><trkpt lat="44.05623123725422" lon="10.773250714565807"><ele>548.1999999999999</ele><time>2026-04-19T12:33:12.822Z</time></trkpt><trkpt lat="44.056277390352044" lon="10.773122573841937"><ele>545.8</ele><time>2026-04-19T12:33:13.822Z</time></trkpt><trkpt lat="44.05638063472763" lon="10.77306041060702"><ele>543.4</ele><time>2026-04-19T12:33:14.822Z</time></trkpt><trkpt lat="44.05650845159787" lon="10.77300612023775"><ele>541.0</ele><time>2026-04-19T12:33:15.822Z</time></trkpt><trkpt lat="44.056646564408936" lon="10.772942956832205"><ele>541.0</ele><time>2026-04-19T12:33:16.822Z</time></trkpt><trkpt lat="44.05677825332235" lon="10.772867974925179"><ele>541.0</ele><time>2026-04-19T12:33:17.822Z</time></trkpt><trkpt lat="44.056897431279495" lon="10.772748652483337"><ele>541.0</ele><time>2026-04-19T12:33:18.822Z</time></trkpt><trkpt lat="44.05695656056271" lon="10.77256959807165"><ele>541.0</ele><time>2026-04-19T12:33:19.822Z</time></trkpt><trkpt lat="44.05702906863718" lon="10.772384533581853"><ele>537.75</ele><time>2026-04-19T12:33:20.822Z</time></trkpt><trkpt lat="44.05709571077681" lon="10.772193711581806"><ele>534.5</ele><time>2026-04-19T12:33:21.822Z</time></trkpt><trkpt lat="44.05717273463102" lon="10.77202306245916"><ele>531.25</ele><time>2026-04-19T12:33:22.822Z</time></trkpt><trkpt lat="44.05726033316299" lon="10.771874847308133"><ele>528.0</ele><time>2026-04-19T12:33:23.822Z</time></trkpt><trkpt lat="44.05733861929907" lon="10.771751776573318"><ele>527.3333333333334</ele><time>2026-04-19T12:33:24.822Z</time></trkpt><trkpt lat="44.05740807911264" lon="10.771647857149366"><ele>526.6666666666666</ele><time>2026-04-19T12:33:25.822Z</time></trkpt><trkpt lat="44.0574709581824" lon="10.771553394926277"><ele>526.0</ele><time>2026-04-19T12:33:26.822Z</time></trkpt><trkpt lat="44.057522495670334" lon="10.771469407664545"><ele>525.3333333333333</ele><time>2026-04-19T12:33:27.822Z</time></trkpt><trkpt lat="44.057549054920486" lon="10.771387963092796"><ele>524.6666666666666</ele><time>2026-04-19T12:33:28.822Z</time></trkpt><trkpt lat="44.05759179410319" lon="10.771301304927663"><ele>524.0</ele><time>2026-04-19T12:33:30.822Z</time></trkpt><trkpt lat="44.0574433265786" lon="10.771233583764644"><ele>522.0</ele><time>2026-04-19T12:33:32.822Z</time></trkpt><trkpt lat="44.05734846903812" lon="10.77126305804243"><ele>520.0</ele><time>2026-04-19T12:33:33.822Z</time></trkpt><trkpt lat="44.05724979428577" lon="10.77130104854363"><ele>518.0</ele><time>2026-04-19T12:33:34.822Z</time></trkpt><trkpt lat="44.05712661505473" lon="10.771355543301395"><ele>516.0</ele><time>2026-04-19T12:33:35.822Z</time></trkpt><trkpt lat="44.05699513155824" lon="10.77140623928602"><ele>516.0</ele><time>2026-04-19T12:33:36.822Z</time></trkpt><trkpt lat="44.05684676192387" lon="10.771466473394568"><ele>516.0</ele><time>2026-04-19T12:33:37.822Z</time></trkpt><trkpt lat="44.05669814621724" lon="10.771523446389644"><ele>516.0</ele><time>2026-04-19T12:33:38.822Z</time></trkpt><trkpt lat="44.05653309160415" lon="10.77157944070024"><ele>512.3333333333334</ele><time>2026-04-19T12:33:39.822Z</time></trkpt><trkpt lat="44.05636177099577" lon="10.771629855182775"><ele>508.6666666666667</ele><time>2026-04-19T12:33:40.822Z</time></trkpt><trkpt lat="44.056196523405845" lon="10.771695291292971"><ele>505.0</ele><time>2026-04-19T12:33:41.822Z</time></trkpt><trkpt lat="44.05603871227796" lon="10.771758473444443"><ele>505.0</ele><time>2026-04-19T12:33:42.822Z</time></trkpt><trkpt lat="44.05589337697073" lon="10.771818757538197"><ele>505.0</ele><time>2026-04-19T12:33:43.822Z</time></trkpt><trkpt lat="44.05576318248613" lon="10.771891016328237"><ele>505.0</ele><time>2026-04-19T12:33:44.822Z</time></trkpt><trkpt lat="44.055616432483056" lon="10.771958593153766"><ele>505.0</ele><time>2026-04-19T12:33:45.822Z</time></trkpt><trkpt lat="44.055466551328024" lon="10.772012027770545"><ele>507.0</ele><time>2026-04-19T12:33:46.821Z</time></trkpt><trkpt lat="44.05532481370096" lon="10.77206374400516"><ele>509.0</ele><time>2026-04-19T12:33:47.821Z</time></trkpt><trkpt lat="44.05517840684609" lon="10.772120706502365"><ele>511.0</ele><time>2026-04-19T12:33:48.821Z</time></trkpt><trkpt lat="44.05504673031829" lon="10.772161265987615"><ele>513.0</ele><time>2026-04-19T12:33:49.821Z</time></trkpt><trkpt lat="44.054933100750965" lon="10.772195888636611"><ele>513.75</ele><time>2026-04-19T12:33:50.821Z</time></trkpt><trkpt lat="44.05481795154689" lon="10.772220372169146"><ele>514.5</ele><time>2026-04-19T12:33:51.821Z</time></trkpt><trkpt lat="44.05470586554657" lon="10.772180126966548"><ele>515.25</ele><time>2026-04-19T12:33:52.821Z</time></trkpt><trkpt lat="44.05462917530468" lon="10.772086847093654"><ele>516.0</ele><time>2026-04-19T12:33:53.821Z</time></trkpt><trkpt lat="44.05452561218437" lon="10.77197768486389"><ele>516.0</ele><time>2026-04-19T12:33:54.82Z</time></trkpt><trkpt lat="44.054432178988684" lon="10.771880854331807"><ele>516.0</ele><time>2026-04-19T12:33:55.82Z</time></trkpt><trkpt lat="44.05434628234264" lon="10.771844417162686"><ele>516.0</ele><time>2026-04-19T12:33:56.821Z</time></trkpt><trkpt lat="44.0542671339971" lon="10.771831902203795"><ele>516.0</ele><time>2026-04-19T12:33:57.82Z</time></trkpt><trkpt lat="44.054193156043404" lon="10.77183999551556"><ele>516.0</ele><time>2026-04-19T12:33:58.82Z</time></trkpt><trkpt lat="44.054115054996856" lon="10.771842781297437"><ele>516.0</ele><time>2026-04-19T12:33:59.821Z</time></trkpt><trkpt lat="44.05400728097611" lon="10.77182410851675"><ele>507.25</ele><time>2026-04-19T12:34:00.82Z</time></trkpt><trkpt lat="44.05389917569008" lon="10.771825465591387"><ele>498.5</ele><time>2026-04-19T12:34:01.82Z</time></trkpt><trkpt lat="44.0537734618653" lon="10.771826814453398"><ele>489.75</ele><time>2026-04-19T12:34:02.82Z</time></trkpt><trkpt lat="44.05363499973654" lon="10.771826814448753"><ele>481.0</ele><time>2026-04-19T12:34:03.821Z</time></trkpt><trkpt lat="44.05349390293853" lon="10.771823039464417"><ele>481.0</ele><time>2026-04-19T12:34:04.821Z</time></trkpt><trkpt lat="44.05338458947558" lon="10.771815544500784"><ele>481.0</ele><time>2026-04-19T12:34:05.82Z</time></trkpt><trkpt lat="44.053289987080944" lon="10.77181212346752"><ele>481.0</ele><time>2026-04-19T12:34:06.82Z</time></trkpt><trkpt lat="44.05319159066338" lon="10.771823574846975"><ele>481.0</ele><time>2026-04-19T12:34:07.82Z</time></trkpt><trkpt lat="44.05308993668115" lon="10.771921099935506"><ele>481.0</ele><time>2026-04-19T12:34:08.82Z</time></trkpt><trkpt lat="44.0530083923006" lon="10.77204807699452"><ele>480.75</ele><time>2026-04-19T12:34:09.82Z</time></trkpt><trkpt lat="44.05292209592299" lon="10.772186641900227"><ele>480.5</ele><time>2026-04-19T12:34:10.82Z</time></trkpt><trkpt lat="44.052817495490075" lon="10.772317548445118"><ele>480.25</ele><time>2026-04-19T12:34:11.82Z</time></trkpt><trkpt lat="44.05268174683145" lon="10.77241043288325"><ele>480.0</ele><time>2026-04-19T12:34:12.82Z</time></trkpt><trkpt lat="44.052532663819285" lon="10.7725213226858"><ele>481.0</ele><time>2026-04-19T12:34:13.82Z</time></trkpt><trkpt lat="44.05237549869338" lon="10.772594798066084"><ele>482.0</ele><time>2026-04-19T12:34:14.82Z</time></trkpt><trkpt lat="44.05223156996928" lon="10.772641583178055"><ele>483.0</ele><time>2026-04-19T12:34:15.82Z</time></trkpt><trkpt lat="44.05210107780658" lon="10.77268507426139"><ele>484.0</ele><time>2026-04-19T12:34:16.82Z</time></trkpt><trkpt lat="44.05196118227699" lon="10.772732785221296"><ele>484.0</ele><time>2026-04-19T12:34:17.82Z</time></trkpt><trkpt lat="44.05186972243831" lon="10.772786051125415"><ele>484.0</ele><time>2026-04-19T12:34:18.82Z</time></trkpt><trkpt lat="44.051781046271685" lon="10.772866580672424"><ele>484.0</ele><time>2026-04-19T12:34:19.82Z</time></trkpt><trkpt lat="44.051719696798656" lon="10.772989151937578"><ele>484.0</ele><time>2026-04-19T12:34:20.82Z</time></trkpt><trkpt lat="44.05166019155974" lon="10.77311526782928"><ele>484.0</ele><time>2026-04-19T12:34:21.82Z</time></trkpt><trkpt lat="44.05158995586496" lon="10.773266361095525"><ele>484.6</ele><time>2026-04-19T12:34:22.82Z</time></trkpt><trkpt lat="44.05152003626679" lon="10.773386072688615"><ele>485.2</ele><time>2026-04-19T12:34:23.82Z</time></trkpt><trkpt lat="44.051451424126526" lon="10.773486196738068"><ele>485.80000000000007</ele><time>2026-04-19T12:34:24.82Z</time></trkpt><trkpt lat="44.051386004782564" lon="10.77352945022956"><ele>486.40000000000003</ele><time>2026-04-19T12:34:25.82Z</time></trkpt><trkpt lat="44.05130015932463" lon="10.773529949914508"><ele>487.0</ele><time>2026-04-19T12:34:26.82Z</time></trkpt><trkpt lat="44.051247183427925" lon="10.773423903952317"><ele>487.0</ele><time>2026-04-19T12:34:27.82Z</time></trkpt><trkpt lat="44.051163554774725" lon="10.773330077751718"><ele>487.0</ele><time>2026-04-19T12:34:28.82Z</time></trkpt><trkpt lat="44.05106145720145" lon="10.77322014177582"><ele>487.0</ele><time>2026-04-19T12:34:29.82Z</time></trkpt><trkpt lat="44.05098408786306" lon="10.773120484695726"><ele>487.0</ele><time>2026-04-19T12:34:30.82Z</time></trkpt><trkpt lat="44.05094258068753" lon="10.772941993570038"><ele>487.0</ele><time>2026-04-19T12:34:32.82Z</time></trkpt><trkpt lat="44.05099542578774" lon="10.772820834060676"><ele>487.0</ele><time>2026-04-19T12:34:33.82Z</time></trkpt><trkpt lat="44.051037172723696" lon="10.772645203802012"><ele>487.0</ele><time>2026-04-19T12:34:34.82Z</time></trkpt><trkpt lat="44.05107120190793" lon="10.772439632062996"><ele>487.0</ele><time>2026-04-19T12:34:35.82Z</time></trkpt><trkpt lat="44.05113853674883" lon="10.772230872459243"><ele>493.6666666666667</ele><time>2026-04-19T12:34:36.82Z</time></trkpt><trkpt lat="44.05118872181267" lon="10.772011671441659"><ele>500.33333333333337</ele><time>2026-04-19T12:34:37.82Z</time></trkpt><trkpt lat="44.0512554017532" lon="10.77179545364394"><ele>507.0</ele><time>2026-04-19T12:34:38.82Z</time></trkpt><trkpt lat="44.05134271925505" lon="10.771598141810395"><ele>508.0</ele><time>2026-04-19T12:34:39.82Z</time></trkpt><trkpt lat="44.051441954626426" lon="10.771451211711886"><ele>509.0</ele><time>2026-04-19T12:34:40.82Z</time></trkpt><trkpt lat="44.05150571715701" lon="10.771290245842662"><ele>510.0</ele><time>2026-04-19T12:34:41.82Z</time></trkpt><trkpt lat="44.05155162307073" lon="10.771159630178728"><ele>511.0</ele><time>2026-04-19T12:34:42.82Z</time></trkpt><trkpt lat="44.05158331469168" lon="10.771003971289705"><ele>509.20000000000005</ele><time>2026-04-19T12:34:43.82Z</time></trkpt><trkpt lat="44.05156806743442" lon="10.770848918462734"><ele>507.40000000000003</ele><time>2026-04-19T12:34:44.82Z</time></trkpt><trkpt lat="44.05153083965862" lon="10.77073784392981"><ele>505.6</ele><time>2026-04-19T12:34:45.82Z</time></trkpt><trkpt lat="44.051453499502074" lon="10.770632095324885"><ele>503.8</ele><time>2026-04-19T12:34:46.82Z</time></trkpt><trkpt lat="44.05137689124453" lon="10.7705472124224"><ele>502.0</ele><time>2026-04-19T12:34:47.82Z</time></trkpt><trkpt lat="44.05123566420209" lon="10.77047344941911"><ele>502.0</ele><time>2026-04-19T12:34:48.82Z</time></trkpt><trkpt lat="44.051083429573566" lon="10.77035794698821"><ele>502.0</ele><time>2026-04-19T12:34:49.82Z</time></trkpt><trkpt lat="44.05096610577648" lon="10.770214843379026"><ele>502.0</ele><time>2026-04-19T12:34:50.82Z</time></trkpt><trkpt lat="44.05087327648286" lon="10.770014246435956"><ele>505.6666666666667</ele><time>2026-04-19T12:34:51.82Z</time></trkpt><trkpt lat="44.05079056119761" lon="10.76982578147185"><ele>509.33333333333337</ele><time>2026-04-19T12:34:52.82Z</time></trkpt><trkpt lat="44.050730823458714" lon="10.7696075205408"><ele>513.0</ele><time>2026-04-19T12:34:53.82Z</time></trkpt><trkpt lat="44.05071951012182" lon="10.769384321176878"><ele>514.0</ele><time>2026-04-19T12:34:54.82Z</time></trkpt><trkpt lat="44.05071141539549" lon="10.769203089422547"><ele>515.0</ele><time>2026-04-19T12:34:55.82Z</time></trkpt><trkpt lat="44.05069451730597" lon="10.769038959830473"><ele>516.0</ele><time>2026-04-19T12:34:56.82Z</time></trkpt><trkpt lat="44.0507483825187" lon="10.768900265660942"><ele>517.0</ele><time>2026-04-19T12:34:57.82Z</time></trkpt><trkpt lat="44.050726864081604" lon="10.768709604293532"><ele>515.75</ele><time>2026-04-19T12:34:58.82Z</time></trkpt><trkpt lat="44.050803361244235" lon="10.768652202559268"><ele>514.5</ele><time>2026-04-19T12:34:59.82Z</time></trkpt><trkpt lat="44.050751745833665" lon="10.768467271468312"><ele>513.25</ele><time>2026-04-19T12:35:01.82Z</time></trkpt><trkpt lat="44.05065282326117" lon="10.768328129244317"><ele>512.0</ele><time>2026-04-19T12:35:02.82Z</time></trkpt><trkpt lat="44.05051263376365" lon="10.768167082079755"><ele>512.0</ele><time>2026-04-19T12:35:03.82Z</time></trkpt><trkpt lat="44.0503781022769" lon="10.768043331918452"><ele>512.0</ele><time>2026-04-19T12:35:04.82Z</time></trkpt><trkpt lat="44.05024711607973" lon="10.76790449889802"><ele>512.0</ele><time>2026-04-19T12:35:05.82Z</time></trkpt><trkpt lat="44.050128993787325" lon="10.76780231196559"><ele>512.0</ele><time>2026-04-19T12:35:06.82Z</time></trkpt><trkpt lat="44.05000989002952" lon="10.767739537831341"><ele>512.0</ele><time>2026-04-19T12:35:07.82Z</time></trkpt><trkpt lat="44.04987601902592" lon="10.767731090690773"><ele>512.0</ele><time>2026-04-19T12:35:08.82Z</time></trkpt><trkpt lat="44.04973112459975" lon="10.767734563255114"><ele>512.0</ele><time>2026-04-19T12:35:09.82Z</time></trkpt><trkpt lat="44.049579450597214" lon="10.767754634651098"><ele>514.0</ele><time>2026-04-19T12:35:10.82Z</time></trkpt><trkpt lat="44.04939355015199" lon="10.767778028941748"><ele>516.0</ele><time>2026-04-19T12:35:11.82Z</time></trkpt><trkpt lat="44.04920334243202" lon="10.76783063996815"><ele>518.0</ele><time>2026-04-19T12:35:12.82Z</time></trkpt><trkpt lat="44.04903600822903" lon="10.767869585973633"><ele>523.6666666666666</ele><time>2026-04-19T12:35:13.82Z</time></trkpt><trkpt lat="44.048873016423116" lon="10.767901492366773"><ele>529.3333333333334</ele><time>2026-04-19T12:35:14.82Z</time></trkpt><trkpt lat="44.04869070584067" lon="10.767890006443116"><ele>535.0</ele><time>2026-04-19T12:35:15.82Z</time></trkpt><trkpt lat="44.04850182560037" lon="10.767874314799062"><ele>535.0</ele><time>2026-04-19T12:35:16.82Z</time></trkpt><trkpt lat="44.04832072266521" lon="10.767849445416251"><ele>535.0</ele><time>2026-04-19T12:35:17.82Z</time></trkpt><trkpt lat="44.04816831818199" lon="10.767816600715538"><ele>535.0</ele><time>2026-04-19T12:35:18.82Z</time></trkpt><trkpt lat="44.04803847837473" lon="10.767771064439067"><ele>534.6666666666667</ele><time>2026-04-19T12:35:19.82Z</time></trkpt><trkpt lat="44.04788307068012" lon="10.76770672965805"><ele>534.3333333333334</ele><time>2026-04-19T12:35:20.82Z</time></trkpt><trkpt lat="44.04772724132225" lon="10.76759953525419"><ele>534.0</ele><time>2026-04-19T12:35:21.82Z</time></trkpt><trkpt lat="44.04757782072367" lon="10.76747229285192"><ele>543.6666666666666</ele><time>2026-04-19T12:35:22.82Z</time></trkpt><trkpt lat="44.047438302514564" lon="10.767310283977546"><ele>553.3333333333333</ele><time>2026-04-19T12:35:23.82Z</time></trkpt><trkpt lat="44.047276870092006" lon="10.767172452127884"><ele>563.0</ele><time>2026-04-19T12:35:24.82Z</time></trkpt><trkpt lat="44.04713369839144" lon="10.767012948820717"><ele>557.3333333333333</ele><time>2026-04-19T12:35:25.82Z</time></trkpt><trkpt lat="44.04700874465807" lon="10.766850063717964"><ele>551.6666666666666</ele><time>2026-04-19T12:35:26.82Z</time></trkpt><trkpt lat="44.04690042124172" lon="10.766675121869177"><ele>546.0</ele><time>2026-04-19T12:35:27.82Z</time></trkpt><trkpt lat="44.04678215399967" lon="10.766510035787109"><ele>546.0</ele><time>2026-04-19T12:35:28.82Z</time></trkpt><trkpt lat="44.04669817121463" lon="10.766358726867908"><ele>546.0</ele><time>2026-04-19T12:35:29.819Z</time></trkpt><trkpt lat="44.04662170527712" lon="10.766208812291449"><ele>546.0</ele><time>2026-04-19T12:35:30.819Z</time></trkpt><trkpt lat="44.046512584943805" lon="10.76604685640788"><ele>546.0</ele><time>2026-04-19T12:35:31.819Z</time></trkpt><trkpt lat="44.04643241420909" lon="10.765852953188233"><ele>549.6666666666666</ele><time>2026-04-19T12:35:32.819Z</time></trkpt><trkpt lat="44.04636414757219" lon="10.765657732760477"><ele>553.3333333333333</ele><time>2026-04-19T12:35:33.819Z</time></trkpt><trkpt lat="44.04631581631373" lon="10.76545493770511"><ele>557.0</ele><time>2026-04-19T12:35:34.819Z</time></trkpt><trkpt lat="44.04626515590987" lon="10.765265378735915"><ele>552.0</ele><time>2026-04-19T12:35:35.819Z</time></trkpt><trkpt lat="44.04619719921253" lon="10.765117094083685"><ele>547.0</ele><time>2026-04-19T12:35:36.819Z</time></trkpt><trkpt lat="44.046127251078666" lon="10.765027354777592"><ele>542.0</ele><time>2026-04-19T12:35:37.819Z</time></trkpt><trkpt lat="44.04605950690276" lon="10.765002223455053"><ele>537.0</ele><time>2026-04-19T12:35:38.819Z</time></trkpt><trkpt lat="44.04598000759741" lon="10.765007613623219"><ele>532.0</ele><time>2026-04-19T12:35:39.819Z</time></trkpt><trkpt lat="44.0458977473069" lon="10.765060730139039"><ele>532.0</ele><time>2026-04-19T12:35:40.819Z</time></trkpt><trkpt lat="44.04580228780773" lon="10.765111670701781"><ele>532.0</ele><time>2026-04-19T12:35:41.819Z</time></trkpt><trkpt lat="44.04570444245384" lon="10.765165409386515"><ele>532.0</ele><time>2026-04-19T12:35:42.819Z</time></trkpt><trkpt lat="44.04553059005392" lon="10.765198968843308"><ele>532.0</ele><time>2026-04-19T12:35:43.819Z</time></trkpt><trkpt lat="44.04538781117702" lon="10.765183521638514"><ele>537.0</ele><time>2026-04-19T12:35:44.819Z</time></trkpt><trkpt lat="44.045241140729054" lon="10.765115739035918"><ele>542.0</ele><time>2026-04-19T12:35:45.819Z</time></trkpt><trkpt lat="44.04511153008366" lon="10.764997359923903"><ele>547.0</ele><time>2026-04-19T12:35:46.819Z</time></trkpt><trkpt lat="44.04497615492878" lon="10.764869280410945"><ele>552.0</ele><time>2026-04-19T12:35:47.819Z</time></trkpt><trkpt lat="44.044857838313696" lon="10.76477591381204"><ele>557.0</ele><time>2026-04-19T12:35:48.819Z</time></trkpt><trkpt lat="44.044732822889344" lon="10.764692715378953"><ele>562.0</ele><time>2026-04-19T12:35:49.819Z</time></trkpt><trkpt lat="44.04461416062779" lon="10.764641987040196"><ele>567.0</ele><time>2026-04-19T12:35:50.819Z</time></trkpt><trkpt lat="44.04444735875528" lon="10.76460583910376"><ele>567.0</ele><time>2026-04-19T12:35:51.819Z</time></trkpt><trkpt lat="44.04429796748534" lon="10.764571468489887"><ele>567.0</ele><time>2026-04-19T12:35:52.819Z</time></trkpt><trkpt lat="44.04417446205412" lon="10.764518158140952"><ele>567.0</ele><time>2026-04-19T12:35:53.819Z</time></trkpt><trkpt lat="44.04405036619251" lon="10.764417646643423"><ele>567.0</ele><time>2026-04-19T12:35:54.819Z</time></trkpt><trkpt lat="44.04392004791849" lon="10.764275777287791"><ele>565.75</ele><time>2026-04-19T12:35:55.819Z</time></trkpt><trkpt lat="44.04378990325144" lon="10.764128845696995"><ele>564.5</ele><time>2026-04-19T12:35:56.819Z</time></trkpt><trkpt lat="44.04368028322238" lon="10.764021525999702"><ele>563.25</ele><time>2026-04-19T12:35:57.819Z</time></trkpt><trkpt lat="44.04356441305959" lon="10.7639485833627"><ele>562.0</ele><time>2026-04-19T12:35:58.819Z</time></trkpt><trkpt lat="44.04343994007204" lon="10.763905200876597"><ele>562.0</ele><time>2026-04-19T12:35:59.819Z</time></trkpt><trkpt lat="44.04329816688989" lon="10.763884054040332"><ele>562.0</ele><time>2026-04-19T12:36:00.819Z</time></trkpt><trkpt lat="44.043138415338916" lon="10.763910341503985"><ele>562.0</ele><time>2026-04-19T12:36:01.819Z</time></trkpt><trkpt lat="44.04297154884853" lon="10.763941834297182"><ele>563.0</ele><time>2026-04-19T12:36:02.819Z</time></trkpt><trkpt lat="44.04279434203403" lon="10.763977135556134"><ele>564.0</ele><time>2026-04-19T12:36:03.819Z</time></trkpt><trkpt lat="44.042635429217675" lon="10.764003969221145"><ele>565.0</ele><time>2026-04-19T12:36:04.819Z</time></trkpt><trkpt lat="44.04248696965062" lon="10.764035525459317"><ele>564.0</ele><time>2026-04-19T12:36:05.819Z</time></trkpt><trkpt lat="44.04231367703128" lon="10.764123971023247"><ele>563.0</ele><time>2026-04-19T12:36:06.818Z</time></trkpt><trkpt lat="44.042144983488605" lon="10.764200616090932"><ele>562.0</ele><time>2026-04-19T12:36:07.818Z</time></trkpt><trkpt lat="44.041963638076886" lon="10.764275580087475"><ele>562.0</ele><time>2026-04-19T12:36:08.819Z</time></trkpt><trkpt lat="44.0417918100408" lon="10.764337374831285"><ele>562.0</ele><time>2026-04-19T12:36:09.819Z</time></trkpt><trkpt lat="44.04163205969098" lon="10.764349057221176"><ele>562.0</ele><time>2026-04-19T12:36:10.819Z</time></trkpt><trkpt lat="44.04147326187489" lon="10.764324258744677"><ele>561.0</ele><time>2026-04-19T12:36:11.819Z</time></trkpt><trkpt lat="44.04133901384779" lon="10.764330618293355"><ele>560.0</ele><time>2026-04-19T12:36:12.819Z</time></trkpt><trkpt lat="44.041250823512826" lon="10.764332991378138"><ele>559.0</ele><time>2026-04-19T12:36:13.819Z</time></trkpt><trkpt lat="44.04117344853029" lon="10.764357635674129"><ele>558.0</ele><time>2026-04-19T12:36:14.819Z</time></trkpt><trkpt lat="44.04111129488142" lon="10.76452913298741"><ele>557.0</ele><time>2026-04-19T12:36:16.819Z</time></trkpt><trkpt lat="44.04105346880649" lon="10.764655951076643"><ele>560.75</ele><time>2026-04-19T12:36:17.819Z</time></trkpt><trkpt lat="44.04115290003677" lon="10.764830622141458"><ele>564.5</ele><time>2026-04-19T12:36:18.819Z</time></trkpt><trkpt lat="44.04125478997561" lon="10.764860177403913"><ele>568.25</ele><time>2026-04-19T12:36:19.819Z</time></trkpt><trkpt lat="44.04139294096322" lon="10.764877151946116"><ele>572.0</ele><time>2026-04-19T12:36:20.819Z</time></trkpt><trkpt lat="44.04154970218615" lon="10.764885471074306"><ele>574.6666666666666</ele><time>2026-04-19T12:36:21.819Z</time></trkpt><trkpt lat="44.04171668813702" lon="10.764902340221347"><ele>577.3333333333334</ele><time>2026-04-19T12:36:22.819Z</time></trkpt><trkpt lat="44.04188397908233" lon="10.764879460351873"><ele>580.0</ele><time>2026-04-19T12:36:23.819Z</time></trkpt><trkpt lat="44.04205711500533" lon="10.764801534024253"><ele>580.0</ele><time>2026-04-19T12:36:24.819Z</time></trkpt><trkpt lat="44.042223756347894" lon="10.764713550205668"><ele>580.0</ele><time>2026-04-19T12:36:25.819Z</time></trkpt><trkpt lat="44.04240175812106" lon="10.764619380413773"><ele>580.0</ele><time>2026-04-19T12:36:26.819Z</time></trkpt><trkpt lat="44.042555241123225" lon="10.764526198515627"><ele>583.5</ele><time>2026-04-19T12:36:27.819Z</time></trkpt><trkpt lat="44.042688804037105" lon="10.764462875023806"><ele>587.0</ele><time>2026-04-19T12:36:28.819Z</time></trkpt><trkpt lat="44.04283827741646" lon="10.764466266644249"><ele>590.5</ele><time>2026-04-19T12:36:29.819Z</time></trkpt><trkpt lat="44.042970109404536" lon="10.764499029937173"><ele>594.0</ele><time>2026-04-19T12:36:30.819Z</time></trkpt><trkpt lat="44.043118485325245" lon="10.76456521272117"><ele>594.0</ele><time>2026-04-19T12:36:31.819Z</time></trkpt><trkpt lat="44.04325510979331" lon="10.76465387774314"><ele>594.0</ele><time>2026-04-19T12:36:32.819Z</time></trkpt><trkpt lat="44.04338905110223" lon="10.764780773852243"><ele>594.0</ele><time>2026-04-19T12:36:33.819Z</time></trkpt><trkpt lat="44.043524346206965" lon="10.764910661488331"><ele>593.3333333333334</ele><time>2026-04-19T12:36:34.819Z</time></trkpt><trkpt lat="44.04366648308678" lon="10.76504799151519"><ele>592.6666666666667</ele><time>2026-04-19T12:36:35.819Z</time></trkpt><trkpt lat="44.04380948495341" lon="10.765166570266734"><ele>592.0</ele><time>2026-04-19T12:36:36.819Z</time></trkpt><trkpt lat="44.04393340152234" lon="10.765265373040812"><ele>591.6</ele><time>2026-04-19T12:36:37.819Z</time></trkpt><trkpt lat="44.04402563978244" lon="10.76536240349273"><ele>591.2</ele><time>2026-04-19T12:36:38.819Z</time></trkpt><trkpt lat="44.044083400644645" lon="10.765472754658827"><ele>590.8</ele><time>2026-04-19T12:36:39.819Z</time></trkpt><trkpt lat="44.044123698460396" lon="10.765602543636094"><ele>590.4</ele><time>2026-04-19T12:36:40.819Z</time></trkpt><trkpt lat="44.04413489054708" lon="10.765750512699615"><ele>590.0</ele><time>2026-04-19T12:36:41.819Z</time></trkpt><trkpt lat="44.04411555091692" lon="10.765915281355891"><ele>596.75</ele><time>2026-04-19T12:36:42.819Z</time></trkpt><trkpt lat="44.04405512988501" lon="10.766096532638583"><ele>603.5</ele><time>2026-04-19T12:36:43.819Z</time></trkpt><trkpt lat="44.04402545092534" lon="10.76626722717791"><ele>610.25</ele><time>2026-04-19T12:36:44.819Z</time></trkpt><trkpt lat="44.044012867544225" lon="10.766421724339713"><ele>617.0</ele><time>2026-04-19T12:36:45.819Z</time></trkpt><trkpt lat="44.04405177280437" lon="10.766566642158955"><ele>617.0</ele><time>2026-04-19T12:36:46.819Z</time></trkpt><trkpt lat="44.04409165724109" lon="10.766723497471993"><ele>617.0</ele><time>2026-04-19T12:36:47.819Z</time></trkpt><trkpt lat="44.044106165804045" lon="10.766855377567696"><ele>617.0</ele><time>2026-04-19T12:36:48.819Z</time></trkpt><trkpt lat="44.044064205393035" lon="10.766961420154319"><ele>617.0</ele><time>2026-04-19T12:36:49.819Z</time></trkpt><trkpt lat="44.043998366702375" lon="10.767038864773031"><ele>617.0</ele><time>2026-04-19T12:36:50.819Z</time></trkpt><trkpt lat="44.043899441443315" lon="10.76704020954972"><ele>617.0</ele><time>2026-04-19T12:36:51.819Z</time></trkpt><trkpt lat="44.04383060900854" lon="10.766912389544407"><ele>617.0</ele><time>2026-04-19T12:36:52.819Z</time></trkpt><trkpt lat="44.04382046948961" lon="10.766800431486608"><ele>617.0</ele><time>2026-04-19T12:36:53.819Z</time></trkpt><trkpt lat="44.0437870600068" lon="10.766645784662083"><ele>617.0</ele><time>2026-04-19T12:36:54.819Z</time></trkpt><trkpt lat="44.043766362965776" lon="10.766461950791427"><ele>617.0</ele><time>2026-04-19T12:36:55.819Z</time></trkpt><trkpt lat="44.043769963045584" lon="10.766285506889679"><ele>617.0</ele><time>2026-04-19T12:36:56.819Z</time></trkpt><trkpt lat="44.043793897888065" lon="10.766091737561505"><ele>617.0</ele><time>2026-04-19T12:36:57.819Z</time></trkpt><trkpt lat="44.04381469299116" lon="10.765848306111224"><ele>617.0</ele><time>2026-04-19T12:36:58.819Z</time></trkpt><trkpt lat="44.04377291941803" lon="10.765585294540292"><ele>616.4</ele><time>2026-04-19T12:36:59.819Z</time></trkpt><trkpt lat="44.043706569914605" lon="10.76547986706799"><ele>615.8000000000001</ele><time>2026-04-19T12:37:00.819Z</time></trkpt><trkpt lat="44.04363360128495" lon="10.765426733456792"><ele>615.2</ele><time>2026-04-19T12:37:01.818Z</time></trkpt><trkpt lat="44.043520386408886" lon="10.765362288956023"><ele>614.6</ele><time>2026-04-19T12:37:02.818Z</time></trkpt><trkpt lat="44.04340736303281" lon="10.765302999107718"><ele>614.0</ele><time>2026-04-19T12:37:03.818Z</time></trkpt><trkpt lat="44.04329505241131" lon="10.765245242767751"><ele>609.0</ele><time>2026-04-19T12:37:04.818Z</time></trkpt><trkpt lat="44.043174599764875" lon="10.765186325253781"><ele>604.0</ele><time>2026-04-19T12:37:05.818Z</time></trkpt><trkpt lat="44.04303537194038" lon="10.765142550267996"><ele>599.0</ele><time>2026-04-19T12:37:06.818Z</time></trkpt><trkpt lat="44.04287584089275" lon="10.76512931142796"><ele>594.0</ele><time>2026-04-19T12:37:07.818Z</time></trkpt><trkpt lat="44.04272767760772" lon="10.765144912842814"><ele>594.0</ele><time>2026-04-19T12:37:08.818Z</time></trkpt><trkpt lat="44.042627253300395" lon="10.765169577322524"><ele>594.0</ele><time>2026-04-19T12:37:09.818Z</time></trkpt><trkpt lat="44.04253930428413" lon="10.765253116984105"><ele>594.0</ele><time>2026-04-19T12:37:10.818Z</time></trkpt><trkpt lat="44.04248543085717" lon="10.76536936835439"><ele>594.0</ele><time>2026-04-19T12:37:11.818Z</time></trkpt><trkpt lat="44.042460962453596" lon="10.765553955629306"><ele>594.0</ele><time>2026-04-19T12:37:12.818Z</time></trkpt><trkpt lat="44.042450540598814" lon="10.765727764870444"><ele>595.0</ele><time>2026-04-19T12:37:13.818Z</time></trkpt><trkpt lat="44.04242496753287" lon="10.765916945040415"><ele>596.0</ele><time>2026-04-19T12:37:14.818Z</time></trkpt><trkpt lat="44.04240661613305" lon="10.766065820935724"><ele>597.0</ele><time>2026-04-19T12:37:15.818Z</time></trkpt><trkpt lat="44.04238105821211" lon="10.766227169823296"><ele>598.0</ele><time>2026-04-19T12:37:16.818Z</time></trkpt><trkpt lat="44.04235952854232" lon="10.766349309700427"><ele>600.5</ele><time>2026-04-19T12:37:17.818Z</time></trkpt><trkpt lat="44.042340601451535" lon="10.76645667640127"><ele>603.0</ele><time>2026-04-19T12:37:18.818Z</time></trkpt><trkpt lat="44.04231872828539" lon="10.76656776341249"><ele>605.5</ele><time>2026-04-19T12:37:19.818Z</time></trkpt><trkpt lat="44.04226475675309" lon="10.766662578495266"><ele>608.0</ele><time>2026-04-19T12:37:20.818Z</time></trkpt><trkpt lat="44.04220266848128" lon="10.766778593242961"><ele>610.5</ele><time>2026-04-19T12:37:21.818Z</time></trkpt><trkpt lat="44.04213212246011" lon="10.766854983920151"><ele>613.0</ele><time>2026-04-19T12:37:22.818Z</time></trkpt><trkpt lat="44.04201815900218" lon="10.766924009518432"><ele>622.0</ele><time>2026-04-19T12:37:23.818Z</time></trkpt><trkpt lat="44.04188258455265" lon="10.766988760437187"><ele>631.0</ele><time>2026-04-19T12:37:24.818Z</time></trkpt><trkpt lat="44.04174102219651" lon="10.76708334139267"><ele>640.0</ele><time>2026-04-19T12:37:25.818Z</time></trkpt><trkpt lat="44.041607046474994" lon="10.767184706271308"><ele>642.3333333333334</ele><time>2026-04-19T12:37:26.818Z</time></trkpt><trkpt lat="44.04147181596612" lon="10.76726278662779"><ele>644.6666666666666</ele><time>2026-04-19T12:37:27.818Z</time></trkpt><trkpt lat="44.04132849469996" lon="10.767293182908947"><ele>647.0</ele><time>2026-04-19T12:37:28.818Z</time></trkpt><trkpt lat="44.0411696812445" lon="10.76727825766214"><ele>647.0</ele><time>2026-04-19T12:37:29.818Z</time></trkpt><trkpt lat="44.041002107856485" lon="10.767261772009306"><ele>647.0</ele><time>2026-04-19T12:37:30.818Z</time></trkpt><trkpt lat="44.040833272887966" lon="10.767247483540181"><ele>647.0</ele><time>2026-04-19T12:37:31.818Z</time></trkpt><trkpt lat="44.04068624455288" lon="10.767223697714432"><ele>651.25</ele><time>2026-04-19T12:37:32.818Z</time></trkpt><trkpt lat="44.04056261528725" lon="10.767189724367284"><ele>655.5</ele><time>2026-04-19T12:37:33.818Z</time></trkpt><trkpt lat="44.04043987568867" lon="10.76711664519375"><ele>659.75</ele><time>2026-04-19T12:37:34.818Z</time></trkpt><trkpt lat="44.04031036309483" lon="10.767013226532638"><ele>664.0</ele><time>2026-04-19T12:37:35.818Z</time></trkpt><trkpt lat="44.04016931022507" lon="10.766885835305628"><ele>655.3333333333334</ele><time>2026-04-19T12:37:36.818Z</time></trkpt><trkpt lat="44.04001253132019" lon="10.766751295168245"><ele>646.6666666666666</ele><time>2026-04-19T12:37:37.818Z</time></trkpt><trkpt lat="44.039853267045515" lon="10.76665443321505"><ele>638.0</ele><time>2026-04-19T12:37:38.818Z</time></trkpt><trkpt lat="44.03970971396128" lon="10.766606696042189"><ele>637.75</ele><time>2026-04-19T12:37:39.818Z</time></trkpt><trkpt lat="44.03959337350169" lon="10.766581930215876"><ele>637.5</ele><time>2026-04-19T12:37:40.818Z</time></trkpt><trkpt lat="44.03948423075193" lon="10.766606480811861"><ele>637.25</ele><time>2026-04-19T12:37:41.818Z</time></trkpt><trkpt lat="44.03937087577746" lon="10.76660946222439"><ele>637.0</ele><time>2026-04-19T12:37:42.818Z</time></trkpt><trkpt lat="44.03926863080792" lon="10.7666818150021"><ele>637.0</ele><time>2026-04-19T12:37:43.818Z</time></trkpt><trkpt lat="44.039179751285126" lon="10.766813460902338"><ele>637.0</ele><time>2026-04-19T12:37:44.818Z</time></trkpt><trkpt lat="44.039110685913066" lon="10.76697597243277"><ele>637.0</ele><time>2026-04-19T12:37:45.818Z</time></trkpt><trkpt lat="44.03901284965072" lon="10.767139764854335"><ele>637.0</ele><time>2026-04-19T12:37:46.818Z</time></trkpt><trkpt lat="44.03893590552381" lon="10.767308195829063"><ele>640.3333333333334</ele><time>2026-04-19T12:37:47.818Z</time></trkpt><trkpt lat="44.038857345989314" lon="10.767515951990466"><ele>643.6666666666666</ele><time>2026-04-19T12:37:48.818Z</time></trkpt><trkpt lat="44.03877076400468" lon="10.767672435063664"><ele>647.0</ele><time>2026-04-19T12:37:49.818Z</time></trkpt><trkpt lat="44.038660455844" lon="10.767797690938375"><ele>652.5</ele><time>2026-04-19T12:37:50.818Z</time></trkpt><trkpt lat="44.03854160629377" lon="10.767859302203714"><ele>658.0</ele><time>2026-04-19T12:37:51.818Z</time></trkpt><trkpt lat="44.03840079081873" lon="10.767895444414231"><ele>663.5</ele><time>2026-04-19T12:37:52.818Z</time></trkpt><trkpt lat="44.03824705478791" lon="10.767960924973238"><ele>669.0</ele><time>2026-04-19T12:37:53.818Z</time></trkpt><trkpt lat="44.03810830498862" lon="10.768046170892658"><ele>669.0</ele><time>2026-04-19T12:37:54.818Z</time></trkpt><trkpt lat="44.03797888808117" lon="10.768141661784199"><ele>669.0</ele><time>2026-04-19T12:37:55.818Z</time></trkpt><trkpt lat="44.03784832675509" lon="10.768229592584994"><ele>669.0</ele><time>2026-04-19T12:37:56.818Z</time></trkpt><trkpt lat="44.03772670872576" lon="10.768289325474106"><ele>669.0</ele><time>2026-04-19T12:37:57.818Z</time></trkpt><trkpt lat="44.03761193727921" lon="10.76826889752169"><ele>669.0</ele><time>2026-04-19T12:37:58.818Z</time></trkpt><trkpt lat="44.037516583847086" lon="10.768215428959587"><ele>669.0</ele><time>2026-04-19T12:37:59.818Z</time></trkpt><trkpt lat="44.03743395473721" lon="10.768139834489897"><ele>669.0</ele><time>2026-04-19T12:38:00.818Z</time></trkpt><trkpt lat="44.0373533927726" lon="10.76804572353281"><ele>669.0</ele><time>2026-04-19T12:38:01.818Z</time></trkpt><trkpt lat="44.037264138114644" lon="10.767963551362271"><ele>669.0</ele><time>2026-04-19T12:38:02.818Z</time></trkpt><trkpt lat="44.03716363940938" lon="10.767958947013346"><ele>669.25</ele><time>2026-04-19T12:38:03.818Z</time></trkpt><trkpt lat="44.037062744207546" lon="10.767972894910182"><ele>669.5</ele><time>2026-04-19T12:38:04.818Z</time></trkpt><trkpt lat="44.03695728994915" lon="10.768047667327359"><ele>669.75</ele><time>2026-04-19T12:38:05.817Z</time></trkpt><trkpt lat="44.03683200042855" lon="10.768146643245307"><ele>670.0</ele><time>2026-04-19T12:38:06.818Z</time></trkpt><trkpt lat="44.036680402549365" lon="10.76820005543977"><ele>669.75</ele><time>2026-04-19T12:38:07.818Z</time></trkpt><trkpt lat="44.03656633945686" lon="10.768321734434142"><ele>669.5</ele><time>2026-04-19T12:38:08.818Z</time></trkpt><trkpt lat="44.03643964514693" lon="10.768359691063226"><ele>669.25</ele><time>2026-04-19T12:38:09.818Z</time></trkpt><trkpt lat="44.03630772319185" lon="10.768389211761752"><ele>669.0</ele><time>2026-04-19T12:38:10.818Z</time></trkpt><trkpt lat="44.03615855540908" lon="10.768398450507453"><ele>669.0</ele><time>2026-04-19T12:38:11.818Z</time></trkpt><trkpt lat="44.03598279518347" lon="10.768384182016575"><ele>669.0</ele><time>2026-04-19T12:38:12.818Z</time></trkpt><trkpt lat="44.035803565334845" lon="10.768314805711606"><ele>669.0</ele><time>2026-04-19T12:38:13.818Z</time></trkpt><trkpt lat="44.03565149352408" lon="10.768228550493417"><ele>669.5</ele><time>2026-04-19T12:38:14.818Z</time></trkpt><trkpt lat="44.03551289103571" lon="10.768161259638452"><ele>670.0</ele><time>2026-04-19T12:38:15.817Z</time></trkpt><trkpt lat="44.03535637071208" lon="10.768126322683461"><ele>670.5</ele><time>2026-04-19T12:38:16.817Z</time></trkpt><trkpt lat="44.035225332952606" lon="10.76817419220042"><ele>671.0</ele><time>2026-04-19T12:38:17.817Z</time></trkpt><trkpt lat="44.03512098990114" lon="10.768235885672837"><ele>671.0</ele><time>2026-04-19T12:38:18.817Z</time></trkpt><trkpt lat="44.03502064477414" lon="10.768336818726993"><ele>671.0</ele><time>2026-04-19T12:38:19.817Z</time></trkpt><trkpt lat="44.03490418961328" lon="10.768456221452993"><ele>671.0</ele><time>2026-04-19T12:38:20.817Z</time></trkpt><trkpt lat="44.034775477395" lon="10.768595875813263"><ele>671.0</ele><time>2026-04-19T12:38:21.817Z</time></trkpt><trkpt lat="44.034654371532376" lon="10.768735093334806"><ele>673.3333333333333</ele><time>2026-04-19T12:38:22.817Z</time></trkpt><trkpt lat="44.03450280623681" lon="10.76885892458594"><ele>675.6666666666666</ele><time>2026-04-19T12:38:23.817Z</time></trkpt><trkpt lat="44.03431055185016" lon="10.768976976621596"><ele>678.0</ele><time>2026-04-19T12:38:24.817Z</time></trkpt><trkpt lat="44.0341337966357" lon="10.769075896755265"><ele>678.0</ele><time>2026-04-19T12:38:25.817Z</time></trkpt><trkpt lat="44.03395134339189" lon="10.769138949006146"><ele>678.0</ele><time>2026-04-19T12:38:26.817Z</time></trkpt><trkpt lat="44.03376916089166" lon="10.769172889754433"><ele>678.0</ele><time>2026-04-19T12:38:27.817Z</time></trkpt><trkpt lat="44.033577581021696" lon="10.769243135754646"><ele>678.0</ele><time>2026-04-19T12:38:28.817Z</time></trkpt><trkpt lat="44.03337433932664" lon="10.769327207952955"><ele>678.0</ele><time>2026-04-19T12:38:29.817Z</time></trkpt><trkpt lat="44.03316855086392" lon="10.769384536779906"><ele>678.0</ele><time>2026-04-19T12:38:30.817Z</time></trkpt><trkpt lat="44.03298243855642" lon="10.769439533570717"><ele>683.6666666666666</ele><time>2026-04-19T12:38:31.817Z</time></trkpt><trkpt lat="44.032803989060056" lon="10.769494105662256"><ele>689.3333333333333</ele><time>2026-04-19T12:38:32.817Z</time></trkpt><trkpt lat="44.03264845221055" lon="10.769564460022442"><ele>695.0</ele><time>2026-04-19T12:38:33.817Z</time></trkpt><trkpt lat="44.0325168598587" lon="10.769552218095564"><ele>692.0</ele><time>2026-04-19T12:38:34.817Z</time></trkpt><trkpt lat="44.032365514230165" lon="10.769523548339166"><ele>689.0</ele><time>2026-04-19T12:38:35.817Z</time></trkpt><trkpt lat="44.03223611304355" lon="10.769498361813646"><ele>686.0</ele><time>2026-04-19T12:38:36.817Z</time></trkpt><trkpt lat="44.032108926196955" lon="10.769527873001216"><ele>683.0</ele><time>2026-04-19T12:38:37.817Z</time></trkpt><trkpt lat="44.031998365716746" lon="10.769603485893144"><ele>683.0</ele><time>2026-04-19T12:38:38.817Z</time></trkpt><trkpt lat="44.03190070967857" lon="10.769744795326096"><ele>683.0</ele><time>2026-04-19T12:38:39.817Z</time></trkpt><trkpt lat="44.03182266174834" lon="10.769898018041136"><ele>683.0</ele><time>2026-04-19T12:38:40.817Z</time></trkpt><trkpt lat="44.031731111324426" lon="10.770070680399135"><ele>683.0</ele><time>2026-04-19T12:38:41.817Z</time></trkpt><trkpt lat="44.031622696478095" lon="10.770266075415181"><ele>682.6666666666666</ele><time>2026-04-19T12:38:42.817Z</time></trkpt><trkpt lat="44.031522753025044" lon="10.770457152468394"><ele>682.3333333333334</ele><time>2026-04-19T12:38:43.817Z</time></trkpt><trkpt lat="44.03143002327108" lon="10.770643185016077"><ele>682.0</ele><time>2026-04-19T12:38:44.817Z</time></trkpt><trkpt lat="44.03133678497547" lon="10.770814599787759"><ele>682.0</ele><time>2026-04-19T12:38:45.817Z</time></trkpt><trkpt lat="44.031272848384276" lon="10.77100322106854"><ele>682.0</ele><time>2026-04-19T12:38:46.817Z</time></trkpt><trkpt lat="44.03123215049221" lon="10.771215906911932"><ele>682.0</ele><time>2026-04-19T12:38:47.817Z</time></trkpt><trkpt lat="44.0311815549448" lon="10.77145767984812"><ele>685.25</ele><time>2026-04-19T12:38:48.817Z</time></trkpt><trkpt lat="44.03110797433939" lon="10.771659387715646"><ele>688.5</ele><time>2026-04-19T12:38:49.817Z</time></trkpt><trkpt lat="44.03101738054329" lon="10.77182170430062"><ele>691.75</ele><time>2026-04-19T12:38:50.817Z</time></trkpt><trkpt lat="44.03090316049298" lon="10.771930176963302"><ele>695.0</ele><time>2026-04-19T12:38:51.817Z</time></trkpt><trkpt lat="44.03077167491731" lon="10.772031576491893"><ele>696.6666666666666</ele><time>2026-04-19T12:38:52.817Z</time></trkpt><trkpt lat="44.03064715810867" lon="10.772172558440214"><ele>698.3333333333334</ele><time>2026-04-19T12:38:53.817Z</time></trkpt><trkpt lat="44.03052831228128" lon="10.772319897541067"><ele>700.0</ele><time>2026-04-19T12:38:54.817Z</time></trkpt><trkpt lat="44.03040847335409" lon="10.772472386687934"><ele>700.0</ele><time>2026-04-19T12:38:55.817Z</time></trkpt><trkpt lat="44.03029161893815" lon="10.772642928739696"><ele>700.0</ele><time>2026-04-19T12:38:56.817Z</time></trkpt><trkpt lat="44.030187604516726" lon="10.772770992482313"><ele>700.0</ele><time>2026-04-19T12:38:57.817Z</time></trkpt><trkpt lat="44.03009952501071" lon="10.772903930442984"><ele>700.0</ele><time>2026-04-19T12:38:58.817Z</time></trkpt><trkpt lat="44.02996129278188" lon="10.772961730338693"><ele>704.25</ele><time>2026-04-19T12:38:59.817Z</time></trkpt><trkpt lat="44.02981929977037" lon="10.772930374491136"><ele>708.5</ele><time>2026-04-19T12:39:00.817Z</time></trkpt><trkpt lat="44.02968336379557" lon="10.772921763645272"><ele>712.75</ele><time>2026-04-19T12:39:01.817Z</time></trkpt><trkpt lat="44.02952571172144" lon="10.772920334719625"><ele>717.0</ele><time>2026-04-19T12:39:02.817Z</time></trkpt><trkpt lat="44.02936713469949" lon="10.772949982445235"><ele>717.0</ele><time>2026-04-19T12:39:03.817Z</time></trkpt><trkpt lat="44.029213550505965" lon="10.772993645857419"><ele>717.0</ele><time>2026-04-19T12:39:04.817Z</time></trkpt><trkpt lat="44.029064596657506" lon="10.773043093950385"><ele>717.0</ele><time>2026-04-19T12:39:05.817Z</time></trkpt><trkpt lat="44.02890549592294" lon="10.773117649199946"><ele>718.0</ele><time>2026-04-19T12:39:06.817Z</time></trkpt><trkpt lat="44.02874434461149" lon="10.773186755328146"><ele>719.0</ele><time>2026-04-19T12:39:07.817Z</time></trkpt><trkpt lat="44.028585724786645" lon="10.773223549133553"><ele>720.0</ele><time>2026-04-19T12:39:08.817Z</time></trkpt><trkpt lat="44.0284152219369" lon="10.773229253924688"><ele>722.6666666666666</ele><time>2026-04-19T12:39:09.817Z</time></trkpt><trkpt lat="44.028229068461705" lon="10.773215455389359"><ele>725.3333333333333</ele><time>2026-04-19T12:39:10.817Z</time></trkpt><trkpt lat="44.0280575046248" lon="10.773165393101362"><ele>728.0</ele><time>2026-04-19T12:39:11.817Z</time></trkpt><trkpt lat="44.02787614119595" lon="10.773105138413657"><ele>728.0</ele><time>2026-04-19T12:39:12.817Z</time></trkpt><trkpt lat="44.0277103896385" lon="10.773028895338157"><ele>728.0</ele><time>2026-04-19T12:39:13.817Z</time></trkpt><trkpt lat="44.027571432657126" lon="10.772946248579775"><ele>728.0</ele><time>2026-04-19T12:39:14.817Z</time></trkpt><trkpt lat="44.02742828923937" lon="10.772828847330238"><ele>733.3333333333333</ele><time>2026-04-19T12:39:15.817Z</time></trkpt><trkpt lat="44.027291126132845" lon="10.772699010857478"><ele>738.6666666666666</ele><time>2026-04-19T12:39:16.817Z</time></trkpt><trkpt lat="44.027155973467146" lon="10.772554806304043"><ele>744.0</ele><time>2026-04-19T12:39:17.817Z</time></trkpt><trkpt lat="44.02696671880632" lon="10.772493280384802"><ele>744.0</ele><time>2026-04-19T12:39:18.817Z</time></trkpt><trkpt lat="44.0268440301046" lon="10.772310144177244"><ele>744.0</ele><time>2026-04-19T12:39:19.817Z</time></trkpt><trkpt lat="44.026731961613386" lon="10.772131923834468"><ele>744.0</ele><time>2026-04-19T12:39:20.817Z</time></trkpt><trkpt lat="44.02662380408544" lon="10.771966865891287"><ele>744.6</ele><time>2026-04-19T12:39:21.817Z</time></trkpt><trkpt lat="44.02654965885163" lon="10.771820361713393"><ele>745.2</ele><time>2026-04-19T12:39:22.817Z</time></trkpt><trkpt lat="44.02648659553587" lon="10.771746181362948"><ele>745.8000000000001</ele><time>2026-04-19T12:39:23.817Z</time></trkpt><trkpt lat="44.026402001267606" lon="10.77171263607302"><ele>746.4000000000001</ele><time>2026-04-19T12:39:24.817Z</time></trkpt><trkpt lat="44.026280979275384" lon="10.771688463522242"><ele>747.0</ele><time>2026-04-19T12:39:25.817Z</time></trkpt><trkpt lat="44.02616449588317" lon="10.771658872436952"><ele>747.0</ele><time>2026-04-19T12:39:26.817Z</time></trkpt><trkpt lat="44.02605647704984" lon="10.771614464718496"><ele>747.0</ele><time>2026-04-19T12:39:27.817Z</time></trkpt><trkpt lat="44.02598026465399" lon="10.771510883210764"><ele>747.0</ele><time>2026-04-19T12:39:28.817Z</time></trkpt><trkpt lat="44.02592892933515" lon="10.77135575415323"><ele>747.0</ele><time>2026-04-19T12:39:29.817Z</time></trkpt><trkpt lat="44.02591097336976" lon="10.771147316728788"><ele>747.0</ele><time>2026-04-19T12:39:30.817Z</time></trkpt><trkpt lat="44.025907363704874" lon="10.770922316330584"><ele>747.0</ele><time>2026-04-19T12:39:31.817Z</time></trkpt><trkpt lat="44.025885252169985" lon="10.770693493947086"><ele>747.0</ele><time>2026-04-19T12:39:32.817Z</time></trkpt><trkpt lat="44.025839922410995" lon="10.770455504029439"><ele>754.0</ele><time>2026-04-19T12:39:33.817Z</time></trkpt><trkpt lat="44.02579231863962" lon="10.770227813643968"><ele>761.0</ele><time>2026-04-19T12:39:34.817Z</time></trkpt><trkpt lat="44.0257355784184" lon="10.770015181439229"><ele>768.0</ele><time>2026-04-19T12:39:35.817Z</time></trkpt><trkpt lat="44.02567517881214" lon="10.769813522249585"><ele>768.0</ele><time>2026-04-19T12:39:36.817Z</time></trkpt><trkpt lat="44.02561251467638" lon="10.769601672266228"><ele>768.0</ele><time>2026-04-19T12:39:37.817Z</time></trkpt><trkpt lat="44.0255481449475" lon="10.769391113629753"><ele>768.0</ele><time>2026-04-19T12:39:38.817Z</time></trkpt><trkpt lat="44.025489767544414" lon="10.769224221372646"><ele>767.1666666666666</ele><time>2026-04-19T12:39:39.817Z</time></trkpt><trkpt lat="44.025446496369575" lon="10.769094844565574"><ele>766.3333333333334</ele><time>2026-04-19T12:39:40.817Z</time></trkpt><trkpt lat="44.02536643759543" lon="10.768992260062833"><ele>765.5</ele><time>2026-04-19T12:39:41.817Z</time></trkpt><trkpt lat="44.02528612471287" lon="10.76899861678689"><ele>764.6666666666667</ele><time>2026-04-19T12:39:42.817Z</time></trkpt><trkpt lat="44.025208377293445" lon="10.769015252121203"><ele>763.8333333333334</ele><time>2026-04-19T12:39:43.817Z</time></trkpt><trkpt lat="44.025151952906604" lon="10.769077045883526"><ele>763.0</ele><time>2026-04-19T12:39:44.817Z</time></trkpt><trkpt lat="44.02513044208327" lon="10.769236873758976"><ele>764.25</ele><time>2026-04-19T12:39:45.817Z</time></trkpt><trkpt lat="44.02517677984829" lon="10.769420387010737"><ele>765.5</ele><time>2026-04-19T12:39:46.817Z</time></trkpt><trkpt lat="44.025232042947735" lon="10.769579632256242"><ele>766.75</ele><time>2026-04-19T12:39:47.817Z</time></trkpt><trkpt lat="44.02528296552205" lon="10.769759307393075"><ele>768.0</ele><time>2026-04-19T12:39:48.817Z</time></trkpt><trkpt lat="44.02531409254927" lon="10.76991961587274"><ele>768.0</ele><time>2026-04-19T12:39:49.817Z</time></trkpt><trkpt lat="44.02533106838872" lon="10.770104058846554"><ele>768.0</ele><time>2026-04-19T12:39:50.817Z</time></trkpt><trkpt lat="44.02534953443071" lon="10.770303407065867"><ele>768.0</ele><time>2026-04-19T12:39:51.817Z</time></trkpt><trkpt lat="44.025323919013154" lon="10.770488833741975"><ele>768.0</ele><time>2026-04-19T12:39:52.817Z</time></trkpt><trkpt lat="44.02532671732461" lon="10.770659622195772"><ele>767.8</ele><time>2026-04-19T12:39:53.817Z</time></trkpt><trkpt lat="44.025336354990095" lon="10.770783056900914"><ele>767.5999999999999</ele><time>2026-04-19T12:39:54.817Z</time></trkpt><trkpt lat="44.02529190699209" lon="10.770876064154457"><ele>767.4000000000001</ele><time>2026-04-19T12:39:55.817Z</time></trkpt><trkpt lat="44.02525115638138" lon="10.770981683884198"><ele>767.2</ele><time>2026-04-19T12:39:56.817Z</time></trkpt><trkpt lat="44.02517765608888" lon="10.771131369681319"><ele>767.0</ele><time>2026-04-19T12:39:57.817Z</time></trkpt><trkpt lat="44.0250632116997" lon="10.771288691713387"><ele>776.0</ele><time>2026-04-19T12:39:58.817Z</time></trkpt><trkpt lat="44.024943222377644" lon="10.77145331506956"><ele>785.0</ele><time>2026-04-19T12:39:59.817Z</time></trkpt><trkpt lat="44.02481843450025" lon="10.771617585298713"><ele>794.0</ele><time>2026-04-19T12:40:00.817Z</time></trkpt><trkpt lat="44.02470541377698" lon="10.77176126242577"><ele>793.0</ele><time>2026-04-19T12:40:01.817Z</time></trkpt><trkpt lat="44.02459202464778" lon="10.771892045910914"><ele>792.0</ele><time>2026-04-19T12:40:02.817Z</time></trkpt><trkpt lat="44.0244700073491" lon="10.772026953673446"><ele>791.0</ele><time>2026-04-19T12:40:03.817Z</time></trkpt><trkpt lat="44.02438088085637" lon="10.772174307194812"><ele>790.0</ele><time>2026-04-19T12:40:04.816Z</time></trkpt><trkpt lat="44.0243553313931" lon="10.772336048264778"><ele>790.0</ele><time>2026-04-19T12:40:05.816Z</time></trkpt><trkpt lat="44.02439434027174" lon="10.772424252524106"><ele>790.0</ele><time>2026-04-19T12:40:06.816Z</time></trkpt><trkpt lat="44.0244406170331" lon="10.77255893093648"><ele>790.0</ele><time>2026-04-19T12:40:07.816Z</time></trkpt><trkpt lat="44.02451350005852" lon="10.772705570858152"><ele>790.0</ele><time>2026-04-19T12:40:08.816Z</time></trkpt><trkpt lat="44.02461938669085" lon="10.772865576933345"><ele>789.3333333333333</ele><time>2026-04-19T12:40:09.816Z</time></trkpt><trkpt lat="44.02474222101225" lon="10.772989721087137"><ele>788.6666666666667</ele><time>2026-04-19T12:40:10.816Z</time></trkpt><trkpt lat="44.0248749989265" lon="10.773080943292992"><ele>788.0</ele><time>2026-04-19T12:40:11.816Z</time></trkpt><trkpt lat="44.02503103719686" lon="10.77316574953734"><ele>788.0</ele><time>2026-04-19T12:40:12.816Z</time></trkpt><trkpt lat="44.025159593860614" lon="10.773271613297275"><ele>788.0</ele><time>2026-04-19T12:40:13.816Z</time></trkpt><trkpt lat="44.025243458574565" lon="10.773339339327887"><ele>788.0</ele><time>2026-04-19T12:40:14.816Z</time></trkpt><trkpt lat="44.02527326553518" lon="10.773460775566978"><ele>788.0</ele><time>2026-04-19T12:40:15.816Z</time></trkpt><trkpt lat="44.025270734866716" lon="10.773646163316256"><ele>791.6666666666667</ele><time>2026-04-19T12:40:16.816Z</time></trkpt><trkpt lat="44.02526200738587" lon="10.773852554237155"><ele>795.3333333333333</ele><time>2026-04-19T12:40:17.816Z</time></trkpt><trkpt lat="44.02526961354354" lon="10.77407672782317"><ele>799.0</ele><time>2026-04-19T12:40:18.816Z</time></trkpt><trkpt lat="44.02528744118561" lon="10.774278202971047"><ele>797.2</ele><time>2026-04-19T12:40:19.816Z</time></trkpt><trkpt lat="44.025316691275236" lon="10.774468688130376"><ele>795.4000000000001</ele><time>2026-04-19T12:40:20.817Z</time></trkpt><trkpt lat="44.02529127493798" lon="10.774614181731364"><ele>793.6</ele><time>2026-04-19T12:40:21.816Z</time></trkpt><trkpt lat="44.025239417445434" lon="10.774703351664563"><ele>791.8</ele><time>2026-04-19T12:40:22.816Z</time></trkpt><trkpt lat="44.02518068288874" lon="10.774778523877435"><ele>790.0</ele><time>2026-04-19T12:40:23.816Z</time></trkpt><trkpt lat="44.025085024163005" lon="10.774846671081967"><ele>799.3333333333333</ele><time>2026-04-19T12:40:24.816Z</time></trkpt><trkpt lat="44.02493877387098" lon="10.774925525598913"><ele>808.6666666666667</ele><time>2026-04-19T12:40:25.816Z</time></trkpt><trkpt lat="44.02480651639905" lon="10.77501061526148"><ele>818.0</ele><time>2026-04-19T12:40:26.816Z</time></trkpt><trkpt lat="44.02466812016675" lon="10.77509176388347"><ele>818.0</ele><time>2026-04-19T12:40:27.816Z</time></trkpt><trkpt lat="44.024524115826026" lon="10.775161501808299"><ele>818.0</ele><time>2026-04-19T12:40:28.816Z</time></trkpt><trkpt lat="44.02441132096646" lon="10.775170167152849"><ele>818.0</ele><time>2026-04-19T12:40:29.816Z</time></trkpt><trkpt lat="44.024391859906515" lon="10.775334238301426"><ele>818.0</ele><time>2026-04-19T12:40:31.816Z</time></trkpt><trkpt lat="44.02442577202992" lon="10.775545789211716"><ele>816.0</ele><time>2026-04-19T12:40:32.816Z</time></trkpt><trkpt lat="44.02439015497843" lon="10.775754824950313"><ele>814.0</ele><time>2026-04-19T12:40:33.816Z</time></trkpt><trkpt lat="44.02431872294221" lon="10.775953135759165"><ele>812.0</ele><time>2026-04-19T12:40:34.816Z</time></trkpt><trkpt lat="44.02427656640268" lon="10.776158578034178"><ele>811.3333333333334</ele><time>2026-04-19T12:40:35.816Z</time></trkpt><trkpt lat="44.0242289949685" lon="10.776368104343627"><ele>810.6666666666667</ele><time>2026-04-19T12:40:36.816Z</time></trkpt><trkpt lat="44.0241972633815" lon="10.776591330098874"><ele>810.0</ele><time>2026-04-19T12:40:37.816Z</time></trkpt><trkpt lat="44.02417532846526" lon="10.776805211063351"><ele>810.3333333333333</ele><time>2026-04-19T12:40:38.816Z</time></trkpt><trkpt lat="44.024158070307514" lon="10.777033212261783"><ele>810.6666666666666</ele><time>2026-04-19T12:40:39.816Z</time></trkpt><trkpt lat="44.02418740010657" lon="10.777236554035767"><ele>811.0</ele><time>2026-04-19T12:40:40.816Z</time></trkpt><trkpt lat="44.02423664114074" lon="10.77745055795347"><ele>811.0</ele><time>2026-04-19T12:40:41.816Z</time></trkpt><trkpt lat="44.0242959397947" lon="10.777679940666072"><ele>811.0</ele><time>2026-04-19T12:40:42.816Z</time></trkpt><trkpt lat="44.02432271410738" lon="10.777885117241702"><ele>811.0</ele><time>2026-04-19T12:40:43.816Z</time></trkpt><trkpt lat="44.02435342793713" lon="10.778074061210289"><ele>810.5</ele><time>2026-04-19T12:40:44.816Z</time></trkpt><trkpt lat="44.02435643822005" lon="10.778255086748512"><ele>810.0</ele><time>2026-04-19T12:40:45.816Z</time></trkpt><trkpt lat="44.024384464762946" lon="10.778450957678071"><ele>809.5</ele><time>2026-04-19T12:40:46.816Z</time></trkpt><trkpt lat="44.024400553854825" lon="10.778661431596158"><ele>809.0</ele><time>2026-04-19T12:40:47.816Z</time></trkpt><trkpt lat="44.024408530372376" lon="10.778894980958547"><ele>807.0</ele><time>2026-04-19T12:40:48.816Z</time></trkpt><trkpt lat="44.02442388843643" lon="10.779127970899378"><ele>805.0</ele><time>2026-04-19T12:40:49.816Z</time></trkpt><trkpt lat="44.0244389900839" lon="10.779376962130288"><ele>803.0</ele><time>2026-04-19T12:40:50.816Z</time></trkpt><trkpt lat="44.024452063651104" lon="10.779636818665615"><ele>802.6666666666667</ele><time>2026-04-19T12:40:51.816Z</time></trkpt><trkpt lat="44.02446807149953" lon="10.7798983984385"><ele>802.3333333333333</ele><time>2026-04-19T12:40:52.816Z</time></trkpt><trkpt lat="44.02446913305324" lon="10.780165941403729"><ele>802.0</ele><time>2026-04-19T12:40:53.816Z</time></trkpt><trkpt lat="44.02446769881207" lon="10.780426733565372"><ele>805.0</ele><time>2026-04-19T12:40:54.816Z</time></trkpt><trkpt lat="44.02448509759531" lon="10.78067212925327"><ele>808.0</ele><time>2026-04-19T12:40:55.816Z</time></trkpt><trkpt lat="44.02450893096303" lon="10.780899464772467"><ele>811.0</ele><time>2026-04-19T12:40:56.815Z</time></trkpt><trkpt lat="44.02450608210754" lon="10.78104985547792"><ele>814.1999999999999</ele><time>2026-04-19T12:40:57.815Z</time></trkpt><trkpt lat="44.02450564836876" lon="10.781162130879476"><ele>817.4</ele><time>2026-04-19T12:40:58.815Z</time></trkpt><trkpt lat="44.024447648238436" lon="10.78122640446895"><ele>820.6</ele><time>2026-04-19T12:40:59.815Z</time></trkpt><trkpt lat="44.02431329735151" lon="10.781235527162217"><ele>823.8</ele><time>2026-04-19T12:41:01.815Z</time></trkpt><trkpt lat="44.0241981041503" lon="10.781255186632693"><ele>827.0</ele><time>2026-04-19T12:41:02.815Z</time></trkpt><trkpt lat="44.02406754547259" lon="10.781272957246102"><ele>829.5</ele><time>2026-04-19T12:41:03.815Z</time></trkpt><trkpt lat="44.0239340659765" lon="10.781284129709169"><ele>832.0</ele><time>2026-04-19T12:41:04.815Z</time></trkpt><trkpt lat="44.023814284802604" lon="10.78122045934811"><ele>834.5</ele><time>2026-04-19T12:41:05.815Z</time></trkpt><trkpt lat="44.02370990851574" lon="10.781135714338244"><ele>837.0</ele><time>2026-04-19T12:41:06.815Z</time></trkpt><trkpt lat="44.02359566176336" lon="10.78106876037324"><ele>834.75</ele><time>2026-04-19T12:41:07.815Z</time></trkpt><trkpt lat="44.02349682230384" lon="10.781001326592694"><ele>832.5</ele><time>2026-04-19T12:41:08.815Z</time></trkpt><trkpt lat="44.02340955540337" lon="10.780937460834288"><ele>830.25</ele><time>2026-04-19T12:41:09.815Z</time></trkpt><trkpt lat="44.023330803621825" lon="10.780873547326664"><ele>828.0</ele><time>2026-04-19T12:41:10.815Z</time></trkpt><trkpt lat="44.02333015443955" lon="10.780658880763704"><ele>828.0</ele><time>2026-04-19T12:41:12.815Z</time></trkpt><trkpt lat="44.02338004470363" lon="10.7805272345555"><ele>828.0</ele><time>2026-04-19T12:41:13.815Z</time></trkpt><trkpt lat="44.023399475553596" lon="10.780363461701052"><ele>828.0</ele><time>2026-04-19T12:41:14.815Z</time></trkpt><trkpt lat="44.02337782001725" lon="10.780194371682303"><ele>828.0</ele><time>2026-04-19T12:41:15.815Z</time></trkpt><trkpt lat="44.02332728621487" lon="10.780074507936279"><ele>829.4</ele><time>2026-04-19T12:41:16.815Z</time></trkpt><trkpt lat="44.023273984135244" lon="10.779982431057592"><ele>830.8</ele><time>2026-04-19T12:41:17.815Z</time></trkpt><trkpt lat="44.023188552293156" lon="10.779904596620316"><ele>832.2</ele><time>2026-04-19T12:41:18.815Z</time></trkpt><trkpt lat="44.023066827888734" lon="10.779882905615429"><ele>833.6</ele><time>2026-04-19T12:41:19.815Z</time></trkpt><trkpt lat="44.02296026928627" lon="10.77987469308303"><ele>835.0</ele><time>2026-04-19T12:41:20.815Z</time></trkpt><trkpt lat="44.022835689906856" lon="10.779888022031866"><ele>835.0</ele><time>2026-04-19T12:41:21.815Z</time></trkpt><trkpt lat="44.02268995060722" lon="10.779928975400328"><ele>835.0</ele><time>2026-04-19T12:41:22.815Z</time></trkpt><trkpt lat="44.022521526444415" lon="10.779898673185054"><ele>835.0</ele><time>2026-04-19T12:41:23.815Z</time></trkpt><trkpt lat="44.022368787029194" lon="10.779867066813758"><ele>832.25</ele><time>2026-04-19T12:41:24.815Z</time></trkpt><trkpt lat="44.02221765765528" lon="10.779844359994536"><ele>829.5</ele><time>2026-04-19T12:41:25.815Z</time></trkpt><trkpt lat="44.022094061784685" lon="10.779801954195756"><ele>826.75</ele><time>2026-04-19T12:41:26.815Z</time></trkpt><trkpt lat="44.02197232687087" lon="10.779774674954329"><ele>824.0</ele><time>2026-04-19T12:41:27.815Z</time></trkpt><trkpt lat="44.02188010462821" lon="10.779765032515707"><ele>824.0</ele><time>2026-04-19T12:41:28.815Z</time></trkpt><trkpt lat="44.02180059331702" lon="10.779796738739094"><ele>824.0</ele><time>2026-04-19T12:41:29.815Z</time></trkpt><trkpt lat="44.02173524205474" lon="10.77990890296463"><ele>824.0</ele><time>2026-04-19T12:41:30.815Z</time></trkpt><trkpt lat="44.02170378635819" lon="10.780035554224142"><ele>824.0</ele><time>2026-04-19T12:41:31.815Z</time></trkpt><trkpt lat="44.02167291335475" lon="10.780178778164549"><ele>824.0</ele><time>2026-04-19T12:41:32.815Z</time></trkpt><trkpt lat="44.021618079351526" lon="10.780365649572564"><ele>816.25</ele><time>2026-04-19T12:41:33.815Z</time></trkpt><trkpt lat="44.0215711181765" lon="10.780531964304364"><ele>808.5</ele><time>2026-04-19T12:41:34.815Z</time></trkpt><trkpt lat="44.021542993921756" lon="10.780684356490315"><ele>800.75</ele><time>2026-04-19T12:41:35.815Z</time></trkpt><trkpt lat="44.02154729431705" lon="10.780844256682744"><ele>793.0</ele><time>2026-04-19T12:41:36.815Z</time></trkpt><trkpt lat="44.021577202922735" lon="10.781020354382871"><ele>793.0</ele><time>2026-04-19T12:41:37.815Z</time></trkpt><trkpt lat="44.02162991223049" lon="10.781205148485391"><ele>793.0</ele><time>2026-04-19T12:41:38.815Z</time></trkpt><trkpt lat="44.02166898992001" lon="10.781424214233047"><ele>793.0</ele><time>2026-04-19T12:41:39.815Z</time></trkpt><trkpt lat="44.02169444395736" lon="10.781623877268956"><ele>798.5999999999999</ele><time>2026-04-19T12:41:40.815Z</time></trkpt><trkpt lat="44.02169332956525" lon="10.781782627790234"><ele>804.1999999999999</ele><time>2026-04-19T12:41:41.815Z</time></trkpt><trkpt lat="44.021668510835745" lon="10.781910382898285"><ele>809.8</ele><time>2026-04-19T12:41:42.815Z</time></trkpt><trkpt lat="44.02160506556684" lon="10.782002606904571"><ele>815.4</ele><time>2026-04-19T12:41:43.815Z</time></trkpt><trkpt lat="44.021499517574064" lon="10.782074358016354"><ele>821.0</ele><time>2026-04-19T12:41:44.815Z</time></trkpt><trkpt lat="44.021380230299464" lon="10.782135221481674"><ele>821.0</ele><time>2026-04-19T12:41:45.815Z</time></trkpt><trkpt lat="44.021278128579695" lon="10.782213840144502"><ele>821.0</ele><time>2026-04-19T12:41:46.815Z</time></trkpt><trkpt lat="44.02117323651099" lon="10.782310537936613"><ele>821.0</ele><time>2026-04-19T12:41:47.815Z</time></trkpt><trkpt lat="44.02110349943419" lon="10.782437225940312"><ele>821.0</ele><time>2026-04-19T12:41:48.815Z</time></trkpt><trkpt lat="44.02105138306839" lon="10.782577438764708"><ele>826.5</ele><time>2026-04-19T12:41:49.815Z</time></trkpt><trkpt lat="44.02099715201869" lon="10.782725243065054"><ele>832.0</ele><time>2026-04-19T12:41:50.815Z</time></trkpt><trkpt lat="44.020934213675915" lon="10.78285704778218"><ele>837.5</ele><time>2026-04-19T12:41:51.815Z</time></trkpt><trkpt lat="44.020844369404834" lon="10.782952394456803"><ele>843.0</ele><time>2026-04-19T12:41:52.815Z</time></trkpt><trkpt lat="44.0207745509217" lon="10.783083411273207"><ele>832.8</ele><time>2026-04-19T12:41:53.815Z</time></trkpt><trkpt lat="44.020751216258276" lon="10.78325852508317"><ele>822.5999999999999</ele><time>2026-04-19T12:41:54.815Z</time></trkpt><trkpt lat="44.0207371481263" lon="10.783410859316655"><ele>812.4000000000001</ele><time>2026-04-19T12:41:55.815Z</time></trkpt><trkpt lat="44.02068349264156" lon="10.783540732216958"><ele>802.2</ele><time>2026-04-19T12:41:56.815Z</time></trkpt><trkpt lat="44.020641930477474" lon="10.78366223533582"><ele>792.0</ele><time>2026-04-19T12:41:57.815Z</time></trkpt><trkpt lat="44.02064862823906" lon="10.783794930802927"><ele>792.0</ele><time>2026-04-19T12:41:58.815Z</time></trkpt><trkpt lat="44.020682049708086" lon="10.783932096462626"><ele>792.0</ele><time>2026-04-19T12:41:59.815Z</time></trkpt><trkpt lat="44.020739755513986" lon="10.784021453794317"><ele>792.0</ele><time>2026-04-19T12:42:00.815Z</time></trkpt><trkpt lat="44.02082088939657" lon="10.784062950041708"><ele>792.0</ele><time>2026-04-19T12:42:01.815Z</time></trkpt><trkpt lat="44.02096853586463" lon="10.784086514620919"><ele>792.0</ele><time>2026-04-19T12:42:02.815Z</time></trkpt><trkpt lat="44.021116115087615" lon="10.784090394214358"><ele>799.25</ele><time>2026-04-19T12:42:03.815Z</time></trkpt><trkpt lat="44.02126005773065" lon="10.784115240805042"><ele>806.5</ele><time>2026-04-19T12:42:04.815Z</time></trkpt><trkpt lat="44.02139312282548" lon="10.784184585196401"><ele>813.75</ele><time>2026-04-19T12:42:05.815Z</time></trkpt><trkpt lat="44.02151445719823" lon="10.784312553497335"><ele>821.0</ele><time>2026-04-19T12:42:06.815Z</time></trkpt><trkpt lat="44.02162733814552" lon="10.784448618394403"><ele>830.0</ele><time>2026-04-19T12:42:07.815Z</time></trkpt><trkpt lat="44.02176759619663" lon="10.78455094001795"><ele>839.0</ele><time>2026-04-19T12:42:08.815Z</time></trkpt><trkpt lat="44.02190779582309" lon="10.784624968833231"><ele>848.0</ele><time>2026-04-19T12:42:09.815Z</time></trkpt><trkpt lat="44.02208166232665" lon="10.784648841572823"><ele>848.0</ele><time>2026-04-19T12:42:10.815Z</time></trkpt><trkpt lat="44.022248900761305" lon="10.784649318527954"><ele>848.0</ele><time>2026-04-19T12:42:11.815Z</time></trkpt><trkpt lat="44.022363847238935" lon="10.784691508426231"><ele>848.0</ele><time>2026-04-19T12:42:12.815Z</time></trkpt><trkpt lat="44.02245284101094" lon="10.784771044835194"><ele>848.0</ele><time>2026-04-19T12:42:13.815Z</time></trkpt><trkpt lat="44.02254298866397" lon="10.784884259706006"><ele>852.5</ele><time>2026-04-19T12:42:14.815Z</time></trkpt><trkpt lat="44.02258208836139" lon="10.785049579038079"><ele>857.0</ele><time>2026-04-19T12:42:15.815Z</time></trkpt><trkpt lat="44.022633166539315" lon="10.785253360762852"><ele>861.5</ele><time>2026-04-19T12:42:16.815Z</time></trkpt><trkpt lat="44.02266306254313" lon="10.785464815601083"><ele>866.0</ele><time>2026-04-19T12:42:17.815Z</time></trkpt><trkpt lat="44.022678283628835" lon="10.785678494049044"><ele>866.0</ele><time>2026-04-19T12:42:18.814Z</time></trkpt><trkpt lat="44.02263677178249" lon="10.785876471770878"><ele>866.0</ele><time>2026-04-19T12:42:19.814Z</time></trkpt><trkpt lat="44.02261515977642" lon="10.786079096284826"><ele>866.0</ele><time>2026-04-19T12:42:20.814Z</time></trkpt><trkpt lat="44.02256192167509" lon="10.786260341318593"><ele>866.0</ele><time>2026-04-19T12:42:21.814Z</time></trkpt><trkpt lat="44.02249207651987" lon="10.786433350982298"><ele>867.3333333333334</ele><time>2026-04-19T12:42:22.814Z</time></trkpt><trkpt lat="44.02241046954523" lon="10.786622691474875"><ele>868.6666666666667</ele><time>2026-04-19T12:42:23.815Z</time></trkpt><trkpt lat="44.02233343184908" lon="10.786819989949468"><ele>870.0</ele><time>2026-04-19T12:42:24.814Z</time></trkpt><trkpt lat="44.02228646258677" lon="10.787009845641233"><ele>870.0</ele><time>2026-04-19T12:42:25.814Z</time></trkpt><trkpt lat="44.022273670757336" lon="10.787163683998248"><ele>870.0</ele><time>2026-04-19T12:42:26.815Z</time></trkpt><trkpt lat="44.02229179547202" lon="10.787299855422715"><ele>870.0</ele><time>2026-04-19T12:42:27.815Z</time></trkpt><trkpt lat="44.022354092305186" lon="10.78745110745134"><ele>870.0</ele><time>2026-04-19T12:42:28.815Z</time></trkpt><trkpt lat="44.02239831020142" lon="10.787582751578293"><ele>870.0</ele><time>2026-04-19T12:42:29.814Z</time></trkpt><trkpt lat="44.02242109793046" lon="10.787722819170623"><ele>875.8</ele><time>2026-04-19T12:42:30.814Z</time></trkpt><trkpt lat="44.02238468843983" lon="10.78781433541619"><ele>881.6</ele><time>2026-04-19T12:42:31.814Z</time></trkpt><trkpt lat="44.022263284577434" lon="10.787885486922706"><ele>887.4000000000001</ele><time>2026-04-19T12:42:33.814Z</time></trkpt><trkpt lat="44.02215534343736" lon="10.787866136431562"><ele>893.2</ele><time>2026-04-19T12:42:34.814Z</time></trkpt><trkpt lat="44.022048597383304" lon="10.787857262186526"><ele>899.0</ele><time>2026-04-19T12:42:35.814Z</time></trkpt><trkpt lat="44.021909498575596" lon="10.787874371645385"><ele>899.0</ele><time>2026-04-19T12:42:36.814Z</time></trkpt><trkpt lat="44.0217649265957" lon="10.787830967888524"><ele>899.0</ele><time>2026-04-19T12:42:37.814Z</time></trkpt><trkpt lat="44.02161834999706" lon="10.787844971535456"><ele>899.0</ele><time>2026-04-19T12:42:38.814Z</time></trkpt><trkpt lat="44.02146011892032" lon="10.787871498438292"><ele>896.3333333333334</ele><time>2026-04-19T12:42:39.814Z</time></trkpt><trkpt lat="44.021292425772906" lon="10.787897517162785"><ele>893.6666666666667</ele><time>2026-04-19T12:42:40.814Z</time></trkpt><trkpt lat="44.0211138672994" lon="10.787959325512897"><ele>891.0</ele><time>2026-04-19T12:42:41.814Z</time></trkpt><trkpt lat="44.02094441706506" lon="10.787981762726616"><ele>887.0</ele><time>2026-04-19T12:42:42.814Z</time></trkpt><trkpt lat="44.02079185810215" lon="10.788055623997872"><ele>883.0</ele><time>2026-04-19T12:42:43.814Z</time></trkpt><trkpt lat="44.020642518095606" lon="10.788122824324178"><ele>879.0</ele><time>2026-04-19T12:42:44.814Z</time></trkpt><trkpt lat="44.020519916230704" lon="10.788182935019904"><ele>875.0</ele><time>2026-04-19T12:42:45.814Z</time></trkpt><trkpt lat="44.02040759143914" lon="10.788253265671273"><ele>875.0000000000001</ele><time>2026-04-19T12:42:46.814Z</time></trkpt><trkpt lat="44.020330039304206" lon="10.788302780426427"><ele>875.0</ele><time>2026-04-19T12:42:47.814Z</time></trkpt><trkpt lat="44.02024191830121" lon="10.788366153601887"><ele>875.0</ele><time>2026-04-19T12:42:48.814Z</time></trkpt><trkpt lat="44.02017600294716" lon="10.788439925312344"><ele>875.0</ele><time>2026-04-19T12:42:49.814Z</time></trkpt><trkpt lat="44.02016032620232" lon="10.788547287514024"><ele>875.0000000000001</ele><time>2026-04-19T12:42:50.814Z</time></trkpt><trkpt lat="44.02017805994292" lon="10.78865902181728"><ele>875.0</ele><time>2026-04-19T12:42:51.814Z</time></trkpt><trkpt lat="44.02021560167184" lon="10.788823510667058"><ele>875.5</ele><time>2026-04-19T12:42:52.814Z</time></trkpt><trkpt lat="44.020251911129854" lon="10.789010406157482"><ele>876.0</ele><time>2026-04-19T12:42:53.814Z</time></trkpt><trkpt lat="44.020297465022026" lon="10.789183521545036"><ele>876.5</ele><time>2026-04-19T12:42:54.814Z</time></trkpt><trkpt lat="44.020315761609076" lon="10.789365554883835"><ele>877.0</ele><time>2026-04-19T12:42:55.814Z</time></trkpt><trkpt lat="44.020339719547955" lon="10.789539036956668"><ele>877.0</ele><time>2026-04-19T12:42:56.814Z</time></trkpt><trkpt lat="44.02030501735056" lon="10.789710077194423"><ele>877.0</ele><time>2026-04-19T12:42:57.814Z</time></trkpt><trkpt lat="44.0202614614212" lon="10.789881529069595"><ele>877.0</ele><time>2026-04-19T12:42:58.814Z</time></trkpt><trkpt lat="44.020213079629386" lon="10.790065746836758"><ele>877.0</ele><time>2026-04-19T12:42:59.814Z</time></trkpt><trkpt lat="44.02016092796739" lon="10.790271717406444"><ele>878.6666666666666</ele><time>2026-04-19T12:43:00.814Z</time></trkpt><trkpt lat="44.02012399085633" lon="10.790490262411032"><ele>880.3333333333333</ele><time>2026-04-19T12:43:01.814Z</time></trkpt><trkpt lat="44.02007243696069" lon="10.790696129165228"><ele>882.0</ele><time>2026-04-19T12:43:02.814Z</time></trkpt><trkpt lat="44.020012733664636" lon="10.790885814090691"><ele>882.5</ele><time>2026-04-19T12:43:03.814Z</time></trkpt><trkpt lat="44.01998388793647" lon="10.791064014604327"><ele>883.0</ele><time>2026-04-19T12:43:04.814Z</time></trkpt><trkpt lat="44.0199702784978" lon="10.791260922082165"><ele>883.5</ele><time>2026-04-19T12:43:05.814Z</time></trkpt><trkpt lat="44.01996634123945" lon="10.791471750527151"><ele>884.0</ele><time>2026-04-19T12:43:06.814Z</time></trkpt><trkpt lat="44.01996659813768" lon="10.791664295093309"><ele>884.0</ele><time>2026-04-19T12:43:07.814Z</time></trkpt><trkpt lat="44.019960432366055" lon="10.791813326228091"><ele>884.0000000000001</ele><time>2026-04-19T12:43:08.814Z</time></trkpt><trkpt lat="44.019946762184105" lon="10.791952374351775"><ele>884.0000000000001</ele><time>2026-04-19T12:43:09.814Z</time></trkpt><trkpt lat="44.019917569590426" lon="10.79206380962222"><ele>884.0</ele><time>2026-04-19T12:43:10.814Z</time></trkpt><trkpt lat="44.01987399404709" lon="10.792151627197983"><ele>884.0</ele><time>2026-04-19T12:43:11.814Z</time></trkpt><trkpt lat="44.01975293051173" lon="10.792121665830738"><ele>884.0</ele><time>2026-04-19T12:43:13.814Z</time></trkpt><trkpt lat="44.01960173664568" lon="10.792026166008359"><ele>884.0</ele><time>2026-04-19T12:43:14.814Z</time></trkpt><trkpt lat="44.019508255036904" lon="10.791930029613798"><ele>884.0</ele><time>2026-04-19T12:43:15.814Z</time></trkpt><trkpt lat="44.01939331364912" lon="10.791776815399139"><ele>884.0</ele><time>2026-04-19T12:43:16.814Z</time></trkpt><trkpt lat="44.01927348837849" lon="10.791619953774555"><ele>884.0</ele><time>2026-04-19T12:43:17.814Z</time></trkpt><trkpt lat="44.019162363189466" lon="10.791486928924796"><ele>884.0</ele><time>2026-04-19T12:43:18.814Z</time></trkpt><trkpt lat="44.01904762480796" lon="10.791332259934663"><ele>884.0</ele><time>2026-04-19T12:43:19.814Z</time></trkpt><trkpt lat="44.0189324967754" lon="10.791182519276113"><ele>890.0</ele><time>2026-04-19T12:43:20.814Z</time></trkpt><trkpt lat="44.018839488209004" lon="10.791025689681055"><ele>896.0</ele><time>2026-04-19T12:43:21.814Z</time></trkpt><trkpt lat="44.01877834258903" lon="10.79086061704688"><ele>902.0</ele><time>2026-04-19T12:43:22.813Z</time></trkpt><trkpt lat="44.01873106610995" lon="10.790671609067212"><ele>908.0</ele><time>2026-04-19T12:43:23.813Z</time></trkpt><trkpt lat="44.01868588793158" lon="10.790469681484472"><ele>908.0</ele><time>2026-04-19T12:43:24.813Z</time></trkpt><trkpt lat="44.01865190847796" lon="10.790242346713033"><ele>908.0</ele><time>2026-04-19T12:43:25.813Z</time></trkpt><trkpt lat="44.01864094486176" lon="10.790046702939565"><ele>908.0</ele><time>2026-04-19T12:43:26.813Z</time></trkpt><trkpt lat="44.01864895763486" lon="10.789915125564907"><ele>908.0</ele><time>2026-04-19T12:43:27.813Z</time></trkpt><trkpt lat="44.01860737056249" lon="10.789791281338093"><ele>907.5999999999999</ele><time>2026-04-19T12:43:28.813Z</time></trkpt><trkpt lat="44.01850945316047" lon="10.789663340391703"><ele>907.1999999999999</ele><time>2026-04-19T12:43:29.813Z</time></trkpt><trkpt lat="44.018410104312466" lon="10.789532841332354"><ele>906.8</ele><time>2026-04-19T12:43:30.813Z</time></trkpt><trkpt lat="44.01832647262301" lon="10.789456176983283"><ele>906.4</ele><time>2026-04-19T12:43:31.813Z</time></trkpt><trkpt lat="44.01826199189009" lon="10.789437503945907"><ele>906.0</ele><time>2026-04-19T12:43:32.813Z</time></trkpt><trkpt lat="44.0181733729319" lon="10.789515757234076"><ele>906.0</ele><time>2026-04-19T12:43:33.813Z</time></trkpt><trkpt lat="44.01809243920599" lon="10.789556589337389"><ele>906.0</ele><time>2026-04-19T12:43:34.813Z</time></trkpt><trkpt lat="44.01798961744344" lon="10.789596126577544"><ele>906.0</ele><time>2026-04-19T12:43:35.813Z</time></trkpt><trkpt lat="44.01790083035983" lon="10.789711270229954"><ele>906.0</ele><time>2026-04-19T12:43:36.813Z</time></trkpt><trkpt lat="44.01774439559415" lon="10.789705995116417"><ele>906.0</ele><time>2026-04-19T12:43:37.813Z</time></trkpt><trkpt lat="44.01761984379503" lon="10.78967646222687"><ele>906.0</ele><time>2026-04-19T12:43:38.813Z</time></trkpt><trkpt lat="44.01749915759948" lon="10.789589941823879"><ele>906.0</ele><time>2026-04-19T12:43:39.813Z</time></trkpt><trkpt lat="44.01734675203384" lon="10.789531074620768"><ele>906.0</ele><time>2026-04-19T12:43:40.813Z</time></trkpt><trkpt lat="44.017204412740995" lon="10.789391674411672"><ele>907.0</ele><time>2026-04-19T12:43:41.813Z</time></trkpt><trkpt lat="44.01707726111964" lon="10.789247571862115"><ele>908.0</ele><time>2026-04-19T12:43:42.813Z</time></trkpt><trkpt lat="44.016962097293394" lon="10.789075724073037"><ele>909.0</ele><time>2026-04-19T12:43:43.813Z</time></trkpt><trkpt lat="44.016840722292706" lon="10.788874208570213"><ele>909.0</ele><time>2026-04-19T12:43:44.813Z</time></trkpt><trkpt lat="44.0167135732413" lon="10.788664477792214"><ele>909.0</ele><time>2026-04-19T12:43:45.813Z</time></trkpt><trkpt lat="44.01658865305662" lon="10.788459803372543"><ele>909.0</ele><time>2026-04-19T12:43:46.813Z</time></trkpt><trkpt lat="44.016453046143184" lon="10.788308167874739"><ele>909.75</ele><time>2026-04-19T12:43:47.813Z</time></trkpt><trkpt lat="44.01637471307563" lon="10.78819355385796"><ele>910.5</ele><time>2026-04-19T12:43:48.813Z</time></trkpt><trkpt lat="44.01626212118358" lon="10.788092965845337"><ele>911.25</ele><time>2026-04-19T12:43:49.813Z</time></trkpt><trkpt lat="44.0161616450219" lon="10.788016723393449"><ele>912.0</ele><time>2026-04-19T12:43:50.813Z</time></trkpt><trkpt lat="44.01603371715218" lon="10.787963340588986"><ele>912.0</ele><time>2026-04-19T12:43:51.813Z</time></trkpt><trkpt lat="44.01592656281397" lon="10.787942139249743"><ele>912.0</ele><time>2026-04-19T12:43:52.813Z</time></trkpt><trkpt lat="44.01581725721226" lon="10.78794899459522"><ele>912.0</ele><time>2026-04-19T12:43:53.813Z</time></trkpt><trkpt lat="44.01571033803185" lon="10.787967748348331"><ele>912.0</ele><time>2026-04-19T12:43:54.813Z</time></trkpt><trkpt lat="44.015600869688825" lon="10.78799362663747"><ele>912.0</ele><time>2026-04-19T12:43:55.813Z</time></trkpt><trkpt lat="44.01545479723416" lon="10.787962735514583"><ele>912.2</ele><time>2026-04-19T12:43:56.813Z</time></trkpt><trkpt lat="44.01533722570128" lon="10.787890062192705"><ele>912.4000000000001</ele><time>2026-04-19T12:43:57.813Z</time></trkpt><trkpt lat="44.01524193656596" lon="10.78783166649089"><ele>912.5999999999999</ele><time>2026-04-19T12:43:58.813Z</time></trkpt><trkpt lat="44.015152881688955" lon="10.78783979770383"><ele>912.8</ele><time>2026-04-19T12:43:59.813Z</time></trkpt><trkpt lat="44.015089672383226" lon="10.787840986410503"><ele>913.0</ele><time>2026-04-19T12:44:00.813Z</time></trkpt><trkpt lat="44.0149882815171" lon="10.787934011423463"><ele>908.0</ele><time>2026-04-19T12:44:01.813Z</time></trkpt><trkpt lat="44.014895243818934" lon="10.788118460341579"><ele>903.0</ele><time>2026-04-19T12:44:02.813Z</time></trkpt><trkpt lat="44.01481534627172" lon="10.78825288253886"><ele>898.0</ele><time>2026-04-19T12:44:03.813Z</time></trkpt><trkpt lat="44.01468582885028" lon="10.788309875235045"><ele>893.0</ele><time>2026-04-19T12:44:04.813Z</time></trkpt><trkpt lat="44.01458507700303" lon="10.788288231042365"><ele>893.0</ele><time>2026-04-19T12:44:05.813Z</time></trkpt><trkpt lat="44.014490256287935" lon="10.788294188344485"><ele>893.0</ele><time>2026-04-19T12:44:06.813Z</time></trkpt><trkpt lat="44.01440410198486" lon="10.788327940491468"><ele>893.0</ele><time>2026-04-19T12:44:07.813Z</time></trkpt><trkpt lat="44.01429634978024" lon="10.788442163659376"><ele>893.0</ele><time>2026-04-19T12:44:08.813Z</time></trkpt><trkpt lat="44.01418699060359" lon="10.788584390195924"><ele>888.0</ele><time>2026-04-19T12:44:09.813Z</time></trkpt><trkpt lat="44.01410011105829" lon="10.78875570604153"><ele>883.0</ele><time>2026-04-19T12:44:10.813Z</time></trkpt><trkpt lat="44.014046591694864" lon="10.788917702046634"><ele>878.0</ele><time>2026-04-19T12:44:11.813Z</time></trkpt><trkpt lat="44.014014822064766" lon="10.789094990628909"><ele>873.0</ele><time>2026-04-19T12:44:12.813Z</time></trkpt><trkpt lat="44.01401605263075" lon="10.789267018004114"><ele>876.0</ele><time>2026-04-19T12:44:13.813Z</time></trkpt><trkpt lat="44.01406114149573" lon="10.789419636259058"><ele>879.0</ele><time>2026-04-19T12:44:14.813Z</time></trkpt><trkpt lat="44.01415419493062" lon="10.789585070424135"><ele>882.0</ele><time>2026-04-19T12:44:15.813Z</time></trkpt><trkpt lat="44.014220592139445" lon="10.789736649112442"><ele>885.0</ele><time>2026-04-19T12:44:16.813Z</time></trkpt><trkpt lat="44.01424350375644" lon="10.789890831202777"><ele>887.75</ele><time>2026-04-19T12:44:17.813Z</time></trkpt><trkpt lat="44.014232292607424" lon="10.79007214099958"><ele>890.5</ele><time>2026-04-19T12:44:18.813Z</time></trkpt><trkpt lat="44.014200772947014" lon="10.790268561261607"><ele>893.25</ele><time>2026-04-19T12:44:19.813Z</time></trkpt><trkpt lat="44.014160039795215" lon="10.790483172294653"><ele>896.0</ele><time>2026-04-19T12:44:20.813Z</time></trkpt><trkpt lat="44.01412283392632" lon="10.790703583627609"><ele>896.0</ele><time>2026-04-19T12:44:21.813Z</time></trkpt><trkpt lat="44.014066186044566" lon="10.790916274609451"><ele>896.0</ele><time>2026-04-19T12:44:22.813Z</time></trkpt><trkpt lat="44.013987539908435" lon="10.791105073067175"><ele>896.0</ele><time>2026-04-19T12:44:23.813Z</time></trkpt><trkpt lat="44.013873264476736" lon="10.791265544423347"><ele>902.0</ele><time>2026-04-19T12:44:24.813Z</time></trkpt><trkpt lat="44.01375730710211" lon="10.791397514404787"><ele>908.0</ele><time>2026-04-19T12:44:25.813Z</time></trkpt><trkpt lat="44.013634870321205" lon="10.791527437703868"><ele>914.0</ele><time>2026-04-19T12:44:26.813Z</time></trkpt><trkpt lat="44.01349414334658" lon="10.791677046988184"><ele>915.3333333333334</ele><time>2026-04-19T12:44:27.813Z</time></trkpt><trkpt lat="44.013357961655366" lon="10.791846187043944"><ele>916.6666666666667</ele><time>2026-04-19T12:44:28.813Z</time></trkpt><trkpt lat="44.01321573907765" lon="10.792020343949195"><ele>918.0</ele><time>2026-04-19T12:44:29.813Z</time></trkpt><trkpt lat="44.013064747034996" lon="10.79219430356027"><ele>918.0</ele><time>2026-04-19T12:44:30.813Z</time></trkpt><trkpt lat="44.012926856923514" lon="10.792359233560317"><ele>918.0</ele><time>2026-04-19T12:44:31.813Z</time></trkpt><trkpt lat="44.01279393651236" lon="10.79246989207917"><ele>918.0</ele><time>2026-04-19T12:44:32.813Z</time></trkpt><trkpt lat="44.012688047014265" lon="10.79254424082098"><ele>918.0</ele><time>2026-04-19T12:44:33.813Z</time></trkpt><trkpt lat="44.0125767226291" lon="10.79261922030916"><ele>918.0</ele><time>2026-04-19T12:44:34.813Z</time></trkpt><trkpt lat="44.012457208064305" lon="10.792742039627338"><ele>918.0</ele><time>2026-04-19T12:44:35.813Z</time></trkpt><trkpt lat="44.012387773170744" lon="10.792884508213303"><ele>918.0</ele><time>2026-04-19T12:44:36.813Z</time></trkpt><trkpt lat="44.012349325426804" lon="10.793040263703643"><ele>918.3333333333333</ele><time>2026-04-19T12:44:37.813Z</time></trkpt><trkpt lat="44.012255606958746" lon="10.793223013222487"><ele>918.6666666666666</ele><time>2026-04-19T12:44:38.813Z</time></trkpt><trkpt lat="44.012159046808854" lon="10.793419253798554"><ele>919.0</ele><time>2026-04-19T12:44:39.813Z</time></trkpt><trkpt lat="44.012054572967514" lon="10.793582494352968"><ele>924.3333333333333</ele><time>2026-04-19T12:44:40.813Z</time></trkpt><trkpt lat="44.011924037479815" lon="10.79372875130011"><ele>929.6666666666667</ele><time>2026-04-19T12:44:41.813Z</time></trkpt><trkpt lat="44.0117797827832" lon="10.793847468596281"><ele>935.0</ele><time>2026-04-19T12:44:42.813Z</time></trkpt><trkpt lat="44.01164144243985" lon="10.793922764072219"><ele>935.0</ele><time>2026-04-19T12:44:43.813Z</time></trkpt><trkpt lat="44.01155935617099" lon="10.79402172383075"><ele>935.0</ele><time>2026-04-19T12:44:44.813Z</time></trkpt><trkpt lat="44.0115181856179" lon="10.794154163354065"><ele>935.0</ele><time>2026-04-19T12:44:45.813Z</time></trkpt><trkpt lat="44.011481002930466" lon="10.794311011374301"><ele>935.0</ele><time>2026-04-19T12:44:46.813Z</time></trkpt><trkpt lat="44.01146449378515" lon="10.794487236151753"><ele>937.8</ele><time>2026-04-19T12:44:47.813Z</time></trkpt><trkpt lat="44.01148198569187" lon="10.794630081852914"><ele>940.6</ele><time>2026-04-19T12:44:48.813Z</time></trkpt><trkpt lat="44.0114725118705" lon="10.794742725638224"><ele>943.4000000000001</ele><time>2026-04-19T12:44:49.813Z</time></trkpt><trkpt lat="44.01138463386354" lon="10.794807328130585"><ele>946.2</ele><time>2026-04-19T12:44:51.813Z</time></trkpt><trkpt lat="44.011282011336284" lon="10.794747443841231"><ele>949.0</ele><time>2026-04-19T12:44:52.813Z</time></trkpt><trkpt lat="44.01116045083156" lon="10.794651560018252"><ele>949.0</ele><time>2026-04-19T12:44:53.813Z</time></trkpt><trkpt lat="44.01104911103092" lon="10.794563823272982"><ele>949.0</ele><time>2026-04-19T12:44:54.813Z</time></trkpt><trkpt lat="44.01093277565081" lon="10.794531255226206"><ele>949.0</ele><time>2026-04-19T12:44:55.813Z</time></trkpt><trkpt lat="44.01079263271721" lon="10.794551357806068"><ele>949.0</ele><time>2026-04-19T12:44:56.813Z</time></trkpt><trkpt lat="44.01062539304226" lon="10.794574295796785"><ele>950.0</ele><time>2026-04-19T12:44:57.813Z</time></trkpt><trkpt lat="44.01046769418003" lon="10.794562410288972"><ele>951.0</ele><time>2026-04-19T12:44:58.813Z</time></trkpt><trkpt lat="44.01026724732694" lon="10.794548798071231"><ele>952.0</ele><time>2026-04-19T12:44:59.813Z</time></trkpt><trkpt lat="44.01008056354509" lon="10.79457585911938"><ele>950.0</ele><time>2026-04-19T12:45:00.813Z</time></trkpt><trkpt lat="44.009900384562556" lon="10.794520205939497"><ele>948.0</ele><time>2026-04-19T12:45:01.813Z</time></trkpt><trkpt lat="44.00974124873145" lon="10.794445729249512"><ele>946.0</ele><time>2026-04-19T12:45:02.813Z</time></trkpt><trkpt lat="44.00957407340235" lon="10.794292286725963"><ele>944.25</ele><time>2026-04-19T12:45:03.813Z</time></trkpt><trkpt lat="44.00940718636422" lon="10.794231242952637"><ele>942.5</ele><time>2026-04-19T12:45:04.813Z</time></trkpt><trkpt lat="44.009331564788766" lon="10.794221537150214"><ele>940.75</ele><time>2026-04-19T12:45:05.813Z</time></trkpt><trkpt lat="44.00924667203538" lon="10.794223483461668"><ele>939.0</ele><time>2026-04-19T12:45:06.813Z</time></trkpt><trkpt lat="44.00911971054435" lon="10.794223333088595"><ele>938.4000000000001</ele><time>2026-04-19T12:45:07.813Z</time></trkpt><trkpt lat="44.00897983449714" lon="10.794244374190285"><ele>937.8000000000001</ele><time>2026-04-19T12:45:08.813Z</time></trkpt><trkpt lat="44.008874647231245" lon="10.794273979887915"><ele>937.1999999999999</ele><time>2026-04-19T12:45:09.813Z</time></trkpt><trkpt lat="44.0087808321521" lon="10.794326091330968"><ele>936.5999999999999</ele><time>2026-04-19T12:45:10.813Z</time></trkpt><trkpt lat="44.008743183053596" lon="10.794398907964883"><ele>936.0</ele><time>2026-04-19T12:45:11.813Z</time></trkpt><trkpt lat="44.00873271868476" lon="10.794520106617746"><ele>936.0</ele><time>2026-04-19T12:45:12.813Z</time></trkpt><trkpt lat="44.008750110740564" lon="10.794666232813949"><ele>936.0</ele><time>2026-04-19T12:45:13.813Z</time></trkpt><trkpt lat="44.00880158764389" lon="10.794831291240898"><ele>936.0</ele><time>2026-04-19T12:45:14.813Z</time></trkpt><trkpt lat="44.00887242905115" lon="10.794992626676015"><ele>936.0</ele><time>2026-04-19T12:45:15.813Z</time></trkpt><trkpt lat="44.00896371614155" lon="10.795121951922647"><ele>938.5</ele><time>2026-04-19T12:45:16.813Z</time></trkpt><trkpt lat="44.009050584401834" lon="10.795274872185253"><ele>941.0</ele><time>2026-04-19T12:45:17.813Z</time></trkpt><trkpt lat="44.009074226684874" lon="10.795422806033283"><ele>943.5</ele><time>2026-04-19T12:45:18.813Z</time></trkpt><trkpt lat="44.009073606160726" lon="10.795569462063813"><ele>946.0</ele><time>2026-04-19T12:45:19.813Z</time></trkpt><trkpt lat="44.008995220482824" lon="10.795677524022642"><ele>946.0</ele><time>2026-04-19T12:45:20.813Z</time></trkpt><trkpt lat="44.00893097788695" lon="10.79580218939926"><ele>946.0</ele><time>2026-04-19T12:45:21.813Z</time></trkpt><trkpt lat="44.008857785184325" lon="10.795913849105567"><ele>946.0</ele><time>2026-04-19T12:45:22.813Z</time></trkpt><trkpt lat="44.008736457327075" lon="10.795986166290158"><ele>946.0</ele><time>2026-04-19T12:45:23.813Z</time></trkpt><trkpt lat="44.00858624887824" lon="10.796005803113795"><ele>945.25</ele><time>2026-04-19T12:45:24.813Z</time></trkpt><trkpt lat="44.0084512402926" lon="10.796006744715099"><ele>944.5</ele><time>2026-04-19T12:45:25.813Z</time></trkpt><trkpt lat="44.00833999734928" lon="10.79603698700345"><ele>943.75</ele><time>2026-04-19T12:45:26.813Z</time></trkpt><trkpt lat="44.00824283536847" lon="10.79609351506532"><ele>943.0</ele><time>2026-04-19T12:45:27.813Z</time></trkpt><trkpt lat="44.00815020777848" lon="10.796155479281785"><ele>943.0</ele><time>2026-04-19T12:45:28.813Z</time></trkpt><trkpt lat="44.00808298716973" lon="10.796256045497264"><ele>943.0</ele><time>2026-04-19T12:45:29.813Z</time></trkpt><trkpt lat="44.00803135841708" lon="10.796422193098417"><ele>943.0</ele><time>2026-04-19T12:45:30.813Z</time></trkpt><trkpt lat="44.00801046955373" lon="10.796664250095318"><ele>943.0</ele><time>2026-04-19T12:45:31.813Z</time></trkpt><trkpt lat="44.00802733140436" lon="10.796877955344465"><ele>945.0</ele><time>2026-04-19T12:45:32.813Z</time></trkpt><trkpt lat="44.00801654453175" lon="10.797076882845257"><ele>947.0</ele><time>2026-04-19T12:45:33.813Z</time></trkpt><trkpt lat="44.00799778312632" lon="10.797298120619141"><ele>949.0</ele><time>2026-04-19T12:45:34.813Z</time></trkpt><trkpt lat="44.007996931728435" lon="10.797543921437455"><ele>950.6666666666666</ele><time>2026-04-19T12:45:35.813Z</time></trkpt><trkpt lat="44.007993086781944" lon="10.797760748916684"><ele>952.3333333333333</ele><time>2026-04-19T12:45:36.813Z</time></trkpt><trkpt lat="44.007987140123426" lon="10.79797823801398"><ele>954.0</ele><time>2026-04-19T12:45:37.813Z</time></trkpt><trkpt lat="44.00799596011346" lon="10.798168926735082"><ele>954.0</ele><time>2026-04-19T12:45:38.813Z</time></trkpt><trkpt lat="44.00802069652204" lon="10.798337389359887"><ele>954.0</ele><time>2026-04-19T12:45:39.813Z</time></trkpt><trkpt lat="44.008075011812956" lon="10.798508301206914"><ele>954.0</ele><time>2026-04-19T12:45:40.813Z</time></trkpt><trkpt lat="44.00815222811906" lon="10.798657641780016"><ele>954.0</ele><time>2026-04-19T12:45:41.813Z</time></trkpt><trkpt lat="44.00823350774305" lon="10.79881426160453"><ele>956.5</ele><time>2026-04-19T12:45:42.813Z</time></trkpt><trkpt lat="44.00833134801775" lon="10.798959589470329"><ele>959.0</ele><time>2026-04-19T12:45:43.813Z</time></trkpt><trkpt lat="44.00841760621951" lon="10.799095098287136"><ele>961.5</ele><time>2026-04-19T12:45:44.813Z</time></trkpt><trkpt lat="44.00846165105309" lon="10.799252696057613"><ele>964.0</ele><time>2026-04-19T12:45:45.813Z</time></trkpt><trkpt lat="44.00844902680445" lon="10.79945511058086"><ele>965.0</ele><time>2026-04-19T12:45:46.813Z</time></trkpt><trkpt lat="44.00843492611089" lon="10.799649230492111"><ele>966.0</ele><time>2026-04-19T12:45:47.813Z</time></trkpt><trkpt lat="44.008405726427036" lon="10.79984202863269"><ele>967.0</ele><time>2026-04-19T12:45:48.813Z</time></trkpt><trkpt lat="44.00838033544875" lon="10.800044243252987"><ele>968.0</ele><time>2026-04-19T12:45:49.813Z</time></trkpt><trkpt lat="44.00836228601881" lon="10.800216503663018"><ele>969.4</ele><time>2026-04-19T12:45:50.813Z</time></trkpt><trkpt lat="44.00832981866395" lon="10.80037286066216"><ele>970.8</ele><time>2026-04-19T12:45:51.813Z</time></trkpt><trkpt lat="44.008302164699906" lon="10.800501024853187"><ele>972.2</ele><time>2026-04-19T12:45:52.813Z</time></trkpt><trkpt lat="44.00823626499221" lon="10.800620276376382"><ele>973.6</ele><time>2026-04-19T12:45:53.813Z</time></trkpt><trkpt lat="44.00814706564203" lon="10.800747815328448"><ele>975.0</ele><time>2026-04-19T12:45:54.813Z</time></trkpt><trkpt lat="44.00806003780137" lon="10.800883216421113"><ele>970.0</ele><time>2026-04-19T12:45:55.813Z</time></trkpt><trkpt lat="44.00798493125868" lon="10.801036131713564"><ele>965.0</ele><time>2026-04-19T12:45:56.813Z</time></trkpt><trkpt lat="44.00794536366975" lon="10.801179507198635"><ele>960.0</ele><time>2026-04-19T12:45:57.813Z</time></trkpt><trkpt lat="44.00790949636241" lon="10.801313181241255"><ele>955.0</ele><time>2026-04-19T12:45:58.813Z</time></trkpt><trkpt lat="44.00787648018367" lon="10.801470190249029"><ele>955.0</ele><time>2026-04-19T12:45:59.813Z</time></trkpt><trkpt lat="44.007863152617716" lon="10.80162831163687"><ele>955.0</ele><time>2026-04-19T12:46:00.813Z</time></trkpt><trkpt lat="44.00785234749503" lon="10.801808663784165"><ele>955.0</ele><time>2026-04-19T12:46:01.813Z</time></trkpt><trkpt lat="44.007859990959325" lon="10.801978469903856"><ele>955.0</ele><time>2026-04-19T12:46:02.813Z</time></trkpt><trkpt lat="44.00784650308086" lon="10.802135746912759"><ele>955.0</ele><time>2026-04-19T12:46:03.813Z</time></trkpt><trkpt lat="44.00785027602311" lon="10.802275499537282"><ele>955.0</ele><time>2026-04-19T12:46:04.813Z</time></trkpt><trkpt lat="44.00783599604339" lon="10.802409619745083"><ele>955.0</ele><time>2026-04-19T12:46:05.813Z</time></trkpt><trkpt lat="44.00783068253406" lon="10.802519813307786"><ele>955.0</ele><time>2026-04-19T12:46:06.813Z</time></trkpt><trkpt lat="44.007839471436114" lon="10.80261814476883"><ele>955.0</ele><time>2026-04-19T12:46:07.813Z</time></trkpt><trkpt lat="44.00792120977174" lon="10.802773400027538"><ele>954.2</ele><time>2026-04-19T12:46:09.813Z</time></trkpt><trkpt lat="44.00804598915101" lon="10.80285099660685"><ele>953.4</ele><time>2026-04-19T12:46:10.813Z</time></trkpt><trkpt lat="44.008152835027595" lon="10.80290141112248"><ele>952.5999999999999</ele><time>2026-04-19T12:46:11.813Z</time></trkpt><trkpt lat="44.00825087795392" lon="10.80295648043395"><ele>951.8</ele><time>2026-04-19T12:46:12.813Z</time></trkpt><trkpt lat="44.008295756973034" lon="10.803028815480829"><ele>951.0</ele><time>2026-04-19T12:46:13.813Z</time></trkpt><trkpt lat="44.008291547914695" lon="10.803156277355308"><ele>951.0</ele><time>2026-04-19T12:46:14.813Z</time></trkpt><trkpt lat="44.00828053398533" lon="10.803267681050384"><ele>950.9999999999999</ele><time>2026-04-19T12:46:15.813Z</time></trkpt><trkpt lat="44.00826386800331" lon="10.803396253231107"><ele>950.9999999999999</ele><time>2026-04-19T12:46:16.813Z</time></trkpt><trkpt lat="44.008231919229175" lon="10.803527194788996"><ele>951.0</ele><time>2026-04-19T12:46:17.813Z</time></trkpt><trkpt lat="44.00817812471503" lon="10.803674169147067"><ele>951.0</ele><time>2026-04-19T12:46:18.813Z</time></trkpt><trkpt lat="44.00805704579323" lon="10.803807912970525"><ele>952.25</ele><time>2026-04-19T12:46:19.813Z</time></trkpt><trkpt lat="44.00794606213651" lon="10.803927097542626"><ele>953.5</ele><time>2026-04-19T12:46:20.812Z</time></trkpt><trkpt lat="44.00782751514123" lon="10.803996215420883"><ele>954.75</ele><time>2026-04-19T12:46:21.812Z</time></trkpt><trkpt lat="44.00770626928522" lon="10.804035933559478"><ele>956.0</ele><time>2026-04-19T12:46:22.812Z</time></trkpt><trkpt lat="44.00757917842246" lon="10.80404959583168"><ele>956.0</ele><time>2026-04-19T12:46:23.812Z</time></trkpt><trkpt lat="44.00747906378572" lon="10.804108894948255"><ele>955.9999999999999</ele><time>2026-04-19T12:46:24.812Z</time></trkpt><trkpt lat="44.00738192738553" lon="10.8041504657108"><ele>955.9999999999999</ele><time>2026-04-19T12:46:25.812Z</time></trkpt><trkpt lat="44.00728631494387" lon="10.804166913511526"><ele>956.0</ele><time>2026-04-19T12:46:26.812Z</time></trkpt><trkpt lat="44.007217248243954" lon="10.8042047383704"><ele>956.0</ele><time>2026-04-19T12:46:27.812Z</time></trkpt><trkpt lat="44.00714876465241" lon="10.804209506498646"><ele>956.0</ele><time>2026-04-19T12:46:29.812Z</time></trkpt><trkpt lat="44.007078121795786" lon="10.804291021090794"><ele>955.9999999999999</ele><time>2026-04-19T12:46:34.811Z</time></trkpt><trkpt lat="44.00707802098552" lon="10.804384054479737"><ele>955.9999999999999</ele><time>2026-04-19T12:46:35.812Z</time></trkpt><trkpt lat="44.00699916694763" lon="10.804547308491191"><ele>956.0</ele><time>2026-04-19T12:46:37.811Z</time></trkpt><trkpt lat="44.00690086923873" lon="10.804627924669221"><ele>956.0</ele><time>2026-04-19T12:46:38.811Z</time></trkpt><trkpt lat="44.006833890939774" lon="10.804701765972577"><ele>956.1666666666667</ele><time>2026-04-19T12:46:39.811Z</time></trkpt><trkpt lat="44.006768625068595" lon="10.804797155017084"><ele>956.3333333333334</ele><time>2026-04-19T12:46:40.811Z</time></trkpt><trkpt lat="44.00671366818266" lon="10.804884747635693"><ele>956.5</ele><time>2026-04-19T12:46:41.811Z</time></trkpt><trkpt lat="44.00665483651749" lon="10.804976018018099"><ele>956.6666666666667</ele><time>2026-04-19T12:46:42.811Z</time></trkpt><trkpt lat="44.0066023789026" lon="10.805067456637056"><ele>956.8333333333334</ele><time>2026-04-19T12:46:43.811Z</time></trkpt><trkpt lat="44.006592076348284" lon="10.80519404763909"><ele>957.0</ele><time>2026-04-19T12:46:44.811Z</time></trkpt><trkpt lat="44.00657199796147" lon="10.805308128893495"><ele>961.75</ele><time>2026-04-19T12:46:45.811Z</time></trkpt><trkpt lat="44.006557021335965" lon="10.805427625626097"><ele>966.5</ele><time>2026-04-19T12:46:46.811Z</time></trkpt><trkpt lat="44.00657157540182" lon="10.805626804756479"><ele>971.25</ele><time>2026-04-19T12:46:47.811Z</time></trkpt><trkpt lat="44.00659605184665" lon="10.8058512316697"><ele>976.0</ele><time>2026-04-19T12:46:48.811Z</time></trkpt><trkpt lat="44.006606847947815" lon="10.806076139112564"><ele>976.75</ele><time>2026-04-19T12:46:49.811Z</time></trkpt><trkpt lat="44.006617898407775" lon="10.806293157796246"><ele>977.5</ele><time>2026-04-19T12:46:50.811Z</time></trkpt><trkpt lat="44.00661640562467" lon="10.806465728395407"><ele>978.25</ele><time>2026-04-19T12:46:51.811Z</time></trkpt><trkpt lat="44.006587381738655" lon="10.806593522940274"><ele>979.0</ele><time>2026-04-19T12:46:52.811Z</time></trkpt><trkpt lat="44.0065739866606" lon="10.806703061147518"><ele>979.0</ele><time>2026-04-19T12:46:53.811Z</time></trkpt><trkpt lat="44.00663718183072" lon="10.806805947235"><ele>979.0000000000001</ele><time>2026-04-19T12:46:55.811Z</time></trkpt><trkpt lat="44.00673288689945" lon="10.806755818209018"><ele>979.0000000000001</ele><time>2026-04-19T12:46:57.811Z</time></trkpt><trkpt lat="44.006793398493116" lon="10.806652172279158"><ele>979.0</ele><time>2026-04-19T12:46:58.811Z</time></trkpt><trkpt lat="44.006831593740884" lon="10.806530366024203"><ele>979.0</ele><time>2026-04-19T12:46:59.811Z</time></trkpt><trkpt lat="44.0068466470357" lon="10.806387594836236"><ele>972.5</ele><time>2026-04-19T12:47:00.811Z</time></trkpt><trkpt lat="44.00681447615133" lon="10.806206213936653"><ele>966.0</ele><time>2026-04-19T12:47:01.811Z</time></trkpt><trkpt lat="44.00676493117268" lon="10.80602015285209"><ele>959.5</ele><time>2026-04-19T12:47:02.811Z</time></trkpt><trkpt lat="44.0067723635709" lon="10.805886320410737"><ele>953.0</ele><time>2026-04-19T12:47:03.811Z</time></trkpt><trkpt lat="44.00682399960472" lon="10.805776311914776"><ele>953.0</ele><time>2026-04-19T12:47:04.811Z</time></trkpt><trkpt lat="44.00692161022857" lon="10.805748660175993"><ele>953.0</ele><time>2026-04-19T12:47:05.811Z</time></trkpt><trkpt lat="44.007071610150504" lon="10.805706729575698"><ele>953.0</ele><time>2026-04-19T12:47:06.811Z</time></trkpt><trkpt lat="44.00719978203525" lon="10.805664963111958"><ele>953.0</ele><time>2026-04-19T12:47:07.811Z</time></trkpt><trkpt lat="44.007352890244675" lon="10.805647066067957"><ele>946.6666666666667</ele><time>2026-04-19T12:47:08.811Z</time></trkpt><trkpt lat="44.0075107082466" lon="10.805655039953267"><ele>940.3333333333333</ele><time>2026-04-19T12:47:09.811Z</time></trkpt><trkpt lat="44.007667897572446" lon="10.805649256982568"><ele>934.0</ele><time>2026-04-19T12:47:10.811Z</time></trkpt><trkpt lat="44.0078100895857" lon="10.805591977987913"><ele>934.0</ele><time>2026-04-19T12:47:11.811Z</time></trkpt><trkpt lat="44.00798254730514" lon="10.805493684845754"><ele>934.0</ele><time>2026-04-19T12:47:12.811Z</time></trkpt><trkpt lat="44.0081136697745" lon="10.80541663567373"><ele>934.0</ele><time>2026-04-19T12:47:13.811Z</time></trkpt><trkpt lat="44.00819939343886" lon="10.805360911270068"><ele>934.0</ele><time>2026-04-19T12:47:14.811Z</time></trkpt><trkpt lat="44.00828850578564" lon="10.8053455989084"><ele>933.75</ele><time>2026-04-19T12:47:15.811Z</time></trkpt><trkpt lat="44.008363995097476" lon="10.805414448651751"><ele>933.5</ele><time>2026-04-19T12:47:16.811Z</time></trkpt><trkpt lat="44.008402821598345" lon="10.805538213886624"><ele>933.25</ele><time>2026-04-19T12:47:17.811Z</time></trkpt><trkpt lat="44.00843877001354" lon="10.805699158928599"><ele>933.0</ele><time>2026-04-19T12:47:18.811Z</time></trkpt><trkpt lat="44.00844576815833" lon="10.805922295619267"><ele>930.25</ele><time>2026-04-19T12:47:19.811Z</time></trkpt><trkpt lat="44.00844728280672" lon="10.806147558774205"><ele>927.5</ele><time>2026-04-19T12:47:20.811Z</time></trkpt><trkpt lat="44.008462729052" lon="10.806360331281626"><ele>924.75</ele><time>2026-04-19T12:47:21.811Z</time></trkpt><trkpt lat="44.00851208434741" lon="10.806525252282814"><ele>922.0</ele><time>2026-04-19T12:47:22.811Z</time></trkpt><trkpt lat="44.00860373106912" lon="10.806640412378174"><ele>922.0</ele><time>2026-04-19T12:47:23.811Z</time></trkpt><trkpt lat="44.00871643935654" lon="10.8068169910326"><ele>922.0</ele><time>2026-04-19T12:47:24.811Z</time></trkpt><trkpt lat="44.008851737836984" lon="10.80696857618423"><ele>922.0</ele><time>2026-04-19T12:47:25.811Z</time></trkpt><trkpt lat="44.00899604879209" lon="10.80710797270804"><ele>921.0</ele><time>2026-04-19T12:47:26.811Z</time></trkpt><trkpt lat="44.009129218467145" lon="10.807266826533798"><ele>920.0</ele><time>2026-04-19T12:47:27.811Z</time></trkpt><trkpt lat="44.0092179370243" lon="10.80742618836029"><ele>919.0</ele><time>2026-04-19T12:47:28.811Z</time></trkpt><trkpt lat="44.00926990199277" lon="10.80757296295031"><ele>918.0</ele><time>2026-04-19T12:47:29.811Z</time></trkpt><trkpt lat="44.009323111080086" lon="10.807681116087624"><ele>915.2</ele><time>2026-04-19T12:47:30.811Z</time></trkpt><trkpt lat="44.009371045332" lon="10.807784405535052"><ele>912.4</ele><time>2026-04-19T12:47:31.811Z</time></trkpt><trkpt lat="44.009435227259296" lon="10.807903278825217"><ele>909.6000000000001</ele><time>2026-04-19T12:47:32.811Z</time></trkpt><trkpt lat="44.009523483176466" lon="10.808010782253515"><ele>906.8000000000001</ele><time>2026-04-19T12:47:33.811Z</time></trkpt><trkpt lat="44.00963454012211" lon="10.808092599998517"><ele>904.0</ele><time>2026-04-19T12:47:34.811Z</time></trkpt><trkpt lat="44.0097652576238" lon="10.808118514712438"><ele>904.0</ele><time>2026-04-19T12:47:35.811Z</time></trkpt><trkpt lat="44.00991082538801" lon="10.808135035012542"><ele>904.0</ele><time>2026-04-19T12:47:36.811Z</time></trkpt><trkpt lat="44.01007669121053" lon="10.80813296038885"><ele>904.0</ele><time>2026-04-19T12:47:37.811Z</time></trkpt><trkpt lat="44.0102568087088" lon="10.808122812869078"><ele>906.5</ele><time>2026-04-19T12:47:38.811Z</time></trkpt><trkpt lat="44.010412915519225" lon="10.808137754225518"><ele>909.0</ele><time>2026-04-19T12:47:39.811Z</time></trkpt><trkpt lat="44.010542440926656" lon="10.808152756131085"><ele>911.5</ele><time>2026-04-19T12:47:40.811Z</time></trkpt><trkpt lat="44.01067022181588" lon="10.808151224458237"><ele>914.0</ele><time>2026-04-19T12:47:41.811Z</time></trkpt><trkpt lat="44.010750948406624" lon="10.808174274996796"><ele>915.1666666666667</ele><time>2026-04-19T12:47:42.811Z</time></trkpt><trkpt lat="44.0108403605252" lon="10.808216160222022"><ele>916.3333333333334</ele><time>2026-04-19T12:47:43.811Z</time></trkpt><trkpt lat="44.01089068246234" lon="10.808298456110188"><ele>917.5</ele><time>2026-04-19T12:47:44.811Z</time></trkpt><trkpt lat="44.010909702692715" lon="10.808404989480062"><ele>918.6666666666667</ele><time>2026-04-19T12:47:45.811Z</time></trkpt><trkpt lat="44.010854425673614" lon="10.808491024455552"><ele>919.8333333333334</ele><time>2026-04-19T12:47:46.811Z</time></trkpt><trkpt lat="44.01078709074817" lon="10.808604913764874"><ele>921.0</ele><time>2026-04-19T12:47:47.811Z</time></trkpt><trkpt lat="44.01071430785561" lon="10.808712639467085"><ele>915.5</ele><time>2026-04-19T12:47:48.811Z</time></trkpt><trkpt lat="44.01062775895398" lon="10.80883406171045"><ele>910.0</ele><time>2026-04-19T12:47:49.811Z</time></trkpt><trkpt lat="44.01058508605026" lon="10.808988453900414"><ele>904.5</ele><time>2026-04-19T12:47:50.811Z</time></trkpt><trkpt lat="44.010539117875766" lon="10.809146582409397"><ele>899.0</ele><time>2026-04-19T12:47:51.811Z</time></trkpt><trkpt lat="44.01056488373927" lon="10.809316090560232"><ele>899.75</ele><time>2026-04-19T12:47:52.811Z</time></trkpt><trkpt lat="44.01061964092054" lon="10.809502392228135"><ele>900.5</ele><time>2026-04-19T12:47:53.811Z</time></trkpt><trkpt lat="44.01069204671139" lon="10.80966939535424"><ele>901.25</ele><time>2026-04-19T12:47:54.811Z</time></trkpt><trkpt lat="44.010797485778" lon="10.809817246275108"><ele>902.0</ele><time>2026-04-19T12:47:55.811Z</time></trkpt><trkpt lat="44.01092434166444" lon="10.809924159116836"><ele>902.0</ele><time>2026-04-19T12:47:56.811Z</time></trkpt><trkpt lat="44.011039614705574" lon="10.810003762609877"><ele>902.0</ele><time>2026-04-19T12:47:57.811Z</time></trkpt><trkpt lat="44.01113579086159" lon="10.810064960906798"><ele>902.0</ele><time>2026-04-19T12:47:58.811Z</time></trkpt><trkpt lat="44.0112377748054" lon="10.810114405758755"><ele>902.0</ele><time>2026-04-19T12:47:59.811Z</time></trkpt><trkpt lat="44.01131763365272" lon="10.810185190378784"><ele>902.0</ele><time>2026-04-19T12:48:00.811Z</time></trkpt><trkpt lat="44.01135376931209" lon="10.810289807492756"><ele>901.4000000000001</ele><time>2026-04-19T12:48:01.811Z</time></trkpt><trkpt lat="44.01135491058324" lon="10.810385774844168"><ele>900.8000000000001</ele><time>2026-04-19T12:48:02.811Z</time></trkpt><trkpt lat="44.01130874958093" lon="10.810475777459757"><ele>900.2</ele><time>2026-04-19T12:48:03.811Z</time></trkpt><trkpt lat="44.01123376333948" lon="10.810538362586538"><ele>899.6</ele><time>2026-04-19T12:48:04.81Z</time></trkpt><trkpt lat="44.011079854446145" lon="10.810546463805434"><ele>899.0</ele><time>2026-04-19T12:48:05.809Z</time></trkpt><trkpt lat="44.010965825493884" lon="10.810586480064206"><ele>899.0</ele><time>2026-04-19T12:48:06.808Z</time></trkpt><trkpt lat="44.01087438460432" lon="10.810648875615035"><ele>899.0000000000001</ele><time>2026-04-19T12:48:07.806Z</time></trkpt><trkpt lat="44.01080399762782" lon="10.810724513705456"><ele>899.0000000000001</ele><time>2026-04-19T12:48:08.805Z</time></trkpt><trkpt lat="44.01078673202314" lon="10.810861875143406"><ele>899.0</ele><time>2026-04-19T12:48:09.804Z</time></trkpt><trkpt lat="44.01081804372598" lon="10.811067831285383"><ele>899.0</ele><time>2026-04-19T12:48:10.803Z</time></trkpt><trkpt lat="44.01085892038523" lon="10.811270282562786"><ele>898.3333333333334</ele><time>2026-04-19T12:48:11.802Z</time></trkpt><trkpt lat="44.01091668621491" lon="10.811483083678567"><ele>897.6666666666667</ele><time>2026-04-19T12:48:12.801Z</time></trkpt><trkpt lat="44.01097959926383" lon="10.811716215013622"><ele>897.0</ele><time>2026-04-19T12:48:13.8Z</time></trkpt><trkpt lat="44.01102086978425" lon="10.811911475275714"><ele>895.0</ele><time>2026-04-19T12:48:14.799Z</time></trkpt><trkpt lat="44.01104726324225" lon="10.812071497057815"><ele>893.0</ele><time>2026-04-19T12:48:15.799Z</time></trkpt><trkpt lat="44.011076112321405" lon="10.812217706295566"><ele>891.0</ele><time>2026-04-19T12:48:16.798Z</time></trkpt><trkpt lat="44.01110848289183" lon="10.812342119276758"><ele>889.0</ele><time>2026-04-19T12:48:17.797Z</time></trkpt><trkpt lat="44.011125995497686" lon="10.812468743947377"><ele>887.0</ele><time>2026-04-19T12:48:18.797Z</time></trkpt><trkpt lat="44.01112235391408" lon="10.812594013491703"><ele>886.6</ele><time>2026-04-19T12:48:19.796Z</time></trkpt><trkpt lat="44.011101497150236" lon="10.81271703235104"><ele>886.2</ele><time>2026-04-19T12:48:20.796Z</time></trkpt><trkpt lat="44.01102888378843" lon="10.81279933132549"><ele>885.8</ele><time>2026-04-19T12:48:21.795Z</time></trkpt><trkpt lat="44.01094842445005" lon="10.812853282296663"><ele>885.4</ele><time>2026-04-19T12:48:22.795Z</time></trkpt><trkpt lat="44.0108497511562" lon="10.812849942408786"><ele>885.0</ele><time>2026-04-19T12:48:23.794Z</time></trkpt><trkpt lat="44.01076751415049" lon="10.812780709588392"><ele>882.5</ele><time>2026-04-19T12:48:24.794Z</time></trkpt><trkpt lat="44.01068594524775" lon="10.812662683412753"><ele>880.0</ele><time>2026-04-19T12:48:25.793Z</time></trkpt><trkpt lat="44.01062314192662" lon="10.812503951814772"><ele>877.5</ele><time>2026-04-19T12:48:26.793Z</time></trkpt><trkpt lat="44.01055862530006" lon="10.812325102134137"><ele>875.0</ele><time>2026-04-19T12:48:27.793Z</time></trkpt><trkpt lat="44.01049835676181" lon="10.812143697056852"><ele>875.0</ele><time>2026-04-19T12:48:28.792Z</time></trkpt><trkpt lat="44.01044166705836" lon="10.811981454678286"><ele>875.0</ele><time>2026-04-19T12:48:29.792Z</time></trkpt><trkpt lat="44.01038805999706" lon="10.811847645578183"><ele>875.0</ele><time>2026-04-19T12:48:30.792Z</time></trkpt><trkpt lat="44.01033355845552" lon="10.811756225284398"><ele>875.0</ele><time>2026-04-19T12:48:31.791Z</time></trkpt><trkpt lat="44.01027782223906" lon="10.811714260053737"><ele>875.0</ele><time>2026-04-19T12:48:32.791Z</time></trkpt><trkpt lat="44.01020310938052" lon="10.811711344654901"><ele>875.0</ele><time>2026-04-19T12:48:33.791Z</time></trkpt><trkpt lat="44.010139145176254" lon="10.81175130947486"><ele>875.0</ele><time>2026-04-19T12:48:34.791Z</time></trkpt><trkpt lat="44.010079476437085" lon="10.811956781468387"><ele>875.0</ele><time>2026-04-19T12:48:36.79Z</time></trkpt><trkpt lat="44.01007990338524" lon="10.812158747275305"><ele>875.0</ele><time>2026-04-19T12:48:37.79Z</time></trkpt><trkpt lat="44.01008210683185" lon="10.81236955916392"><ele>875.0</ele><time>2026-04-19T12:48:38.789Z</time></trkpt><trkpt lat="44.010079591190475" lon="10.812577342084028"><ele>875.0</ele><time>2026-04-19T12:48:39.79Z</time></trkpt><trkpt lat="44.01003655660454" lon="10.812757284792848"><ele>875.0</ele><time>2026-04-19T12:48:40.79Z</time></trkpt><trkpt lat="44.00995334478479" lon="10.812893545917497"><ele>875.0</ele><time>2026-04-19T12:48:41.789Z</time></trkpt><trkpt lat="44.00987098050322" lon="10.813011114175573"><ele>871.75</ele><time>2026-04-19T12:48:42.789Z</time></trkpt><trkpt lat="44.00982992805226" lon="10.813147180495648"><ele>868.5</ele><time>2026-04-19T12:48:43.789Z</time></trkpt><trkpt lat="44.00982896239494" lon="10.813299769858924"><ele>865.25</ele><time>2026-04-19T12:48:44.789Z</time></trkpt><trkpt lat="44.00986616156728" lon="10.8134850873777"><ele>862.0</ele><time>2026-04-19T12:48:45.788Z</time></trkpt><trkpt lat="44.00993006156112" lon="10.813657219462325"><ele>862.0</ele><time>2026-04-19T12:48:46.788Z</time></trkpt><trkpt lat="44.010023700524734" lon="10.81380456515449"><ele>862.0</ele><time>2026-04-19T12:48:47.788Z</time></trkpt><trkpt lat="44.0101234424219" lon="10.813939908969562"><ele>862.0</ele><time>2026-04-19T12:48:48.788Z</time></trkpt><trkpt lat="44.01025532060994" lon="10.814081088453566"><ele>862.0</ele><time>2026-04-19T12:48:49.787Z</time></trkpt><trkpt lat="44.010377419356516" lon="10.814271155150438"><ele>859.25</ele><time>2026-04-19T12:48:50.787Z</time></trkpt><trkpt lat="44.010487045458795" lon="10.81443746066852"><ele>856.5</ele><time>2026-04-19T12:48:51.787Z</time></trkpt><trkpt lat="44.01059125472706" lon="10.814563592621017"><ele>853.75</ele><time>2026-04-19T12:48:52.787Z</time></trkpt><trkpt lat="44.010679392703196" lon="10.81468370168603"><ele>851.0</ele><time>2026-04-19T12:48:53.787Z</time></trkpt><trkpt lat="44.010733576948795" lon="10.814817905394346"><ele>851.0</ele><time>2026-04-19T12:48:54.787Z</time></trkpt><trkpt lat="44.01074922887199" lon="10.814967089418912"><ele>851.0</ele><time>2026-04-19T12:48:55.787Z</time></trkpt><trkpt lat="44.010742499985504" lon="10.815118938873537"><ele>851.0</ele><time>2026-04-19T12:48:56.787Z</time></trkpt><trkpt lat="44.010668029928716" lon="10.815255618183302"><ele>851.0</ele><time>2026-04-19T12:48:57.787Z</time></trkpt><trkpt lat="44.01057399645673" lon="10.81539848126675"><ele>850.1999999999999</ele><time>2026-04-19T12:48:58.787Z</time></trkpt><trkpt lat="44.01045652997678" lon="10.815537844469043"><ele>849.4</ele><time>2026-04-19T12:48:59.787Z</time></trkpt><trkpt lat="44.01037836908205" lon="10.815672033826154"><ele>848.6</ele><time>2026-04-19T12:49:00.787Z</time></trkpt><trkpt lat="44.010324464277694" lon="10.815770066298299"><ele>847.8</ele><time>2026-04-19T12:49:01.787Z</time></trkpt><trkpt lat="44.01029232806307" lon="10.815863701562794"><ele>847.0</ele><time>2026-04-19T12:49:02.787Z</time></trkpt><trkpt lat="44.01030127530937" lon="10.815985963602298"><ele>843.5</ele><time>2026-04-19T12:49:03.787Z</time></trkpt><trkpt lat="44.01037245762695" lon="10.816104176593008"><ele>840.0</ele><time>2026-04-19T12:49:04.787Z</time></trkpt><trkpt lat="44.010487502020176" lon="10.816184106674951"><ele>836.5</ele><time>2026-04-19T12:49:05.787Z</time></trkpt><trkpt lat="44.01061655882119" lon="10.816275063000834"><ele>833.0</ele><time>2026-04-19T12:49:06.786Z</time></trkpt><trkpt lat="44.01069799863361" lon="10.816388443926755"><ele>833.0</ele><time>2026-04-19T12:49:07.786Z</time></trkpt><trkpt lat="44.010727260878255" lon="10.816537322584091"><ele>833.0</ele><time>2026-04-19T12:49:08.786Z</time></trkpt><trkpt lat="44.01070824014861" lon="10.816705384261624"><ele>833.0</ele><time>2026-04-19T12:49:09.786Z</time></trkpt><trkpt lat="44.01065123459948" lon="10.816887676439597"><ele>833.0</ele><time>2026-04-19T12:49:10.786Z</time></trkpt><trkpt lat="44.01059355947006" lon="10.817077461638995"><ele>830.3333333333334</ele><time>2026-04-19T12:49:11.786Z</time></trkpt><trkpt lat="44.010561877607685" lon="10.817290813305434"><ele>827.6666666666667</ele><time>2026-04-19T12:49:12.786Z</time></trkpt><trkpt lat="44.01054672883494" lon="10.81751723401354"><ele>825.0</ele><time>2026-04-19T12:49:13.786Z</time></trkpt><trkpt lat="44.010538094173015" lon="10.817720799480618"><ele>824.0</ele><time>2026-04-19T12:49:14.786Z</time></trkpt><trkpt lat="44.01055004868681" lon="10.817875029832521"><ele>823.0</ele><time>2026-04-19T12:49:15.786Z</time></trkpt><trkpt lat="44.01057511437613" lon="10.818009904296625"><ele>822.0</ele><time>2026-04-19T12:49:16.786Z</time></trkpt><trkpt lat="44.01065647650467" lon="10.818140754173287"><ele>821.0</ele><time>2026-04-19T12:49:17.786Z</time></trkpt><trkpt lat="44.01073309198428" lon="10.818274377915946"><ele>821.3333333333334</ele><time>2026-04-19T12:49:18.786Z</time></trkpt><trkpt lat="44.010859135046104" lon="10.818420359384753"><ele>821.6666666666667</ele><time>2026-04-19T12:49:19.786Z</time></trkpt><trkpt lat="44.01099576291247" lon="10.818555212386538"><ele>822.0</ele><time>2026-04-19T12:49:20.786Z</time></trkpt><trkpt lat="44.01113906272766" lon="10.818714426292464"><ele>822.0</ele><time>2026-04-19T12:49:21.786Z</time></trkpt><trkpt lat="44.011245988363626" lon="10.818870914204608"><ele>822.0</ele><time>2026-04-19T12:49:22.786Z</time></trkpt><trkpt lat="44.01133416030683" lon="10.819004496383897"><ele>822.0</ele><time>2026-04-19T12:49:23.786Z</time></trkpt><trkpt lat="44.011438271271594" lon="10.819111277119209"><ele>822.0</ele><time>2026-04-19T12:49:24.786Z</time></trkpt><trkpt lat="44.01150738123524" lon="10.81922405726184"><ele>820.6</ele><time>2026-04-19T12:49:25.786Z</time></trkpt><trkpt lat="44.011567724062694" lon="10.81934547870966"><ele>819.2</ele><time>2026-04-19T12:49:26.786Z</time></trkpt><trkpt lat="44.011598863223156" lon="10.81947561558533"><ele>817.8</ele><time>2026-04-19T12:49:27.786Z</time></trkpt><trkpt lat="44.01159987042343" lon="10.819597836003846"><ele>816.4</ele><time>2026-04-19T12:49:28.786Z</time></trkpt><trkpt lat="44.01152720943744" lon="10.81970889159314"><ele>815.0</ele><time>2026-04-19T12:49:29.786Z</time></trkpt><trkpt lat="44.01147102130213" lon="10.819814963055938"><ele>815.0</ele><time>2026-04-19T12:49:30.786Z</time></trkpt><trkpt lat="44.011371865451004" lon="10.819912690047138"><ele>815.0</ele><time>2026-04-19T12:49:31.786Z</time></trkpt><trkpt lat="44.01131013414312" lon="10.820035188399624"><ele>815.0</ele><time>2026-04-19T12:49:32.786Z</time></trkpt><trkpt lat="44.01132627334436" lon="10.82020249520757"><ele>815.0</ele><time>2026-04-19T12:49:33.786Z</time></trkpt><trkpt lat="44.01138879137124" lon="10.82037355612011"><ele>814.4</ele><time>2026-04-19T12:49:34.786Z</time></trkpt><trkpt lat="44.01145550654431" lon="10.820532546417924"><ele>813.8</ele><time>2026-04-19T12:49:35.786Z</time></trkpt><trkpt lat="44.01150010006182" lon="10.82068032459025"><ele>813.2</ele><time>2026-04-19T12:49:36.786Z</time></trkpt><trkpt lat="44.01153759982797" lon="10.820778955434724"><ele>812.6</ele><time>2026-04-19T12:49:37.786Z</time></trkpt><trkpt lat="44.01155897668648" lon="10.820873130431943"><ele>812.0</ele><time>2026-04-19T12:49:38.786Z</time></trkpt><trkpt lat="44.011443994957055" lon="10.820946483412412"><ele>811.2</ele><time>2026-04-19T12:49:39.786Z</time></trkpt><trkpt lat="44.01133326847975" lon="10.82099128009273"><ele>810.4000000000001</ele><time>2026-04-19T12:49:40.786Z</time></trkpt><trkpt lat="44.01121773765436" lon="10.821015220456534"><ele>809.5999999999999</ele><time>2026-04-19T12:49:41.786Z</time></trkpt><trkpt lat="44.01108906781172" lon="10.82104279688659"><ele>808.8</ele><time>2026-04-19T12:49:42.786Z</time></trkpt><trkpt lat="44.01101315217451" lon="10.821092533206373"><ele>808.0</ele><time>2026-04-19T12:49:43.786Z</time></trkpt><trkpt lat="44.010956908721845" lon="10.821156703880158"><ele>808.0</ele><time>2026-04-19T12:49:44.786Z</time></trkpt><trkpt lat="44.01091594248449" lon="10.821267028323701"><ele>808.0</ele><time>2026-04-19T12:49:45.786Z</time></trkpt><trkpt lat="44.01094400488629" lon="10.821401435552994"><ele>808.0</ele><time>2026-04-19T12:49:46.786Z</time></trkpt><trkpt lat="44.01098387009371" lon="10.821556608436275"><ele>808.0</ele><time>2026-04-19T12:49:47.786Z</time></trkpt><trkpt lat="44.01102322862273" lon="10.821708475337026"><ele>808.0</ele><time>2026-04-19T12:49:48.786Z</time></trkpt><trkpt lat="44.01104243897097" lon="10.821858320867497"><ele>806.8</ele><time>2026-04-19T12:49:49.786Z</time></trkpt><trkpt lat="44.01098777845442" lon="10.821989886262621"><ele>805.5999999999999</ele><time>2026-04-19T12:49:50.786Z</time></trkpt><trkpt lat="44.0109092578624" lon="10.822083052184267"><ele>804.4000000000001</ele><time>2026-04-19T12:49:51.786Z</time></trkpt><trkpt lat="44.0108182569243" lon="10.822097498709013"><ele>803.2</ele><time>2026-04-19T12:49:52.786Z</time></trkpt><trkpt lat="44.01074754658107" lon="10.822014267992454"><ele>802.0</ele><time>2026-04-19T12:49:53.786Z</time></trkpt><trkpt lat="44.01070265024581" lon="10.82187465258614"><ele>799.25</ele><time>2026-04-19T12:49:54.786Z</time></trkpt><trkpt lat="44.01068206406014" lon="10.821686907352138"><ele>796.5</ele><time>2026-04-19T12:49:55.786Z</time></trkpt><trkpt lat="44.01067052403105" lon="10.821489928301581"><ele>793.75</ele><time>2026-04-19T12:49:56.786Z</time></trkpt><trkpt lat="44.01065260693983" lon="10.821286244751164"><ele>791.0</ele><time>2026-04-19T12:49:57.786Z</time></trkpt><trkpt lat="44.01063143338442" lon="10.821102166785849"><ele>792.25</ele><time>2026-04-19T12:49:58.786Z</time></trkpt><trkpt lat="44.010587771343644" lon="10.820943801970376"><ele>793.5</ele><time>2026-04-19T12:49:59.786Z</time></trkpt><trkpt lat="44.010528464720075" lon="10.820803997000668"><ele>794.75</ele><time>2026-04-19T12:50:00.786Z</time></trkpt><trkpt lat="44.01044451133256" lon="10.820678898614045"><ele>796.0</ele><time>2026-04-19T12:50:01.785Z</time></trkpt><trkpt lat="44.010363336898756" lon="10.820564796179365"><ele>795.9999999999999</ele><time>2026-04-19T12:50:02.785Z</time></trkpt><trkpt lat="44.0103050989411" lon="10.82045491449778"><ele>796.0</ele><time>2026-04-19T12:50:03.785Z</time></trkpt><trkpt lat="44.010265121304535" lon="10.820351072735265"><ele>796.0</ele><time>2026-04-19T12:50:04.785Z</time></trkpt><trkpt lat="44.010201447176996" lon="10.820304870178685"><ele>796.0</ele><time>2026-04-19T12:50:05.785Z</time></trkpt><trkpt lat="44.010124013239675" lon="10.820319220900911"><ele>795.9999999999999</ele><time>2026-04-19T12:50:06.785Z</time></trkpt><trkpt lat="44.01004553424196" lon="10.820383926345013"><ele>796.0</ele><time>2026-04-19T12:50:07.785Z</time></trkpt><trkpt lat="44.01003033230752" lon="10.820494691643614"><ele>796.0</ele><time>2026-04-19T12:50:08.785Z</time></trkpt><trkpt lat="44.010042751308724" lon="10.820623367969134"><ele>796.0</ele><time>2026-04-19T12:50:09.785Z</time></trkpt><trkpt lat="44.01009096860186" lon="10.820815195107798"><ele>796.0</ele><time>2026-04-19T12:50:10.785Z</time></trkpt><trkpt lat="44.01014937567887" lon="10.821022434549665"><ele>796.0</ele><time>2026-04-19T12:50:11.785Z</time></trkpt><trkpt lat="44.010186940460194" lon="10.821251496735577"><ele>794.3333333333333</ele><time>2026-04-19T12:50:12.785Z</time></trkpt><trkpt lat="44.010179737935495" lon="10.82148062805311"><ele>792.6666666666667</ele><time>2026-04-19T12:50:13.785Z</time></trkpt><trkpt lat="44.0101361038898" lon="10.821717124656145"><ele>791.0</ele><time>2026-04-19T12:50:14.785Z</time></trkpt><trkpt lat="44.01011998806628" lon="10.821946947731043"><ele>791.0</ele><time>2026-04-19T12:50:15.785Z</time></trkpt><trkpt lat="44.01008499970666" lon="10.822145983719352"><ele>791.0</ele><time>2026-04-19T12:50:16.785Z</time></trkpt><trkpt lat="44.01002841396187" lon="10.822325174787453"><ele>791.0</ele><time>2026-04-19T12:50:17.785Z</time></trkpt><trkpt lat="44.009987600730426" lon="10.822474970890148"><ele>791.0</ele><time>2026-04-19T12:50:18.785Z</time></trkpt><trkpt lat="44.00996813479462" lon="10.822627414645186"><ele>790.0</ele><time>2026-04-19T12:50:19.785Z</time></trkpt><trkpt lat="44.0099851471883" lon="10.822823288362525"><ele>789.0</ele><time>2026-04-19T12:50:20.785Z</time></trkpt><trkpt lat="44.01001955655746" lon="10.823021150404031"><ele>788.0</ele><time>2026-04-19T12:50:21.785Z</time></trkpt><trkpt lat="44.010054626088625" lon="10.823229177115135"><ele>787.0</ele><time>2026-04-19T12:50:22.785Z</time></trkpt><trkpt lat="44.010044356891875" lon="10.823419648151019"><ele>785.5</ele><time>2026-04-19T12:50:23.785Z</time></trkpt><trkpt lat="44.01001657542405" lon="10.823620948156924"><ele>784.0</ele><time>2026-04-19T12:50:24.785Z</time></trkpt><trkpt lat="44.00996750154742" lon="10.823804424378629"><ele>782.5</ele><time>2026-04-19T12:50:25.785Z</time></trkpt><trkpt lat="44.00993908418685" lon="10.823939794871686"><ele>781.0</ele><time>2026-04-19T12:50:26.785Z</time></trkpt><trkpt lat="44.00990874006941" lon="10.824050844660492"><ele>781.0</ele><time>2026-04-19T12:50:27.785Z</time></trkpt><trkpt lat="44.00992400731467" lon="10.824168303419349"><ele>781.0</ele><time>2026-04-19T12:50:28.785Z</time></trkpt><trkpt lat="44.00997029265091" lon="10.824261701725932"><ele>781.0</ele><time>2026-04-19T12:50:29.785Z</time></trkpt><trkpt lat="44.01004358426274" lon="10.824327811441934"><ele>781.0</ele><time>2026-04-19T12:50:30.785Z</time></trkpt><trkpt lat="44.01013302535374" lon="10.824317954182293"><ele>781.0</ele><time>2026-04-19T12:50:31.785Z</time></trkpt><trkpt lat="44.01026587886746" lon="10.82425650034769"><ele>781.0</ele><time>2026-04-19T12:50:32.785Z</time></trkpt><trkpt lat="44.01039595343799" lon="10.824192304658986"><ele>781.0</ele><time>2026-04-19T12:50:33.785Z</time></trkpt><trkpt lat="44.010511131500735" lon="10.824117206122601"><ele>781.0</ele><time>2026-04-19T12:50:34.785Z</time></trkpt><trkpt lat="44.0106078383473" lon="10.824155143667333"><ele>781.0</ele><time>2026-04-19T12:50:35.785Z</time></trkpt><trkpt lat="44.01069467817459" lon="10.824269314058078"><ele>778.6666666666666</ele><time>2026-04-19T12:50:36.785Z</time></trkpt><trkpt lat="44.01073945358174" lon="10.82446727477765"><ele>776.3333333333333</ele><time>2026-04-19T12:50:37.785Z</time></trkpt><trkpt lat="44.010769192554946" lon="10.824695910505714"><ele>774.0</ele><time>2026-04-19T12:50:38.785Z</time></trkpt><trkpt lat="44.010789530331365" lon="10.824933618082442"><ele>773.25</ele><time>2026-04-19T12:50:39.785Z</time></trkpt><trkpt lat="44.010811036493756" lon="10.825150017482517"><ele>772.5</ele><time>2026-04-19T12:50:40.785Z</time></trkpt><trkpt lat="44.01084396535421" lon="10.825328841781193"><ele>771.75</ele><time>2026-04-19T12:50:41.785Z</time></trkpt><trkpt lat="44.01086872326378" lon="10.825488600463194"><ele>771.0</ele><time>2026-04-19T12:50:42.785Z</time></trkpt><trkpt lat="44.01087427223554" lon="10.825649131308928"><ele>771.0</ele><time>2026-04-19T12:50:43.785Z</time></trkpt><trkpt lat="44.01083861401694" lon="10.82580514757372"><ele>771.0</ele><time>2026-04-19T12:50:44.785Z</time></trkpt><trkpt lat="44.01077608757034" lon="10.825954084985353"><ele>771.0</ele><time>2026-04-19T12:50:45.785Z</time></trkpt><trkpt lat="44.01066616694393" lon="10.826102871715035"><ele>771.0</ele><time>2026-04-19T12:50:46.785Z</time></trkpt><trkpt lat="44.01049340224051" lon="10.826253508817302"><ele>770.0</ele><time>2026-04-19T12:50:47.785Z</time></trkpt><trkpt lat="44.01034532504942" lon="10.826383018366926"><ele>769.0</ele><time>2026-04-19T12:50:48.785Z</time></trkpt><trkpt lat="44.010174569532985" lon="10.82649373089752"><ele>768.0</ele><time>2026-04-19T12:50:49.785Z</time></trkpt><trkpt lat="44.01003268583504" lon="10.826579031022703"><ele>767.25</ele><time>2026-04-19T12:50:50.785Z</time></trkpt><trkpt lat="44.00991097826731" lon="10.826673846520988"><ele>766.5</ele><time>2026-04-19T12:50:51.785Z</time></trkpt><trkpt lat="44.00985608740587" lon="10.826794720098626"><ele>765.75</ele><time>2026-04-19T12:50:52.785Z</time></trkpt><trkpt lat="44.009808417820956" lon="10.826969768653738"><ele>765.0</ele><time>2026-04-19T12:50:53.784Z</time></trkpt><trkpt lat="44.009771854813486" lon="10.827141942455466"><ele>763.75</ele><time>2026-04-19T12:50:54.785Z</time></trkpt><trkpt lat="44.00976137507475" lon="10.827316178582809"><ele>762.5</ele><time>2026-04-19T12:50:55.785Z</time></trkpt><trkpt lat="44.00977395423535" lon="10.827494579641728"><ele>761.25</ele><time>2026-04-19T12:50:56.785Z</time></trkpt><trkpt lat="44.00980776887379" lon="10.827693594237507"><ele>760.0</ele><time>2026-04-19T12:50:57.785Z</time></trkpt><trkpt lat="44.00988246867462" lon="10.827930017460998"><ele>760.6666666666667</ele><time>2026-04-19T12:50:58.785Z</time></trkpt><trkpt lat="44.009944103520446" lon="10.828154809858255"><ele>761.3333333333334</ele><time>2026-04-19T12:50:59.785Z</time></trkpt><trkpt lat="44.009995373485836" lon="10.82839205933586"><ele>762.0</ele><time>2026-04-19T12:51:00.785Z</time></trkpt><trkpt lat="44.01001975280096" lon="10.828615597946085"><ele>762.0</ele><time>2026-04-19T12:51:01.785Z</time></trkpt><trkpt lat="44.0100121115263" lon="10.828856147443553"><ele>762.0</ele><time>2026-04-19T12:51:02.785Z</time></trkpt><trkpt lat="44.00999610474099" lon="10.829102429036615"><ele>762.0</ele><time>2026-04-19T12:51:03.785Z</time></trkpt><trkpt lat="44.009943867909534" lon="10.829352586398537"><ele>761.0</ele><time>2026-04-19T12:51:04.785Z</time></trkpt><trkpt lat="44.00990224158624" lon="10.82961739699679"><ele>760.0</ele><time>2026-04-19T12:51:05.785Z</time></trkpt><trkpt lat="44.00986351107881" lon="10.829874272946556"><ele>759.0</ele><time>2026-04-19T12:51:06.785Z</time></trkpt><trkpt lat="44.00984050950097" lon="10.830106267987938"><ele>759.0</ele><time>2026-04-19T12:51:07.785Z</time></trkpt><trkpt lat="44.00983402296207" lon="10.83032304932693"><ele>759.0</ele><time>2026-04-19T12:51:08.785Z</time></trkpt><trkpt lat="44.00983871807141" lon="10.830530731028315"><ele>759.0</ele><time>2026-04-19T12:51:09.785Z</time></trkpt><trkpt lat="44.00978702653648" lon="10.830751374730395"><ele>757.3333333333334</ele><time>2026-04-19T12:51:10.785Z</time></trkpt><trkpt lat="44.009709687811466" lon="10.830980157688083"><ele>755.6666666666667</ele><time>2026-04-19T12:51:11.784Z</time></trkpt><trkpt lat="44.009620939745346" lon="10.831203343824102"><ele>754.0</ele><time>2026-04-19T12:51:12.784Z</time></trkpt><trkpt lat="44.00953016141899" lon="10.831415941588755"><ele>754.0</ele><time>2026-04-19T12:51:13.784Z</time></trkpt><trkpt lat="44.00945739399177" lon="10.831619516270571"><ele>754.0</ele><time>2026-04-19T12:51:14.784Z</time></trkpt><trkpt lat="44.00933941545367" lon="10.831783818890678"><ele>754.0</ele><time>2026-04-19T12:51:15.784Z</time></trkpt><trkpt lat="44.009183801278546" lon="10.83189755736751"><ele>756.3333333333334</ele><time>2026-04-19T12:51:16.784Z</time></trkpt><trkpt lat="44.0090478687755" lon="10.83202272911325"><ele>758.6666666666666</ele><time>2026-04-19T12:51:17.784Z</time></trkpt><trkpt lat="44.008935055460476" lon="10.832152205051637"><ele>761.0</ele><time>2026-04-19T12:51:18.784Z</time></trkpt><trkpt lat="44.00884398844244" lon="10.832331605311026"><ele>761.0</ele><time>2026-04-19T12:51:19.784Z</time></trkpt><trkpt lat="44.00877075616558" lon="10.832540729410413"><ele>761.0</ele><time>2026-04-19T12:51:20.784Z</time></trkpt><trkpt lat="44.00872220807434" lon="10.83274010967547"><ele>761.0</ele><time>2026-04-19T12:51:21.784Z</time></trkpt><trkpt lat="44.00869028338637" lon="10.832914826223119"><ele>761.0</ele><time>2026-04-19T12:51:22.784Z</time></trkpt><trkpt lat="44.008650696950184" lon="10.833067755542867"><ele>757.75</ele><time>2026-04-19T12:51:23.784Z</time></trkpt><trkpt lat="44.0086132397177" lon="10.833211954138111"><ele>754.5</ele><time>2026-04-19T12:51:24.784Z</time></trkpt><trkpt lat="44.00853618088471" lon="10.833343609264432"><ele>751.25</ele><time>2026-04-19T12:51:25.784Z</time></trkpt><trkpt lat="44.00843042891978" lon="10.83346432801129"><ele>748.0</ele><time>2026-04-19T12:51:26.784Z</time></trkpt><trkpt lat="44.008306327533276" lon="10.833601203917924"><ele>748.0</ele><time>2026-04-19T12:51:27.784Z</time></trkpt><trkpt lat="44.008167538587486" lon="10.833729119612679"><ele>748.0</ele><time>2026-04-19T12:51:28.784Z</time></trkpt><trkpt lat="44.0080388787317" lon="10.833841255929617"><ele>748.0</ele><time>2026-04-19T12:51:29.784Z</time></trkpt><trkpt lat="44.00791612100712" lon="10.833924601214909"><ele>748.0</ele><time>2026-04-19T12:51:30.784Z</time></trkpt><trkpt lat="44.00779392326262" lon="10.833999376472342"><ele>748.0</ele><time>2026-04-19T12:51:31.784Z</time></trkpt><trkpt lat="44.00767643261603" lon="10.834074826415241"><ele>748.0</ele><time>2026-04-19T12:51:32.784Z</time></trkpt><trkpt lat="44.007553447834205" lon="10.83415310683054"><ele>748.0</ele><time>2026-04-19T12:51:33.784Z</time></trkpt><trkpt lat="44.00744893887269" lon="10.83423569536301"><ele>747.25</ele><time>2026-04-19T12:51:34.784Z</time></trkpt><trkpt lat="44.007330544708005" lon="10.834322390961251"><ele>746.5</ele><time>2026-04-19T12:51:35.784Z</time></trkpt><trkpt lat="44.00722751450232" lon="10.83438980243177"><ele>745.75</ele><time>2026-04-19T12:51:36.784Z</time></trkpt><trkpt lat="44.00714173293989" lon="10.834479382080563"><ele>745.0</ele><time>2026-04-19T12:51:37.784Z</time></trkpt><trkpt lat="44.00705204007296" lon="10.834561491697636"><ele>745.0</ele><time>2026-04-19T12:51:38.784Z</time></trkpt><trkpt lat="44.006960976417446" lon="10.834639119374216"><ele>745.0</ele><time>2026-04-19T12:51:39.784Z</time></trkpt><trkpt lat="44.006856588573214" lon="10.834726828617004"><ele>745.0</ele><time>2026-04-19T12:51:40.784Z</time></trkpt><trkpt lat="44.00675387473692" lon="10.834788035302804"><ele>745.0</ele><time>2026-04-19T12:51:41.784Z</time></trkpt><trkpt lat="44.00664199264426" lon="10.834841884408407"><ele>744.5</ele><time>2026-04-19T12:51:42.784Z</time></trkpt><trkpt lat="44.006528737381885" lon="10.83489681281946"><ele>744.0</ele><time>2026-04-19T12:51:43.784Z</time></trkpt><trkpt lat="44.00640997901457" lon="10.834966635717437"><ele>743.5</ele><time>2026-04-19T12:51:44.784Z</time></trkpt><trkpt lat="44.00628473487151" lon="10.835023427176772"><ele>743.0</ele><time>2026-04-19T12:51:45.784Z</time></trkpt><trkpt lat="44.00614046005777" lon="10.835083594731431"><ele>743.75</ele><time>2026-04-19T12:51:46.784Z</time></trkpt><trkpt lat="44.006016524029754" lon="10.835160988540185"><ele>744.5</ele><time>2026-04-19T12:51:47.784Z</time></trkpt><trkpt lat="44.00592906569601" lon="10.835246798972069"><ele>745.25</ele><time>2026-04-19T12:51:48.784Z</time></trkpt><trkpt lat="44.00586044146766" lon="10.835360989056"><ele>746.0</ele><time>2026-04-19T12:51:49.784Z</time></trkpt><trkpt lat="44.00581087277135" lon="10.83552502597189"><ele>746.0</ele><time>2026-04-19T12:51:50.784Z</time></trkpt><trkpt lat="44.00575842606716" lon="10.835673212375136"><ele>746.0</ele><time>2026-04-19T12:51:51.784Z</time></trkpt><trkpt lat="44.00572177658218" lon="10.835792650574575"><ele>746.0</ele><time>2026-04-19T12:51:52.784Z</time></trkpt><trkpt lat="44.00569404298559" lon="10.83589870894217"><ele>746.0</ele><time>2026-04-19T12:51:53.784Z</time></trkpt><trkpt lat="44.00570070254534" lon="10.836058326940892"><ele>746.0</ele><time>2026-04-19T12:51:55.784Z</time></trkpt><trkpt lat="44.00572353290249" lon="10.836207454384589"><ele>749.25</ele><time>2026-04-19T12:52:03.784Z</time></trkpt><trkpt lat="44.00573793377486" lon="10.836323968826504"><ele>752.5</ele><time>2026-04-19T12:52:04.784Z</time></trkpt><trkpt lat="44.005750521426826" lon="10.836482233948752"><ele>755.75</ele><time>2026-04-19T12:52:05.784Z</time></trkpt><trkpt lat="44.005766881468354" lon="10.836657332077994"><ele>759.0</ele><time>2026-04-19T12:52:06.784Z</time></trkpt><trkpt lat="44.00578199900359" lon="10.836846190591602"><ele>762.75</ele><time>2026-04-19T12:52:07.784Z</time></trkpt><trkpt lat="44.00578807093859" lon="10.837020770568198"><ele>766.5</ele><time>2026-04-19T12:52:08.784Z</time></trkpt><trkpt lat="44.005799580627325" lon="10.837214193879834"><ele>770.25</ele><time>2026-04-19T12:52:09.784Z</time></trkpt><trkpt lat="44.00580365683899" lon="10.837393807444327"><ele>774.0</ele><time>2026-04-19T12:52:10.784Z</time></trkpt><trkpt lat="44.005789701183865" lon="10.837552989106104"><ele>767.25</ele><time>2026-04-19T12:52:11.784Z</time></trkpt><trkpt lat="44.005856006522585" lon="10.837709796457263"><ele>760.5</ele><time>2026-04-19T12:52:12.784Z</time></trkpt><trkpt lat="44.00593691589665" lon="10.837844787739765"><ele>753.75</ele><time>2026-04-19T12:52:13.784Z</time></trkpt><trkpt lat="44.006024559942674" lon="10.83796205123866"><ele>747.0</ele><time>2026-04-19T12:52:14.784Z</time></trkpt><trkpt lat="44.006079261247" lon="10.838079734371794"><ele>747.0</ele><time>2026-04-19T12:52:15.784Z</time></trkpt><trkpt lat="44.00606496979779" lon="10.838210651786017"><ele>747.0</ele><time>2026-04-19T12:52:16.784Z</time></trkpt><trkpt lat="44.006036009996386" lon="10.838378656818607"><ele>747.0</ele><time>2026-04-19T12:52:17.784Z</time></trkpt><trkpt lat="44.005996015847785" lon="10.838556427495476"><ele>747.0</ele><time>2026-04-19T12:52:18.784Z</time></trkpt><trkpt lat="44.00593635030197" lon="10.83874402469117"><ele>758.6666666666667</ele><time>2026-04-19T12:52:19.784Z</time></trkpt><trkpt lat="44.00580117610054" lon="10.838916377070332"><ele>770.3333333333334</ele><time>2026-04-19T12:52:20.784Z</time></trkpt><trkpt lat="44.005719722158815" lon="10.83911086685741"><ele>782.0</ele><time>2026-04-19T12:52:21.784Z</time></trkpt><trkpt lat="44.00564761248874" lon="10.839292448091639"><ele>784.5</ele><time>2026-04-19T12:52:22.784Z</time></trkpt><trkpt lat="44.00559585026832" lon="10.839449559011904"><ele>787.0</ele><time>2026-04-19T12:52:23.784Z</time></trkpt><trkpt lat="44.005581997961855" lon="10.839604595036185"><ele>789.5</ele><time>2026-04-19T12:52:24.784Z</time></trkpt><trkpt lat="44.00564037414829" lon="10.83978053970809"><ele>792.0</ele><time>2026-04-19T12:52:25.784Z</time></trkpt><trkpt lat="44.00574223599593" lon="10.83994164095845"><ele>784.5</ele><time>2026-04-19T12:52:26.784Z</time></trkpt><trkpt lat="44.005842657554986" lon="10.840054901596044"><ele>777.0</ele><time>2026-04-19T12:52:27.784Z</time></trkpt><trkpt lat="44.00596117434263" lon="10.840121837276325"><ele>769.5</ele><time>2026-04-19T12:52:28.784Z</time></trkpt><trkpt lat="44.00609877938851" lon="10.840155311911055"><ele>762.0</ele><time>2026-04-19T12:52:29.784Z</time></trkpt><trkpt lat="44.00623381817871" lon="10.840249564376048"><ele>762.0</ele><time>2026-04-19T12:52:30.784Z</time></trkpt><trkpt lat="44.006370603823534" lon="10.8403347176031"><ele>762.0</ele><time>2026-04-19T12:52:31.784Z</time></trkpt><trkpt lat="44.006469674188246" lon="10.840432990142299"><ele>762.0</ele><time>2026-04-19T12:52:32.784Z</time></trkpt><trkpt lat="44.00650920014476" lon="10.840572669661565"><ele>762.0</ele><time>2026-04-19T12:52:33.784Z</time></trkpt><trkpt lat="44.006520832821444" lon="10.84073270167521"><ele>762.0</ele><time>2026-04-19T12:52:34.784Z</time></trkpt><trkpt lat="44.00651769573947" lon="10.840915660820386"><ele>762.0</ele><time>2026-04-19T12:52:35.784Z</time></trkpt><trkpt lat="44.0064787509046" lon="10.841123252936722"><ele>762.0</ele><time>2026-04-19T12:52:36.784Z</time></trkpt><trkpt lat="44.006415310005934" lon="10.841341566035842"><ele>761.6666666666666</ele><time>2026-04-19T12:52:37.784Z</time></trkpt><trkpt lat="44.006339524233944" lon="10.841581158725457"><ele>761.3333333333333</ele><time>2026-04-19T12:52:38.784Z</time></trkpt><trkpt lat="44.00627207004868" lon="10.84183868461903"><ele>761.0</ele><time>2026-04-19T12:52:39.784Z</time></trkpt><trkpt lat="44.00623127835445" lon="10.842092629855522"><ele>756.3333333333333</ele><time>2026-04-19T12:52:40.784Z</time></trkpt><trkpt lat="44.00618887446908" lon="10.842348402787916"><ele>751.6666666666666</ele><time>2026-04-19T12:52:41.784Z</time></trkpt><trkpt lat="44.006113339901326" lon="10.842612288909233"><ele>747.0</ele><time>2026-04-19T12:52:42.784Z</time></trkpt><trkpt lat="44.00602274499024" lon="10.842842642464628"><ele>744.0</ele><time>2026-04-19T12:52:43.784Z</time></trkpt><trkpt lat="44.005931958559415" lon="10.843071190464622"><ele>741.0</ele><time>2026-04-19T12:52:44.784Z</time></trkpt><trkpt lat="44.00584827350605" lon="10.843307883296408"><ele>738.0</ele><time>2026-04-19T12:52:45.784Z</time></trkpt><trkpt lat="44.00581246262117" lon="10.843525569663923"><ele>747.6666666666666</ele><time>2026-04-19T12:52:46.784Z</time></trkpt><trkpt lat="44.00576418759134" lon="10.843750544575599"><ele>757.3333333333333</ele><time>2026-04-19T12:52:47.783Z</time></trkpt><trkpt lat="44.00574727897367" lon="10.843986479749653"><ele>767.0</ele><time>2026-04-19T12:52:48.783Z</time></trkpt><trkpt lat="44.0057198794927" lon="10.844236933832073"><ele>762.0</ele><time>2026-04-19T12:52:49.783Z</time></trkpt><trkpt lat="44.005711254669166" lon="10.844483911019912"><ele>757.0</ele><time>2026-04-19T12:52:50.783Z</time></trkpt><trkpt lat="44.005676354141606" lon="10.844713524390745"><ele>752.0</ele><time>2026-04-19T12:52:51.783Z</time></trkpt><trkpt lat="44.00568168913142" lon="10.844924840035896"><ele>752.0</ele><time>2026-04-19T12:52:52.783Z</time></trkpt><trkpt lat="44.00569221490582" lon="10.84511519588421"><ele>752.0</ele><time>2026-04-19T12:52:53.783Z</time></trkpt><trkpt lat="44.005691365677585" lon="10.84531056055013"><ele>752.0</ele><time>2026-04-19T12:52:54.783Z</time></trkpt><trkpt lat="44.005700155062" lon="10.845509461865902"><ele>752.0</ele><time>2026-04-19T12:52:55.783Z</time></trkpt><trkpt lat="44.00575585205512" lon="10.845724337647392"><ele>751.5</ele><time>2026-04-19T12:52:56.783Z</time></trkpt><trkpt lat="44.00580860838613" lon="10.845922366403649"><ele>751.0</ele><time>2026-04-19T12:52:57.783Z</time></trkpt><trkpt lat="44.005841509324526" lon="10.84610512787192"><ele>750.5</ele><time>2026-04-19T12:52:58.783Z</time></trkpt><trkpt lat="44.0058929763133" lon="10.846300356758622"><ele>750.0</ele><time>2026-04-19T12:52:59.783Z</time></trkpt><trkpt lat="44.0059771343689" lon="10.846501064296676"><ele>746.6666666666666</ele><time>2026-04-19T12:53:00.783Z</time></trkpt><trkpt lat="44.006078164312186" lon="10.846682705135898"><ele>743.3333333333333</ele><time>2026-04-19T12:53:01.783Z</time></trkpt><trkpt lat="44.0061923872072" lon="10.846858251635974"><ele>740.0</ele><time>2026-04-19T12:53:02.783Z</time></trkpt><trkpt lat="44.006312564177286" lon="10.84702665558475"><ele>740.0</ele><time>2026-04-19T12:53:03.783Z</time></trkpt><trkpt lat="44.00641891710244" lon="10.847195523235051"><ele>740.0</ele><time>2026-04-19T12:53:04.783Z</time></trkpt><trkpt lat="44.0065080810674" lon="10.847374242621004"><ele>740.0</ele><time>2026-04-19T12:53:05.783Z</time></trkpt><trkpt lat="44.006568403123254" lon="10.847554051554269"><ele>736.3333333333333</ele><time>2026-04-19T12:53:06.783Z</time></trkpt><trkpt lat="44.006610820589" lon="10.847777725695"><ele>732.6666666666666</ele><time>2026-04-19T12:53:07.783Z</time></trkpt><trkpt lat="44.006638808664974" lon="10.847984808381181"><ele>729.0</ele><time>2026-04-19T12:53:08.783Z</time></trkpt><trkpt lat="44.006683361483375" lon="10.84817130639037"><ele>729.0</ele><time>2026-04-19T12:53:09.783Z</time></trkpt><trkpt lat="44.00673991068353" lon="10.84835358353636"><ele>729.0</ele><time>2026-04-19T12:53:10.783Z</time></trkpt><trkpt lat="44.00682215087808" lon="10.84851786669858"><ele>729.0</ele><time>2026-04-19T12:53:11.783Z</time></trkpt><trkpt lat="44.00689816878963" lon="10.848671964401998"><ele>729.0</ele><time>2026-04-19T12:53:12.783Z</time></trkpt><trkpt lat="44.00699605843161" lon="10.848800218155647"><ele>727.0</ele><time>2026-04-19T12:53:13.783Z</time></trkpt><trkpt lat="44.00713191555294" lon="10.848897184543585"><ele>725.0</ele><time>2026-04-19T12:53:14.783Z</time></trkpt><trkpt lat="44.007279805910095" lon="10.849033582221542"><ele>723.0</ele><time>2026-04-19T12:53:15.783Z</time></trkpt><trkpt lat="44.00744012161101" lon="10.849186885903409"><ele>723.6666666666666</ele><time>2026-04-19T12:53:16.783Z</time></trkpt><trkpt lat="44.007607473708696" lon="10.849345846840368"><ele>724.3333333333333</ele><time>2026-04-19T12:53:17.783Z</time></trkpt><trkpt lat="44.007780932956635" lon="10.849506267244966"><ele>725.0</ele><time>2026-04-19T12:53:18.783Z</time></trkpt><trkpt lat="44.00797598001876" lon="10.849678659416652"><ele>725.0</ele><time>2026-04-19T12:53:19.783Z</time></trkpt><trkpt lat="44.00816771142321" lon="10.849840718479895"><ele>725.0</ele><time>2026-04-19T12:53:20.783Z</time></trkpt><trkpt lat="44.00836594017727" lon="10.850003383478079"><ele>726.0</ele><time>2026-04-19T12:53:21.783Z</time></trkpt><trkpt lat="44.00853518809386" lon="10.850153990284356"><ele>727.0</ele><time>2026-04-19T12:53:22.783Z</time></trkpt><trkpt lat="44.00872098616549" lon="10.85034555070301"><ele>728.0</ele><time>2026-04-19T12:53:23.783Z</time></trkpt><trkpt lat="44.008907572610035" lon="10.85055566599874"><ele>728.0</ele><time>2026-04-19T12:53:24.783Z</time></trkpt><trkpt lat="44.00908758085844" lon="10.850771969682809"><ele>728.0</ele><time>2026-04-19T12:53:25.782Z</time></trkpt><trkpt lat="44.009264625391424" lon="10.85099561858917"><ele>724.6666666666666</ele><time>2026-04-19T12:53:26.782Z</time></trkpt><trkpt lat="44.00942738600822" lon="10.851201223977663"><ele>721.3333333333334</ele><time>2026-04-19T12:53:27.782Z</time></trkpt><trkpt lat="44.009590486752955" lon="10.851416429897489"><ele>718.0</ele><time>2026-04-19T12:53:28.782Z</time></trkpt><trkpt lat="44.00973922413865" lon="10.851674260660022"><ele>717.6666666666667</ele><time>2026-04-19T12:53:29.782Z</time></trkpt><trkpt lat="44.0098658666418" lon="10.85190977435183"><ele>717.3333333333334</ele><time>2026-04-19T12:53:30.782Z</time></trkpt><trkpt lat="44.00998638313081" lon="10.852137777743156"><ele>717.0</ele><time>2026-04-19T12:53:31.782Z</time></trkpt><trkpt lat="44.010106862567596" lon="10.85234275370642"><ele>717.0</ele><time>2026-04-19T12:53:32.782Z</time></trkpt><trkpt lat="44.01017847339708" lon="10.85257345909267"><ele>717.0</ele><time>2026-04-19T12:53:33.782Z</time></trkpt><trkpt lat="44.0102470311227" lon="10.852803471160323"><ele>717.0</ele><time>2026-04-19T12:53:34.782Z</time></trkpt><trkpt lat="44.01031016284103" lon="10.853021737933302"><ele>715.6666666666666</ele><time>2026-04-19T12:53:35.782Z</time></trkpt><trkpt lat="44.01041713841718" lon="10.853254091924217"><ele>714.3333333333333</ele><time>2026-04-19T12:53:36.782Z</time></trkpt><trkpt lat="44.01054757272062" lon="10.853455028430277"><ele>713.0</ele><time>2026-04-19T12:53:37.782Z</time></trkpt><trkpt lat="44.01067796546818" lon="10.853658886860138"><ele>713.0</ele><time>2026-04-19T12:53:38.782Z</time></trkpt><trkpt lat="44.01079811374541" lon="10.853862441189897"><ele>713.0</ele><time>2026-04-19T12:53:39.782Z</time></trkpt><trkpt lat="44.01093857410723" lon="10.854083563207636"><ele>713.0</ele><time>2026-04-19T12:53:40.782Z</time></trkpt><trkpt lat="44.01107547756969" lon="10.854324585013725"><ele>709.5</ele><time>2026-04-19T12:53:41.782Z</time></trkpt><trkpt lat="44.01120440355265" lon="10.854580794264523"><ele>706.0</ele><time>2026-04-19T12:53:42.782Z</time></trkpt><trkpt lat="44.011316389310274" lon="10.854852459789551"><ele>706.0</ele><time>2026-04-19T12:53:43.782Z</time></trkpt><trkpt lat="44.01143517057638" lon="10.855118713725076"><ele>706.0</ele><time>2026-04-19T12:53:44.782Z</time></trkpt><trkpt lat="44.011558714315015" lon="10.855382759387807"><ele>707.3333333333334</ele><time>2026-04-19T12:53:45.782Z</time></trkpt><trkpt lat="44.01167447354142" lon="10.855628530780985"><ele>708.6666666666666</ele><time>2026-04-19T12:53:46.782Z</time></trkpt><trkpt lat="44.01176240709157" lon="10.85588024587474"><ele>710.0</ele><time>2026-04-19T12:53:47.782Z</time></trkpt><trkpt lat="44.01184891602346" lon="10.856113129767174"><ele>706.6666666666666</ele><time>2026-04-19T12:53:48.782Z</time></trkpt><trkpt lat="44.011924671188886" lon="10.85633348813907"><ele>703.3333333333334</ele><time>2026-04-19T12:53:49.782Z</time></trkpt><trkpt lat="44.01199992571209" lon="10.856540917526287"><ele>700.0</ele><time>2026-04-19T12:53:50.782Z</time></trkpt><trkpt lat="44.01210530955881" lon="10.856751874781205"><ele>699.6666666666667</ele><time>2026-04-19T12:53:51.782Z</time></trkpt><trkpt lat="44.012242062033785" lon="10.85690869377024"><ele>699.3333333333334</ele><time>2026-04-19T12:53:52.782Z</time></trkpt><trkpt lat="44.01239394268942" lon="10.8570496499192"><ele>699.0</ele><time>2026-04-19T12:53:53.782Z</time></trkpt><trkpt lat="44.012560606902824" lon="10.857164622441436"><ele>699.0</ele><time>2026-04-19T12:53:54.782Z</time></trkpt><trkpt lat="44.01275265646243" lon="10.857291472828575"><ele>699.0</ele><time>2026-04-19T12:53:55.782Z</time></trkpt><trkpt lat="44.01293162724737" lon="10.857429598754328"><ele>699.0</ele><time>2026-04-19T12:53:56.782Z</time></trkpt><trkpt lat="44.01310478830918" lon="10.857592446740316"><ele>699.3333333333334</ele><time>2026-04-19T12:53:57.782Z</time></trkpt><trkpt lat="44.013268565169206" lon="10.857757429486874"><ele>699.6666666666667</ele><time>2026-04-19T12:53:58.782Z</time></trkpt><trkpt lat="44.013428807212804" lon="10.857944321383155"><ele>700.0</ele><time>2026-04-19T12:53:59.782Z</time></trkpt><trkpt lat="44.01356595879548" lon="10.858148773632632"><ele>700.0</ele><time>2026-04-19T12:54:00.782Z</time></trkpt><trkpt lat="44.01369844975202" lon="10.858341910655438"><ele>700.0</ele><time>2026-04-19T12:54:01.782Z</time></trkpt><trkpt lat="44.01384927451397" lon="10.85849605929714"><ele>700.0</ele><time>2026-04-19T12:54:02.782Z</time></trkpt><trkpt lat="44.0140285473901" lon="10.858637887739679"><ele>699.0</ele><time>2026-04-19T12:54:03.782Z</time></trkpt><trkpt lat="44.01421962619183" lon="10.858780182526171"><ele>698.0</ele><time>2026-04-19T12:54:04.782Z</time></trkpt><trkpt lat="44.0143980073845" lon="10.858924231019751"><ele>697.0</ele><time>2026-04-19T12:54:05.782Z</time></trkpt><trkpt lat="44.01457405490909" lon="10.859066253547555"><ele>697.0</ele><time>2026-04-19T12:54:06.782Z</time></trkpt><trkpt lat="44.01471344742834" lon="10.859267987343896"><ele>697.0</ele><time>2026-04-19T12:54:07.782Z</time></trkpt><trkpt lat="44.01486843323116" lon="10.859460027735198"><ele>697.0</ele><time>2026-04-19T12:54:08.782Z</time></trkpt><trkpt lat="44.01498991105817" lon="10.859691497243883"><ele>697.3333333333334</ele><time>2026-04-19T12:54:09.782Z</time></trkpt><trkpt lat="44.01510108349697" lon="10.859947747083663"><ele>697.6666666666666</ele><time>2026-04-19T12:54:10.782Z</time></trkpt><trkpt lat="44.01521081822034" lon="10.860196520379706"><ele>698.0</ele><time>2026-04-19T12:54:11.782Z</time></trkpt><trkpt lat="44.01530943001014" lon="10.860446300409349"><ele>696.3333333333333</ele><time>2026-04-19T12:54:12.782Z</time></trkpt><trkpt lat="44.01541931744478" lon="10.860691958727417"><ele>694.6666666666666</ele><time>2026-04-19T12:54:13.782Z</time></trkpt><trkpt lat="44.01553972840088" lon="10.860936579128827"><ele>693.0</ele><time>2026-04-19T12:54:14.782Z</time></trkpt><trkpt lat="44.01566148110381" lon="10.861175990686629"><ele>693.0</ele><time>2026-04-19T12:54:15.782Z</time></trkpt><trkpt lat="44.01580981078731" lon="10.86139870477497"><ele>693.0</ele><time>2026-04-19T12:54:16.782Z</time></trkpt><trkpt lat="44.015971912614944" lon="10.861630807893883"><ele>696.0</ele><time>2026-04-19T12:54:17.782Z</time></trkpt><trkpt lat="44.0161402638578" lon="10.86185103582667"><ele>699.0</ele><time>2026-04-19T12:54:18.782Z</time></trkpt><trkpt lat="44.01631945908188" lon="10.862082049690393"><ele>699.0</ele><time>2026-04-19T12:54:19.782Z</time></trkpt><trkpt lat="44.01648828705197" lon="10.862313001717611"><ele>699.0</ele><time>2026-04-19T12:54:20.782Z</time></trkpt><trkpt lat="44.01663802128422" lon="10.862525693398444"><ele>698.3333333333334</ele><time>2026-04-19T12:54:21.782Z</time></trkpt><trkpt lat="44.01677835143537" lon="10.862727873458638"><ele>697.6666666666667</ele><time>2026-04-19T12:54:22.782Z</time></trkpt><trkpt lat="44.01692302314067" lon="10.862915896308888"><ele>697.0</ele><time>2026-04-19T12:54:23.782Z</time></trkpt><trkpt lat="44.01706144335595" lon="10.863106537517677"><ele>697.0</ele><time>2026-04-19T12:54:24.782Z</time></trkpt><trkpt lat="44.0172062515676" lon="10.863256532995477"><ele>697.0</ele><time>2026-04-19T12:54:25.782Z</time></trkpt><trkpt lat="44.017362882492975" lon="10.863371071719651"><ele>697.0</ele><time>2026-04-19T12:54:26.782Z</time></trkpt><trkpt lat="44.01754006138259" lon="10.863464763883178"><ele>695.0</ele><time>2026-04-19T12:54:27.782Z</time></trkpt><trkpt lat="44.01771704721548" lon="10.863546962778285"><ele>693.0</ele><time>2026-04-19T12:54:28.782Z</time></trkpt><trkpt lat="44.01788080673656" lon="10.86367519611048"><ele>691.0</ele><time>2026-04-19T12:54:29.782Z</time></trkpt><trkpt lat="44.018043806117284" lon="10.863779851865255"><ele>691.0</ele><time>2026-04-19T12:54:30.782Z</time></trkpt><trkpt lat="44.01823210942724" lon="10.863833275115253"><ele>691.0</ele><time>2026-04-19T12:54:31.782Z</time></trkpt><trkpt lat="44.01839508307024" lon="10.863923336543875"><ele>691.0</ele><time>2026-04-19T12:54:32.782Z</time></trkpt><trkpt lat="44.01856575730137" lon="10.864049935770833"><ele>691.0</ele><time>2026-04-19T12:54:33.782Z</time></trkpt><trkpt lat="44.01868889754569" lon="10.86419754339467"><ele>691.0</ele><time>2026-04-19T12:54:34.782Z</time></trkpt><trkpt lat="44.01882466206824" lon="10.864374879419918"><ele>691.0</ele><time>2026-04-19T12:54:35.782Z</time></trkpt><trkpt lat="44.01894255717001" lon="10.864575389358707"><ele>691.0</ele><time>2026-04-19T12:54:36.782Z</time></trkpt><trkpt lat="44.01909006651492" lon="10.86477772443471"><ele>691.0</ele><time>2026-04-19T12:54:37.782Z</time></trkpt><trkpt lat="44.01923547660952" lon="10.864979727323234"><ele>691.0</ele><time>2026-04-19T12:54:38.782Z</time></trkpt><trkpt lat="44.01938014645503" lon="10.865185307831773"><ele>692.6666666666667</ele><time>2026-04-19T12:54:39.782Z</time></trkpt><trkpt lat="44.019516787178716" lon="10.865376306149406"><ele>694.3333333333334</ele><time>2026-04-19T12:54:40.782Z</time></trkpt><trkpt lat="44.0196419408351" lon="10.86555955684812"><ele>696.0</ele><time>2026-04-19T12:54:41.782Z</time></trkpt><trkpt lat="44.019762464343174" lon="10.86572083878393"><ele>696.0</ele><time>2026-04-19T12:54:42.782Z</time></trkpt><trkpt lat="44.019896067392175" lon="10.865846558965618"><ele>696.0</ele><time>2026-04-19T12:54:43.782Z</time></trkpt><trkpt lat="44.0200570686951" lon="10.865958508920402"><ele>696.0</ele><time>2026-04-19T12:54:44.782Z</time></trkpt><trkpt lat="44.020253512334484" lon="10.866046994600657"><ele>697.6666666666666</ele><time>2026-04-19T12:54:45.782Z</time></trkpt><trkpt lat="44.0204355493835" lon="10.866120705799737"><ele>699.3333333333333</ele><time>2026-04-19T12:54:46.782Z</time></trkpt><trkpt lat="44.02061295162314" lon="10.866187154737537"><ele>701.0</ele><time>2026-04-19T12:54:47.782Z</time></trkpt><trkpt lat="44.020796032626606" lon="10.866230978345337"><ele>697.6666666666666</ele><time>2026-04-19T12:54:48.782Z</time></trkpt><trkpt lat="44.02099133774606" lon="10.866245351725789"><ele>694.3333333333334</ele><time>2026-04-19T12:54:49.782Z</time></trkpt><trkpt lat="44.02117239861575" lon="10.866239704203952"><ele>691.0</ele><time>2026-04-19T12:54:50.782Z</time></trkpt><trkpt lat="44.021370410653155" lon="10.86620757571081"><ele>691.0</ele><time>2026-04-19T12:54:51.782Z</time></trkpt><trkpt lat="44.021582148061356" lon="10.866185506059333"><ele>691.0</ele><time>2026-04-19T12:54:52.782Z</time></trkpt><trkpt lat="44.02176208620617" lon="10.8661765857791"><ele>691.0</ele><time>2026-04-19T12:54:53.781Z</time></trkpt><trkpt lat="44.02194614246965" lon="10.866189195528136"><ele>690.3333333333334</ele><time>2026-04-19T12:54:54.781Z</time></trkpt><trkpt lat="44.02212323611829" lon="10.866266888516186"><ele>689.6666666666666</ele><time>2026-04-19T12:54:55.781Z</time></trkpt><trkpt lat="44.022320787846766" lon="10.866347316092991"><ele>689.0</ele><time>2026-04-19T12:54:56.781Z</time></trkpt><trkpt lat="44.02250313399623" lon="10.866464791154181"><ele>687.5</ele><time>2026-04-19T12:54:57.781Z</time></trkpt><trkpt lat="44.022711623445254" lon="10.866586995279617"><ele>686.0</ele><time>2026-04-19T12:54:58.781Z</time></trkpt><trkpt lat="44.02291957529857" lon="10.866711938728272"><ele>685.3333333333333</ele><time>2026-04-19T12:54:59.781Z</time></trkpt><trkpt lat="44.02313630641932" lon="10.866817541439723"><ele>684.6666666666666</ele><time>2026-04-19T12:55:00.781Z</time></trkpt><trkpt lat="44.02333797145873" lon="10.866929323044666"><ele>684.0</ele><time>2026-04-19T12:55:01.781Z</time></trkpt><trkpt lat="44.0235515575504" lon="10.867044534249311"><ele>684.0</ele><time>2026-04-19T12:55:02.781Z</time></trkpt><trkpt lat="44.023767571678036" lon="10.867160553465974"><ele>684.0</ele><time>2026-04-19T12:55:03.781Z</time></trkpt><trkpt lat="44.023984855257915" lon="10.867284307203368"><ele>682.0</ele><time>2026-04-19T12:55:04.781Z</time></trkpt><trkpt lat="44.02419897156551" lon="10.867398747624195"><ele>680.0</ele><time>2026-04-19T12:55:05.781Z</time></trkpt><trkpt lat="44.0244058737432" lon="10.86751818956304"><ele>682.0</ele><time>2026-04-19T12:55:06.781Z</time></trkpt><trkpt lat="44.02459134871138" lon="10.867635148303489"><ele>684.0</ele><time>2026-04-19T12:55:07.781Z</time></trkpt><trkpt lat="44.02477511713669" lon="10.867735968459336"><ele>686.0</ele><time>2026-04-19T12:55:08.781Z</time></trkpt><trkpt lat="44.024950228711084" lon="10.867832845143017"><ele>683.0</ele><time>2026-04-19T12:55:09.781Z</time></trkpt><trkpt lat="44.0251209808965" lon="10.867943463544837"><ele>680.0</ele><time>2026-04-19T12:55:10.781Z</time></trkpt><trkpt lat="44.02528121792381" lon="10.868094929320238"><ele>677.0</ele><time>2026-04-19T12:55:11.781Z</time></trkpt><trkpt lat="44.02541788733286" lon="10.86829214698044"><ele>677.3333333333333</ele><time>2026-04-19T12:55:12.781Z</time></trkpt><trkpt lat="44.02555506239987" lon="10.868496739865973"><ele>677.6666666666666</ele><time>2026-04-19T12:55:13.781Z</time></trkpt><trkpt lat="44.025704092033294" lon="10.868711080931954"><ele>678.0</ele><time>2026-04-19T12:55:14.781Z</time></trkpt><trkpt lat="44.02585102063971" lon="10.86892707515425"><ele>678.5</ele><time>2026-04-19T12:55:15.781Z</time></trkpt><trkpt lat="44.026008951638985" lon="10.869145737961672"><ele>679.0</ele><time>2026-04-19T12:55:16.781Z</time></trkpt><trkpt lat="44.02617516457628" lon="10.869365435363438"><ele>677.6666666666667</ele><time>2026-04-19T12:55:17.781Z</time></trkpt><trkpt lat="44.026329361883164" lon="10.86958763029569"><ele>676.3333333333334</ele><time>2026-04-19T12:55:18.781Z</time></trkpt><trkpt lat="44.02648217971343" lon="10.869813496432066"><ele>675.0</ele><time>2026-04-19T12:55:19.781Z</time></trkpt><trkpt lat="44.026638558326695" lon="10.870041205153335"><ele>674.5</ele><time>2026-04-19T12:55:20.781Z</time></trkpt><trkpt lat="44.02679886299473" lon="10.87026916746863"><ele>674.0</ele><time>2026-04-19T12:55:21.781Z</time></trkpt><trkpt lat="44.026964351677336" lon="10.870495849804858"><ele>674.0</ele><time>2026-04-19T12:55:22.781Z</time></trkpt><trkpt lat="44.02712704348202" lon="10.870717020897038"><ele>674.0</ele><time>2026-04-19T12:55:23.781Z</time></trkpt><trkpt lat="44.027299613080025" lon="10.870935547672515"><ele>674.0</ele><time>2026-04-19T12:55:24.781Z</time></trkpt><trkpt lat="44.027471351516105" lon="10.871157506796768"><ele>674.0</ele><time>2026-04-19T12:55:25.781Z</time></trkpt><trkpt lat="44.027631217764856" lon="10.87137783701354"><ele>674.0</ele><time>2026-04-19T12:55:26.781Z</time></trkpt><trkpt lat="44.027774638439766" lon="10.871581384149886"><ele>674.0</ele><time>2026-04-19T12:55:27.781Z</time></trkpt><trkpt lat="44.027897418382196" lon="10.871772144094082"><ele>674.0</ele><time>2026-04-19T12:55:28.781Z</time></trkpt><trkpt lat="44.0280220636292" lon="10.871943586513169"><ele>673.3333333333333</ele><time>2026-04-19T12:55:29.781Z</time></trkpt><trkpt lat="44.0281434143522" lon="10.872067432720803"><ele>672.6666666666666</ele><time>2026-04-19T12:55:30.781Z</time></trkpt><trkpt lat="44.028303471295814" lon="10.87214972813303"><ele>672.0</ele><time>2026-04-19T12:55:31.781Z</time></trkpt><trkpt lat="44.02849432229123" lon="10.87221041846539"><ele>672.0</ele><time>2026-04-19T12:55:32.781Z</time></trkpt><trkpt lat="44.0286977160475" lon="10.872244092935574"><ele>672.0</ele><time>2026-04-19T12:55:33.781Z</time></trkpt><trkpt lat="44.02890538287657" lon="10.872297600517246"><ele>672.0</ele><time>2026-04-19T12:55:34.781Z</time></trkpt><trkpt lat="44.029121891914116" lon="10.872342578647109"><ele>672.3333333333334</ele><time>2026-04-19T12:55:35.781Z</time></trkpt><trkpt lat="44.02933739864303" lon="10.872414831952948"><ele>672.6666666666667</ele><time>2026-04-19T12:55:36.781Z</time></trkpt><trkpt lat="44.02955718953345" lon="10.872476465012832"><ele>673.0</ele><time>2026-04-19T12:55:37.781Z</time></trkpt><trkpt lat="44.02977576993227" lon="10.872551518295404"><ele>672.3333333333334</ele><time>2026-04-19T12:55:38.781Z</time></trkpt><trkpt lat="44.029994886142944" lon="10.872617848110675"><ele>671.6666666666666</ele><time>2026-04-19T12:55:39.781Z</time></trkpt><trkpt lat="44.0302126858069" lon="10.872688252077502"><ele>671.0</ele><time>2026-04-19T12:55:40.781Z</time></trkpt><trkpt lat="44.030430530445955" lon="10.8727583803222"><ele>671.0</ele><time>2026-04-19T12:55:41.781Z</time></trkpt><trkpt lat="44.030637595498874" lon="10.872823516560066"><ele>671.0</ele><time>2026-04-19T12:55:42.781Z</time></trkpt><trkpt lat="44.03083203258351" lon="10.872891938581734"><ele>671.0</ele><time>2026-04-19T12:55:43.781Z</time></trkpt><trkpt lat="44.031017245022014" lon="10.872973249875109"><ele>671.0</ele><time>2026-04-19T12:55:44.781Z</time></trkpt><trkpt lat="44.031171718014164" lon="10.873101095446847"><ele>671.0</ele><time>2026-04-19T12:55:45.781Z</time></trkpt><trkpt lat="44.03133007192707" lon="10.873281615173685"><ele>671.0</ele><time>2026-04-19T12:55:46.781Z</time></trkpt><trkpt lat="44.03147405261288" lon="10.87347623682221"><ele>671.0</ele><time>2026-04-19T12:55:47.781Z</time></trkpt><trkpt lat="44.03162354664843" lon="10.873694773841773"><ele>671.0</ele><time>2026-04-19T12:55:48.781Z</time></trkpt><trkpt lat="44.03178533322392" lon="10.873913570834391"><ele>671.0</ele><time>2026-04-19T12:55:49.781Z</time></trkpt><trkpt lat="44.03197017706904" lon="10.874139096807804"><ele>670.5</ele><time>2026-04-19T12:55:50.781Z</time></trkpt><trkpt lat="44.032146844223846" lon="10.874380574988836"><ele>670.0</ele><time>2026-04-19T12:55:51.78Z</time></trkpt><trkpt lat="44.03232543457295" lon="10.874615479144577"><ele>671.0</ele><time>2026-04-19T12:55:52.78Z</time></trkpt><trkpt lat="44.03251313325753" lon="10.874858754434502"><ele>672.0</ele><time>2026-04-19T12:55:53.78Z</time></trkpt><trkpt lat="44.03268932543145" lon="10.875103698212264"><ele>670.5</ele><time>2026-04-19T12:55:54.78Z</time></trkpt><trkpt lat="44.03286710327201" lon="10.8753505034688"><ele>669.0</ele><time>2026-04-19T12:55:55.78Z</time></trkpt><trkpt lat="44.033051804014406" lon="10.87560439806519"><ele>669.0</ele><time>2026-04-19T12:55:56.78Z</time></trkpt><trkpt lat="44.033239166550786" lon="10.875852597846091"><ele>669.0</ele><time>2026-04-19T12:55:57.78Z</time></trkpt><trkpt lat="44.033406726734235" lon="10.876081192070115"><ele>670.3333333333334</ele><time>2026-04-19T12:55:58.78Z</time></trkpt><trkpt lat="44.033557421638285" lon="10.876292787519835"><ele>671.6666666666667</ele><time>2026-04-19T12:55:59.78Z</time></trkpt><trkpt lat="44.033700318443444" lon="10.87649544156"><ele>673.0</ele><time>2026-04-19T12:56:00.78Z</time></trkpt><trkpt lat="44.033826360001875" lon="10.87670671288317"><ele>671.6666666666667</ele><time>2026-04-19T12:56:01.78Z</time></trkpt><trkpt lat="44.03395080624843" lon="10.876925975232247"><ele>670.3333333333334</ele><time>2026-04-19T12:56:02.78Z</time></trkpt><trkpt lat="44.03408849616537" lon="10.877136668923182"><ele>669.0</ele><time>2026-04-19T12:56:03.78Z</time></trkpt><trkpt lat="44.03424727497567" lon="10.877312640177365"><ele>669.0</ele><time>2026-04-19T12:56:04.78Z</time></trkpt><trkpt lat="44.03442913657337" lon="10.877469954246653"><ele>669.0</ele><time>2026-04-19T12:56:05.78Z</time></trkpt><trkpt lat="44.03462117648564" lon="10.877627311911297"><ele>669.0</ele><time>2026-04-19T12:56:06.78Z</time></trkpt><trkpt lat="44.03481917901635" lon="10.877781751673304"><ele>668.5</ele><time>2026-04-19T12:56:07.78Z</time></trkpt><trkpt lat="44.03501087460097" lon="10.877920118164234"><ele>668.0</ele><time>2026-04-19T12:56:08.78Z</time></trkpt><trkpt lat="44.03523785616726" lon="10.878090794078613"><ele>668.0</ele><time>2026-04-19T12:56:09.78Z</time></trkpt><trkpt lat="44.03546677561745" lon="10.878264839659222"><ele>668.0</ele><time>2026-04-19T12:56:10.78Z</time></trkpt><trkpt lat="44.03567777422722" lon="10.878446232299304"><ele>669.0</ele><time>2026-04-19T12:56:11.78Z</time></trkpt><trkpt lat="44.03586991751271" lon="10.878638645500804"><ele>670.0</ele><time>2026-04-19T12:56:12.78Z</time></trkpt><trkpt lat="44.03604825388611" lon="10.878865962786843"><ele>670.0</ele><time>2026-04-19T12:56:13.78Z</time></trkpt><trkpt lat="44.036201186176065" lon="10.879097762355281"><ele>670.0</ele><time>2026-04-19T12:56:14.78Z</time></trkpt><trkpt lat="44.036330070266615" lon="10.879313012900973"><ele>670.0</ele><time>2026-04-19T12:56:15.78Z</time></trkpt><trkpt lat="44.036461108106174" lon="10.87951869679991"><ele>670.3333333333334</ele><time>2026-04-19T12:56:16.78Z</time></trkpt><trkpt lat="44.03656896134884" lon="10.879705505065003"><ele>670.6666666666666</ele><time>2026-04-19T12:56:17.78Z</time></trkpt><trkpt lat="44.03664874793247" lon="10.879883017283"><ele>671.0</ele><time>2026-04-19T12:56:18.78Z</time></trkpt><trkpt lat="44.0367031026881" lon="10.880069971933922"><ele>670.6666666666666</ele><time>2026-04-19T12:56:19.78Z</time></trkpt><trkpt lat="44.03672924313712" lon="10.880279351806092"><ele>670.3333333333334</ele><time>2026-04-19T12:56:20.78Z</time></trkpt><trkpt lat="44.036738755867766" lon="10.880502599611185"><ele>670.0</ele><time>2026-04-19T12:56:21.78Z</time></trkpt><trkpt lat="44.0367545113227" lon="10.880742554516369"><ele>669.3333333333334</ele><time>2026-04-19T12:56:22.78Z</time></trkpt><trkpt lat="44.03679603933667" lon="10.880998011413364"><ele>668.6666666666666</ele><time>2026-04-19T12:56:23.78Z</time></trkpt><trkpt lat="44.036869534417555" lon="10.881251078896994"><ele>668.0</ele><time>2026-04-19T12:56:24.78Z</time></trkpt><trkpt lat="44.03695159763281" lon="10.881512082387248"><ele>668.0</ele><time>2026-04-19T12:56:25.78Z</time></trkpt><trkpt lat="44.03704805751653" lon="10.88175938860691"><ele>668.0</ele><time>2026-04-19T12:56:26.78Z</time></trkpt><trkpt lat="44.03715445069577" lon="10.881989798950851"><ele>668.0</ele><time>2026-04-19T12:56:27.78Z</time></trkpt><trkpt lat="44.03726392843056" lon="10.882192420196805"><ele>668.3333333333333</ele><time>2026-04-19T12:56:28.78Z</time></trkpt><trkpt lat="44.03738172726425" lon="10.882353556807919"><ele>668.6666666666666</ele><time>2026-04-19T12:56:29.78Z</time></trkpt><trkpt lat="44.037501440339625" lon="10.882494047442648"><ele>669.0</ele><time>2026-04-19T12:56:30.78Z</time></trkpt><trkpt lat="44.037615657329425" lon="10.882621934750981"><ele>667.2</ele><time>2026-04-19T12:56:31.78Z</time></trkpt><trkpt lat="44.03772299244365" lon="10.882730555081203"><ele>665.4000000000001</ele><time>2026-04-19T12:56:32.78Z</time></trkpt><trkpt lat="44.0378216697481" lon="10.882792843233991"><ele>663.6</ele><time>2026-04-19T12:56:33.78Z</time></trkpt><trkpt lat="44.03793261357472" lon="10.882826582200865"><ele>661.8</ele><time>2026-04-19T12:56:34.78Z</time></trkpt><trkpt lat="44.03801159851317" lon="10.882797546690044"><ele>660.0</ele><time>2026-04-19T12:56:35.78Z</time></trkpt><trkpt lat="44.03806261808535" lon="10.882724807308568"><ele>660.0</ele><time>2026-04-19T12:56:36.78Z</time></trkpt><trkpt lat="44.03810022190438" lon="10.882623775919813"><ele>660.0</ele><time>2026-04-19T12:56:37.78Z</time></trkpt><trkpt lat="44.03810764313417" lon="10.882494190099923"><ele>660.0</ele><time>2026-04-19T12:56:38.78Z</time></trkpt><trkpt lat="44.038090833780714" lon="10.882340870043246"><ele>660.0</ele><time>2026-04-19T12:56:39.78Z</time></trkpt><trkpt lat="44.038082505150214" lon="10.882174170887067"><ele>660.0</ele><time>2026-04-19T12:56:40.78Z</time></trkpt><trkpt lat="44.03806450718648" lon="10.881972200874577"><ele>665.6666666666666</ele><time>2026-04-19T12:56:41.78Z</time></trkpt><trkpt lat="44.03804956004415" lon="10.88174121773961"><ele>671.3333333333333</ele><time>2026-04-19T12:56:42.78Z</time></trkpt><trkpt lat="44.0380381845615" lon="10.881497843879059"><ele>677.0</ele><time>2026-04-19T12:56:43.78Z</time></trkpt><trkpt lat="44.03800618857536" lon="10.881237856310616"><ele>677.0</ele><time>2026-04-19T12:56:44.78Z</time></trkpt><trkpt lat="44.037968188050094" lon="10.880972736472174"><ele>677.0</ele><time>2026-04-19T12:56:45.78Z</time></trkpt><trkpt lat="44.03793448374082" lon="10.880688171658303"><ele>677.0</ele><time>2026-04-19T12:56:46.78Z</time></trkpt><trkpt lat="44.03789475532594" lon="10.880401867189178"><ele>677.6666666666666</ele><time>2026-04-19T12:56:47.78Z</time></trkpt><trkpt lat="44.037857312073804" lon="10.880106650590685"><ele>678.3333333333334</ele><time>2026-04-19T12:56:48.78Z</time></trkpt><trkpt lat="44.03782786682506" lon="10.879814416344688"><ele>679.0</ele><time>2026-04-19T12:56:49.78Z</time></trkpt><trkpt lat="44.03780948869819" lon="10.879513014238173"><ele>686.0</ele><time>2026-04-19T12:56:50.78Z</time></trkpt><trkpt lat="44.03779924778937" lon="10.879200021516363"><ele>693.0</ele><time>2026-04-19T12:56:51.78Z</time></trkpt><trkpt lat="44.03780665467248" lon="10.878884253666282"><ele>693.0</ele><time>2026-04-19T12:56:52.78Z</time></trkpt><trkpt lat="44.037841091168026" lon="10.878558801365378"><ele>693.0</ele><time>2026-04-19T12:56:53.78Z</time></trkpt><trkpt lat="44.03787693603922" lon="10.87821548082611"><ele>694.5</ele><time>2026-04-19T12:56:54.78Z</time></trkpt><trkpt lat="44.03790737656604" lon="10.877871619834151"><ele>696.0</ele><time>2026-04-19T12:56:55.78Z</time></trkpt><trkpt lat="44.03793024320208" lon="10.877547520653962"><ele>696.3333333333334</ele><time>2026-04-19T12:56:56.78Z</time></trkpt><trkpt lat="44.03793503411489" lon="10.87725614550014"><ele>696.6666666666667</ele><time>2026-04-19T12:56:57.78Z</time></trkpt><trkpt lat="44.03794779732723" lon="10.877006982454064"><ele>697.0</ele><time>2026-04-19T12:56:58.78Z</time></trkpt><trkpt lat="44.03796469667089" lon="10.876785076612123"><ele>697.25</ele><time>2026-04-19T12:56:59.779Z</time></trkpt><trkpt lat="44.03797678911107" lon="10.876558394619984"><ele>697.5</ele><time>2026-04-19T12:57:00.779Z</time></trkpt><trkpt lat="44.03800924165459" lon="10.876384064070306"><ele>697.75</ele><time>2026-04-19T12:57:01.779Z</time></trkpt><trkpt lat="44.03806446863539" lon="10.87623968540359"><ele>698.0</ele><time>2026-04-19T12:57:02.779Z</time></trkpt><trkpt lat="44.03817999029691" lon="10.876125462788787"><ele>691.25</ele><time>2026-04-19T12:57:03.779Z</time></trkpt><trkpt lat="44.03830918482383" lon="10.876012313478075"><ele>684.5</ele><time>2026-04-19T12:57:04.779Z</time></trkpt><trkpt lat="44.03842537246287" lon="10.875883879746608"><ele>677.75</ele><time>2026-04-19T12:57:05.779Z</time></trkpt><trkpt lat="44.038532237155444" lon="10.875750081767627"><ele>671.0</ele><time>2026-04-19T12:57:06.779Z</time></trkpt><trkpt lat="44.03858904823415" lon="10.875585205974193"><ele>671.0</ele><time>2026-04-19T12:57:07.779Z</time></trkpt><trkpt lat="44.03861345569823" lon="10.875416424267817"><ele>671.0</ele><time>2026-04-19T12:57:08.779Z</time></trkpt><trkpt lat="44.03858337632753" lon="10.87523892204349"><ele>671.0</ele><time>2026-04-19T12:57:09.778Z</time></trkpt><trkpt lat="44.0385276468045" lon="10.875074224332838"><ele>671.0</ele><time>2026-04-19T12:57:10.778Z</time></trkpt><trkpt lat="44.03844028378978" lon="10.874929549479376"><ele>671.75</ele><time>2026-04-19T12:57:11.779Z</time></trkpt><trkpt lat="44.03835933266012" lon="10.874810096284296"><ele>672.5</ele><time>2026-04-19T12:57:12.779Z</time></trkpt><trkpt lat="44.03825121720488" lon="10.874748183776058"><ele>673.25</ele><time>2026-04-19T12:57:13.779Z</time></trkpt><trkpt lat="44.0381439651354" lon="10.874678550125699"><ele>674.0</ele><time>2026-04-19T12:57:14.779Z</time></trkpt><trkpt lat="44.038063479851246" lon="10.874574787368067"><ele>674.25</ele><time>2026-04-19T12:57:15.779Z</time></trkpt><trkpt lat="44.037998409104546" lon="10.874446128064857"><ele>674.5</ele><time>2026-04-19T12:57:16.779Z</time></trkpt><trkpt lat="44.037950858456306" lon="10.87430165431716"><ele>674.75</ele><time>2026-04-19T12:57:17.779Z</time></trkpt><trkpt lat="44.037943040084" lon="10.87408865864746"><ele>675.0</ele><time>2026-04-19T12:57:18.779Z</time></trkpt><trkpt lat="44.037929115407806" lon="10.873873084251475"><ele>675.0</ele><time>2026-04-19T12:57:19.778Z</time></trkpt><trkpt lat="44.03791537717071" lon="10.87363143283422"><ele>675.0</ele><time>2026-04-19T12:57:20.778Z</time></trkpt><trkpt lat="44.037896962212145" lon="10.873390033961385"><ele>675.0</ele><time>2026-04-19T12:57:21.778Z</time></trkpt><trkpt lat="44.037880532325" lon="10.873122923234781"><ele>675.3333333333334</ele><time>2026-04-19T12:57:22.778Z</time></trkpt><trkpt lat="44.037888136642195" lon="10.872844523545208"><ele>675.6666666666667</ele><time>2026-04-19T12:57:23.778Z</time></trkpt><trkpt lat="44.03790845039859" lon="10.872563646978668"><ele>676.0</ele><time>2026-04-19T12:57:24.778Z</time></trkpt><trkpt lat="44.03793416695687" lon="10.872276739327738"><ele>676.6666666666667</ele><time>2026-04-19T12:57:25.778Z</time></trkpt><trkpt lat="44.0379605233781" lon="10.87198273024049"><ele>677.3333333333334</ele><time>2026-04-19T12:57:26.778Z</time></trkpt><trkpt lat="44.03798362423968" lon="10.871675347746132"><ele>678.0</ele><time>2026-04-19T12:57:27.778Z</time></trkpt><trkpt lat="44.03800341001566" lon="10.87135619506697"><ele>678.0</ele><time>2026-04-19T12:57:28.778Z</time></trkpt><trkpt lat="44.03803744110186" lon="10.871058103299085"><ele>678.0</ele><time>2026-04-19T12:57:29.778Z</time></trkpt><trkpt lat="44.038062198881114" lon="10.870753099700934"><ele>678.0</ele><time>2026-04-19T12:57:30.778Z</time></trkpt><trkpt lat="44.038120535343396" lon="10.870474051094709"><ele>678.3333333333334</ele><time>2026-04-19T12:57:31.778Z</time></trkpt><trkpt lat="44.03814346018072" lon="10.870205822300978"><ele>678.6666666666667</ele><time>2026-04-19T12:57:32.778Z</time></trkpt><trkpt lat="44.038163414320906" lon="10.869947696153645"><ele>679.0</ele><time>2026-04-19T12:57:33.778Z</time></trkpt><trkpt lat="44.03815505622348" lon="10.8696977940049"><ele>680.3333333333334</ele><time>2026-04-19T12:57:34.778Z</time></trkpt><trkpt lat="44.03810314669345" lon="10.86946621206301"><ele>681.6666666666666</ele><time>2026-04-19T12:57:35.778Z</time></trkpt><trkpt lat="44.03808237737579" lon="10.869209067167974"><ele>683.0</ele><time>2026-04-19T12:57:36.778Z</time></trkpt><trkpt lat="44.038085220339966" lon="10.86893813496138"><ele>684.0</ele><time>2026-04-19T12:57:37.778Z</time></trkpt><trkpt lat="44.03809982158012" lon="10.868662358747196"><ele>685.0</ele><time>2026-04-19T12:57:38.778Z</time></trkpt><trkpt lat="44.038122134687534" lon="10.868375456794091"><ele>686.0</ele><time>2026-04-19T12:57:39.778Z</time></trkpt><trkpt lat="44.03816127255815" lon="10.868081931104099"><ele>687.3333333333333</ele><time>2026-04-19T12:57:40.778Z</time></trkpt><trkpt lat="44.03824056636629" lon="10.867799473302554"><ele>688.6666666666666</ele><time>2026-04-19T12:57:41.778Z</time></trkpt><trkpt lat="44.03827250698749" lon="10.867522966962758"><ele>690.0</ele><time>2026-04-19T12:57:42.778Z</time></trkpt><trkpt lat="44.03830487358663" lon="10.867247043511151"><ele>691.3333333333334</ele><time>2026-04-19T12:57:43.778Z</time></trkpt><trkpt lat="44.0383410006276" lon="10.866956825272798"><ele>692.6666666666667</ele><time>2026-04-19T12:57:44.778Z</time></trkpt><trkpt lat="44.038374796060296" lon="10.866669494044556"><ele>694.0</ele><time>2026-04-19T12:57:45.778Z</time></trkpt><trkpt lat="44.038409610222914" lon="10.866362062088271"><ele>696.0</ele><time>2026-04-19T12:57:46.778Z</time></trkpt><trkpt lat="44.03844681742085" lon="10.866042763572088"><ele>698.0</ele><time>2026-04-19T12:57:47.778Z</time></trkpt><trkpt lat="44.03848309954171" lon="10.865736747086077"><ele>698.0</ele><time>2026-04-19T12:57:48.778Z</time></trkpt><trkpt lat="44.03851692669925" lon="10.86543798934681"><ele>698.0</ele><time>2026-04-19T12:57:49.778Z</time></trkpt><trkpt lat="44.038547693463634" lon="10.86515282557979"><ele>698.0</ele><time>2026-04-19T12:57:50.778Z</time></trkpt><trkpt lat="44.03854084730027" lon="10.8649060754194"><ele>698.0</ele><time>2026-04-19T12:57:51.778Z</time></trkpt><trkpt lat="44.03857059387666" lon="10.864673268736496"><ele>698.0</ele><time>2026-04-19T12:57:52.778Z</time></trkpt><trkpt lat="44.038595570607136" lon="10.864458534756057"><ele>698.0</ele><time>2026-04-19T12:57:53.778Z</time></trkpt><trkpt lat="44.03861201262726" lon="10.864256207384138"><ele>698.0</ele><time>2026-04-19T12:57:54.778Z</time></trkpt><trkpt lat="44.03862676327573" lon="10.86407510582326"><ele>698.0</ele><time>2026-04-19T12:57:55.778Z</time></trkpt><trkpt lat="44.03864573911894" lon="10.863895767913096"><ele>698.0</ele><time>2026-04-19T12:57:56.778Z</time></trkpt><trkpt lat="44.03867380481506" lon="10.86373450496321"><ele>698.0</ele><time>2026-04-19T12:57:57.778Z</time></trkpt><trkpt lat="44.03869637989684" lon="10.863572289362361"><ele>697.5</ele><time>2026-04-19T12:57:58.778Z</time></trkpt><trkpt lat="44.03872216624916" lon="10.86339306460887"><ele>697.0</ele><time>2026-04-19T12:57:59.778Z</time></trkpt><trkpt lat="44.03873658221678" lon="10.863213557375538"><ele>696.5</ele><time>2026-04-19T12:58:00.778Z</time></trkpt><trkpt lat="44.03873981945413" lon="10.863039076849322"><ele>696.0</ele><time>2026-04-19T12:58:01.778Z</time></trkpt><trkpt lat="44.03874014198892" lon="10.86287057331709"><ele>696.0</ele><time>2026-04-19T12:58:02.778Z</time></trkpt><trkpt lat="44.03875214463912" lon="10.86272194905067"><ele>696.0</ele><time>2026-04-19T12:58:03.778Z</time></trkpt><trkpt lat="44.038748386391106" lon="10.862535936185512"><ele>696.0</ele><time>2026-04-19T12:58:04.778Z</time></trkpt><trkpt lat="44.03869572621185" lon="10.862313447847692"><ele>696.0</ele><time>2026-04-19T12:58:05.778Z</time></trkpt><trkpt lat="44.03867082123069" lon="10.8620973659358"><ele>695.5</ele><time>2026-04-19T12:58:06.778Z</time></trkpt><trkpt lat="44.038665180946516" lon="10.861886853620899"><ele>695.0</ele><time>2026-04-19T12:58:07.778Z</time></trkpt><trkpt lat="44.038671128806854" lon="10.86171103125628"><ele>694.5</ele><time>2026-04-19T12:58:08.778Z</time></trkpt><trkpt lat="44.03873084389686" lon="10.861553170668838"><ele>694.0</ele><time>2026-04-19T12:58:09.778Z</time></trkpt><trkpt lat="44.038781771918465" lon="10.861393966375102"><ele>693.8000000000001</ele><time>2026-04-19T12:58:10.778Z</time></trkpt><trkpt lat="44.03883253721845" lon="10.86124658852152"><ele>693.6</ele><time>2026-04-19T12:58:11.778Z</time></trkpt><trkpt lat="44.03885630837781" lon="10.861125596531755"><ele>693.4</ele><time>2026-04-19T12:58:12.778Z</time></trkpt><trkpt lat="44.03889678364243" lon="10.861030629776078"><ele>693.2</ele><time>2026-04-19T12:58:13.778Z</time></trkpt><trkpt lat="44.038947903371856" lon="10.860971705171467"><ele>693.0</ele><time>2026-04-19T12:58:14.778Z</time></trkpt><trkpt lat="44.03905621508994" lon="10.86089014933061"><ele>693.0</ele><time>2026-04-19T12:58:16.778Z</time></trkpt><trkpt lat="44.03912638198752" lon="10.860840999492412"><ele>693.0</ele><time>2026-04-19T12:58:17.778Z</time></trkpt><trkpt lat="44.03921634052476" lon="10.860783588128628"><ele>693.0</ele><time>2026-04-19T12:58:18.778Z</time></trkpt><trkpt lat="44.039319373686425" lon="10.860729475286334"><ele>693.0</ele><time>2026-04-19T12:58:19.778Z</time></trkpt><trkpt lat="44.03944524187611" lon="10.860666990444736"><ele>693.0</ele><time>2026-04-19T12:58:20.778Z</time></trkpt><trkpt lat="44.03955467273148" lon="10.86060321689115"><ele>692.75</ele><time>2026-04-19T12:58:21.778Z</time></trkpt><trkpt lat="44.03965531237243" lon="10.860525201340826"><ele>692.5</ele><time>2026-04-19T12:58:22.778Z</time></trkpt><trkpt lat="44.039744002202724" lon="10.860394058320267"><ele>692.25</ele><time>2026-04-19T12:58:23.778Z</time></trkpt><trkpt lat="44.03980602554173" lon="10.860223144426726"><ele>692.0</ele><time>2026-04-19T12:58:24.778Z</time></trkpt><trkpt lat="44.03983582082339" lon="10.860014464526522"><ele>692.0</ele><time>2026-04-19T12:58:25.778Z</time></trkpt><trkpt lat="44.039856841988005" lon="10.859811290796499"><ele>692.0</ele><time>2026-04-19T12:58:26.778Z</time></trkpt><trkpt lat="44.03988215357908" lon="10.85959639493143"><ele>692.0</ele><time>2026-04-19T12:58:27.778Z</time></trkpt><trkpt lat="44.039908078515325" lon="10.859399391887788"><ele>692.0</ele><time>2026-04-19T12:58:28.778Z</time></trkpt><trkpt lat="44.03993836817926" lon="10.859244818267271"><ele>694.0</ele><time>2026-04-19T12:58:29.778Z</time></trkpt><trkpt lat="44.03998316377234" lon="10.85912292169146"><ele>696.0</ele><time>2026-04-19T12:58:30.778Z</time></trkpt><trkpt lat="44.040039591769705" lon="10.859020061562909"><ele>698.0</ele><time>2026-04-19T12:58:31.778Z</time></trkpt><trkpt lat="44.04010472145801" lon="10.85896666190642"><ele>700.0</ele><time>2026-04-19T12:58:32.778Z</time></trkpt><trkpt lat="44.04017801559229" lon="10.858920212779513"><ele>702.0</ele><time>2026-04-19T12:58:33.778Z</time></trkpt><trkpt lat="44.040256071801196" lon="10.858900045018341"><ele>704.0</ele><time>2026-04-19T12:58:34.778Z</time></trkpt><trkpt lat="44.04035483562849" lon="10.858863402855935"><ele>704.0</ele><time>2026-04-19T12:58:35.778Z</time></trkpt><trkpt lat="44.04045228972552" lon="10.858869703659815"><ele>704.0</ele><time>2026-04-19T12:58:36.778Z</time></trkpt><trkpt lat="44.040539933650464" lon="10.858857670630705"><ele>704.0</ele><time>2026-04-19T12:58:37.778Z</time></trkpt><trkpt lat="44.04060266859026" lon="10.858829899936833"><ele>704.0</ele><time>2026-04-19T12:58:38.778Z</time></trkpt><trkpt lat="44.04069048988725" lon="10.858836441891315"><ele>704.0</ele><time>2026-04-19T12:58:40.778Z</time></trkpt><trkpt lat="44.04074862888337" lon="10.858884591471886"><ele>704.0</ele><time>2026-04-19T12:59:02.777Z</time></trkpt><trkpt lat="44.040750450238605" lon="10.858978489863933"><ele>704.0</ele><time>2026-04-19T13:00:48.776Z</time></trkpt><trkpt lat="44.04072869228674" lon="10.858881500288625"><ele>704.0</ele><time>2026-04-19T13:01:08.776Z</time></trkpt><trkpt lat="44.04070582128865" lon="10.858785632247232"><ele>704.0</ele><time>2026-04-19T13:01:26.775Z</time></trkpt><trkpt lat="44.04077871617213" lon="10.858810391135588"><ele>704.0</ele><time>2026-04-19T13:16:41.761Z</time></trkpt><trkpt lat="44.040854775201154" lon="10.858817982973319"><ele>704.0</ele><time>2026-04-19T13:16:45.761Z</time></trkpt><trkpt lat="44.04090511044661" lon="10.858752344155382"><ele>704.0</ele><time>2026-04-19T13:16:51.761Z</time></trkpt><trkpt lat="44.04083236979803" lon="10.85872909043674"><ele>704.0</ele><time>2026-04-19T13:17:08.761Z</time></trkpt><trkpt lat="44.04076476861223" lon="10.85873112189902"><ele>704.0</ele><time>2026-04-19T13:17:10.761Z</time></trkpt><trkpt lat="44.04066561933396" lon="10.858764731508106"><ele>704.0</ele><time>2026-04-19T13:17:12.761Z</time></trkpt><trkpt lat="44.04053839920168" lon="10.858799029329118"><ele>704.0</ele><time>2026-04-19T13:17:14.761Z</time></trkpt><trkpt lat="44.040465401054014" lon="10.858807242132556"><ele>704.0</ele><time>2026-04-19T13:17:15.761Z</time></trkpt><trkpt lat="44.04038792679673" lon="10.858816097139574"><ele>704.0</ele><time>2026-04-19T13:17:16.761Z</time></trkpt><trkpt lat="44.04031305375691" lon="10.858824553884046"><ele>704.0</ele><time>2026-04-19T13:17:17.761Z</time></trkpt><trkpt lat="44.0402352813899" lon="10.858821885996482"><ele>704.0</ele><time>2026-04-19T13:17:18.761Z</time></trkpt><trkpt lat="44.04016485173604" lon="10.858832497850395"><ele>704.0</ele><time>2026-04-19T13:17:19.761Z</time></trkpt><trkpt lat="44.04009743727092" lon="10.858866062864378"><ele>704.0</ele><time>2026-04-19T13:17:20.761Z</time></trkpt><trkpt lat="44.040033409376214" lon="10.858916113995924"><ele>704.0</ele><time>2026-04-19T13:17:21.761Z</time></trkpt><trkpt lat="44.03997645707453" lon="10.858976051625802"><ele>704.0</ele><time>2026-04-19T13:17:22.761Z</time></trkpt><trkpt lat="44.03993325999515" lon="10.859056228812507"><ele>704.0</ele><time>2026-04-19T13:17:23.761Z</time></trkpt><trkpt lat="44.03989619850204" lon="10.859149312931633"><ele>702.3333333333333</ele><time>2026-04-19T13:17:24.761Z</time></trkpt><trkpt lat="44.03987233158145" lon="10.859253147232895"><ele>700.6666666666666</ele><time>2026-04-19T13:17:25.761Z</time></trkpt><trkpt lat="44.039855679795814" lon="10.859367631450054"><ele>699.0</ele><time>2026-04-19T13:17:26.761Z</time></trkpt><trkpt lat="44.039844026956196" lon="10.859492923063081"><ele>697.3333333333334</ele><time>2026-04-19T13:17:27.761Z</time></trkpt><trkpt lat="44.039835828241436" lon="10.859620659145515"><ele>695.6666666666667</ele><time>2026-04-19T13:17:28.761Z</time></trkpt><trkpt lat="44.03982705523306" lon="10.859745061095715"><ele>694.0</ele><time>2026-04-19T13:17:29.761Z</time></trkpt><trkpt lat="44.03981489416304" lon="10.859866749575843"><ele>693.6666666666667</ele><time>2026-04-19T13:17:30.761Z</time></trkpt><trkpt lat="44.03980322560534" lon="10.859986679773723"><ele>693.3333333333334</ele><time>2026-04-19T13:17:31.761Z</time></trkpt><trkpt lat="44.03978732122842" lon="10.860105617542649"><ele>693.0</ele><time>2026-04-19T13:17:32.761Z</time></trkpt><trkpt lat="44.039764472515145" lon="10.860217506836417"><ele>692.6666666666666</ele><time>2026-04-19T13:17:33.761Z</time></trkpt><trkpt lat="44.0397268580078" lon="10.860314983873433"><ele>692.3333333333333</ele><time>2026-04-19T13:17:34.761Z</time></trkpt><trkpt lat="44.039674833648455" lon="10.86040457563173"><ele>692.0</ele><time>2026-04-19T13:17:35.761Z</time></trkpt><trkpt lat="44.03961216129309" lon="10.860480528360979"><ele>692.8333333333333</ele><time>2026-04-19T13:17:36.761Z</time></trkpt><trkpt lat="44.03953719027409" lon="10.860549431696354"><ele>693.6666666666666</ele><time>2026-04-19T13:17:37.761Z</time></trkpt><trkpt lat="44.03945427855822" lon="10.86060284675345"><ele>694.5</ele><time>2026-04-19T13:17:38.761Z</time></trkpt><trkpt lat="44.03937465738809" lon="10.86065150287071"><ele>695.3333333333334</ele><time>2026-04-19T13:17:39.761Z</time></trkpt><trkpt lat="44.03929745927053" lon="10.860693372206027"><ele>696.1666666666667</ele><time>2026-04-19T13:17:40.761Z</time></trkpt><trkpt lat="44.03922505826821" lon="10.86072925768947"><ele>697.0</ele><time>2026-04-19T13:17:41.761Z</time></trkpt><trkpt lat="44.03916154872685" lon="10.860761014748737"><ele>696.3333333333334</ele><time>2026-04-19T13:17:42.761Z</time></trkpt><trkpt lat="44.03906410420598" lon="10.860822382597688"><ele>695.6666666666667</ele><time>2026-04-19T13:17:44.761Z</time></trkpt><trkpt lat="44.03900338535283" lon="10.860860662853439"><ele>695.0</ele><time>2026-04-19T13:17:46.761Z</time></trkpt><trkpt lat="44.038942233885194" lon="10.860812609558987"><ele>694.3333333333334</ele><time>2026-04-19T13:17:52.761Z</time></trkpt><trkpt lat="44.03890270817523" lon="10.860708748684326"><ele>693.6666666666666</ele><time>2026-04-19T13:17:54.761Z</time></trkpt><trkpt lat="44.03886457863396" lon="10.860575216462289"><ele>693.0</ele><time>2026-04-19T13:17:56.76Z</time></trkpt><trkpt lat="44.03883814383886" lon="10.860484187935123"><ele>693.0</ele><time>2026-04-19T13:17:57.76Z</time></trkpt><trkpt lat="44.0388115339893" lon="10.860370736768168"><ele>693.0</ele><time>2026-04-19T13:17:58.76Z</time></trkpt><trkpt lat="44.0387913640117" lon="10.86025182055461"><ele>693.0</ele><time>2026-04-19T13:17:59.76Z</time></trkpt><trkpt lat="44.038780712863314" lon="10.860137858854003"><ele>693.0</ele><time>2026-04-19T13:18:00.761Z</time></trkpt><trkpt lat="44.0387943026367" lon="10.860021647337845"><ele>693.0</ele><time>2026-04-19T13:18:01.761Z</time></trkpt><trkpt lat="44.03877513449978" lon="10.8598950696497"><ele>693.0</ele><time>2026-04-19T13:18:02.761Z</time></trkpt><trkpt lat="44.03879394789797" lon="10.859765317139969"><ele>694.4</ele><time>2026-04-19T13:18:03.761Z</time></trkpt><trkpt lat="44.038797627985886" lon="10.859630534156484"><ele>695.8</ele><time>2026-04-19T13:18:04.761Z</time></trkpt><trkpt lat="44.03879567192683" lon="10.859484539623661"><ele>697.2</ele><time>2026-04-19T13:18:05.76Z</time></trkpt><trkpt lat="44.03877517018398" lon="10.859345219557849"><ele>698.6</ele><time>2026-04-19T13:18:06.761Z</time></trkpt><trkpt lat="44.03875352115017" lon="10.859198028641964"><ele>700.0</ele><time>2026-04-19T13:18:07.761Z</time></trkpt><trkpt lat="44.03872553360244" lon="10.85903526053134"><ele>702.0</ele><time>2026-04-19T13:18:08.761Z</time></trkpt><trkpt lat="44.03869267159458" lon="10.85887491929137"><ele>704.0</ele><time>2026-04-19T13:18:09.76Z</time></trkpt><trkpt lat="44.03865532104512" lon="10.858704301437198"><ele>706.0</ele><time>2026-04-19T13:18:10.76Z</time></trkpt><trkpt lat="44.03863915771208" lon="10.858536396900716"><ele>708.0</ele><time>2026-04-19T13:18:11.761Z</time></trkpt><trkpt lat="44.03859321236626" lon="10.858382473877047"><ele>708.0</ele><time>2026-04-19T13:18:12.76Z</time></trkpt><trkpt lat="44.038562288225016" lon="10.858219039121579"><ele>708.0</ele><time>2026-04-19T13:18:13.76Z</time></trkpt><trkpt lat="44.03852863476371" lon="10.858057468643569"><ele>708.0</ele><time>2026-04-19T13:18:14.76Z</time></trkpt><trkpt lat="44.038496039136604" lon="10.857898767815945"><ele>708.0</ele><time>2026-04-19T13:18:15.76Z</time></trkpt><trkpt lat="44.038466276203955" lon="10.857742579720007"><ele>707.0</ele><time>2026-04-19T13:18:16.76Z</time></trkpt><trkpt lat="44.03844281422879" lon="10.85759430052823"><ele>706.0</ele><time>2026-04-19T13:18:17.76Z</time></trkpt><trkpt lat="44.03841461675652" lon="10.857460613249211"><ele>705.0</ele><time>2026-04-19T13:18:18.76Z</time></trkpt><trkpt lat="44.03836271861872" lon="10.857341433211209"><ele>704.0</ele><time>2026-04-19T13:18:19.76Z</time></trkpt><trkpt lat="44.03829754049769" lon="10.857240962601105"><ele>703.0</ele><time>2026-04-19T13:18:20.76Z</time></trkpt><trkpt lat="44.03821982474828" lon="10.85716026940776"><ele>705.4</ele><time>2026-04-19T13:18:21.76Z</time></trkpt><trkpt lat="44.03814002458767" lon="10.857096676112437"><ele>707.8</ele><time>2026-04-19T13:18:22.76Z</time></trkpt><trkpt lat="44.03805668741129" lon="10.857039045405056"><ele>710.2</ele><time>2026-04-19T13:18:23.76Z</time></trkpt><trkpt lat="44.03798799197399" lon="10.856964680785177"><ele>712.6</ele><time>2026-04-19T13:18:24.76Z</time></trkpt><trkpt lat="44.03793344418213" lon="10.856865504051715"><ele>715.0</ele><time>2026-04-19T13:18:25.76Z</time></trkpt><trkpt lat="44.037899558395935" lon="10.856738041726109"><ele>715.0</ele><time>2026-04-19T13:18:26.76Z</time></trkpt><trkpt lat="44.0378755714146" lon="10.856599571661722"><ele>715.0</ele><time>2026-04-19T13:18:27.76Z</time></trkpt><trkpt lat="44.037866008314914" lon="10.85645279266681"><ele>715.0</ele><time>2026-04-19T13:18:28.76Z</time></trkpt><trkpt lat="44.03785236917824" lon="10.856302839074539"><ele>715.0</ele><time>2026-04-19T13:18:29.76Z</time></trkpt><trkpt lat="44.03783906183304" lon="10.856144506497419"><ele>715.0</ele><time>2026-04-19T13:18:30.76Z</time></trkpt><trkpt lat="44.03782597726326" lon="10.855986684458813"><ele>715.0</ele><time>2026-04-19T13:18:31.76Z</time></trkpt><trkpt lat="44.037813728268034" lon="10.855830118431449"><ele>715.0</ele><time>2026-04-19T13:18:32.76Z</time></trkpt><trkpt lat="44.03780656884993" lon="10.855677362887702"><ele>715.0</ele><time>2026-04-19T13:18:33.76Z</time></trkpt><trkpt lat="44.03779793445365" lon="10.855527097552127"><ele>715.0</ele><time>2026-04-19T13:18:34.76Z</time></trkpt><trkpt lat="44.03778713855554" lon="10.855372352333195"><ele>715.0</ele><time>2026-04-19T13:18:35.76Z</time></trkpt><trkpt lat="44.03777647712127" lon="10.855223032472805"><ele>714.6</ele><time>2026-04-19T13:18:36.76Z</time></trkpt><trkpt lat="44.03776342235714" lon="10.855072956368288"><ele>714.2</ele><time>2026-04-19T13:18:37.76Z</time></trkpt><trkpt lat="44.037741732685895" lon="10.854925679152576"><ele>713.8</ele><time>2026-04-19T13:18:38.76Z</time></trkpt><trkpt lat="44.03770575429574" lon="10.85478923761406"><ele>713.4</ele><time>2026-04-19T13:18:39.76Z</time></trkpt><trkpt lat="44.0376583522083" lon="10.85466723730085"><ele>713.0</ele><time>2026-04-19T13:18:40.76Z</time></trkpt><trkpt lat="44.03760173254606" lon="10.854558220708611"><ele>713.0</ele><time>2026-04-19T13:18:41.76Z</time></trkpt><trkpt lat="44.03753898425473" lon="10.854445127080671"><ele>713.0</ele><time>2026-04-19T13:18:42.76Z</time></trkpt><trkpt lat="44.037482067575866" lon="10.854329880922785"><ele>713.0</ele><time>2026-04-19T13:18:43.76Z</time></trkpt><trkpt lat="44.037426132094005" lon="10.854216998814946"><ele>713.0</ele><time>2026-04-19T13:18:44.76Z</time></trkpt><trkpt lat="44.03738415853886" lon="10.854097539339664"><ele>713.0</ele><time>2026-04-19T13:18:45.76Z</time></trkpt><trkpt lat="44.037358618816185" lon="10.85396816966066"><ele>713.8333333333333</ele><time>2026-04-19T13:18:46.76Z</time></trkpt><trkpt lat="44.03737364786756" lon="10.853834910002899"><ele>714.6666666666666</ele><time>2026-04-19T13:18:47.76Z</time></trkpt><trkpt lat="44.03739189140265" lon="10.853717767962799"><ele>715.5</ele><time>2026-04-19T13:18:48.76Z</time></trkpt><trkpt lat="44.03741986538626" lon="10.853601588378032"><ele>716.3333333333334</ele><time>2026-04-19T13:18:49.76Z</time></trkpt><trkpt lat="44.03745419387083" lon="10.853498114869282"><ele>717.1666666666667</ele><time>2026-04-19T13:18:50.76Z</time></trkpt><trkpt lat="44.037519241460295" lon="10.85342783125581"><ele>718.0</ele><time>2026-04-19T13:18:51.76Z</time></trkpt><trkpt lat="44.03759800332913" lon="10.853359732688606"><ele>716.0</ele><time>2026-04-19T13:18:52.76Z</time></trkpt><trkpt lat="44.03767839087128" lon="10.853281442014369"><ele>714.0</ele><time>2026-04-19T13:18:53.76Z</time></trkpt><trkpt lat="44.03774978107177" lon="10.853191907146808"><ele>712.0</ele><time>2026-04-19T13:18:54.76Z</time></trkpt><trkpt lat="44.03780371735643" lon="10.85307982224704"><ele>710.0</ele><time>2026-04-19T13:18:55.76Z</time></trkpt><trkpt lat="44.03782546219214" lon="10.852937330590281"><ele>708.0</ele><time>2026-04-19T13:18:56.76Z</time></trkpt><trkpt lat="44.03781255878577" lon="10.85279718191675"><ele>708.0</ele><time>2026-04-19T13:18:57.76Z</time></trkpt><trkpt lat="44.03779063218549" lon="10.852659323588176"><ele>708.0</ele><time>2026-04-19T13:18:58.76Z</time></trkpt><trkpt lat="44.0377724588327" lon="10.852523679093249"><ele>708.0</ele><time>2026-04-19T13:18:59.76Z</time></trkpt><trkpt lat="44.03774227044748" lon="10.852384407249689"><ele>708.0</ele><time>2026-04-19T13:19:00.76Z</time></trkpt><trkpt lat="44.03773612431435" lon="10.852237778884163"><ele>708.0</ele><time>2026-04-19T13:19:01.76Z</time></trkpt><trkpt lat="44.037708908149156" lon="10.852098135883"><ele>708.8</ele><time>2026-04-19T13:19:02.76Z</time></trkpt><trkpt lat="44.037682069895425" lon="10.851958665622385"><ele>709.5999999999999</ele><time>2026-04-19T13:19:03.76Z</time></trkpt><trkpt lat="44.03765542140268" lon="10.851820181485397"><ele>710.4000000000001</ele><time>2026-04-19T13:19:04.76Z</time></trkpt><trkpt lat="44.03763091421099" lon="10.851689679127622"><ele>711.2</ele><time>2026-04-19T13:19:05.76Z</time></trkpt><trkpt lat="44.03760889117757" lon="10.851563005271817"><ele>712.0</ele><time>2026-04-19T13:19:06.759Z</time></trkpt><trkpt lat="44.03759221643951" lon="10.851443283468154"><ele>712.0</ele><time>2026-04-19T13:19:07.759Z</time></trkpt><trkpt lat="44.03758415808423" lon="10.851328752295753"><ele>712.0</ele><time>2026-04-19T13:19:08.759Z</time></trkpt><trkpt lat="44.0375867419718" lon="10.85121213059952"><ele>712.0</ele><time>2026-04-19T13:19:09.759Z</time></trkpt><trkpt lat="44.03762008423187" lon="10.85110065115414"><ele>712.0</ele><time>2026-04-19T13:19:10.759Z</time></trkpt><trkpt lat="44.037654453902036" lon="10.85096344520803"><ele>712.0</ele><time>2026-04-19T13:19:11.759Z</time></trkpt><trkpt lat="44.03769172768161" lon="10.85081812693951"><ele>712.25</ele><time>2026-04-19T13:19:12.759Z</time></trkpt><trkpt lat="44.03773019173935" lon="10.850668168207932"><ele>712.5</ele><time>2026-04-19T13:19:13.759Z</time></trkpt><trkpt lat="44.03777224527431" lon="10.85051504210279"><ele>712.75</ele><time>2026-04-19T13:19:14.759Z</time></trkpt><trkpt lat="44.037812155129" lon="10.850367326264585"><ele>713.0</ele><time>2026-04-19T13:19:15.759Z</time></trkpt><trkpt lat="44.037854610759275" lon="10.8502101879071"><ele>713.0</ele><time>2026-04-19T13:19:16.759Z</time></trkpt><trkpt lat="44.03789654838292" lon="10.850068232642599"><ele>713.0</ele><time>2026-04-19T13:19:17.759Z</time></trkpt><trkpt lat="44.03794867228026" lon="10.849926561166834"><ele>713.0</ele><time>2026-04-19T13:19:18.759Z</time></trkpt><trkpt lat="44.03801243957603" lon="10.84978996458403"><ele>713.0</ele><time>2026-04-19T13:19:19.759Z</time></trkpt><trkpt lat="44.038080959438865" lon="10.849654145281185"><ele>713.0</ele><time>2026-04-19T13:19:20.759Z</time></trkpt><trkpt lat="44.03815311904382" lon="10.849511640264433"><ele>713.0</ele><time>2026-04-19T13:19:21.759Z</time></trkpt><trkpt lat="44.038222494863426" lon="10.84937418992021"><ele>713.0</ele><time>2026-04-19T13:19:22.759Z</time></trkpt><trkpt lat="44.03829395066984" lon="10.849233033703708"><ele>713.0</ele><time>2026-04-19T13:19:23.759Z</time></trkpt><trkpt lat="44.03836760144957" lon="10.849088513913175"><ele>715.5</ele><time>2026-04-19T13:19:24.759Z</time></trkpt><trkpt lat="44.038441733313874" lon="10.848943050122248"><ele>718.0</ele><time>2026-04-19T13:19:25.759Z</time></trkpt><trkpt lat="44.03851547601243" lon="10.848798349962186"><ele>720.5</ele><time>2026-04-19T13:19:26.759Z</time></trkpt><trkpt lat="44.03858936316999" lon="10.848653366343463"><ele>723.0</ele><time>2026-04-19T13:19:27.759Z</time></trkpt><trkpt lat="44.03866338500755" lon="10.848505274851526"><ele>722.0</ele><time>2026-04-19T13:19:28.759Z</time></trkpt><trkpt lat="44.038735873721734" lon="10.848359458651666"><ele>721.0</ele><time>2026-04-19T13:19:29.759Z</time></trkpt><trkpt lat="44.038805959512516" lon="10.8482184761015"><ele>720.0</ele><time>2026-04-19T13:19:30.759Z</time></trkpt><trkpt lat="44.038871901930385" lon="10.84808836185794"><ele>719.0</ele><time>2026-04-19T13:19:31.759Z</time></trkpt><trkpt lat="44.03893283297516" lon="10.847973194700428"><ele>719.0</ele><time>2026-04-19T13:19:32.759Z</time></trkpt><trkpt lat="44.038987076989784" lon="10.84787707908039"><ele>719.0</ele><time>2026-04-19T13:19:33.759Z</time></trkpt><trkpt lat="44.03903034496801" lon="10.847808019015693"><ele>719.0</ele><time>2026-04-19T13:19:34.759Z</time></trkpt><trkpt lat="44.039092260573156" lon="10.847724435912406"><ele>719.0</ele><time>2026-04-19T13:19:36.759Z</time></trkpt><trkpt lat="44.03912802544206" lon="10.847633643821096"><ele>719.0</ele><time>2026-04-19T13:19:38.759Z</time></trkpt><trkpt lat="44.03913385300028" lon="10.847495837589664"><ele>719.0</ele><time>2026-04-19T13:19:40.759Z</time></trkpt><trkpt lat="44.03911922560723" lon="10.847340172026078"><ele>720.5</ele><time>2026-04-19T13:19:42.759Z</time></trkpt><trkpt lat="44.039194062291855" lon="10.84721323710151"><ele>722.0</ele><time>2026-04-19T13:19:44.759Z</time></trkpt><trkpt lat="44.03924001846715" lon="10.847147649196724"><ele>723.5</ele><time>2026-04-19T13:19:45.759Z</time></trkpt><trkpt lat="44.03928884018381" lon="10.847076999524498"><ele>725.0</ele><time>2026-04-19T13:19:46.759Z</time></trkpt><trkpt lat="44.039346052619194" lon="10.847001518824154"><ele>726.5</ele><time>2026-04-19T13:19:47.759Z</time></trkpt><trkpt lat="44.03941037842467" lon="10.846915854708731"><ele>728.0</ele><time>2026-04-19T13:19:48.759Z</time></trkpt><trkpt lat="44.039470695224544" lon="10.846835529477879"><ele>727.4</ele><time>2026-04-19T13:19:49.759Z</time></trkpt><trkpt lat="44.03953183766723" lon="10.84675280899702"><ele>726.8</ele><time>2026-04-19T13:19:50.759Z</time></trkpt><trkpt lat="44.0395921467409" lon="10.846664294817362"><ele>726.2</ele><time>2026-04-19T13:19:51.759Z</time></trkpt><trkpt lat="44.039655005274554" lon="10.846569157863723"><ele>725.6</ele><time>2026-04-19T13:19:52.759Z</time></trkpt><trkpt lat="44.039720551349035" lon="10.846457777521323"><ele>725.0</ele><time>2026-04-19T13:19:53.759Z</time></trkpt><trkpt lat="44.03978032566634" lon="10.846336454878823"><ele>725.0</ele><time>2026-04-19T13:19:54.759Z</time></trkpt><trkpt lat="44.03983112014241" lon="10.846204783915104"><ele>725.0</ele><time>2026-04-19T13:19:55.759Z</time></trkpt><trkpt lat="44.03987970840795" lon="10.846068982569085"><ele>725.0</ele><time>2026-04-19T13:19:56.759Z</time></trkpt><trkpt lat="44.03993188275516" lon="10.845937801186079"><ele>725.0</ele><time>2026-04-19T13:19:57.759Z</time></trkpt><trkpt lat="44.039987015983996" lon="10.845814478965174"><ele>725.0</ele><time>2026-04-19T13:19:58.759Z</time></trkpt><trkpt lat="44.04004248083182" lon="10.845698027359251"><ele>726.2</ele><time>2026-04-19T13:19:59.759Z</time></trkpt><trkpt lat="44.04010630135825" lon="10.845580370767056"><ele>727.4</ele><time>2026-04-19T13:20:00.759Z</time></trkpt><trkpt lat="44.04017476533815" lon="10.845469316468703"><ele>728.5999999999999</ele><time>2026-04-19T13:20:01.759Z</time></trkpt><trkpt lat="44.0402428997226" lon="10.845355919837301"><ele>729.8</ele><time>2026-04-19T13:20:02.759Z</time></trkpt><trkpt lat="44.04030814936935" lon="10.845241404681527"><ele>731.0</ele><time>2026-04-19T13:20:03.759Z</time></trkpt><trkpt lat="44.0403667572797" lon="10.845118517343762"><ele>731.0</ele><time>2026-04-19T13:20:04.817Z</time></trkpt><trkpt lat="44.04041096833885" lon="10.844996985890562"><ele>731.0</ele><time>2026-04-19T13:20:05.817Z</time></trkpt><trkpt lat="44.040445748168366" lon="10.844860693613702"><ele>731.0</ele><time>2026-04-19T13:20:06.816Z</time></trkpt><trkpt lat="44.040474053261846" lon="10.844722758843679"><ele>731.0</ele><time>2026-04-19T13:20:07.816Z</time></trkpt><trkpt lat="44.04049721767014" lon="10.844585275213987"><ele>731.0</ele><time>2026-04-19T13:20:08.815Z</time></trkpt><trkpt lat="44.04050244781007" lon="10.844432991691615"><ele>731.8</ele><time>2026-04-19T13:20:09.815Z</time></trkpt><trkpt lat="44.04047187683374" lon="10.844272443735404"><ele>732.5999999999999</ele><time>2026-04-19T13:20:10.815Z</time></trkpt><trkpt lat="44.04042849357991" lon="10.844137755890715"><ele>733.4</ele><time>2026-04-19T13:20:11.815Z</time></trkpt><trkpt lat="44.04038568626695" lon="10.844011673609057"><ele>734.2</ele><time>2026-04-19T13:20:12.814Z</time></trkpt><trkpt lat="44.04035432424393" lon="10.843893059582108"><ele>735.0</ele><time>2026-04-19T13:20:13.814Z</time></trkpt><trkpt lat="44.04033405276989" lon="10.843772125750322"><ele>735.0</ele><time>2026-04-19T13:20:14.814Z</time></trkpt><trkpt lat="44.0403187299369" lon="10.843660712430243"><ele>735.0</ele><time>2026-04-19T13:20:15.814Z</time></trkpt><trkpt lat="44.04030839526102" lon="10.84355605098028"><ele>735.0</ele><time>2026-04-19T13:20:16.813Z</time></trkpt><trkpt lat="44.040299528418025" lon="10.84344812583707"><ele>735.0</ele><time>2026-04-19T13:20:17.814Z</time></trkpt><trkpt lat="44.04027103194123" lon="10.843356847070345"><ele>735.0</ele><time>2026-04-19T13:20:18.814Z</time></trkpt><trkpt lat="44.04022525898943" lon="10.843279600498335"><ele>735.0</ele><time>2026-04-19T13:20:19.814Z</time></trkpt><trkpt lat="44.04017669984613" lon="10.84320868076393"><ele>735.0</ele><time>2026-04-19T13:20:20.813Z</time></trkpt><trkpt lat="44.04012821061016" lon="10.843145941835724"><ele>735.4</ele><time>2026-04-19T13:20:21.813Z</time></trkpt><trkpt lat="44.040035913131945" lon="10.843032942880606"><ele>735.8</ele><time>2026-04-19T13:20:23.813Z</time></trkpt><trkpt lat="44.03996410255536" lon="10.842924729727935"><ele>736.2</ele><time>2026-04-19T13:20:25.813Z</time></trkpt><trkpt lat="44.039975201074384" lon="10.842793558616066"><ele>736.6</ele><time>2026-04-19T13:20:27.813Z</time></trkpt><trkpt lat="44.040019936837595" lon="10.842630583381526"><ele>737.0</ele><time>2026-04-19T13:20:29.813Z</time></trkpt><trkpt lat="44.040032554051315" lon="10.8425405052235"><ele>737.8333333333333</ele><time>2026-04-19T13:20:30.813Z</time></trkpt><trkpt lat="44.04003140664857" lon="10.842434032938213"><ele>738.6666666666666</ele><time>2026-04-19T13:20:31.813Z</time></trkpt><trkpt lat="44.03999028619353" lon="10.842323421105753"><ele>739.5</ele><time>2026-04-19T13:20:32.813Z</time></trkpt><trkpt lat="44.03992105450299" lon="10.842253495864389"><ele>740.3333333333334</ele><time>2026-04-19T13:20:33.812Z</time></trkpt><trkpt lat="44.0398637375184" lon="10.842205098523225"><ele>741.1666666666667</ele><time>2026-04-19T13:20:34.812Z</time></trkpt><trkpt lat="44.039801700227144" lon="10.842170501917053"><ele>742.0</ele><time>2026-04-19T13:20:35.812Z</time></trkpt><trkpt lat="44.039742983898634" lon="10.842126523203971"><ele>744.3333333333334</ele><time>2026-04-19T13:20:36.812Z</time></trkpt><trkpt lat="44.03969714838963" lon="10.842066135110562"><ele>746.6666666666667</ele><time>2026-04-19T13:20:37.812Z</time></trkpt><trkpt lat="44.03964525140126" lon="10.84190293331272"><ele>749.0</ele><time>2026-04-19T13:20:39.812Z</time></trkpt><trkpt lat="44.03962762815122" lon="10.841809219056369"><ele>751.3333333333334</ele><time>2026-04-19T13:20:40.812Z</time></trkpt><trkpt lat="44.0396154488188" lon="10.841710765146898"><ele>753.6666666666666</ele><time>2026-04-19T13:20:41.812Z</time></trkpt><trkpt lat="44.039604284753295" lon="10.841607497572216"><ele>756.0</ele><time>2026-04-19T13:20:42.812Z</time></trkpt><trkpt lat="44.0395898662883" lon="10.841491146034503"><ele>756.6666666666666</ele><time>2026-04-19T13:20:43.812Z</time></trkpt><trkpt lat="44.03956909371555" lon="10.841391560384858"><ele>757.3333333333334</ele><time>2026-04-19T13:20:44.812Z</time></trkpt><trkpt lat="44.039539338737185" lon="10.841285766133963"><ele>758.0</ele><time>2026-04-19T13:20:45.812Z</time></trkpt><trkpt lat="44.03951205642148" lon="10.84119096582596"><ele>758.6666666666667</ele><time>2026-04-19T13:20:46.812Z</time></trkpt><trkpt lat="44.03948665520516" lon="10.841095005780188"><ele>759.3333333333334</ele><time>2026-04-19T13:20:47.812Z</time></trkpt><trkpt lat="44.039470562611086" lon="10.840996857739874"><ele>760.0</ele><time>2026-04-19T13:20:48.812Z</time></trkpt><trkpt lat="44.03945206289881" lon="10.84089174801372"><ele>760.6666666666667</ele><time>2026-04-19T13:20:49.812Z</time></trkpt><trkpt lat="44.03943312865061" lon="10.840782447676784"><ele>761.3333333333334</ele><time>2026-04-19T13:20:50.812Z</time></trkpt><trkpt lat="44.03941517026239" lon="10.840674858549255"><ele>762.0</ele><time>2026-04-19T13:20:51.812Z</time></trkpt><trkpt lat="44.039398052153814" lon="10.840566391275079"><ele>762.6666666666666</ele><time>2026-04-19T13:20:52.812Z</time></trkpt><trkpt lat="44.03938166336831" lon="10.840462545288425"><ele>763.3333333333333</ele><time>2026-04-19T13:20:53.812Z</time></trkpt><trkpt lat="44.03936359322871" lon="10.840363062567391"><ele>764.0</ele><time>2026-04-19T13:20:54.812Z</time></trkpt><trkpt lat="44.039328759003176" lon="10.840268290331911"><ele>764.0</ele><time>2026-04-19T13:20:55.812Z</time></trkpt><trkpt lat="44.039313049543544" lon="10.840160051317898"><ele>764.0</ele><time>2026-04-19T13:20:56.812Z</time></trkpt><trkpt lat="44.03928574814668" lon="10.840053738003817"><ele>764.0</ele><time>2026-04-19T13:20:57.812Z</time></trkpt><trkpt lat="44.03926025100835" lon="10.839954232267543"><ele>764.0</ele><time>2026-04-19T13:20:58.812Z</time></trkpt><trkpt lat="44.03924714126842" lon="10.839859798166275"><ele>764.0</ele><time>2026-04-19T13:20:59.812Z</time></trkpt><trkpt lat="44.03919859452282" lon="10.839708957659548"><ele>764.0</ele><time>2026-04-19T13:21:01.812Z</time></trkpt><trkpt lat="44.03914096201862" lon="10.839586709505479"><ele>770.2</ele><time>2026-04-19T13:21:03.812Z</time></trkpt><trkpt lat="44.039038796036884" lon="10.839600489490726"><ele>776.4000000000001</ele><time>2026-04-19T13:21:05.812Z</time></trkpt><trkpt lat="44.0390181502117" lon="10.839690530280725"><ele>782.6</ele><time>2026-04-19T13:21:06.812Z</time></trkpt><trkpt lat="44.03902387655625" lon="10.839822557240232"><ele>788.8</ele><time>2026-04-19T13:21:08.812Z</time></trkpt><trkpt lat="44.03906857153608" lon="10.839942461928805"><ele>795.0</ele><time>2026-04-19T13:21:10.812Z</time></trkpt><trkpt lat="44.039111409103185" lon="10.840085018719364"><ele>794.0</ele><time>2026-04-19T13:21:12.812Z</time></trkpt><trkpt lat="44.03912106333972" lon="10.84017304790682"><ele>793.0</ele><time>2026-04-19T13:21:13.812Z</time></trkpt><trkpt lat="44.0391200530224" lon="10.840273881162064"><ele>792.0</ele><time>2026-04-19T13:21:14.812Z</time></trkpt><trkpt lat="44.039110522412415" lon="10.840376934538535"><ele>791.0</ele><time>2026-04-19T13:21:15.812Z</time></trkpt><trkpt lat="44.03910358033165" lon="10.840472099821445"><ele>790.0</ele><time>2026-04-19T13:21:16.812Z</time></trkpt><trkpt lat="44.0390877851809" lon="10.840567247774842"><ele>789.0</ele><time>2026-04-19T13:21:17.812Z</time></trkpt><trkpt lat="44.039058005872235" lon="10.840655203095524"><ele>788.0</ele><time>2026-04-19T13:21:18.812Z</time></trkpt><trkpt lat="44.039020764124544" lon="10.840739419493827"><ele>788.0</ele><time>2026-04-19T13:21:19.812Z</time></trkpt><trkpt lat="44.038978894599964" lon="10.840821594514784"><ele>788.0</ele><time>2026-04-19T13:21:20.812Z</time></trkpt><trkpt lat="44.0389298562021" lon="10.840892042681887"><ele>788.0</ele><time>2026-04-19T13:21:21.812Z</time></trkpt><trkpt lat="44.038879508637386" lon="10.840965578183827"><ele>788.0</ele><time>2026-04-19T13:21:22.812Z</time></trkpt><trkpt lat="44.038829379621646" lon="10.841036330325798"><ele>788.0</ele><time>2026-04-19T13:21:23.812Z</time></trkpt><trkpt lat="44.038777832729195" lon="10.841107133659039"><ele>788.0</ele><time>2026-04-19T13:21:24.812Z</time></trkpt><trkpt lat="44.03872609147523" lon="10.841173392376602"><ele>788.0</ele><time>2026-04-19T13:21:25.812Z</time></trkpt><trkpt lat="44.0386768949243" lon="10.84124257238707"><ele>788.0</ele><time>2026-04-19T13:21:26.812Z</time></trkpt><trkpt lat="44.03861484888531" lon="10.841308095835378"><ele>788.0</ele><time>2026-04-19T13:21:27.812Z</time></trkpt><trkpt lat="44.0385522283183" lon="10.841368621389384"><ele>788.0</ele><time>2026-04-19T13:21:28.812Z</time></trkpt><trkpt lat="44.038490495866135" lon="10.841425936619608"><ele>788.0</ele><time>2026-04-19T13:21:29.812Z</time></trkpt><trkpt lat="44.03842927036088" lon="10.841473435896965"><ele>788.0</ele><time>2026-04-19T13:21:30.812Z</time></trkpt><trkpt lat="44.03836295639961" lon="10.841517182718347"><ele>788.0</ele><time>2026-04-19T13:21:31.812Z</time></trkpt><trkpt lat="44.038301219617516" lon="10.841562957446188"><ele>788.0</ele><time>2026-04-19T13:21:32.812Z</time></trkpt><trkpt lat="44.03823617364582" lon="10.841606468704253"><ele>788.0</ele><time>2026-04-19T13:21:33.812Z</time></trkpt><trkpt lat="44.038170942295544" lon="10.841651165990392"><ele>788.0</ele><time>2026-04-19T13:21:34.812Z</time></trkpt><trkpt lat="44.038106779604156" lon="10.841692602146043"><ele>788.0</ele><time>2026-04-19T13:21:35.812Z</time></trkpt><trkpt lat="44.03804527987639" lon="10.841739113750096"><ele>788.0</ele><time>2026-04-19T13:21:36.812Z</time></trkpt><trkpt lat="44.03798503714465" lon="10.841788550941411"><ele>788.0</ele><time>2026-04-19T13:21:37.812Z</time></trkpt><trkpt lat="44.037929494180275" lon="10.841832786730059"><ele>788.0</ele><time>2026-04-19T13:21:38.812Z</time></trkpt><trkpt lat="44.03787119460574" lon="10.841881142298881"><ele>788.0</ele><time>2026-04-19T13:21:39.812Z</time></trkpt><trkpt lat="44.037829423347404" lon="10.841948209536872"><ele>787.8</ele><time>2026-04-19T13:21:40.812Z</time></trkpt><trkpt lat="44.03775639170816" lon="10.842061849963798"><ele>787.5999999999999</ele><time>2026-04-19T13:21:42.812Z</time></trkpt><trkpt lat="44.037756263418366" lon="10.84217162122179"><ele>787.4000000000001</ele><time>2026-04-19T13:21:43.812Z</time></trkpt><trkpt lat="44.03766557796408" lon="10.842255250669055"><ele>787.2</ele><time>2026-04-19T13:21:45.812Z</time></trkpt><trkpt lat="44.03756571551084" lon="10.84230367842045"><ele>787.0</ele><time>2026-04-19T13:21:47.812Z</time></trkpt><trkpt lat="44.03747207584788" lon="10.842330256197064"><ele>786.0</ele><time>2026-04-19T13:21:49.812Z</time></trkpt><trkpt lat="44.03743825448299" lon="10.842621181910056"><ele>785.0</ele><time>2026-04-19T13:23:18.811Z</time></trkpt><trkpt lat="44.037445069867985" lon="10.842758930217151"><ele>784.0</ele><time>2026-04-19T13:23:27.488Z</time></trkpt><trkpt lat="44.037359288421875" lon="10.842625168027455"><ele>783.0</ele><time>2026-04-19T13:23:42.814Z</time></trkpt><trkpt lat="44.037476131812255" lon="10.842767305754101"><ele>783.0</ele><time>2026-04-19T13:25:08.815Z</time></trkpt></trkseg></trk></gpx>